<?xml version="1.0" encoding="UTF-8" ?>
<gpx version="1.1" creator="TomTom" xmlns="http://www.topografix.com/GPX/1/1" xmlns:xsi="http://www.w3.org/2001/XMLSchema-instance" xsi:schemaLocation="http://www.topografix.com/GPX/1/1 http://www.topografix.com/GPX/1/1/gpx.xsd">
    <trk>
        <name>Drive to Kimballs 2026</name>
        <trkseg>
            <trkpt lat="42.623570" lon="-71.737550">
                <time>2026-05-05T15:15:50Z</time>
            </trkpt>
            <trkpt lat="42.623570" lon="-71.737550">
                <time>2026-05-05T15:15:51Z</time>
            </trkpt>
            <trkpt lat="42.623570" lon="-71.737550">
                <time>2026-05-05T15:15:52Z</time>
            </trkpt>
            <trkpt lat="42.623570" lon="-71.737550">
                <time>2026-05-05T15:15:53Z</time>
            </trkpt>
            <trkpt lat="42.623570" lon="-71.737550">
                <time>2026-05-05T15:15:54Z</time>
            </trkpt>
            <trkpt lat="42.623570" lon="-71.737550">
                <time>2026-05-05T15:15:55Z</time>
            </trkpt>
            <trkpt lat="42.623570" lon="-71.737550">
                <time>2026-05-05T15:15:56Z</time>
            </trkpt>
            <trkpt lat="42.623570" lon="-71.737550">
                <time>2026-05-05T15:15:57Z</time>
            </trkpt>
            <trkpt lat="42.623570" lon="-71.737550">
                <time>2026-05-05T15:15:58Z</time>
            </trkpt>
            <trkpt lat="42.623570" lon="-71.737550">
                <time>2026-05-05T15:15:59Z</time>
            </trkpt>
            <trkpt lat="42.623570" lon="-71.737550">
                <time>2026-05-05T15:16:00Z</time>
            </trkpt>
            <trkpt lat="42.623570" lon="-71.737550">
                <time>2026-05-05T15:16:01Z</time>
            </trkpt>
            <trkpt lat="42.623570" lon="-71.737550">
                <time>2026-05-05T15:16:02Z</time>
            </trkpt>
            <trkpt lat="42.623570" lon="-71.737550">
                <time>2026-05-05T15:16:03Z</time>
            </trkpt>
            <trkpt lat="42.623570" lon="-71.737550">
                <time>2026-05-05T15:16:04Z</time>
            </trkpt>
            <trkpt lat="42.623570" lon="-71.737550">
                <time>2026-05-05T15:16:05Z</time>
            </trkpt>
            <trkpt lat="42.623570" lon="-71.737550">
                <time>2026-05-05T15:16:06Z</time>
            </trkpt>
            <trkpt lat="42.623570" lon="-71.737550">
                <time>2026-05-05T15:16:07Z</time>
            </trkpt>
            <trkpt lat="42.623570" lon="-71.737550">
                <time>2026-05-05T15:16:08Z</time>
            </trkpt>
            <trkpt lat="42.623570" lon="-71.737550">
                <time>2026-05-05T15:16:09Z</time>
            </trkpt>
            <trkpt lat="42.623570" lon="-71.737550">
                <time>2026-05-05T15:16:10Z</time>
            </trkpt>
            <trkpt lat="42.623570" lon="-71.737550">
                <time>2026-05-05T15:16:11Z</time>
            </trkpt>
            <trkpt lat="42.623570" lon="-71.737550">
                <time>2026-05-05T15:16:12Z</time>
            </trkpt>
            <trkpt lat="42.623570" lon="-71.737550">
                <time>2026-05-05T15:16:13Z</time>
            </trkpt>
            <trkpt lat="42.623570" lon="-71.737550">
                <time>2026-05-05T15:16:14Z</time>
            </trkpt>
            <trkpt lat="42.623570" lon="-71.737550">
                <time>2026-05-05T15:16:15Z</time>
            </trkpt>
            <trkpt lat="42.623570" lon="-71.737550">
                <time>2026-05-05T15:16:16Z</time>
            </trkpt>
            <trkpt lat="42.623570" lon="-71.737550">
                <time>2026-05-05T15:16:17Z</time>
            </trkpt>
            <trkpt lat="42.623570" lon="-71.737550">
                <time>2026-05-05T15:16:18Z</time>
            </trkpt>
            <trkpt lat="42.623570" lon="-71.737550">
                <time>2026-05-05T15:16:19Z</time>
            </trkpt>
            <trkpt lat="42.623570" lon="-71.737550">
                <time>2026-05-05T15:16:20Z</time>
            </trkpt>
            <trkpt lat="42.623570" lon="-71.737550">
                <time>2026-05-05T15:16:21Z</time>
            </trkpt>
            <trkpt lat="42.623570" lon="-71.737550">
                <time>2026-05-05T15:16:22Z</time>
            </trkpt>
            <trkpt lat="42.623570" lon="-71.737550">
                <time>2026-05-05T15:16:23Z</time>
            </trkpt>
            <trkpt lat="42.623570" lon="-71.737550">
                <time>2026-05-05T15:16:24Z</time>
            </trkpt>
            <trkpt lat="42.623570" lon="-71.737550">
                <time>2026-05-05T15:16:25Z</time>
            </trkpt>
            <trkpt lat="42.623570" lon="-71.737550">
                <time>2026-05-05T15:16:26Z</time>
            </trkpt>
            <trkpt lat="42.623570" lon="-71.737550">
                <time>2026-05-05T15:16:27Z</time>
            </trkpt>
            <trkpt lat="42.623570" lon="-71.737550">
                <time>2026-05-05T15:16:28Z</time>
            </trkpt>
            <trkpt lat="42.623570" lon="-71.737550">
                <time>2026-05-05T15:16:29Z</time>
            </trkpt>
            <trkpt lat="42.623570" lon="-71.737550">
                <time>2026-05-05T15:16:30Z</time>
            </trkpt>
            <trkpt lat="42.623570" lon="-71.737550">
                <time>2026-05-05T15:16:31Z</time>
            </trkpt>
            <trkpt lat="42.623570" lon="-71.737550">
                <time>2026-05-05T15:16:32Z</time>
            </trkpt>
            <trkpt lat="42.623570" lon="-71.737550">
                <time>2026-05-05T15:16:33Z</time>
            </trkpt>
            <trkpt lat="42.623570" lon="-71.737550">
                <time>2026-05-05T15:16:34Z</time>
            </trkpt>
            <trkpt lat="42.623570" lon="-71.737550">
                <time>2026-05-05T15:16:35Z</time>
            </trkpt>
            <trkpt lat="42.623570" lon="-71.737550">
                <time>2026-05-05T15:16:36Z</time>
            </trkpt>
            <trkpt lat="42.623570" lon="-71.737550">
                <time>2026-05-05T15:16:37Z</time>
            </trkpt>
            <trkpt lat="42.623570" lon="-71.737550">
                <time>2026-05-05T15:16:38Z</time>
            </trkpt>
            <trkpt lat="42.623570" lon="-71.737550">
                <time>2026-05-05T15:16:39Z</time>
            </trkpt>
            <trkpt lat="42.623570" lon="-71.737550">
                <time>2026-05-05T15:16:40Z</time>
            </trkpt>
            <trkpt lat="42.623570" lon="-71.737550">
                <time>2026-05-05T15:16:41Z</time>
            </trkpt>
            <trkpt lat="42.623570" lon="-71.737550">
                <time>2026-05-05T15:16:42Z</time>
            </trkpt>
            <trkpt lat="42.623570" lon="-71.737550">
                <time>2026-05-05T15:16:43Z</time>
            </trkpt>
            <trkpt lat="42.623570" lon="-71.737550">
                <time>2026-05-05T15:16:44Z</time>
            </trkpt>
            <trkpt lat="42.623570" lon="-71.737550">
                <time>2026-05-05T15:16:45Z</time>
            </trkpt>
            <trkpt lat="42.623570" lon="-71.737550">
                <time>2026-05-05T15:16:46Z</time>
            </trkpt>
            <trkpt lat="42.623570" lon="-71.737550">
                <time>2026-05-05T15:16:47Z</time>
            </trkpt>
            <trkpt lat="42.623570" lon="-71.737550">
                <time>2026-05-05T15:16:48Z</time>
            </trkpt>
            <trkpt lat="42.623570" lon="-71.737550">
                <time>2026-05-05T15:16:49Z</time>
            </trkpt>
            <trkpt lat="42.623570" lon="-71.737550">
                <time>2026-05-05T15:16:50Z</time>
            </trkpt>
            <trkpt lat="42.623570" lon="-71.737550">
                <time>2026-05-05T15:16:51Z</time>
            </trkpt>
            <trkpt lat="42.623570" lon="-71.737550">
                <time>2026-05-05T15:16:52Z</time>
            </trkpt>
            <trkpt lat="42.623570" lon="-71.737550">
                <time>2026-05-05T15:16:53Z</time>
            </trkpt>
            <trkpt lat="42.623570" lon="-71.737550">
                <time>2026-05-05T15:16:54Z</time>
            </trkpt>
            <trkpt lat="42.623570" lon="-71.737550">
                <time>2026-05-05T15:16:55Z</time>
            </trkpt>
            <trkpt lat="42.623570" lon="-71.737550">
                <time>2026-05-05T15:16:56Z</time>
            </trkpt>
            <trkpt lat="42.623570" lon="-71.737550">
                <time>2026-05-05T15:16:57Z</time>
            </trkpt>
            <trkpt lat="42.623570" lon="-71.737550">
                <time>2026-05-05T15:16:58Z</time>
            </trkpt>
            <trkpt lat="42.623570" lon="-71.737550">
                <time>2026-05-05T15:16:59Z</time>
            </trkpt>
            <trkpt lat="42.623540" lon="-71.737500">
                <time>2026-05-05T15:25:13Z</time>
            </trkpt>
            <trkpt lat="42.623560" lon="-71.737550">
                <time>2026-05-05T15:25:14Z</time>
            </trkpt>
            <trkpt lat="42.623560" lon="-71.737540">
                <time>2026-05-05T15:25:15Z</time>
            </trkpt>
            <trkpt lat="42.623570" lon="-71.737570">
                <time>2026-05-05T15:25:16Z</time>
            </trkpt>
            <trkpt lat="42.623570" lon="-71.737570">
                <time>2026-05-05T15:25:17Z</time>
            </trkpt>
            <trkpt lat="42.623550" lon="-71.737620">
                <time>2026-05-05T15:25:18Z</time>
            </trkpt>
            <trkpt lat="42.623540" lon="-71.737650">
                <time>2026-05-05T15:25:19Z</time>
            </trkpt>
            <trkpt lat="42.623530" lon="-71.737670">
                <time>2026-05-05T15:25:20Z</time>
            </trkpt>
            <trkpt lat="42.623530" lon="-71.737680">
                <time>2026-05-05T15:25:21Z</time>
            </trkpt>
            <trkpt lat="42.623510" lon="-71.737700">
                <time>2026-05-05T15:25:22Z</time>
            </trkpt>
            <trkpt lat="42.623510" lon="-71.737710">
                <time>2026-05-05T15:25:23Z</time>
            </trkpt>
            <trkpt lat="42.623490" lon="-71.737730">
                <time>2026-05-05T15:25:24Z</time>
            </trkpt>
            <trkpt lat="42.623480" lon="-71.737730">
                <time>2026-05-05T15:25:25Z</time>
            </trkpt>
            <trkpt lat="42.623460" lon="-71.737720">
                <time>2026-05-05T15:25:26Z</time>
            </trkpt>
            <trkpt lat="42.623450" lon="-71.737700">
                <time>2026-05-05T15:25:27Z</time>
            </trkpt>
            <trkpt lat="42.623440" lon="-71.737680">
                <time>2026-05-05T15:25:28Z</time>
            </trkpt>
            <trkpt lat="42.623440" lon="-71.737640">
                <time>2026-05-05T15:25:29Z</time>
            </trkpt>
            <trkpt lat="42.623460" lon="-71.737600">
                <time>2026-05-05T15:25:30Z</time>
            </trkpt>
            <trkpt lat="42.623470" lon="-71.737550">
                <time>2026-05-05T15:25:31Z</time>
            </trkpt>
            <trkpt lat="42.623480" lon="-71.737510">
                <time>2026-05-05T15:25:32Z</time>
            </trkpt>
            <trkpt lat="42.623480" lon="-71.737470">
                <time>2026-05-05T15:25:33Z</time>
            </trkpt>
            <trkpt lat="42.623470" lon="-71.737440">
                <time>2026-05-05T15:25:34Z</time>
            </trkpt>
            <trkpt lat="42.623450" lon="-71.737410">
                <time>2026-05-05T15:25:35Z</time>
            </trkpt>
            <trkpt lat="42.623430" lon="-71.737400">
                <time>2026-05-05T15:25:36Z</time>
            </trkpt>
            <trkpt lat="42.623400" lon="-71.737410">
                <time>2026-05-05T15:25:37Z</time>
            </trkpt>
            <trkpt lat="42.623380" lon="-71.737430">
                <time>2026-05-05T15:25:38Z</time>
            </trkpt>
            <trkpt lat="42.623350" lon="-71.737470">
                <time>2026-05-05T15:25:39Z</time>
            </trkpt>
            <trkpt lat="42.623320" lon="-71.737500">
                <time>2026-05-05T15:25:40Z</time>
            </trkpt>
            <trkpt lat="42.623300" lon="-71.737540">
                <time>2026-05-05T15:25:41Z</time>
            </trkpt>
            <trkpt lat="42.623270" lon="-71.737570">
                <time>2026-05-05T15:25:42Z</time>
            </trkpt>
            <trkpt lat="42.623250" lon="-71.737610">
                <time>2026-05-05T15:25:43Z</time>
            </trkpt>
            <trkpt lat="42.623230" lon="-71.737640">
                <time>2026-05-05T15:25:44Z</time>
            </trkpt>
            <trkpt lat="42.623200" lon="-71.737670">
                <time>2026-05-05T15:25:45Z</time>
            </trkpt>
            <trkpt lat="42.623180" lon="-71.737690">
                <time>2026-05-05T15:25:46Z</time>
            </trkpt>
            <trkpt lat="42.623170" lon="-71.737700">
                <time>2026-05-05T15:25:47Z</time>
            </trkpt>
            <trkpt lat="42.623160" lon="-71.737720">
                <time>2026-05-05T15:25:48Z</time>
            </trkpt>
            <trkpt lat="42.623150" lon="-71.737730">
                <time>2026-05-05T15:25:49Z</time>
            </trkpt>
            <trkpt lat="42.623130" lon="-71.737740">
                <time>2026-05-05T15:25:50Z</time>
            </trkpt>
            <trkpt lat="42.623110" lon="-71.737740">
                <time>2026-05-05T15:25:51Z</time>
            </trkpt>
            <trkpt lat="42.623080" lon="-71.737730">
                <time>2026-05-05T15:25:52Z</time>
            </trkpt>
            <trkpt lat="42.623060" lon="-71.737720">
                <time>2026-05-05T15:25:53Z</time>
            </trkpt>
            <trkpt lat="42.623050" lon="-71.737720">
                <time>2026-05-05T15:25:54Z</time>
            </trkpt>
            <trkpt lat="42.623040" lon="-71.737710">
                <time>2026-05-05T15:25:55Z</time>
            </trkpt>
            <trkpt lat="42.623010" lon="-71.737720">
                <time>2026-05-05T15:25:56Z</time>
            </trkpt>
            <trkpt lat="42.622960" lon="-71.737760">
                <time>2026-05-05T15:25:57Z</time>
            </trkpt>
            <trkpt lat="42.622900" lon="-71.737830">
                <time>2026-05-05T15:25:58Z</time>
            </trkpt>
            <trkpt lat="42.622830" lon="-71.737910">
                <time>2026-05-05T15:25:59Z</time>
            </trkpt>
            <trkpt lat="42.622760" lon="-71.738000">
                <time>2026-05-05T15:26:00Z</time>
            </trkpt>
            <trkpt lat="42.622680" lon="-71.738100">
                <time>2026-05-05T15:26:01Z</time>
            </trkpt>
            <trkpt lat="42.622580" lon="-71.738220">
                <time>2026-05-05T15:26:02Z</time>
            </trkpt>
            <trkpt lat="42.622470" lon="-71.738350">
                <time>2026-05-05T15:26:03Z</time>
            </trkpt>
            <trkpt lat="42.622360" lon="-71.738480">
                <time>2026-05-05T15:26:04Z</time>
            </trkpt>
            <trkpt lat="42.622250" lon="-71.738610">
                <time>2026-05-05T15:26:05Z</time>
            </trkpt>
            <trkpt lat="42.622120" lon="-71.738760">
                <time>2026-05-05T15:26:06Z</time>
            </trkpt>
            <trkpt lat="42.621990" lon="-71.738900">
                <time>2026-05-05T15:26:07Z</time>
            </trkpt>
            <trkpt lat="42.621860" lon="-71.739050">
                <time>2026-05-05T15:26:08Z</time>
            </trkpt>
            <trkpt lat="42.621730" lon="-71.739200">
                <time>2026-05-05T15:26:09Z</time>
            </trkpt>
            <trkpt lat="42.621580" lon="-71.739350">
                <time>2026-05-05T15:26:10Z</time>
            </trkpt>
            <trkpt lat="42.621430" lon="-71.739500">
                <time>2026-05-05T15:26:11Z</time>
            </trkpt>
            <trkpt lat="42.621290" lon="-71.739670">
                <time>2026-05-05T15:26:12Z</time>
            </trkpt>
            <trkpt lat="42.621140" lon="-71.739830">
                <time>2026-05-05T15:26:13Z</time>
            </trkpt>
            <trkpt lat="42.620980" lon="-71.739990">
                <time>2026-05-05T15:26:14Z</time>
            </trkpt>
            <trkpt lat="42.620820" lon="-71.740150">
                <time>2026-05-05T15:26:15Z</time>
            </trkpt>
            <trkpt lat="42.620670" lon="-71.740320">
                <time>2026-05-05T15:26:16Z</time>
            </trkpt>
            <trkpt lat="42.620510" lon="-71.740480">
                <time>2026-05-05T15:26:17Z</time>
            </trkpt>
            <trkpt lat="42.620350" lon="-71.740640">
                <time>2026-05-05T15:26:18Z</time>
            </trkpt>
            <trkpt lat="42.620190" lon="-71.740790">
                <time>2026-05-05T15:26:19Z</time>
            </trkpt>
            <trkpt lat="42.620030" lon="-71.740950">
                <time>2026-05-05T15:26:20Z</time>
            </trkpt>
            <trkpt lat="42.619860" lon="-71.741100">
                <time>2026-05-05T15:26:21Z</time>
            </trkpt>
            <trkpt lat="42.619690" lon="-71.741240">
                <time>2026-05-05T15:26:22Z</time>
            </trkpt>
            <trkpt lat="42.619520" lon="-71.741380">
                <time>2026-05-05T15:26:23Z</time>
            </trkpt>
            <trkpt lat="42.619350" lon="-71.741530">
                <time>2026-05-05T15:26:24Z</time>
            </trkpt>
            <trkpt lat="42.619180" lon="-71.741680">
                <time>2026-05-05T15:26:25Z</time>
            </trkpt>
            <trkpt lat="42.619000" lon="-71.741810">
                <time>2026-05-05T15:26:26Z</time>
            </trkpt>
            <trkpt lat="42.618820" lon="-71.741950">
                <time>2026-05-05T15:26:27Z</time>
            </trkpt>
            <trkpt lat="42.618650" lon="-71.742080">
                <time>2026-05-05T15:26:28Z</time>
            </trkpt>
            <trkpt lat="42.618470" lon="-71.742200">
                <time>2026-05-05T15:26:29Z</time>
            </trkpt>
            <trkpt lat="42.618290" lon="-71.742330">
                <time>2026-05-05T15:26:30Z</time>
            </trkpt>
            <trkpt lat="42.618120" lon="-71.742460">
                <time>2026-05-05T15:26:31Z</time>
            </trkpt>
            <trkpt lat="42.617940" lon="-71.742590">
                <time>2026-05-05T15:26:32Z</time>
            </trkpt>
            <trkpt lat="42.617760" lon="-71.742720">
                <time>2026-05-05T15:26:33Z</time>
            </trkpt>
            <trkpt lat="42.617580" lon="-71.742850">
                <time>2026-05-05T15:26:34Z</time>
            </trkpt>
            <trkpt lat="42.617410" lon="-71.742970">
                <time>2026-05-05T15:26:35Z</time>
            </trkpt>
            <trkpt lat="42.617230" lon="-71.743080">
                <time>2026-05-05T15:26:36Z</time>
            </trkpt>
            <trkpt lat="42.617070" lon="-71.743200">
                <time>2026-05-05T15:26:37Z</time>
            </trkpt>
            <trkpt lat="42.616900" lon="-71.743310">
                <time>2026-05-05T15:26:38Z</time>
            </trkpt>
            <trkpt lat="42.616740" lon="-71.743430">
                <time>2026-05-05T15:26:39Z</time>
            </trkpt>
            <trkpt lat="42.616570" lon="-71.743550">
                <time>2026-05-05T15:26:40Z</time>
            </trkpt>
            <trkpt lat="42.616400" lon="-71.743670">
                <time>2026-05-05T15:26:41Z</time>
            </trkpt>
            <trkpt lat="42.616240" lon="-71.743790">
                <time>2026-05-05T15:26:42Z</time>
            </trkpt>
            <trkpt lat="42.616080" lon="-71.743910">
                <time>2026-05-05T15:26:43Z</time>
            </trkpt>
            <trkpt lat="42.615920" lon="-71.744020">
                <time>2026-05-05T15:26:44Z</time>
            </trkpt>
            <trkpt lat="42.615760" lon="-71.744130">
                <time>2026-05-05T15:26:45Z</time>
            </trkpt>
            <trkpt lat="42.615610" lon="-71.744240">
                <time>2026-05-05T15:26:46Z</time>
            </trkpt>
            <trkpt lat="42.615460" lon="-71.744350">
                <time>2026-05-05T15:26:47Z</time>
            </trkpt>
            <trkpt lat="42.615310" lon="-71.744450">
                <time>2026-05-05T15:26:48Z</time>
            </trkpt>
            <trkpt lat="42.615170" lon="-71.744550">
                <time>2026-05-05T15:26:49Z</time>
            </trkpt>
            <trkpt lat="42.615040" lon="-71.744640">
                <time>2026-05-05T15:26:50Z</time>
            </trkpt>
            <trkpt lat="42.614910" lon="-71.744730">
                <time>2026-05-05T15:26:51Z</time>
            </trkpt>
            <trkpt lat="42.614790" lon="-71.744800">
                <time>2026-05-05T15:26:52Z</time>
            </trkpt>
            <trkpt lat="42.614690" lon="-71.744870">
                <time>2026-05-05T15:26:53Z</time>
            </trkpt>
            <trkpt lat="42.614630" lon="-71.744940">
                <time>2026-05-05T15:26:54Z</time>
            </trkpt>
            <trkpt lat="42.614600" lon="-71.745030">
                <time>2026-05-05T15:26:55Z</time>
            </trkpt>
            <trkpt lat="42.614600" lon="-71.745120">
                <time>2026-05-05T15:26:56Z</time>
            </trkpt>
            <trkpt lat="42.614640" lon="-71.745210">
                <time>2026-05-05T15:26:57Z</time>
            </trkpt>
            <trkpt lat="42.614690" lon="-71.745290">
                <time>2026-05-05T15:26:58Z</time>
            </trkpt>
            <trkpt lat="42.614750" lon="-71.745380">
                <time>2026-05-05T15:26:59Z</time>
            </trkpt>
            <trkpt lat="42.614840" lon="-71.745450">
                <time>2026-05-05T15:27:00Z</time>
            </trkpt>
            <trkpt lat="42.614930" lon="-71.745500">
                <time>2026-05-05T15:27:01Z</time>
            </trkpt>
            <trkpt lat="42.615030" lon="-71.745530">
                <time>2026-05-05T15:27:02Z</time>
            </trkpt>
            <trkpt lat="42.615150" lon="-71.745560">
                <time>2026-05-05T15:27:03Z</time>
            </trkpt>
            <trkpt lat="42.615270" lon="-71.745590">
                <time>2026-05-05T15:27:04Z</time>
            </trkpt>
            <trkpt lat="42.615380" lon="-71.745630">
                <time>2026-05-05T15:27:05Z</time>
            </trkpt>
            <trkpt lat="42.615500" lon="-71.745670">
                <time>2026-05-05T15:27:06Z</time>
            </trkpt>
            <trkpt lat="42.615610" lon="-71.745710">
                <time>2026-05-05T15:27:07Z</time>
            </trkpt>
            <trkpt lat="42.615730" lon="-71.745750">
                <time>2026-05-05T15:27:08Z</time>
            </trkpt>
            <trkpt lat="42.615850" lon="-71.745810">
                <time>2026-05-05T15:27:09Z</time>
            </trkpt>
            <trkpt lat="42.615980" lon="-71.745880">
                <time>2026-05-05T15:27:10Z</time>
            </trkpt>
            <trkpt lat="42.616120" lon="-71.745960">
                <time>2026-05-05T15:27:11Z</time>
            </trkpt>
            <trkpt lat="42.616260" lon="-71.746030">
                <time>2026-05-05T15:27:12Z</time>
            </trkpt>
            <trkpt lat="42.616400" lon="-71.746130">
                <time>2026-05-05T15:27:13Z</time>
            </trkpt>
            <trkpt lat="42.616540" lon="-71.746220">
                <time>2026-05-05T15:27:14Z</time>
            </trkpt>
            <trkpt lat="42.616680" lon="-71.746300">
                <time>2026-05-05T15:27:15Z</time>
            </trkpt>
            <trkpt lat="42.616830" lon="-71.746390">
                <time>2026-05-05T15:27:16Z</time>
            </trkpt>
            <trkpt lat="42.616960" lon="-71.746470">
                <time>2026-05-05T15:27:17Z</time>
            </trkpt>
            <trkpt lat="42.617090" lon="-71.746550">
                <time>2026-05-05T15:27:18Z</time>
            </trkpt>
            <trkpt lat="42.617220" lon="-71.746640">
                <time>2026-05-05T15:27:19Z</time>
            </trkpt>
            <trkpt lat="42.617350" lon="-71.746720">
                <time>2026-05-05T15:27:20Z</time>
            </trkpt>
            <trkpt lat="42.617480" lon="-71.746800">
                <time>2026-05-05T15:27:21Z</time>
            </trkpt>
            <trkpt lat="42.617610" lon="-71.746880">
                <time>2026-05-05T15:27:22Z</time>
            </trkpt>
            <trkpt lat="42.617740" lon="-71.746950">
                <time>2026-05-05T15:27:23Z</time>
            </trkpt>
            <trkpt lat="42.617880" lon="-71.747010">
                <time>2026-05-05T15:27:24Z</time>
            </trkpt>
            <trkpt lat="42.618010" lon="-71.747050">
                <time>2026-05-05T15:27:25Z</time>
            </trkpt>
            <trkpt lat="42.618160" lon="-71.747080">
                <time>2026-05-05T15:27:26Z</time>
            </trkpt>
            <trkpt lat="42.618320" lon="-71.747100">
                <time>2026-05-05T15:27:27Z</time>
            </trkpt>
            <trkpt lat="42.618480" lon="-71.747100">
                <time>2026-05-05T15:27:28Z</time>
            </trkpt>
            <trkpt lat="42.618640" lon="-71.747110">
                <time>2026-05-05T15:27:29Z</time>
            </trkpt>
            <trkpt lat="42.618800" lon="-71.747110">
                <time>2026-05-05T15:27:30Z</time>
            </trkpt>
            <trkpt lat="42.618970" lon="-71.747120">
                <time>2026-05-05T15:27:31Z</time>
            </trkpt>
            <trkpt lat="42.619130" lon="-71.747130">
                <time>2026-05-05T15:27:32Z</time>
            </trkpt>
            <trkpt lat="42.619290" lon="-71.747160">
                <time>2026-05-05T15:27:33Z</time>
            </trkpt>
            <trkpt lat="42.619450" lon="-71.747190">
                <time>2026-05-05T15:27:34Z</time>
            </trkpt>
            <trkpt lat="42.619600" lon="-71.747210">
                <time>2026-05-05T15:27:35Z</time>
            </trkpt>
            <trkpt lat="42.619760" lon="-71.747250">
                <time>2026-05-05T15:27:36Z</time>
            </trkpt>
            <trkpt lat="42.619910" lon="-71.747280">
                <time>2026-05-05T15:27:37Z</time>
            </trkpt>
            <trkpt lat="42.620070" lon="-71.747320">
                <time>2026-05-05T15:27:38Z</time>
            </trkpt>
            <trkpt lat="42.620230" lon="-71.747350">
                <time>2026-05-05T15:27:39Z</time>
            </trkpt>
            <trkpt lat="42.620390" lon="-71.747380">
                <time>2026-05-05T15:27:40Z</time>
            </trkpt>
            <trkpt lat="42.620550" lon="-71.747420">
                <time>2026-05-05T15:27:41Z</time>
            </trkpt>
            <trkpt lat="42.620710" lon="-71.747470">
                <time>2026-05-05T15:27:42Z</time>
            </trkpt>
            <trkpt lat="42.620860" lon="-71.747510">
                <time>2026-05-05T15:27:43Z</time>
            </trkpt>
            <trkpt lat="42.621020" lon="-71.747560">
                <time>2026-05-05T15:27:44Z</time>
            </trkpt>
            <trkpt lat="42.621180" lon="-71.747610">
                <time>2026-05-05T15:27:45Z</time>
            </trkpt>
            <trkpt lat="42.621340" lon="-71.747660">
                <time>2026-05-05T15:27:46Z</time>
            </trkpt>
            <trkpt lat="42.621500" lon="-71.747710">
                <time>2026-05-05T15:27:47Z</time>
            </trkpt>
            <trkpt lat="42.621670" lon="-71.747760">
                <time>2026-05-05T15:27:48Z</time>
            </trkpt>
            <trkpt lat="42.621830" lon="-71.747820">
                <time>2026-05-05T15:27:49Z</time>
            </trkpt>
            <trkpt lat="42.622000" lon="-71.747880">
                <time>2026-05-05T15:27:50Z</time>
            </trkpt>
            <trkpt lat="42.622160" lon="-71.747940">
                <time>2026-05-05T15:27:51Z</time>
            </trkpt>
            <trkpt lat="42.622330" lon="-71.748000">
                <time>2026-05-05T15:27:52Z</time>
            </trkpt>
            <trkpt lat="42.622500" lon="-71.748060">
                <time>2026-05-05T15:27:53Z</time>
            </trkpt>
            <trkpt lat="42.622670" lon="-71.748110">
                <time>2026-05-05T15:27:54Z</time>
            </trkpt>
            <trkpt lat="42.622840" lon="-71.748160">
                <time>2026-05-05T15:27:55Z</time>
            </trkpt>
            <trkpt lat="42.623000" lon="-71.748220">
                <time>2026-05-05T15:27:56Z</time>
            </trkpt>
            <trkpt lat="42.623170" lon="-71.748270">
                <time>2026-05-05T15:27:57Z</time>
            </trkpt>
            <trkpt lat="42.623340" lon="-71.748330">
                <time>2026-05-05T15:27:58Z</time>
            </trkpt>
            <trkpt lat="42.623500" lon="-71.748380">
                <time>2026-05-05T15:27:59Z</time>
            </trkpt>
            <trkpt lat="42.623670" lon="-71.748430">
                <time>2026-05-05T15:28:00Z</time>
            </trkpt>
            <trkpt lat="42.623850" lon="-71.748470">
                <time>2026-05-05T15:28:01Z</time>
            </trkpt>
            <trkpt lat="42.624020" lon="-71.748500">
                <time>2026-05-05T15:28:02Z</time>
            </trkpt>
            <trkpt lat="42.624190" lon="-71.748530">
                <time>2026-05-05T15:28:03Z</time>
            </trkpt>
            <trkpt lat="42.624360" lon="-71.748540">
                <time>2026-05-05T15:28:04Z</time>
            </trkpt>
            <trkpt lat="42.624540" lon="-71.748550">
                <time>2026-05-05T15:28:05Z</time>
            </trkpt>
            <trkpt lat="42.624720" lon="-71.748560">
                <time>2026-05-05T15:28:06Z</time>
            </trkpt>
            <trkpt lat="42.624900" lon="-71.748580">
                <time>2026-05-05T15:28:07Z</time>
            </trkpt>
            <trkpt lat="42.625070" lon="-71.748580">
                <time>2026-05-05T15:28:08Z</time>
            </trkpt>
            <trkpt lat="42.625250" lon="-71.748590">
                <time>2026-05-05T15:28:09Z</time>
            </trkpt>
            <trkpt lat="42.625430" lon="-71.748600">
                <time>2026-05-05T15:28:10Z</time>
            </trkpt>
            <trkpt lat="42.625600" lon="-71.748610">
                <time>2026-05-05T15:28:11Z</time>
            </trkpt>
            <trkpt lat="42.625780" lon="-71.748620">
                <time>2026-05-05T15:28:12Z</time>
            </trkpt>
            <trkpt lat="42.625950" lon="-71.748620">
                <time>2026-05-05T15:28:13Z</time>
            </trkpt>
            <trkpt lat="42.626120" lon="-71.748630">
                <time>2026-05-05T15:28:14Z</time>
            </trkpt>
            <trkpt lat="42.626300" lon="-71.748640">
                <time>2026-05-05T15:28:15Z</time>
            </trkpt>
            <trkpt lat="42.626470" lon="-71.748650">
                <time>2026-05-05T15:28:16Z</time>
            </trkpt>
            <trkpt lat="42.626650" lon="-71.748660">
                <time>2026-05-05T15:28:17Z</time>
            </trkpt>
            <trkpt lat="42.626820" lon="-71.748670">
                <time>2026-05-05T15:28:18Z</time>
            </trkpt>
            <trkpt lat="42.627000" lon="-71.748680">
                <time>2026-05-05T15:28:19Z</time>
            </trkpt>
            <trkpt lat="42.627170" lon="-71.748700">
                <time>2026-05-05T15:28:20Z</time>
            </trkpt>
            <trkpt lat="42.627340" lon="-71.748700">
                <time>2026-05-05T15:28:21Z</time>
            </trkpt>
            <trkpt lat="42.627520" lon="-71.748720">
                <time>2026-05-05T15:28:22Z</time>
            </trkpt>
            <trkpt lat="42.627690" lon="-71.748730">
                <time>2026-05-05T15:28:23Z</time>
            </trkpt>
            <trkpt lat="42.627850" lon="-71.748740">
                <time>2026-05-05T15:28:24Z</time>
            </trkpt>
            <trkpt lat="42.628020" lon="-71.748730">
                <time>2026-05-05T15:28:25Z</time>
            </trkpt>
            <trkpt lat="42.628190" lon="-71.748710">
                <time>2026-05-05T15:28:26Z</time>
            </trkpt>
            <trkpt lat="42.628360" lon="-71.748660">
                <time>2026-05-05T15:28:27Z</time>
            </trkpt>
            <trkpt lat="42.628530" lon="-71.748610">
                <time>2026-05-05T15:28:28Z</time>
            </trkpt>
            <trkpt lat="42.628690" lon="-71.748550">
                <time>2026-05-05T15:28:29Z</time>
            </trkpt>
            <trkpt lat="42.628860" lon="-71.748490">
                <time>2026-05-05T15:28:30Z</time>
            </trkpt>
            <trkpt lat="42.629030" lon="-71.748420">
                <time>2026-05-05T15:28:31Z</time>
            </trkpt>
            <trkpt lat="42.629200" lon="-71.748340">
                <time>2026-05-05T15:28:32Z</time>
            </trkpt>
            <trkpt lat="42.629370" lon="-71.748270">
                <time>2026-05-05T15:28:33Z</time>
            </trkpt>
            <trkpt lat="42.629540" lon="-71.748200">
                <time>2026-05-05T15:28:34Z</time>
            </trkpt>
            <trkpt lat="42.629710" lon="-71.748120">
                <time>2026-05-05T15:28:35Z</time>
            </trkpt>
            <trkpt lat="42.629880" lon="-71.748040">
                <time>2026-05-05T15:28:36Z</time>
            </trkpt>
            <trkpt lat="42.630050" lon="-71.747970">
                <time>2026-05-05T15:28:37Z</time>
            </trkpt>
            <trkpt lat="42.630220" lon="-71.747890">
                <time>2026-05-05T15:28:38Z</time>
            </trkpt>
            <trkpt lat="42.630380" lon="-71.747820">
                <time>2026-05-05T15:28:39Z</time>
            </trkpt>
            <trkpt lat="42.630550" lon="-71.747740">
                <time>2026-05-05T15:28:40Z</time>
            </trkpt>
            <trkpt lat="42.630720" lon="-71.747660">
                <time>2026-05-05T15:28:41Z</time>
            </trkpt>
            <trkpt lat="42.630890" lon="-71.747590">
                <time>2026-05-05T15:28:42Z</time>
            </trkpt>
            <trkpt lat="42.631050" lon="-71.747520">
                <time>2026-05-05T15:28:43Z</time>
            </trkpt>
            <trkpt lat="42.631210" lon="-71.747440">
                <time>2026-05-05T15:28:44Z</time>
            </trkpt>
            <trkpt lat="42.631370" lon="-71.747380">
                <time>2026-05-05T15:28:45Z</time>
            </trkpt>
            <trkpt lat="42.631520" lon="-71.747310">
                <time>2026-05-05T15:28:46Z</time>
            </trkpt>
            <trkpt lat="42.631680" lon="-71.747250">
                <time>2026-05-05T15:28:47Z</time>
            </trkpt>
            <trkpt lat="42.631830" lon="-71.747170">
                <time>2026-05-05T15:28:48Z</time>
            </trkpt>
            <trkpt lat="42.631990" lon="-71.747100">
                <time>2026-05-05T15:28:49Z</time>
            </trkpt>
            <trkpt lat="42.632150" lon="-71.747020">
                <time>2026-05-05T15:28:50Z</time>
            </trkpt>
            <trkpt lat="42.632320" lon="-71.746930">
                <time>2026-05-05T15:28:51Z</time>
            </trkpt>
            <trkpt lat="42.632480" lon="-71.746850">
                <time>2026-05-05T15:28:52Z</time>
            </trkpt>
            <trkpt lat="42.632640" lon="-71.746760">
                <time>2026-05-05T15:28:53Z</time>
            </trkpt>
            <trkpt lat="42.632810" lon="-71.746670">
                <time>2026-05-05T15:28:54Z</time>
            </trkpt>
            <trkpt lat="42.632970" lon="-71.746570">
                <time>2026-05-05T15:28:55Z</time>
            </trkpt>
            <trkpt lat="42.633130" lon="-71.746480">
                <time>2026-05-05T15:28:56Z</time>
            </trkpt>
            <trkpt lat="42.633300" lon="-71.746390">
                <time>2026-05-05T15:28:57Z</time>
            </trkpt>
            <trkpt lat="42.633470" lon="-71.746300">
                <time>2026-05-05T15:28:58Z</time>
            </trkpt>
            <trkpt lat="42.633640" lon="-71.746200">
                <time>2026-05-05T15:28:59Z</time>
            </trkpt>
            <trkpt lat="42.633820" lon="-71.746100">
                <time>2026-05-05T15:29:00Z</time>
            </trkpt>
            <trkpt lat="42.633980" lon="-71.746010">
                <time>2026-05-05T15:29:01Z</time>
            </trkpt>
            <trkpt lat="42.634150" lon="-71.745920">
                <time>2026-05-05T15:29:02Z</time>
            </trkpt>
            <trkpt lat="42.634320" lon="-71.745820">
                <time>2026-05-05T15:29:03Z</time>
            </trkpt>
            <trkpt lat="42.634500" lon="-71.745740">
                <time>2026-05-05T15:29:04Z</time>
            </trkpt>
            <trkpt lat="42.634670" lon="-71.745670">
                <time>2026-05-05T15:29:05Z</time>
            </trkpt>
            <trkpt lat="42.634840" lon="-71.745620">
                <time>2026-05-05T15:29:06Z</time>
            </trkpt>
            <trkpt lat="42.635010" lon="-71.745590">
                <time>2026-05-05T15:29:07Z</time>
            </trkpt>
            <trkpt lat="42.635180" lon="-71.745590">
                <time>2026-05-05T15:29:08Z</time>
            </trkpt>
            <trkpt lat="42.635350" lon="-71.745600">
                <time>2026-05-05T15:29:09Z</time>
            </trkpt>
            <trkpt lat="42.635510" lon="-71.745610">
                <time>2026-05-05T15:29:10Z</time>
            </trkpt>
            <trkpt lat="42.635680" lon="-71.745640">
                <time>2026-05-05T15:29:11Z</time>
            </trkpt>
            <trkpt lat="42.635840" lon="-71.745660">
                <time>2026-05-05T15:29:12Z</time>
            </trkpt>
            <trkpt lat="42.636000" lon="-71.745680">
                <time>2026-05-05T15:29:13Z</time>
            </trkpt>
            <trkpt lat="42.636150" lon="-71.745690">
                <time>2026-05-05T15:29:14Z</time>
            </trkpt>
            <trkpt lat="42.636290" lon="-71.745710">
                <time>2026-05-05T15:29:15Z</time>
            </trkpt>
            <trkpt lat="42.636430" lon="-71.745710">
                <time>2026-05-05T15:29:16Z</time>
            </trkpt>
            <trkpt lat="42.636560" lon="-71.745710">
                <time>2026-05-05T15:29:17Z</time>
            </trkpt>
            <trkpt lat="42.636700" lon="-71.745740">
                <time>2026-05-05T15:29:18Z</time>
            </trkpt>
            <trkpt lat="42.636820" lon="-71.745740">
                <time>2026-05-05T15:29:19Z</time>
            </trkpt>
            <trkpt lat="42.636940" lon="-71.745740">
                <time>2026-05-05T15:29:20Z</time>
            </trkpt>
            <trkpt lat="42.637050" lon="-71.745740">
                <time>2026-05-05T15:29:21Z</time>
            </trkpt>
            <trkpt lat="42.637140" lon="-71.745730">
                <time>2026-05-05T15:29:22Z</time>
            </trkpt>
            <trkpt lat="42.637220" lon="-71.745720">
                <time>2026-05-05T15:29:23Z</time>
            </trkpt>
            <trkpt lat="42.637280" lon="-71.745700">
                <time>2026-05-05T15:29:24Z</time>
            </trkpt>
            <trkpt lat="42.637330" lon="-71.745650">
                <time>2026-05-05T15:29:25Z</time>
            </trkpt>
            <trkpt lat="42.637360" lon="-71.745580">
                <time>2026-05-05T15:29:26Z</time>
            </trkpt>
            <trkpt lat="42.637360" lon="-71.745500">
                <time>2026-05-05T15:29:27Z</time>
            </trkpt>
            <trkpt lat="42.637350" lon="-71.745400">
                <time>2026-05-05T15:29:28Z</time>
            </trkpt>
            <trkpt lat="42.637330" lon="-71.745300">
                <time>2026-05-05T15:29:29Z</time>
            </trkpt>
            <trkpt lat="42.637290" lon="-71.745160">
                <time>2026-05-05T15:29:30Z</time>
            </trkpt>
            <trkpt lat="42.637250" lon="-71.745030">
                <time>2026-05-05T15:29:31Z</time>
            </trkpt>
            <trkpt lat="42.637210" lon="-71.744890">
                <time>2026-05-05T15:29:32Z</time>
            </trkpt>
            <trkpt lat="42.637170" lon="-71.744750">
                <time>2026-05-05T15:29:33Z</time>
            </trkpt>
            <trkpt lat="42.637120" lon="-71.744590">
                <time>2026-05-05T15:29:34Z</time>
            </trkpt>
            <trkpt lat="42.637070" lon="-71.744420">
                <time>2026-05-05T15:29:35Z</time>
            </trkpt>
            <trkpt lat="42.637020" lon="-71.744260">
                <time>2026-05-05T15:29:36Z</time>
            </trkpt>
            <trkpt lat="42.636970" lon="-71.744090">
                <time>2026-05-05T15:29:37Z</time>
            </trkpt>
            <trkpt lat="42.636910" lon="-71.743920">
                <time>2026-05-05T15:29:38Z</time>
            </trkpt>
            <trkpt lat="42.636860" lon="-71.743730">
                <time>2026-05-05T15:29:39Z</time>
            </trkpt>
            <trkpt lat="42.636800" lon="-71.743550">
                <time>2026-05-05T15:29:40Z</time>
            </trkpt>
            <trkpt lat="42.636750" lon="-71.743370">
                <time>2026-05-05T15:29:41Z</time>
            </trkpt>
            <trkpt lat="42.636700" lon="-71.743190">
                <time>2026-05-05T15:29:42Z</time>
            </trkpt>
            <trkpt lat="42.636650" lon="-71.743010">
                <time>2026-05-05T15:29:43Z</time>
            </trkpt>
            <trkpt lat="42.636590" lon="-71.742830">
                <time>2026-05-05T15:29:44Z</time>
            </trkpt>
            <trkpt lat="42.636530" lon="-71.742640">
                <time>2026-05-05T15:29:45Z</time>
            </trkpt>
            <trkpt lat="42.636490" lon="-71.742460">
                <time>2026-05-05T15:29:46Z</time>
            </trkpt>
            <trkpt lat="42.636440" lon="-71.742270">
                <time>2026-05-05T15:29:47Z</time>
            </trkpt>
            <trkpt lat="42.636380" lon="-71.742080">
                <time>2026-05-05T15:29:48Z</time>
            </trkpt>
            <trkpt lat="42.636340" lon="-71.741910">
                <time>2026-05-05T15:29:49Z</time>
            </trkpt>
            <trkpt lat="42.636290" lon="-71.741720">
                <time>2026-05-05T15:29:50Z</time>
            </trkpt>
            <trkpt lat="42.636240" lon="-71.741550">
                <time>2026-05-05T15:29:51Z</time>
            </trkpt>
            <trkpt lat="42.636200" lon="-71.741370">
                <time>2026-05-05T15:29:52Z</time>
            </trkpt>
            <trkpt lat="42.636160" lon="-71.741190">
                <time>2026-05-05T15:29:53Z</time>
            </trkpt>
            <trkpt lat="42.636150" lon="-71.741000">
                <time>2026-05-05T15:29:54Z</time>
            </trkpt>
            <trkpt lat="42.636140" lon="-71.740810">
                <time>2026-05-05T15:29:55Z</time>
            </trkpt>
            <trkpt lat="42.636130" lon="-71.740620">
                <time>2026-05-05T15:29:56Z</time>
            </trkpt>
            <trkpt lat="42.636120" lon="-71.740420">
                <time>2026-05-05T15:29:57Z</time>
            </trkpt>
            <trkpt lat="42.636140" lon="-71.740220">
                <time>2026-05-05T15:29:58Z</time>
            </trkpt>
            <trkpt lat="42.636140" lon="-71.740020">
                <time>2026-05-05T15:29:59Z</time>
            </trkpt>
            <trkpt lat="42.636150" lon="-71.739820">
                <time>2026-05-05T15:30:00Z</time>
            </trkpt>
            <trkpt lat="42.636160" lon="-71.739630">
                <time>2026-05-05T15:30:01Z</time>
            </trkpt>
            <trkpt lat="42.636170" lon="-71.739430">
                <time>2026-05-05T15:30:02Z</time>
            </trkpt>
            <trkpt lat="42.636180" lon="-71.739240">
                <time>2026-05-05T15:30:03Z</time>
            </trkpt>
            <trkpt lat="42.636180" lon="-71.739050">
                <time>2026-05-05T15:30:04Z</time>
            </trkpt>
            <trkpt lat="42.636190" lon="-71.738860">
                <time>2026-05-05T15:30:05Z</time>
            </trkpt>
            <trkpt lat="42.636200" lon="-71.738670">
                <time>2026-05-05T15:30:06Z</time>
            </trkpt>
            <trkpt lat="42.636220" lon="-71.738480">
                <time>2026-05-05T15:30:07Z</time>
            </trkpt>
            <trkpt lat="42.636230" lon="-71.738290">
                <time>2026-05-05T15:30:08Z</time>
            </trkpt>
            <trkpt lat="42.636250" lon="-71.738110">
                <time>2026-05-05T15:30:09Z</time>
            </trkpt>
            <trkpt lat="42.636260" lon="-71.737930">
                <time>2026-05-05T15:30:10Z</time>
            </trkpt>
            <trkpt lat="42.636260" lon="-71.737750">
                <time>2026-05-05T15:30:11Z</time>
            </trkpt>
            <trkpt lat="42.636260" lon="-71.737580">
                <time>2026-05-05T15:30:12Z</time>
            </trkpt>
            <trkpt lat="42.636270" lon="-71.737400">
                <time>2026-05-05T15:30:13Z</time>
            </trkpt>
            <trkpt lat="42.636280" lon="-71.737230">
                <time>2026-05-05T15:30:14Z</time>
            </trkpt>
            <trkpt lat="42.636290" lon="-71.737050">
                <time>2026-05-05T15:30:15Z</time>
            </trkpt>
            <trkpt lat="42.636300" lon="-71.736860">
                <time>2026-05-05T15:30:16Z</time>
            </trkpt>
            <trkpt lat="42.636310" lon="-71.736680">
                <time>2026-05-05T15:30:17Z</time>
            </trkpt>
            <trkpt lat="42.636330" lon="-71.736480">
                <time>2026-05-05T15:30:18Z</time>
            </trkpt>
            <trkpt lat="42.636330" lon="-71.736300">
                <time>2026-05-05T15:30:19Z</time>
            </trkpt>
            <trkpt lat="42.636330" lon="-71.736120">
                <time>2026-05-05T15:30:20Z</time>
            </trkpt>
            <trkpt lat="42.636330" lon="-71.735940">
                <time>2026-05-05T15:30:21Z</time>
            </trkpt>
            <trkpt lat="42.636310" lon="-71.735760">
                <time>2026-05-05T15:30:22Z</time>
            </trkpt>
            <trkpt lat="42.636310" lon="-71.735590">
                <time>2026-05-05T15:30:23Z</time>
            </trkpt>
            <trkpt lat="42.636290" lon="-71.735430">
                <time>2026-05-05T15:30:24Z</time>
            </trkpt>
            <trkpt lat="42.636280" lon="-71.735270">
                <time>2026-05-05T15:30:25Z</time>
            </trkpt>
            <trkpt lat="42.636260" lon="-71.735120">
                <time>2026-05-05T15:30:26Z</time>
            </trkpt>
            <trkpt lat="42.636270" lon="-71.734990">
                <time>2026-05-05T15:30:27Z</time>
            </trkpt>
            <trkpt lat="42.636290" lon="-71.734860">
                <time>2026-05-05T15:30:28Z</time>
            </trkpt>
            <trkpt lat="42.636330" lon="-71.734740">
                <time>2026-05-05T15:30:29Z</time>
            </trkpt>
            <trkpt lat="42.636390" lon="-71.734620">
                <time>2026-05-05T15:30:30Z</time>
            </trkpt>
            <trkpt lat="42.636450" lon="-71.734500">
                <time>2026-05-05T15:30:31Z</time>
            </trkpt>
            <trkpt lat="42.636500" lon="-71.734360">
                <time>2026-05-05T15:30:32Z</time>
            </trkpt>
            <trkpt lat="42.636560" lon="-71.734230">
                <time>2026-05-05T15:30:33Z</time>
            </trkpt>
            <trkpt lat="42.636620" lon="-71.734100">
                <time>2026-05-05T15:30:34Z</time>
            </trkpt>
            <trkpt lat="42.636660" lon="-71.733960">
                <time>2026-05-05T15:30:35Z</time>
            </trkpt>
            <trkpt lat="42.636720" lon="-71.733840">
                <time>2026-05-05T15:30:36Z</time>
            </trkpt>
            <trkpt lat="42.636760" lon="-71.733730">
                <time>2026-05-05T15:30:37Z</time>
            </trkpt>
            <trkpt lat="42.636810" lon="-71.733610">
                <time>2026-05-05T15:30:38Z</time>
            </trkpt>
            <trkpt lat="42.636860" lon="-71.733500">
                <time>2026-05-05T15:30:39Z</time>
            </trkpt>
            <trkpt lat="42.636890" lon="-71.733410">
                <time>2026-05-05T15:30:40Z</time>
            </trkpt>
            <trkpt lat="42.636940" lon="-71.733350">
                <time>2026-05-05T15:30:41Z</time>
            </trkpt>
            <trkpt lat="42.637000" lon="-71.733330">
                <time>2026-05-05T15:30:42Z</time>
            </trkpt>
            <trkpt lat="42.637060" lon="-71.733330">
                <time>2026-05-05T15:30:43Z</time>
            </trkpt>
            <trkpt lat="42.637120" lon="-71.733330">
                <time>2026-05-05T15:30:44Z</time>
            </trkpt>
            <trkpt lat="42.637200" lon="-71.733310">
                <time>2026-05-05T15:30:45Z</time>
            </trkpt>
            <trkpt lat="42.637290" lon="-71.733310">
                <time>2026-05-05T15:30:46Z</time>
            </trkpt>
            <trkpt lat="42.637390" lon="-71.733310">
                <time>2026-05-05T15:30:47Z</time>
            </trkpt>
            <trkpt lat="42.637490" lon="-71.733300">
                <time>2026-05-05T15:30:48Z</time>
            </trkpt>
            <trkpt lat="42.637590" lon="-71.733310">
                <time>2026-05-05T15:30:49Z</time>
            </trkpt>
            <trkpt lat="42.637700" lon="-71.733330">
                <time>2026-05-05T15:30:50Z</time>
            </trkpt>
            <trkpt lat="42.637800" lon="-71.733360">
                <time>2026-05-05T15:30:51Z</time>
            </trkpt>
            <trkpt lat="42.637880" lon="-71.733420">
                <time>2026-05-05T15:30:52Z</time>
            </trkpt>
            <trkpt lat="42.637960" lon="-71.733500">
                <time>2026-05-05T15:30:53Z</time>
            </trkpt>
            <trkpt lat="42.638050" lon="-71.733590">
                <time>2026-05-05T15:30:54Z</time>
            </trkpt>
            <trkpt lat="42.638120" lon="-71.733700">
                <time>2026-05-05T15:30:55Z</time>
            </trkpt>
            <trkpt lat="42.638190" lon="-71.733830">
                <time>2026-05-05T15:30:56Z</time>
            </trkpt>
            <trkpt lat="42.638250" lon="-71.733980">
                <time>2026-05-05T15:30:57Z</time>
            </trkpt>
            <trkpt lat="42.638310" lon="-71.734130">
                <time>2026-05-05T15:30:58Z</time>
            </trkpt>
            <trkpt lat="42.638380" lon="-71.734300">
                <time>2026-05-05T15:30:59Z</time>
            </trkpt>
            <trkpt lat="42.638450" lon="-71.734470">
                <time>2026-05-05T15:31:00Z</time>
            </trkpt>
            <trkpt lat="42.638510" lon="-71.734620">
                <time>2026-05-05T15:31:01Z</time>
            </trkpt>
            <trkpt lat="42.638570" lon="-71.734780">
                <time>2026-05-05T15:31:02Z</time>
            </trkpt>
            <trkpt lat="42.638630" lon="-71.734930">
                <time>2026-05-05T15:31:03Z</time>
            </trkpt>
            <trkpt lat="42.638670" lon="-71.735080">
                <time>2026-05-05T15:31:04Z</time>
            </trkpt>
            <trkpt lat="42.638710" lon="-71.735230">
                <time>2026-05-05T15:31:05Z</time>
            </trkpt>
            <trkpt lat="42.638740" lon="-71.735390">
                <time>2026-05-05T15:31:06Z</time>
            </trkpt>
            <trkpt lat="42.638760" lon="-71.735560">
                <time>2026-05-05T15:31:07Z</time>
            </trkpt>
            <trkpt lat="42.638770" lon="-71.735720">
                <time>2026-05-05T15:31:08Z</time>
            </trkpt>
            <trkpt lat="42.638770" lon="-71.735890">
                <time>2026-05-05T15:31:09Z</time>
            </trkpt>
            <trkpt lat="42.638760" lon="-71.736050">
                <time>2026-05-05T15:31:10Z</time>
            </trkpt>
            <trkpt lat="42.638740" lon="-71.736220">
                <time>2026-05-05T15:31:11Z</time>
            </trkpt>
            <trkpt lat="42.638710" lon="-71.736380">
                <time>2026-05-05T15:31:12Z</time>
            </trkpt>
            <trkpt lat="42.638670" lon="-71.736560">
                <time>2026-05-05T15:31:13Z</time>
            </trkpt>
            <trkpt lat="42.638660" lon="-71.736740">
                <time>2026-05-05T15:31:14Z</time>
            </trkpt>
            <trkpt lat="42.638670" lon="-71.736900">
                <time>2026-05-05T15:31:15Z</time>
            </trkpt>
            <trkpt lat="42.638700" lon="-71.737060">
                <time>2026-05-05T15:31:16Z</time>
            </trkpt>
            <trkpt lat="42.638750" lon="-71.737220">
                <time>2026-05-05T15:31:17Z</time>
            </trkpt>
            <trkpt lat="42.638820" lon="-71.737360">
                <time>2026-05-05T15:31:18Z</time>
            </trkpt>
            <trkpt lat="42.638900" lon="-71.737500">
                <time>2026-05-05T15:31:19Z</time>
            </trkpt>
            <trkpt lat="42.639010" lon="-71.737610">
                <time>2026-05-05T15:31:20Z</time>
            </trkpt>
            <trkpt lat="42.639120" lon="-71.737690">
                <time>2026-05-05T15:31:21Z</time>
            </trkpt>
            <trkpt lat="42.639240" lon="-71.737770">
                <time>2026-05-05T15:31:22Z</time>
            </trkpt>
            <trkpt lat="42.639360" lon="-71.737850">
                <time>2026-05-05T15:31:23Z</time>
            </trkpt>
            <trkpt lat="42.639490" lon="-71.737920">
                <time>2026-05-05T15:31:24Z</time>
            </trkpt>
            <trkpt lat="42.639620" lon="-71.737990">
                <time>2026-05-05T15:31:25Z</time>
            </trkpt>
            <trkpt lat="42.639740" lon="-71.738070">
                <time>2026-05-05T15:31:26Z</time>
            </trkpt>
            <trkpt lat="42.639870" lon="-71.738150">
                <time>2026-05-05T15:31:27Z</time>
            </trkpt>
            <trkpt lat="42.639980" lon="-71.738220">
                <time>2026-05-05T15:31:28Z</time>
            </trkpt>
            <trkpt lat="42.640090" lon="-71.738290">
                <time>2026-05-05T15:31:29Z</time>
            </trkpt>
            <trkpt lat="42.640200" lon="-71.738360">
                <time>2026-05-05T15:31:30Z</time>
            </trkpt>
            <trkpt lat="42.640300" lon="-71.738400">
                <time>2026-05-05T15:31:31Z</time>
            </trkpt>
            <trkpt lat="42.640410" lon="-71.738430">
                <time>2026-05-05T15:31:32Z</time>
            </trkpt>
            <trkpt lat="42.640510" lon="-71.738420">
                <time>2026-05-05T15:31:33Z</time>
            </trkpt>
            <trkpt lat="42.640610" lon="-71.738390">
                <time>2026-05-05T15:31:34Z</time>
            </trkpt>
            <trkpt lat="42.640710" lon="-71.738330">
                <time>2026-05-05T15:31:35Z</time>
            </trkpt>
            <trkpt lat="42.640800" lon="-71.738240">
                <time>2026-05-05T15:31:36Z</time>
            </trkpt>
            <trkpt lat="42.640880" lon="-71.738120">
                <time>2026-05-05T15:31:37Z</time>
            </trkpt>
            <trkpt lat="42.640950" lon="-71.737980">
                <time>2026-05-05T15:31:38Z</time>
            </trkpt>
            <trkpt lat="42.641030" lon="-71.737840">
                <time>2026-05-05T15:31:39Z</time>
            </trkpt>
            <trkpt lat="42.641110" lon="-71.737680">
                <time>2026-05-05T15:31:40Z</time>
            </trkpt>
            <trkpt lat="42.641200" lon="-71.737520">
                <time>2026-05-05T15:31:41Z</time>
            </trkpt>
            <trkpt lat="42.641290" lon="-71.737350">
                <time>2026-05-05T15:31:42Z</time>
            </trkpt>
            <trkpt lat="42.641370" lon="-71.737190">
                <time>2026-05-05T15:31:43Z</time>
            </trkpt>
            <trkpt lat="42.641460" lon="-71.737030">
                <time>2026-05-05T15:31:44Z</time>
            </trkpt>
            <trkpt lat="42.641540" lon="-71.736870">
                <time>2026-05-05T15:31:45Z</time>
            </trkpt>
            <trkpt lat="42.641620" lon="-71.736720">
                <time>2026-05-05T15:31:46Z</time>
            </trkpt>
            <trkpt lat="42.641710" lon="-71.736560">
                <time>2026-05-05T15:31:47Z</time>
            </trkpt>
            <trkpt lat="42.641790" lon="-71.736410">
                <time>2026-05-05T15:31:48Z</time>
            </trkpt>
            <trkpt lat="42.641860" lon="-71.736250">
                <time>2026-05-05T15:31:49Z</time>
            </trkpt>
            <trkpt lat="42.641920" lon="-71.736080">
                <time>2026-05-05T15:31:50Z</time>
            </trkpt>
            <trkpt lat="42.641990" lon="-71.735910">
                <time>2026-05-05T15:31:51Z</time>
            </trkpt>
            <trkpt lat="42.642050" lon="-71.735730">
                <time>2026-05-05T15:31:52Z</time>
            </trkpt>
            <trkpt lat="42.642100" lon="-71.735540">
                <time>2026-05-05T15:31:53Z</time>
            </trkpt>
            <trkpt lat="42.642160" lon="-71.735360">
                <time>2026-05-05T15:31:54Z</time>
            </trkpt>
            <trkpt lat="42.642220" lon="-71.735170">
                <time>2026-05-05T15:31:55Z</time>
            </trkpt>
            <trkpt lat="42.642280" lon="-71.734980">
                <time>2026-05-05T15:31:56Z</time>
            </trkpt>
            <trkpt lat="42.642340" lon="-71.734790">
                <time>2026-05-05T15:31:57Z</time>
            </trkpt>
            <trkpt lat="42.642390" lon="-71.734610">
                <time>2026-05-05T15:31:58Z</time>
            </trkpt>
            <trkpt lat="42.642450" lon="-71.734420">
                <time>2026-05-05T15:31:59Z</time>
            </trkpt>
            <trkpt lat="42.642510" lon="-71.734240">
                <time>2026-05-05T15:32:00Z</time>
            </trkpt>
            <trkpt lat="42.642570" lon="-71.734060">
                <time>2026-05-05T15:32:01Z</time>
            </trkpt>
            <trkpt lat="42.642620" lon="-71.733870">
                <time>2026-05-05T15:32:02Z</time>
            </trkpt>
            <trkpt lat="42.642650" lon="-71.733680">
                <time>2026-05-05T15:32:03Z</time>
            </trkpt>
            <trkpt lat="42.642680" lon="-71.733480">
                <time>2026-05-05T15:32:04Z</time>
            </trkpt>
            <trkpt lat="42.642710" lon="-71.733290">
                <time>2026-05-05T15:32:05Z</time>
            </trkpt>
            <trkpt lat="42.642760" lon="-71.733120">
                <time>2026-05-05T15:32:06Z</time>
            </trkpt>
            <trkpt lat="42.642820" lon="-71.732950">
                <time>2026-05-05T15:32:07Z</time>
            </trkpt>
            <trkpt lat="42.642900" lon="-71.732810">
                <time>2026-05-05T15:32:08Z</time>
            </trkpt>
            <trkpt lat="42.643000" lon="-71.732690">
                <time>2026-05-05T15:32:09Z</time>
            </trkpt>
            <trkpt lat="42.643110" lon="-71.732600">
                <time>2026-05-05T15:32:10Z</time>
            </trkpt>
            <trkpt lat="42.643240" lon="-71.732530">
                <time>2026-05-05T15:32:11Z</time>
            </trkpt>
            <trkpt lat="42.643360" lon="-71.732480">
                <time>2026-05-05T15:32:12Z</time>
            </trkpt>
            <trkpt lat="42.643480" lon="-71.732420">
                <time>2026-05-05T15:32:13Z</time>
            </trkpt>
            <trkpt lat="42.643600" lon="-71.732370">
                <time>2026-05-05T15:32:14Z</time>
            </trkpt>
            <trkpt lat="42.643710" lon="-71.732310">
                <time>2026-05-05T15:32:15Z</time>
            </trkpt>
            <trkpt lat="42.643830" lon="-71.732240">
                <time>2026-05-05T15:32:16Z</time>
            </trkpt>
            <trkpt lat="42.643940" lon="-71.732170">
                <time>2026-05-05T15:32:17Z</time>
            </trkpt>
            <trkpt lat="42.644030" lon="-71.732070">
                <time>2026-05-05T15:32:18Z</time>
            </trkpt>
            <trkpt lat="42.644120" lon="-71.731940">
                <time>2026-05-05T15:32:19Z</time>
            </trkpt>
            <trkpt lat="42.644200" lon="-71.731800">
                <time>2026-05-05T15:32:20Z</time>
            </trkpt>
            <trkpt lat="42.644280" lon="-71.731640">
                <time>2026-05-05T15:32:21Z</time>
            </trkpt>
            <trkpt lat="42.644370" lon="-71.731480">
                <time>2026-05-05T15:32:22Z</time>
            </trkpt>
            <trkpt lat="42.644450" lon="-71.731310">
                <time>2026-05-05T15:32:23Z</time>
            </trkpt>
            <trkpt lat="42.644530" lon="-71.731140">
                <time>2026-05-05T15:32:24Z</time>
            </trkpt>
            <trkpt lat="42.644610" lon="-71.730980">
                <time>2026-05-05T15:32:25Z</time>
            </trkpt>
            <trkpt lat="42.644680" lon="-71.730810">
                <time>2026-05-05T15:32:26Z</time>
            </trkpt>
            <trkpt lat="42.644760" lon="-71.730650">
                <time>2026-05-05T15:32:27Z</time>
            </trkpt>
            <trkpt lat="42.644850" lon="-71.730490">
                <time>2026-05-05T15:32:28Z</time>
            </trkpt>
            <trkpt lat="42.644940" lon="-71.730330">
                <time>2026-05-05T15:32:29Z</time>
            </trkpt>
            <trkpt lat="42.645020" lon="-71.730170">
                <time>2026-05-05T15:32:30Z</time>
            </trkpt>
            <trkpt lat="42.645100" lon="-71.730010">
                <time>2026-05-05T15:32:31Z</time>
            </trkpt>
            <trkpt lat="42.645180" lon="-71.729840">
                <time>2026-05-05T15:32:32Z</time>
            </trkpt>
            <trkpt lat="42.645260" lon="-71.729680">
                <time>2026-05-05T15:32:33Z</time>
            </trkpt>
            <trkpt lat="42.645350" lon="-71.729530">
                <time>2026-05-05T15:32:34Z</time>
            </trkpt>
            <trkpt lat="42.645430" lon="-71.729400">
                <time>2026-05-05T15:32:35Z</time>
            </trkpt>
            <trkpt lat="42.645510" lon="-71.729280">
                <time>2026-05-05T15:32:36Z</time>
            </trkpt>
            <trkpt lat="42.645590" lon="-71.729180">
                <time>2026-05-05T15:32:37Z</time>
            </trkpt>
            <trkpt lat="42.645700" lon="-71.729100">
                <time>2026-05-05T15:32:38Z</time>
            </trkpt>
            <trkpt lat="42.645800" lon="-71.729040">
                <time>2026-05-05T15:32:39Z</time>
            </trkpt>
            <trkpt lat="42.645900" lon="-71.729000">
                <time>2026-05-05T15:32:40Z</time>
            </trkpt>
            <trkpt lat="42.646010" lon="-71.728980">
                <time>2026-05-05T15:32:41Z</time>
            </trkpt>
            <trkpt lat="42.646120" lon="-71.728980">
                <time>2026-05-05T15:32:42Z</time>
            </trkpt>
            <trkpt lat="42.646220" lon="-71.728990">
                <time>2026-05-05T15:32:43Z</time>
            </trkpt>
            <trkpt lat="42.646320" lon="-71.729030">
                <time>2026-05-05T15:32:44Z</time>
            </trkpt>
            <trkpt lat="42.646420" lon="-71.729080">
                <time>2026-05-05T15:32:45Z</time>
            </trkpt>
            <trkpt lat="42.646530" lon="-71.729160">
                <time>2026-05-05T15:32:46Z</time>
            </trkpt>
            <trkpt lat="42.646630" lon="-71.729260">
                <time>2026-05-05T15:32:47Z</time>
            </trkpt>
            <trkpt lat="42.646730" lon="-71.729360">
                <time>2026-05-05T15:32:48Z</time>
            </trkpt>
            <trkpt lat="42.646830" lon="-71.729460">
                <time>2026-05-05T15:32:49Z</time>
            </trkpt>
            <trkpt lat="42.646930" lon="-71.729560">
                <time>2026-05-05T15:32:50Z</time>
            </trkpt>
            <trkpt lat="42.647030" lon="-71.729650">
                <time>2026-05-05T15:32:51Z</time>
            </trkpt>
            <trkpt lat="42.647120" lon="-71.729720">
                <time>2026-05-05T15:32:52Z</time>
            </trkpt>
            <trkpt lat="42.647220" lon="-71.729780">
                <time>2026-05-05T15:32:53Z</time>
            </trkpt>
            <trkpt lat="42.647330" lon="-71.729820">
                <time>2026-05-05T15:32:54Z</time>
            </trkpt>
            <trkpt lat="42.647440" lon="-71.729860">
                <time>2026-05-05T15:32:55Z</time>
            </trkpt>
            <trkpt lat="42.647550" lon="-71.729890">
                <time>2026-05-05T15:32:56Z</time>
            </trkpt>
            <trkpt lat="42.647650" lon="-71.729920">
                <time>2026-05-05T15:32:57Z</time>
            </trkpt>
            <trkpt lat="42.647750" lon="-71.729950">
                <time>2026-05-05T15:32:58Z</time>
            </trkpt>
            <trkpt lat="42.647830" lon="-71.729970">
                <time>2026-05-05T15:32:59Z</time>
            </trkpt>
            <trkpt lat="42.647890" lon="-71.729990">
                <time>2026-05-05T15:33:00Z</time>
            </trkpt>
            <trkpt lat="42.647940" lon="-71.729990">
                <time>2026-05-05T15:33:01Z</time>
            </trkpt>
            <trkpt lat="42.647970" lon="-71.730000">
                <time>2026-05-05T15:33:02Z</time>
            </trkpt>
            <trkpt lat="42.648000" lon="-71.730000">
                <time>2026-05-05T15:33:03Z</time>
            </trkpt>
            <trkpt lat="42.648010" lon="-71.730000">
                <time>2026-05-05T15:33:04Z</time>
            </trkpt>
            <trkpt lat="42.648030" lon="-71.729990">
                <time>2026-05-05T15:33:05Z</time>
            </trkpt>
            <trkpt lat="42.648050" lon="-71.729990">
                <time>2026-05-05T15:33:06Z</time>
            </trkpt>
            <trkpt lat="42.648070" lon="-71.729960">
                <time>2026-05-05T15:33:07Z</time>
            </trkpt>
            <trkpt lat="42.648090" lon="-71.729920">
                <time>2026-05-05T15:33:08Z</time>
            </trkpt>
            <trkpt lat="42.648100" lon="-71.729870">
                <time>2026-05-05T15:33:09Z</time>
            </trkpt>
            <trkpt lat="42.648130" lon="-71.729810">
                <time>2026-05-05T15:33:10Z</time>
            </trkpt>
            <trkpt lat="42.648140" lon="-71.729740">
                <time>2026-05-05T15:33:11Z</time>
            </trkpt>
            <trkpt lat="42.648160" lon="-71.729670">
                <time>2026-05-05T15:33:12Z</time>
            </trkpt>
            <trkpt lat="42.648170" lon="-71.729600">
                <time>2026-05-05T15:33:13Z</time>
            </trkpt>
            <trkpt lat="42.648180" lon="-71.729500">
                <time>2026-05-05T15:33:14Z</time>
            </trkpt>
            <trkpt lat="42.648210" lon="-71.729420">
                <time>2026-05-05T15:33:15Z</time>
            </trkpt>
            <trkpt lat="42.648240" lon="-71.729340">
                <time>2026-05-05T15:33:16Z</time>
            </trkpt>
            <trkpt lat="42.648260" lon="-71.729260">
                <time>2026-05-05T15:33:17Z</time>
            </trkpt>
            <trkpt lat="42.648290" lon="-71.729170">
                <time>2026-05-05T15:33:18Z</time>
            </trkpt>
            <trkpt lat="42.648310" lon="-71.729070">
                <time>2026-05-05T15:33:19Z</time>
            </trkpt>
            <trkpt lat="42.648350" lon="-71.728990">
                <time>2026-05-05T15:33:20Z</time>
            </trkpt>
            <trkpt lat="42.648380" lon="-71.728890">
                <time>2026-05-05T15:33:21Z</time>
            </trkpt>
            <trkpt lat="42.648420" lon="-71.728780">
                <time>2026-05-05T15:33:22Z</time>
            </trkpt>
            <trkpt lat="42.648460" lon="-71.728650">
                <time>2026-05-05T15:33:23Z</time>
            </trkpt>
            <trkpt lat="42.648500" lon="-71.728520">
                <time>2026-05-05T15:33:24Z</time>
            </trkpt>
            <trkpt lat="42.648540" lon="-71.728390">
                <time>2026-05-05T15:33:25Z</time>
            </trkpt>
            <trkpt lat="42.648590" lon="-71.728270">
                <time>2026-05-05T15:33:26Z</time>
            </trkpt>
            <trkpt lat="42.648630" lon="-71.728140">
                <time>2026-05-05T15:33:27Z</time>
            </trkpt>
            <trkpt lat="42.648680" lon="-71.728010">
                <time>2026-05-05T15:33:28Z</time>
            </trkpt>
            <trkpt lat="42.648730" lon="-71.727870">
                <time>2026-05-05T15:33:29Z</time>
            </trkpt>
            <trkpt lat="42.648780" lon="-71.727720">
                <time>2026-05-05T15:33:30Z</time>
            </trkpt>
            <trkpt lat="42.648830" lon="-71.727580">
                <time>2026-05-05T15:33:31Z</time>
            </trkpt>
            <trkpt lat="42.648880" lon="-71.727430">
                <time>2026-05-05T15:33:32Z</time>
            </trkpt>
            <trkpt lat="42.648930" lon="-71.727270">
                <time>2026-05-05T15:33:33Z</time>
            </trkpt>
            <trkpt lat="42.648980" lon="-71.727110">
                <time>2026-05-05T15:33:34Z</time>
            </trkpt>
            <trkpt lat="42.649030" lon="-71.726950">
                <time>2026-05-05T15:33:35Z</time>
            </trkpt>
            <trkpt lat="42.649090" lon="-71.726800">
                <time>2026-05-05T15:33:36Z</time>
            </trkpt>
            <trkpt lat="42.649130" lon="-71.726640">
                <time>2026-05-05T15:33:37Z</time>
            </trkpt>
            <trkpt lat="42.649180" lon="-71.726490">
                <time>2026-05-05T15:33:38Z</time>
            </trkpt>
            <trkpt lat="42.649230" lon="-71.726350">
                <time>2026-05-05T15:33:39Z</time>
            </trkpt>
            <trkpt lat="42.649270" lon="-71.726190">
                <time>2026-05-05T15:33:40Z</time>
            </trkpt>
            <trkpt lat="42.649320" lon="-71.726040">
                <time>2026-05-05T15:33:41Z</time>
            </trkpt>
            <trkpt lat="42.649350" lon="-71.725890">
                <time>2026-05-05T15:33:42Z</time>
            </trkpt>
            <trkpt lat="42.649380" lon="-71.725740">
                <time>2026-05-05T15:33:43Z</time>
            </trkpt>
            <trkpt lat="42.649400" lon="-71.725590">
                <time>2026-05-05T15:33:44Z</time>
            </trkpt>
            <trkpt lat="42.649410" lon="-71.725440">
                <time>2026-05-05T15:33:45Z</time>
            </trkpt>
            <trkpt lat="42.649420" lon="-71.725280">
                <time>2026-05-05T15:33:46Z</time>
            </trkpt>
            <trkpt lat="42.649420" lon="-71.725130">
                <time>2026-05-05T15:33:47Z</time>
            </trkpt>
            <trkpt lat="42.649420" lon="-71.724970">
                <time>2026-05-05T15:33:48Z</time>
            </trkpt>
            <trkpt lat="42.649400" lon="-71.724810">
                <time>2026-05-05T15:33:49Z</time>
            </trkpt>
            <trkpt lat="42.649380" lon="-71.724670">
                <time>2026-05-05T15:33:50Z</time>
            </trkpt>
            <trkpt lat="42.649350" lon="-71.724540">
                <time>2026-05-05T15:33:51Z</time>
            </trkpt>
            <trkpt lat="42.649320" lon="-71.724410">
                <time>2026-05-05T15:33:52Z</time>
            </trkpt>
            <trkpt lat="42.649290" lon="-71.724290">
                <time>2026-05-05T15:33:53Z</time>
            </trkpt>
            <trkpt lat="42.649270" lon="-71.724200">
                <time>2026-05-05T15:33:54Z</time>
            </trkpt>
            <trkpt lat="42.649260" lon="-71.724150">
                <time>2026-05-05T15:33:55Z</time>
            </trkpt>
            <trkpt lat="42.649240" lon="-71.724110">
                <time>2026-05-05T15:33:56Z</time>
            </trkpt>
            <trkpt lat="42.649240" lon="-71.724100">
                <time>2026-05-05T15:33:57Z</time>
            </trkpt>
            <trkpt lat="42.649230" lon="-71.724090">
                <time>2026-05-05T15:33:58Z</time>
            </trkpt>
            <trkpt lat="42.649230" lon="-71.724070">
                <time>2026-05-05T15:33:59Z</time>
            </trkpt>
            <trkpt lat="42.649190" lon="-71.724040">
                <time>2026-05-05T15:34:00Z</time>
            </trkpt>
            <trkpt lat="42.649150" lon="-71.724040">
                <time>2026-05-05T15:34:01Z</time>
            </trkpt>
            <trkpt lat="42.649090" lon="-71.724060">
                <time>2026-05-05T15:34:02Z</time>
            </trkpt>
            <trkpt lat="42.649010" lon="-71.724100">
                <time>2026-05-05T15:34:03Z</time>
            </trkpt>
            <trkpt lat="42.648930" lon="-71.724140">
                <time>2026-05-05T15:34:04Z</time>
            </trkpt>
            <trkpt lat="42.648850" lon="-71.724180">
                <time>2026-05-05T15:34:05Z</time>
            </trkpt>
            <trkpt lat="42.648750" lon="-71.724230">
                <time>2026-05-05T15:34:06Z</time>
            </trkpt>
            <trkpt lat="42.648640" lon="-71.724290">
                <time>2026-05-05T15:34:07Z</time>
            </trkpt>
            <trkpt lat="42.648520" lon="-71.724360">
                <time>2026-05-05T15:34:08Z</time>
            </trkpt>
            <trkpt lat="42.648400" lon="-71.724420">
                <time>2026-05-05T15:34:09Z</time>
            </trkpt>
            <trkpt lat="42.648270" lon="-71.724490">
                <time>2026-05-05T15:34:10Z</time>
            </trkpt>
            <trkpt lat="42.648140" lon="-71.724570">
                <time>2026-05-05T15:34:11Z</time>
            </trkpt>
            <trkpt lat="42.648000" lon="-71.724650">
                <time>2026-05-05T15:34:12Z</time>
            </trkpt>
            <trkpt lat="42.647850" lon="-71.724730">
                <time>2026-05-05T15:34:13Z</time>
            </trkpt>
            <trkpt lat="42.647700" lon="-71.724820">
                <time>2026-05-05T15:34:14Z</time>
            </trkpt>
            <trkpt lat="42.647560" lon="-71.724900">
                <time>2026-05-05T15:34:15Z</time>
            </trkpt>
            <trkpt lat="42.647420" lon="-71.724990">
                <time>2026-05-05T15:34:16Z</time>
            </trkpt>
            <trkpt lat="42.647270" lon="-71.725070">
                <time>2026-05-05T15:34:17Z</time>
            </trkpt>
            <trkpt lat="42.647110" lon="-71.725160">
                <time>2026-05-05T15:34:18Z</time>
            </trkpt>
            <trkpt lat="42.646960" lon="-71.725250">
                <time>2026-05-05T15:34:19Z</time>
            </trkpt>
            <trkpt lat="42.646800" lon="-71.725340">
                <time>2026-05-05T15:34:20Z</time>
            </trkpt>
            <trkpt lat="42.646640" lon="-71.725430">
                <time>2026-05-05T15:34:21Z</time>
            </trkpt>
            <trkpt lat="42.646470" lon="-71.725520">
                <time>2026-05-05T15:34:22Z</time>
            </trkpt>
            <trkpt lat="42.646300" lon="-71.725620">
                <time>2026-05-05T15:34:23Z</time>
            </trkpt>
            <trkpt lat="42.646130" lon="-71.725720">
                <time>2026-05-05T15:34:24Z</time>
            </trkpt>
            <trkpt lat="42.645960" lon="-71.725820">
                <time>2026-05-05T15:34:25Z</time>
            </trkpt>
            <trkpt lat="42.645790" lon="-71.725910">
                <time>2026-05-05T15:34:26Z</time>
            </trkpt>
            <trkpt lat="42.645620" lon="-71.726000">
                <time>2026-05-05T15:34:27Z</time>
            </trkpt>
            <trkpt lat="42.645450" lon="-71.726090">
                <time>2026-05-05T15:34:28Z</time>
            </trkpt>
            <trkpt lat="42.645290" lon="-71.726180">
                <time>2026-05-05T15:34:29Z</time>
            </trkpt>
            <trkpt lat="42.645140" lon="-71.726270">
                <time>2026-05-05T15:34:30Z</time>
            </trkpt>
            <trkpt lat="42.644990" lon="-71.726350">
                <time>2026-05-05T15:34:31Z</time>
            </trkpt>
            <trkpt lat="42.644830" lon="-71.726440">
                <time>2026-05-05T15:34:32Z</time>
            </trkpt>
            <trkpt lat="42.644680" lon="-71.726520">
                <time>2026-05-05T15:34:33Z</time>
            </trkpt>
            <trkpt lat="42.644540" lon="-71.726600">
                <time>2026-05-05T15:34:34Z</time>
            </trkpt>
            <trkpt lat="42.644400" lon="-71.726680">
                <time>2026-05-05T15:34:35Z</time>
            </trkpt>
            <trkpt lat="42.644260" lon="-71.726760">
                <time>2026-05-05T15:34:36Z</time>
            </trkpt>
            <trkpt lat="42.644120" lon="-71.726810">
                <time>2026-05-05T15:34:37Z</time>
            </trkpt>
            <trkpt lat="42.643980" lon="-71.726850">
                <time>2026-05-05T15:34:38Z</time>
            </trkpt>
            <trkpt lat="42.643840" lon="-71.726840">
                <time>2026-05-05T15:34:39Z</time>
            </trkpt>
            <trkpt lat="42.643700" lon="-71.726820">
                <time>2026-05-05T15:34:40Z</time>
            </trkpt>
            <trkpt lat="42.643560" lon="-71.726780">
                <time>2026-05-05T15:34:41Z</time>
            </trkpt>
            <trkpt lat="42.643420" lon="-71.726740">
                <time>2026-05-05T15:34:42Z</time>
            </trkpt>
            <trkpt lat="42.643280" lon="-71.726720">
                <time>2026-05-05T15:34:43Z</time>
            </trkpt>
            <trkpt lat="42.643140" lon="-71.726700">
                <time>2026-05-05T15:34:44Z</time>
            </trkpt>
            <trkpt lat="42.643010" lon="-71.726690">
                <time>2026-05-05T15:34:45Z</time>
            </trkpt>
            <trkpt lat="42.642880" lon="-71.726710">
                <time>2026-05-05T15:34:46Z</time>
            </trkpt>
            <trkpt lat="42.642750" lon="-71.726740">
                <time>2026-05-05T15:34:47Z</time>
            </trkpt>
            <trkpt lat="42.642620" lon="-71.726780">
                <time>2026-05-05T15:34:48Z</time>
            </trkpt>
            <trkpt lat="42.642500" lon="-71.726830">
                <time>2026-05-05T15:34:49Z</time>
            </trkpt>
            <trkpt lat="42.642390" lon="-71.726890">
                <time>2026-05-05T15:34:50Z</time>
            </trkpt>
            <trkpt lat="42.642270" lon="-71.726950">
                <time>2026-05-05T15:34:51Z</time>
            </trkpt>
            <trkpt lat="42.642160" lon="-71.727010">
                <time>2026-05-05T15:34:52Z</time>
            </trkpt>
            <trkpt lat="42.642050" lon="-71.727050">
                <time>2026-05-05T15:34:53Z</time>
            </trkpt>
            <trkpt lat="42.641950" lon="-71.727100">
                <time>2026-05-05T15:34:54Z</time>
            </trkpt>
            <trkpt lat="42.641860" lon="-71.727140">
                <time>2026-05-05T15:34:55Z</time>
            </trkpt>
            <trkpt lat="42.641780" lon="-71.727170">
                <time>2026-05-05T15:34:56Z</time>
            </trkpt>
            <trkpt lat="42.641690" lon="-71.727170">
                <time>2026-05-05T15:34:57Z</time>
            </trkpt>
            <trkpt lat="42.641610" lon="-71.727140">
                <time>2026-05-05T15:34:58Z</time>
            </trkpt>
            <trkpt lat="42.641550" lon="-71.727080">
                <time>2026-05-05T15:34:59Z</time>
            </trkpt>
            <trkpt lat="42.641510" lon="-71.727040">
                <time>2026-05-05T15:35:00Z</time>
            </trkpt>
            <trkpt lat="42.641490" lon="-71.727020">
                <time>2026-05-05T15:35:01Z</time>
            </trkpt>
            <trkpt lat="42.641480" lon="-71.727010">
                <time>2026-05-05T15:35:02Z</time>
            </trkpt>
            <trkpt lat="42.641470" lon="-71.727010">
                <time>2026-05-05T15:35:03Z</time>
            </trkpt>
            <trkpt lat="42.641460" lon="-71.727000">
                <time>2026-05-05T15:35:04Z</time>
            </trkpt>
            <trkpt lat="42.641430" lon="-71.726980">
                <time>2026-05-05T15:35:05Z</time>
            </trkpt>
            <trkpt lat="42.641380" lon="-71.726990">
                <time>2026-05-05T15:35:06Z</time>
            </trkpt>
            <trkpt lat="42.641320" lon="-71.727050">
                <time>2026-05-05T15:35:07Z</time>
            </trkpt>
            <trkpt lat="42.641240" lon="-71.727130">
                <time>2026-05-05T15:35:08Z</time>
            </trkpt>
            <trkpt lat="42.641160" lon="-71.727210">
                <time>2026-05-05T15:35:09Z</time>
            </trkpt>
            <trkpt lat="42.641070" lon="-71.727300">
                <time>2026-05-05T15:35:10Z</time>
            </trkpt>
            <trkpt lat="42.640960" lon="-71.727400">
                <time>2026-05-05T15:35:11Z</time>
            </trkpt>
            <trkpt lat="42.640840" lon="-71.727500">
                <time>2026-05-05T15:35:12Z</time>
            </trkpt>
            <trkpt lat="42.640720" lon="-71.727610">
                <time>2026-05-05T15:35:13Z</time>
            </trkpt>
            <trkpt lat="42.640600" lon="-71.727710">
                <time>2026-05-05T15:35:14Z</time>
            </trkpt>
            <trkpt lat="42.640480" lon="-71.727810">
                <time>2026-05-05T15:35:15Z</time>
            </trkpt>
            <trkpt lat="42.640340" lon="-71.727890">
                <time>2026-05-05T15:35:16Z</time>
            </trkpt>
            <trkpt lat="42.640200" lon="-71.727970">
                <time>2026-05-05T15:35:17Z</time>
            </trkpt>
            <trkpt lat="42.640050" lon="-71.728050">
                <time>2026-05-05T15:35:18Z</time>
            </trkpt>
            <trkpt lat="42.639910" lon="-71.728120">
                <time>2026-05-05T15:35:19Z</time>
            </trkpt>
            <trkpt lat="42.639770" lon="-71.728200">
                <time>2026-05-05T15:35:20Z</time>
            </trkpt>
            <trkpt lat="42.639620" lon="-71.728270">
                <time>2026-05-05T15:35:21Z</time>
            </trkpt>
            <trkpt lat="42.639470" lon="-71.728360">
                <time>2026-05-05T15:35:22Z</time>
            </trkpt>
            <trkpt lat="42.639320" lon="-71.728440">
                <time>2026-05-05T15:35:23Z</time>
            </trkpt>
            <trkpt lat="42.639170" lon="-71.728510">
                <time>2026-05-05T15:35:24Z</time>
            </trkpt>
            <trkpt lat="42.639030" lon="-71.728590">
                <time>2026-05-05T15:35:25Z</time>
            </trkpt>
            <trkpt lat="42.638890" lon="-71.728660">
                <time>2026-05-05T15:35:26Z</time>
            </trkpt>
            <trkpt lat="42.638730" lon="-71.728740">
                <time>2026-05-05T15:35:27Z</time>
            </trkpt>
            <trkpt lat="42.638590" lon="-71.728820">
                <time>2026-05-05T15:35:28Z</time>
            </trkpt>
            <trkpt lat="42.638450" lon="-71.728900">
                <time>2026-05-05T15:35:29Z</time>
            </trkpt>
            <trkpt lat="42.638310" lon="-71.728980">
                <time>2026-05-05T15:35:30Z</time>
            </trkpt>
            <trkpt lat="42.638170" lon="-71.729050">
                <time>2026-05-05T15:35:31Z</time>
            </trkpt>
            <trkpt lat="42.638040" lon="-71.729120">
                <time>2026-05-05T15:35:32Z</time>
            </trkpt>
            <trkpt lat="42.637920" lon="-71.729190">
                <time>2026-05-05T15:35:33Z</time>
            </trkpt>
            <trkpt lat="42.637810" lon="-71.729240">
                <time>2026-05-05T15:35:34Z</time>
            </trkpt>
            <trkpt lat="42.637710" lon="-71.729290">
                <time>2026-05-05T15:35:35Z</time>
            </trkpt>
            <trkpt lat="42.637630" lon="-71.729340">
                <time>2026-05-05T15:35:36Z</time>
            </trkpt>
            <trkpt lat="42.637570" lon="-71.729360">
                <time>2026-05-05T15:35:37Z</time>
            </trkpt>
            <trkpt lat="42.637520" lon="-71.729360">
                <time>2026-05-05T15:35:38Z</time>
            </trkpt>
            <trkpt lat="42.637480" lon="-71.729310">
                <time>2026-05-05T15:35:39Z</time>
            </trkpt>
            <trkpt lat="42.637470" lon="-71.729240">
                <time>2026-05-05T15:35:40Z</time>
            </trkpt>
            <trkpt lat="42.637440" lon="-71.729150">
                <time>2026-05-05T15:35:41Z</time>
            </trkpt>
            <trkpt lat="42.637410" lon="-71.729050">
                <time>2026-05-05T15:35:42Z</time>
            </trkpt>
            <trkpt lat="42.637370" lon="-71.728920">
                <time>2026-05-05T15:35:43Z</time>
            </trkpt>
            <trkpt lat="42.637330" lon="-71.728810">
                <time>2026-05-05T15:35:44Z</time>
            </trkpt>
            <trkpt lat="42.637290" lon="-71.728680">
                <time>2026-05-05T15:35:45Z</time>
            </trkpt>
            <trkpt lat="42.637250" lon="-71.728540">
                <time>2026-05-05T15:35:46Z</time>
            </trkpt>
            <trkpt lat="42.637200" lon="-71.728390">
                <time>2026-05-05T15:35:47Z</time>
            </trkpt>
            <trkpt lat="42.637150" lon="-71.728230">
                <time>2026-05-05T15:35:48Z</time>
            </trkpt>
            <trkpt lat="42.637100" lon="-71.728080">
                <time>2026-05-05T15:35:49Z</time>
            </trkpt>
            <trkpt lat="42.637060" lon="-71.727930">
                <time>2026-05-05T15:35:50Z</time>
            </trkpt>
            <trkpt lat="42.637010" lon="-71.727780">
                <time>2026-05-05T15:35:51Z</time>
            </trkpt>
            <trkpt lat="42.636960" lon="-71.727620">
                <time>2026-05-05T15:35:52Z</time>
            </trkpt>
            <trkpt lat="42.636920" lon="-71.727470">
                <time>2026-05-05T15:35:53Z</time>
            </trkpt>
            <trkpt lat="42.636880" lon="-71.727310">
                <time>2026-05-05T15:35:54Z</time>
            </trkpt>
            <trkpt lat="42.636830" lon="-71.727160">
                <time>2026-05-05T15:35:55Z</time>
            </trkpt>
            <trkpt lat="42.636760" lon="-71.727020">
                <time>2026-05-05T15:35:56Z</time>
            </trkpt>
            <trkpt lat="42.636700" lon="-71.726890">
                <time>2026-05-05T15:35:57Z</time>
            </trkpt>
            <trkpt lat="42.636610" lon="-71.726760">
                <time>2026-05-05T15:35:58Z</time>
            </trkpt>
            <trkpt lat="42.636530" lon="-71.726650">
                <time>2026-05-05T15:35:59Z</time>
            </trkpt>
            <trkpt lat="42.636450" lon="-71.726530">
                <time>2026-05-05T15:36:00Z</time>
            </trkpt>
            <trkpt lat="42.636380" lon="-71.726410">
                <time>2026-05-05T15:36:01Z</time>
            </trkpt>
            <trkpt lat="42.636330" lon="-71.726270">
                <time>2026-05-05T15:36:02Z</time>
            </trkpt>
            <trkpt lat="42.636290" lon="-71.726110">
                <time>2026-05-05T15:36:03Z</time>
            </trkpt>
            <trkpt lat="42.636260" lon="-71.725960">
                <time>2026-05-05T15:36:04Z</time>
            </trkpt>
            <trkpt lat="42.636240" lon="-71.725800">
                <time>2026-05-05T15:36:05Z</time>
            </trkpt>
            <trkpt lat="42.636220" lon="-71.725640">
                <time>2026-05-05T15:36:06Z</time>
            </trkpt>
            <trkpt lat="42.636200" lon="-71.725480">
                <time>2026-05-05T15:36:07Z</time>
            </trkpt>
            <trkpt lat="42.636180" lon="-71.725330">
                <time>2026-05-05T15:36:08Z</time>
            </trkpt>
            <trkpt lat="42.636160" lon="-71.725190">
                <time>2026-05-05T15:36:09Z</time>
            </trkpt>
            <trkpt lat="42.636130" lon="-71.725040">
                <time>2026-05-05T15:36:10Z</time>
            </trkpt>
            <trkpt lat="42.636090" lon="-71.724930">
                <time>2026-05-05T15:36:11Z</time>
            </trkpt>
            <trkpt lat="42.636020" lon="-71.724820">
                <time>2026-05-05T15:36:12Z</time>
            </trkpt>
            <trkpt lat="42.635930" lon="-71.724760">
                <time>2026-05-05T15:36:13Z</time>
            </trkpt>
            <trkpt lat="42.635820" lon="-71.724700">
                <time>2026-05-05T15:36:14Z</time>
            </trkpt>
            <trkpt lat="42.635680" lon="-71.724670">
                <time>2026-05-05T15:36:15Z</time>
            </trkpt>
            <trkpt lat="42.635550" lon="-71.724630">
                <time>2026-05-05T15:36:16Z</time>
            </trkpt>
            <trkpt lat="42.635430" lon="-71.724580">
                <time>2026-05-05T15:36:17Z</time>
            </trkpt>
            <trkpt lat="42.635310" lon="-71.724550">
                <time>2026-05-05T15:36:18Z</time>
            </trkpt>
            <trkpt lat="42.635190" lon="-71.724500">
                <time>2026-05-05T15:36:19Z</time>
            </trkpt>
            <trkpt lat="42.635080" lon="-71.724410">
                <time>2026-05-05T15:36:20Z</time>
            </trkpt>
            <trkpt lat="42.634980" lon="-71.724300">
                <time>2026-05-05T15:36:21Z</time>
            </trkpt>
            <trkpt lat="42.634900" lon="-71.724160">
                <time>2026-05-05T15:36:22Z</time>
            </trkpt>
            <trkpt lat="42.634840" lon="-71.724010">
                <time>2026-05-05T15:36:23Z</time>
            </trkpt>
            <trkpt lat="42.634780" lon="-71.723870">
                <time>2026-05-05T15:36:24Z</time>
            </trkpt>
            <trkpt lat="42.634740" lon="-71.723710">
                <time>2026-05-05T15:36:25Z</time>
            </trkpt>
            <trkpt lat="42.634700" lon="-71.723560">
                <time>2026-05-05T15:36:26Z</time>
            </trkpt>
            <trkpt lat="42.634660" lon="-71.723400">
                <time>2026-05-05T15:36:27Z</time>
            </trkpt>
            <trkpt lat="42.634620" lon="-71.723260">
                <time>2026-05-05T15:36:28Z</time>
            </trkpt>
            <trkpt lat="42.634600" lon="-71.723090">
                <time>2026-05-05T15:36:29Z</time>
            </trkpt>
            <trkpt lat="42.634580" lon="-71.722930">
                <time>2026-05-05T15:36:30Z</time>
            </trkpt>
            <trkpt lat="42.634570" lon="-71.722760">
                <time>2026-05-05T15:36:31Z</time>
            </trkpt>
            <trkpt lat="42.634570" lon="-71.722570">
                <time>2026-05-05T15:36:32Z</time>
            </trkpt>
            <trkpt lat="42.634560" lon="-71.722390">
                <time>2026-05-05T15:36:33Z</time>
            </trkpt>
            <trkpt lat="42.634550" lon="-71.722200">
                <time>2026-05-05T15:36:34Z</time>
            </trkpt>
            <trkpt lat="42.634540" lon="-71.722020">
                <time>2026-05-05T15:36:35Z</time>
            </trkpt>
            <trkpt lat="42.634510" lon="-71.721840">
                <time>2026-05-05T15:36:36Z</time>
            </trkpt>
            <trkpt lat="42.634490" lon="-71.721670">
                <time>2026-05-05T15:36:37Z</time>
            </trkpt>
            <trkpt lat="42.634460" lon="-71.721510">
                <time>2026-05-05T15:36:38Z</time>
            </trkpt>
            <trkpt lat="42.634430" lon="-71.721330">
                <time>2026-05-05T15:36:39Z</time>
            </trkpt>
            <trkpt lat="42.634390" lon="-71.721140">
                <time>2026-05-05T15:36:40Z</time>
            </trkpt>
            <trkpt lat="42.634360" lon="-71.720950">
                <time>2026-05-05T15:36:41Z</time>
            </trkpt>
            <trkpt lat="42.634320" lon="-71.720750">
                <time>2026-05-05T15:36:42Z</time>
            </trkpt>
            <trkpt lat="42.634290" lon="-71.720570">
                <time>2026-05-05T15:36:43Z</time>
            </trkpt>
            <trkpt lat="42.634260" lon="-71.720390">
                <time>2026-05-05T15:36:44Z</time>
            </trkpt>
            <trkpt lat="42.634240" lon="-71.720230">
                <time>2026-05-05T15:36:45Z</time>
            </trkpt>
            <trkpt lat="42.634210" lon="-71.720050">
                <time>2026-05-05T15:36:46Z</time>
            </trkpt>
            <trkpt lat="42.634180" lon="-71.719870">
                <time>2026-05-05T15:36:47Z</time>
            </trkpt>
            <trkpt lat="42.634150" lon="-71.719680">
                <time>2026-05-05T15:36:48Z</time>
            </trkpt>
            <trkpt lat="42.634110" lon="-71.719490">
                <time>2026-05-05T15:36:49Z</time>
            </trkpt>
            <trkpt lat="42.634060" lon="-71.719310">
                <time>2026-05-05T15:36:50Z</time>
            </trkpt>
            <trkpt lat="42.634000" lon="-71.719120">
                <time>2026-05-05T15:36:51Z</time>
            </trkpt>
            <trkpt lat="42.633950" lon="-71.718960">
                <time>2026-05-05T15:36:52Z</time>
            </trkpt>
            <trkpt lat="42.633890" lon="-71.718800">
                <time>2026-05-05T15:36:53Z</time>
            </trkpt>
            <trkpt lat="42.633820" lon="-71.718650">
                <time>2026-05-05T15:36:54Z</time>
            </trkpt>
            <trkpt lat="42.633740" lon="-71.718510">
                <time>2026-05-05T15:36:55Z</time>
            </trkpt>
            <trkpt lat="42.633640" lon="-71.718380">
                <time>2026-05-05T15:36:56Z</time>
            </trkpt>
            <trkpt lat="42.633550" lon="-71.718230">
                <time>2026-05-05T15:36:57Z</time>
            </trkpt>
            <trkpt lat="42.633450" lon="-71.718080">
                <time>2026-05-05T15:36:58Z</time>
            </trkpt>
            <trkpt lat="42.633350" lon="-71.717930">
                <time>2026-05-05T15:36:59Z</time>
            </trkpt>
            <trkpt lat="42.633260" lon="-71.717780">
                <time>2026-05-05T15:37:00Z</time>
            </trkpt>
            <trkpt lat="42.633170" lon="-71.717610">
                <time>2026-05-05T15:37:01Z</time>
            </trkpt>
            <trkpt lat="42.633080" lon="-71.717460">
                <time>2026-05-05T15:37:02Z</time>
            </trkpt>
            <trkpt lat="42.633000" lon="-71.717300">
                <time>2026-05-05T15:37:03Z</time>
            </trkpt>
            <trkpt lat="42.632920" lon="-71.717150">
                <time>2026-05-05T15:37:04Z</time>
            </trkpt>
            <trkpt lat="42.632840" lon="-71.717020">
                <time>2026-05-05T15:37:05Z</time>
            </trkpt>
            <trkpt lat="42.632760" lon="-71.716890">
                <time>2026-05-05T15:37:06Z</time>
            </trkpt>
            <trkpt lat="42.632650" lon="-71.716790">
                <time>2026-05-05T15:37:07Z</time>
            </trkpt>
            <trkpt lat="42.632550" lon="-71.716680">
                <time>2026-05-05T15:37:08Z</time>
            </trkpt>
            <trkpt lat="42.632450" lon="-71.716580">
                <time>2026-05-05T15:37:09Z</time>
            </trkpt>
            <trkpt lat="42.632370" lon="-71.716480">
                <time>2026-05-05T15:37:10Z</time>
            </trkpt>
            <trkpt lat="42.632300" lon="-71.716330">
                <time>2026-05-05T15:37:11Z</time>
            </trkpt>
            <trkpt lat="42.632240" lon="-71.716190">
                <time>2026-05-05T15:37:12Z</time>
            </trkpt>
            <trkpt lat="42.632200" lon="-71.716030">
                <time>2026-05-05T15:37:13Z</time>
            </trkpt>
            <trkpt lat="42.632170" lon="-71.715870">
                <time>2026-05-05T15:37:14Z</time>
            </trkpt>
            <trkpt lat="42.632140" lon="-71.715700">
                <time>2026-05-05T15:37:15Z</time>
            </trkpt>
            <trkpt lat="42.632140" lon="-71.715530">
                <time>2026-05-05T15:37:16Z</time>
            </trkpt>
            <trkpt lat="42.632140" lon="-71.715370">
                <time>2026-05-05T15:37:17Z</time>
            </trkpt>
            <trkpt lat="42.632150" lon="-71.715200">
                <time>2026-05-05T15:37:18Z</time>
            </trkpt>
            <trkpt lat="42.632170" lon="-71.715040">
                <time>2026-05-05T15:37:19Z</time>
            </trkpt>
            <trkpt lat="42.632190" lon="-71.714880">
                <time>2026-05-05T15:37:20Z</time>
            </trkpt>
            <trkpt lat="42.632200" lon="-71.714720">
                <time>2026-05-05T15:37:21Z</time>
            </trkpt>
            <trkpt lat="42.632180" lon="-71.714560">
                <time>2026-05-05T15:37:22Z</time>
            </trkpt>
            <trkpt lat="42.632160" lon="-71.714390">
                <time>2026-05-05T15:37:23Z</time>
            </trkpt>
            <trkpt lat="42.632130" lon="-71.714220">
                <time>2026-05-05T15:37:24Z</time>
            </trkpt>
            <trkpt lat="42.632110" lon="-71.714050">
                <time>2026-05-05T15:37:25Z</time>
            </trkpt>
            <trkpt lat="42.632100" lon="-71.713870">
                <time>2026-05-05T15:37:26Z</time>
            </trkpt>
            <trkpt lat="42.632100" lon="-71.713690">
                <time>2026-05-05T15:37:27Z</time>
            </trkpt>
            <trkpt lat="42.632090" lon="-71.713520">
                <time>2026-05-05T15:37:28Z</time>
            </trkpt>
            <trkpt lat="42.632090" lon="-71.713340">
                <time>2026-05-05T15:37:29Z</time>
            </trkpt>
            <trkpt lat="42.632100" lon="-71.713180">
                <time>2026-05-05T15:37:30Z</time>
            </trkpt>
            <trkpt lat="42.632100" lon="-71.713000">
                <time>2026-05-05T15:37:31Z</time>
            </trkpt>
            <trkpt lat="42.632090" lon="-71.712840">
                <time>2026-05-05T15:37:32Z</time>
            </trkpt>
            <trkpt lat="42.632060" lon="-71.712670">
                <time>2026-05-05T15:37:33Z</time>
            </trkpt>
            <trkpt lat="42.632010" lon="-71.712510">
                <time>2026-05-05T15:37:34Z</time>
            </trkpt>
            <trkpt lat="42.631940" lon="-71.712340">
                <time>2026-05-05T15:37:35Z</time>
            </trkpt>
            <trkpt lat="42.631870" lon="-71.712180">
                <time>2026-05-05T15:37:36Z</time>
            </trkpt>
            <trkpt lat="42.631800" lon="-71.712010">
                <time>2026-05-05T15:37:37Z</time>
            </trkpt>
            <trkpt lat="42.631740" lon="-71.711860">
                <time>2026-05-05T15:37:38Z</time>
            </trkpt>
            <trkpt lat="42.631680" lon="-71.711710">
                <time>2026-05-05T15:37:39Z</time>
            </trkpt>
            <trkpt lat="42.631620" lon="-71.711560">
                <time>2026-05-05T15:37:40Z</time>
            </trkpt>
            <trkpt lat="42.631570" lon="-71.711430">
                <time>2026-05-05T15:37:41Z</time>
            </trkpt>
            <trkpt lat="42.631510" lon="-71.711280">
                <time>2026-05-05T15:37:42Z</time>
            </trkpt>
            <trkpt lat="42.631460" lon="-71.711140">
                <time>2026-05-05T15:37:43Z</time>
            </trkpt>
            <trkpt lat="42.631420" lon="-71.711010">
                <time>2026-05-05T15:37:44Z</time>
            </trkpt>
            <trkpt lat="42.631390" lon="-71.710870">
                <time>2026-05-05T15:37:45Z</time>
            </trkpt>
            <trkpt lat="42.631370" lon="-71.710730">
                <time>2026-05-05T15:37:46Z</time>
            </trkpt>
            <trkpt lat="42.631430" lon="-71.710580">
                <time>2026-05-05T15:37:47Z</time>
            </trkpt>
            <trkpt lat="42.631480" lon="-71.710430">
                <time>2026-05-05T15:37:48Z</time>
            </trkpt>
            <trkpt lat="42.631560" lon="-71.710310">
                <time>2026-05-05T15:37:49Z</time>
            </trkpt>
            <trkpt lat="42.631640" lon="-71.710160">
                <time>2026-05-05T15:37:50Z</time>
            </trkpt>
            <trkpt lat="42.631730" lon="-71.710020">
                <time>2026-05-05T15:37:51Z</time>
            </trkpt>
            <trkpt lat="42.631840" lon="-71.709900">
                <time>2026-05-05T15:37:52Z</time>
            </trkpt>
            <trkpt lat="42.631930" lon="-71.709760">
                <time>2026-05-05T15:37:53Z</time>
            </trkpt>
            <trkpt lat="42.632030" lon="-71.709610">
                <time>2026-05-05T15:37:54Z</time>
            </trkpt>
            <trkpt lat="42.632120" lon="-71.709470">
                <time>2026-05-05T15:37:55Z</time>
            </trkpt>
            <trkpt lat="42.632210" lon="-71.709330">
                <time>2026-05-05T15:37:56Z</time>
            </trkpt>
            <trkpt lat="42.632300" lon="-71.709200">
                <time>2026-05-05T15:37:57Z</time>
            </trkpt>
            <trkpt lat="42.632380" lon="-71.709040">
                <time>2026-05-05T15:37:58Z</time>
            </trkpt>
            <trkpt lat="42.632430" lon="-71.708900">
                <time>2026-05-05T15:37:59Z</time>
            </trkpt>
            <trkpt lat="42.632450" lon="-71.708770">
                <time>2026-05-05T15:38:00Z</time>
            </trkpt>
            <trkpt lat="42.632460" lon="-71.708640">
                <time>2026-05-05T15:38:01Z</time>
            </trkpt>
            <trkpt lat="42.632470" lon="-71.708500">
                <time>2026-05-05T15:38:02Z</time>
            </trkpt>
            <trkpt lat="42.632420" lon="-71.708320">
                <time>2026-05-05T15:38:03Z</time>
            </trkpt>
            <trkpt lat="42.632380" lon="-71.708150">
                <time>2026-05-05T15:38:04Z</time>
            </trkpt>
            <trkpt lat="42.632340" lon="-71.707980">
                <time>2026-05-05T15:38:05Z</time>
            </trkpt>
            <trkpt lat="42.632280" lon="-71.707810">
                <time>2026-05-05T15:38:06Z</time>
            </trkpt>
            <trkpt lat="42.632240" lon="-71.707640">
                <time>2026-05-05T15:38:07Z</time>
            </trkpt>
            <trkpt lat="42.632200" lon="-71.707480">
                <time>2026-05-05T15:38:08Z</time>
            </trkpt>
            <trkpt lat="42.632160" lon="-71.707320">
                <time>2026-05-05T15:38:09Z</time>
            </trkpt>
            <trkpt lat="42.632110" lon="-71.707160">
                <time>2026-05-05T15:38:10Z</time>
            </trkpt>
            <trkpt lat="42.632070" lon="-71.707010">
                <time>2026-05-05T15:38:11Z</time>
            </trkpt>
            <trkpt lat="42.632020" lon="-71.706880">
                <time>2026-05-05T15:38:12Z</time>
            </trkpt>
            <trkpt lat="42.631990" lon="-71.706750">
                <time>2026-05-05T15:38:13Z</time>
            </trkpt>
            <trkpt lat="42.631960" lon="-71.706630">
                <time>2026-05-05T15:38:14Z</time>
            </trkpt>
            <trkpt lat="42.631940" lon="-71.706520">
                <time>2026-05-05T15:38:15Z</time>
            </trkpt>
            <trkpt lat="42.631920" lon="-71.706420">
                <time>2026-05-05T15:38:16Z</time>
            </trkpt>
            <trkpt lat="42.631910" lon="-71.706320">
                <time>2026-05-05T15:38:17Z</time>
            </trkpt>
            <trkpt lat="42.631910" lon="-71.706230">
                <time>2026-05-05T15:38:18Z</time>
            </trkpt>
            <trkpt lat="42.631930" lon="-71.706150">
                <time>2026-05-05T15:38:19Z</time>
            </trkpt>
            <trkpt lat="42.631970" lon="-71.706080">
                <time>2026-05-05T15:38:20Z</time>
            </trkpt>
            <trkpt lat="42.632020" lon="-71.706020">
                <time>2026-05-05T15:38:21Z</time>
            </trkpt>
            <trkpt lat="42.632070" lon="-71.705960">
                <time>2026-05-05T15:38:22Z</time>
            </trkpt>
            <trkpt lat="42.632130" lon="-71.705900">
                <time>2026-05-05T15:38:23Z</time>
            </trkpt>
            <trkpt lat="42.632180" lon="-71.705820">
                <time>2026-05-05T15:38:24Z</time>
            </trkpt>
            <trkpt lat="42.632220" lon="-71.705730">
                <time>2026-05-05T15:38:25Z</time>
            </trkpt>
            <trkpt lat="42.632260" lon="-71.705630">
                <time>2026-05-05T15:38:26Z</time>
            </trkpt>
            <trkpt lat="42.632290" lon="-71.705530">
                <time>2026-05-05T15:38:27Z</time>
            </trkpt>
            <trkpt lat="42.632330" lon="-71.705430">
                <time>2026-05-05T15:38:28Z</time>
            </trkpt>
            <trkpt lat="42.632350" lon="-71.705360">
                <time>2026-05-05T15:38:29Z</time>
            </trkpt>
            <trkpt lat="42.632360" lon="-71.705330">
                <time>2026-05-05T15:38:30Z</time>
            </trkpt>
            <trkpt lat="42.632360" lon="-71.705300">
                <time>2026-05-05T15:38:31Z</time>
            </trkpt>
            <trkpt lat="42.632360" lon="-71.705300">
                <time>2026-05-05T15:38:32Z</time>
            </trkpt>
            <trkpt lat="42.632370" lon="-71.705300">
                <time>2026-05-05T15:38:33Z</time>
            </trkpt>
            <trkpt lat="42.632380" lon="-71.705280">
                <time>2026-05-05T15:38:34Z</time>
            </trkpt>
            <trkpt lat="42.632390" lon="-71.705240">
                <time>2026-05-05T15:38:35Z</time>
            </trkpt>
            <trkpt lat="42.632410" lon="-71.705190">
                <time>2026-05-05T15:38:36Z</time>
            </trkpt>
            <trkpt lat="42.632440" lon="-71.705120">
                <time>2026-05-05T15:38:37Z</time>
            </trkpt>
            <trkpt lat="42.632460" lon="-71.705030">
                <time>2026-05-05T15:38:38Z</time>
            </trkpt>
            <trkpt lat="42.632490" lon="-71.704940">
                <time>2026-05-05T15:38:39Z</time>
            </trkpt>
            <trkpt lat="42.632530" lon="-71.704860">
                <time>2026-05-05T15:38:40Z</time>
            </trkpt>
            <trkpt lat="42.632560" lon="-71.704760">
                <time>2026-05-05T15:38:41Z</time>
            </trkpt>
            <trkpt lat="42.632600" lon="-71.704660">
                <time>2026-05-05T15:38:42Z</time>
            </trkpt>
            <trkpt lat="42.632640" lon="-71.704540">
                <time>2026-05-05T15:38:43Z</time>
            </trkpt>
            <trkpt lat="42.632670" lon="-71.704430">
                <time>2026-05-05T15:38:44Z</time>
            </trkpt>
            <trkpt lat="42.632710" lon="-71.704320">
                <time>2026-05-05T15:38:45Z</time>
            </trkpt>
            <trkpt lat="42.632740" lon="-71.704210">
                <time>2026-05-05T15:38:46Z</time>
            </trkpt>
            <trkpt lat="42.632770" lon="-71.704100">
                <time>2026-05-05T15:38:47Z</time>
            </trkpt>
            <trkpt lat="42.632800" lon="-71.703980">
                <time>2026-05-05T15:38:48Z</time>
            </trkpt>
            <trkpt lat="42.632830" lon="-71.703870">
                <time>2026-05-05T15:38:49Z</time>
            </trkpt>
            <trkpt lat="42.632870" lon="-71.703760">
                <time>2026-05-05T15:38:50Z</time>
            </trkpt>
            <trkpt lat="42.632900" lon="-71.703650">
                <time>2026-05-05T15:38:51Z</time>
            </trkpt>
            <trkpt lat="42.632930" lon="-71.703540">
                <time>2026-05-05T15:38:52Z</time>
            </trkpt>
            <trkpt lat="42.632960" lon="-71.703430">
                <time>2026-05-05T15:38:53Z</time>
            </trkpt>
            <trkpt lat="42.632990" lon="-71.703330">
                <time>2026-05-05T15:38:54Z</time>
            </trkpt>
            <trkpt lat="42.633010" lon="-71.703230">
                <time>2026-05-05T15:38:55Z</time>
            </trkpt>
            <trkpt lat="42.633040" lon="-71.703140">
                <time>2026-05-05T15:38:56Z</time>
            </trkpt>
            <trkpt lat="42.633070" lon="-71.703050">
                <time>2026-05-05T15:38:57Z</time>
            </trkpt>
            <trkpt lat="42.633110" lon="-71.702960">
                <time>2026-05-05T15:38:58Z</time>
            </trkpt>
            <trkpt lat="42.633150" lon="-71.702860">
                <time>2026-05-05T15:38:59Z</time>
            </trkpt>
            <trkpt lat="42.633200" lon="-71.702760">
                <time>2026-05-05T15:39:00Z</time>
            </trkpt>
            <trkpt lat="42.633260" lon="-71.702650">
                <time>2026-05-05T15:39:01Z</time>
            </trkpt>
            <trkpt lat="42.633320" lon="-71.702540">
                <time>2026-05-05T15:39:02Z</time>
            </trkpt>
            <trkpt lat="42.633390" lon="-71.702440">
                <time>2026-05-05T15:39:03Z</time>
            </trkpt>
            <trkpt lat="42.633470" lon="-71.702340">
                <time>2026-05-05T15:39:04Z</time>
            </trkpt>
            <trkpt lat="42.633550" lon="-71.702250">
                <time>2026-05-05T15:39:05Z</time>
            </trkpt>
            <trkpt lat="42.633630" lon="-71.702150">
                <time>2026-05-05T15:39:06Z</time>
            </trkpt>
            <trkpt lat="42.633720" lon="-71.702060">
                <time>2026-05-05T15:39:07Z</time>
            </trkpt>
            <trkpt lat="42.633800" lon="-71.701980">
                <time>2026-05-05T15:39:08Z</time>
            </trkpt>
            <trkpt lat="42.633890" lon="-71.701900">
                <time>2026-05-05T15:39:09Z</time>
            </trkpt>
            <trkpt lat="42.633980" lon="-71.701820">
                <time>2026-05-05T15:39:10Z</time>
            </trkpt>
            <trkpt lat="42.634080" lon="-71.701730">
                <time>2026-05-05T15:39:11Z</time>
            </trkpt>
            <trkpt lat="42.634180" lon="-71.701640">
                <time>2026-05-05T15:39:12Z</time>
            </trkpt>
            <trkpt lat="42.634280" lon="-71.701550">
                <time>2026-05-05T15:39:13Z</time>
            </trkpt>
            <trkpt lat="42.634380" lon="-71.701470">
                <time>2026-05-05T15:39:14Z</time>
            </trkpt>
            <trkpt lat="42.634460" lon="-71.701400">
                <time>2026-05-05T15:39:15Z</time>
            </trkpt>
            <trkpt lat="42.634550" lon="-71.701330">
                <time>2026-05-05T15:39:16Z</time>
            </trkpt>
            <trkpt lat="42.634620" lon="-71.701250">
                <time>2026-05-05T15:39:17Z</time>
            </trkpt>
            <trkpt lat="42.634700" lon="-71.701170">
                <time>2026-05-05T15:39:18Z</time>
            </trkpt>
            <trkpt lat="42.634780" lon="-71.701080">
                <time>2026-05-05T15:39:19Z</time>
            </trkpt>
            <trkpt lat="42.634860" lon="-71.701020">
                <time>2026-05-05T15:39:20Z</time>
            </trkpt>
            <trkpt lat="42.634920" lon="-71.700960">
                <time>2026-05-05T15:39:21Z</time>
            </trkpt>
            <trkpt lat="42.634990" lon="-71.700880">
                <time>2026-05-05T15:39:22Z</time>
            </trkpt>
            <trkpt lat="42.635050" lon="-71.700810">
                <time>2026-05-05T15:39:23Z</time>
            </trkpt>
            <trkpt lat="42.635120" lon="-71.700750">
                <time>2026-05-05T15:39:24Z</time>
            </trkpt>
            <trkpt lat="42.635200" lon="-71.700690">
                <time>2026-05-05T15:39:25Z</time>
            </trkpt>
            <trkpt lat="42.635280" lon="-71.700620">
                <time>2026-05-05T15:39:26Z</time>
            </trkpt>
            <trkpt lat="42.635360" lon="-71.700550">
                <time>2026-05-05T15:39:27Z</time>
            </trkpt>
            <trkpt lat="42.635450" lon="-71.700480">
                <time>2026-05-05T15:39:28Z</time>
            </trkpt>
            <trkpt lat="42.635540" lon="-71.700400">
                <time>2026-05-05T15:39:29Z</time>
            </trkpt>
            <trkpt lat="42.635620" lon="-71.700330">
                <time>2026-05-05T15:39:30Z</time>
            </trkpt>
            <trkpt lat="42.635720" lon="-71.700260">
                <time>2026-05-05T15:39:31Z</time>
            </trkpt>
            <trkpt lat="42.635810" lon="-71.700180">
                <time>2026-05-05T15:39:32Z</time>
            </trkpt>
            <trkpt lat="42.635900" lon="-71.700110">
                <time>2026-05-05T15:39:33Z</time>
            </trkpt>
            <trkpt lat="42.635990" lon="-71.700030">
                <time>2026-05-05T15:39:34Z</time>
            </trkpt>
            <trkpt lat="42.636080" lon="-71.699960">
                <time>2026-05-05T15:39:35Z</time>
            </trkpt>
            <trkpt lat="42.636170" lon="-71.699880">
                <time>2026-05-05T15:39:36Z</time>
            </trkpt>
            <trkpt lat="42.636270" lon="-71.699800">
                <time>2026-05-05T15:39:37Z</time>
            </trkpt>
            <trkpt lat="42.636360" lon="-71.699720">
                <time>2026-05-05T15:39:38Z</time>
            </trkpt>
            <trkpt lat="42.636440" lon="-71.699630">
                <time>2026-05-05T15:39:39Z</time>
            </trkpt>
            <trkpt lat="42.636530" lon="-71.699540">
                <time>2026-05-05T15:39:40Z</time>
            </trkpt>
            <trkpt lat="42.636620" lon="-71.699470">
                <time>2026-05-05T15:39:41Z</time>
            </trkpt>
            <trkpt lat="42.636690" lon="-71.699400">
                <time>2026-05-05T15:39:42Z</time>
            </trkpt>
            <trkpt lat="42.636750" lon="-71.699350">
                <time>2026-05-05T15:39:43Z</time>
            </trkpt>
            <trkpt lat="42.636810" lon="-71.699330">
                <time>2026-05-05T15:39:44Z</time>
            </trkpt>
            <trkpt lat="42.636860" lon="-71.699360">
                <time>2026-05-05T15:39:45Z</time>
            </trkpt>
            <trkpt lat="42.636910" lon="-71.699410">
                <time>2026-05-05T15:39:46Z</time>
            </trkpt>
            <trkpt lat="42.636960" lon="-71.699490">
                <time>2026-05-05T15:39:47Z</time>
            </trkpt>
            <trkpt lat="42.637000" lon="-71.699560">
                <time>2026-05-05T15:39:48Z</time>
            </trkpt>
            <trkpt lat="42.637050" lon="-71.699680">
                <time>2026-05-05T15:39:49Z</time>
            </trkpt>
            <trkpt lat="42.637100" lon="-71.699780">
                <time>2026-05-05T15:39:50Z</time>
            </trkpt>
            <trkpt lat="42.637150" lon="-71.699890">
                <time>2026-05-05T15:39:51Z</time>
            </trkpt>
            <trkpt lat="42.637210" lon="-71.699990">
                <time>2026-05-05T15:39:52Z</time>
            </trkpt>
            <trkpt lat="42.637280" lon="-71.700110">
                <time>2026-05-05T15:39:53Z</time>
            </trkpt>
            <trkpt lat="42.637340" lon="-71.700230">
                <time>2026-05-05T15:39:54Z</time>
            </trkpt>
            <trkpt lat="42.637400" lon="-71.700360">
                <time>2026-05-05T15:39:55Z</time>
            </trkpt>
            <trkpt lat="42.637470" lon="-71.700480">
                <time>2026-05-05T15:39:56Z</time>
            </trkpt>
            <trkpt lat="42.637540" lon="-71.700610">
                <time>2026-05-05T15:39:57Z</time>
            </trkpt>
            <trkpt lat="42.637600" lon="-71.700740">
                <time>2026-05-05T15:39:58Z</time>
            </trkpt>
            <trkpt lat="42.637670" lon="-71.700880">
                <time>2026-05-05T15:39:59Z</time>
            </trkpt>
            <trkpt lat="42.637750" lon="-71.701020">
                <time>2026-05-05T15:40:00Z</time>
            </trkpt>
            <trkpt lat="42.637830" lon="-71.701160">
                <time>2026-05-05T15:40:01Z</time>
            </trkpt>
            <trkpt lat="42.637920" lon="-71.701330">
                <time>2026-05-05T15:40:02Z</time>
            </trkpt>
            <trkpt lat="42.637990" lon="-71.701490">
                <time>2026-05-05T15:40:03Z</time>
            </trkpt>
            <trkpt lat="42.638080" lon="-71.701630">
                <time>2026-05-05T15:40:04Z</time>
            </trkpt>
            <trkpt lat="42.638150" lon="-71.701790">
                <time>2026-05-05T15:40:05Z</time>
            </trkpt>
            <trkpt lat="42.638240" lon="-71.701950">
                <time>2026-05-05T15:40:06Z</time>
            </trkpt>
            <trkpt lat="42.638330" lon="-71.702120">
                <time>2026-05-05T15:40:07Z</time>
            </trkpt>
            <trkpt lat="42.638430" lon="-71.702290">
                <time>2026-05-05T15:40:08Z</time>
            </trkpt>
            <trkpt lat="42.638520" lon="-71.702460">
                <time>2026-05-05T15:40:09Z</time>
            </trkpt>
            <trkpt lat="42.638600" lon="-71.702640">
                <time>2026-05-05T15:40:10Z</time>
            </trkpt>
            <trkpt lat="42.638690" lon="-71.702810">
                <time>2026-05-05T15:40:11Z</time>
            </trkpt>
            <trkpt lat="42.638770" lon="-71.702980">
                <time>2026-05-05T15:40:12Z</time>
            </trkpt>
            <trkpt lat="42.638860" lon="-71.703150">
                <time>2026-05-05T15:40:13Z</time>
            </trkpt>
            <trkpt lat="42.638950" lon="-71.703330">
                <time>2026-05-05T15:40:14Z</time>
            </trkpt>
            <trkpt lat="42.639040" lon="-71.703510">
                <time>2026-05-05T15:40:15Z</time>
            </trkpt>
            <trkpt lat="42.639130" lon="-71.703680">
                <time>2026-05-05T15:40:16Z</time>
            </trkpt>
            <trkpt lat="42.639220" lon="-71.703850">
                <time>2026-05-05T15:40:17Z</time>
            </trkpt>
            <trkpt lat="42.639310" lon="-71.704030">
                <time>2026-05-05T15:40:18Z</time>
            </trkpt>
            <trkpt lat="42.639400" lon="-71.704200">
                <time>2026-05-05T15:40:19Z</time>
            </trkpt>
            <trkpt lat="42.639490" lon="-71.704370">
                <time>2026-05-05T15:40:20Z</time>
            </trkpt>
            <trkpt lat="42.639570" lon="-71.704550">
                <time>2026-05-05T15:40:21Z</time>
            </trkpt>
            <trkpt lat="42.639670" lon="-71.704720">
                <time>2026-05-05T15:40:22Z</time>
            </trkpt>
            <trkpt lat="42.639750" lon="-71.704890">
                <time>2026-05-05T15:40:23Z</time>
            </trkpt>
            <trkpt lat="42.639840" lon="-71.705070">
                <time>2026-05-05T15:40:24Z</time>
            </trkpt>
            <trkpt lat="42.639930" lon="-71.705240">
                <time>2026-05-05T15:40:25Z</time>
            </trkpt>
            <trkpt lat="42.640030" lon="-71.705410">
                <time>2026-05-05T15:40:26Z</time>
            </trkpt>
            <trkpt lat="42.640120" lon="-71.705580">
                <time>2026-05-05T15:40:27Z</time>
            </trkpt>
            <trkpt lat="42.640220" lon="-71.705730">
                <time>2026-05-05T15:40:28Z</time>
            </trkpt>
            <trkpt lat="42.640330" lon="-71.705880">
                <time>2026-05-05T15:40:29Z</time>
            </trkpt>
            <trkpt lat="42.640450" lon="-71.706030">
                <time>2026-05-05T15:40:30Z</time>
            </trkpt>
            <trkpt lat="42.640570" lon="-71.706150">
                <time>2026-05-05T15:40:31Z</time>
            </trkpt>
            <trkpt lat="42.640700" lon="-71.706280">
                <time>2026-05-05T15:40:32Z</time>
            </trkpt>
            <trkpt lat="42.640820" lon="-71.706400">
                <time>2026-05-05T15:40:33Z</time>
            </trkpt>
            <trkpt lat="42.640960" lon="-71.706540">
                <time>2026-05-05T15:40:34Z</time>
            </trkpt>
            <trkpt lat="42.641090" lon="-71.706670">
                <time>2026-05-05T15:40:35Z</time>
            </trkpt>
            <trkpt lat="42.641210" lon="-71.706810">
                <time>2026-05-05T15:40:36Z</time>
            </trkpt>
            <trkpt lat="42.641330" lon="-71.706950">
                <time>2026-05-05T15:40:37Z</time>
            </trkpt>
            <trkpt lat="42.641440" lon="-71.707080">
                <time>2026-05-05T15:40:38Z</time>
            </trkpt>
            <trkpt lat="42.641570" lon="-71.707210">
                <time>2026-05-05T15:40:39Z</time>
            </trkpt>
            <trkpt lat="42.641690" lon="-71.707350">
                <time>2026-05-05T15:40:40Z</time>
            </trkpt>
            <trkpt lat="42.641820" lon="-71.707490">
                <time>2026-05-05T15:40:41Z</time>
            </trkpt>
            <trkpt lat="42.641950" lon="-71.707620">
                <time>2026-05-05T15:40:42Z</time>
            </trkpt>
            <trkpt lat="42.642060" lon="-71.707760">
                <time>2026-05-05T15:40:43Z</time>
            </trkpt>
            <trkpt lat="42.642180" lon="-71.707890">
                <time>2026-05-05T15:40:44Z</time>
            </trkpt>
            <trkpt lat="42.642310" lon="-71.708030">
                <time>2026-05-05T15:40:45Z</time>
            </trkpt>
            <trkpt lat="42.642420" lon="-71.708180">
                <time>2026-05-05T15:40:46Z</time>
            </trkpt>
            <trkpt lat="42.642520" lon="-71.708310">
                <time>2026-05-05T15:40:47Z</time>
            </trkpt>
            <trkpt lat="42.642640" lon="-71.708430">
                <time>2026-05-05T15:40:48Z</time>
            </trkpt>
            <trkpt lat="42.642750" lon="-71.708550">
                <time>2026-05-05T15:40:49Z</time>
            </trkpt>
            <trkpt lat="42.642860" lon="-71.708660">
                <time>2026-05-05T15:40:50Z</time>
            </trkpt>
            <trkpt lat="42.642970" lon="-71.708800">
                <time>2026-05-05T15:40:51Z</time>
            </trkpt>
            <trkpt lat="42.643060" lon="-71.708950">
                <time>2026-05-05T15:40:52Z</time>
            </trkpt>
            <trkpt lat="42.643140" lon="-71.709120">
                <time>2026-05-05T15:40:53Z</time>
            </trkpt>
            <trkpt lat="42.643230" lon="-71.709270">
                <time>2026-05-05T15:40:54Z</time>
            </trkpt>
            <trkpt lat="42.643320" lon="-71.709430">
                <time>2026-05-05T15:40:55Z</time>
            </trkpt>
            <trkpt lat="42.643410" lon="-71.709570">
                <time>2026-05-05T15:40:56Z</time>
            </trkpt>
            <trkpt lat="42.643510" lon="-71.709710">
                <time>2026-05-05T15:40:57Z</time>
            </trkpt>
            <trkpt lat="42.643630" lon="-71.709840">
                <time>2026-05-05T15:40:58Z</time>
            </trkpt>
            <trkpt lat="42.643750" lon="-71.709960">
                <time>2026-05-05T15:40:59Z</time>
            </trkpt>
            <trkpt lat="42.643870" lon="-71.710060">
                <time>2026-05-05T15:41:00Z</time>
            </trkpt>
            <trkpt lat="42.643980" lon="-71.710170">
                <time>2026-05-05T15:41:01Z</time>
            </trkpt>
            <trkpt lat="42.644090" lon="-71.710250">
                <time>2026-05-05T15:41:02Z</time>
            </trkpt>
            <trkpt lat="42.644190" lon="-71.710340">
                <time>2026-05-05T15:41:03Z</time>
            </trkpt>
            <trkpt lat="42.644290" lon="-71.710430">
                <time>2026-05-05T15:41:04Z</time>
            </trkpt>
            <trkpt lat="42.644390" lon="-71.710510">
                <time>2026-05-05T15:41:05Z</time>
            </trkpt>
            <trkpt lat="42.644480" lon="-71.710590">
                <time>2026-05-05T15:41:06Z</time>
            </trkpt>
            <trkpt lat="42.644550" lon="-71.710670">
                <time>2026-05-05T15:41:07Z</time>
            </trkpt>
            <trkpt lat="42.644610" lon="-71.710740">
                <time>2026-05-05T15:41:08Z</time>
            </trkpt>
            <trkpt lat="42.644640" lon="-71.710790">
                <time>2026-05-05T15:41:09Z</time>
            </trkpt>
            <trkpt lat="42.644660" lon="-71.710820">
                <time>2026-05-05T15:41:10Z</time>
            </trkpt>
            <trkpt lat="42.644660" lon="-71.710820">
                <time>2026-05-05T15:41:11Z</time>
            </trkpt>
            <trkpt lat="42.644660" lon="-71.710820">
                <time>2026-05-05T15:41:12Z</time>
            </trkpt>
            <trkpt lat="42.644660" lon="-71.710820">
                <time>2026-05-05T15:41:13Z</time>
            </trkpt>
            <trkpt lat="42.644660" lon="-71.710830">
                <time>2026-05-05T15:41:14Z</time>
            </trkpt>
            <trkpt lat="42.644680" lon="-71.710860">
                <time>2026-05-05T15:41:15Z</time>
            </trkpt>
            <trkpt lat="42.644710" lon="-71.710920">
                <time>2026-05-05T15:41:16Z</time>
            </trkpt>
            <trkpt lat="42.644740" lon="-71.710990">
                <time>2026-05-05T15:41:17Z</time>
            </trkpt>
            <trkpt lat="42.644780" lon="-71.711080">
                <time>2026-05-05T15:41:18Z</time>
            </trkpt>
            <trkpt lat="42.644810" lon="-71.711170">
                <time>2026-05-05T15:41:19Z</time>
            </trkpt>
            <trkpt lat="42.644840" lon="-71.711280">
                <time>2026-05-05T15:41:20Z</time>
            </trkpt>
            <trkpt lat="42.644880" lon="-71.711400">
                <time>2026-05-05T15:41:21Z</time>
            </trkpt>
            <trkpt lat="42.644920" lon="-71.711540">
                <time>2026-05-05T15:41:22Z</time>
            </trkpt>
            <trkpt lat="42.644950" lon="-71.711680">
                <time>2026-05-05T15:41:23Z</time>
            </trkpt>
            <trkpt lat="42.644990" lon="-71.711830">
                <time>2026-05-05T15:41:24Z</time>
            </trkpt>
            <trkpt lat="42.645020" lon="-71.711970">
                <time>2026-05-05T15:41:25Z</time>
            </trkpt>
            <trkpt lat="42.645060" lon="-71.712120">
                <time>2026-05-05T15:41:26Z</time>
            </trkpt>
            <trkpt lat="42.645100" lon="-71.712280">
                <time>2026-05-05T15:41:27Z</time>
            </trkpt>
            <trkpt lat="42.645150" lon="-71.712440">
                <time>2026-05-05T15:41:28Z</time>
            </trkpt>
            <trkpt lat="42.645210" lon="-71.712590">
                <time>2026-05-05T15:41:29Z</time>
            </trkpt>
            <trkpt lat="42.645270" lon="-71.712750">
                <time>2026-05-05T15:41:30Z</time>
            </trkpt>
            <trkpt lat="42.645340" lon="-71.712900">
                <time>2026-05-05T15:41:31Z</time>
            </trkpt>
            <trkpt lat="42.645410" lon="-71.713040">
                <time>2026-05-05T15:41:32Z</time>
            </trkpt>
            <trkpt lat="42.645500" lon="-71.713180">
                <time>2026-05-05T15:41:33Z</time>
            </trkpt>
            <trkpt lat="42.645570" lon="-71.713310">
                <time>2026-05-05T15:41:34Z</time>
            </trkpt>
            <trkpt lat="42.645640" lon="-71.713420">
                <time>2026-05-05T15:41:35Z</time>
            </trkpt>
            <trkpt lat="42.645710" lon="-71.713530">
                <time>2026-05-05T15:41:36Z</time>
            </trkpt>
            <trkpt lat="42.645780" lon="-71.713630">
                <time>2026-05-05T15:41:37Z</time>
            </trkpt>
            <trkpt lat="42.645830" lon="-71.713720">
                <time>2026-05-05T15:41:38Z</time>
            </trkpt>
            <trkpt lat="42.645880" lon="-71.713790">
                <time>2026-05-05T15:41:39Z</time>
            </trkpt>
            <trkpt lat="42.645940" lon="-71.713850">
                <time>2026-05-05T15:41:40Z</time>
            </trkpt>
            <trkpt lat="42.645990" lon="-71.713910">
                <time>2026-05-05T15:41:41Z</time>
            </trkpt>
            <trkpt lat="42.646050" lon="-71.713980">
                <time>2026-05-05T15:41:42Z</time>
            </trkpt>
            <trkpt lat="42.646120" lon="-71.714040">
                <time>2026-05-05T15:41:43Z</time>
            </trkpt>
            <trkpt lat="42.646190" lon="-71.714110">
                <time>2026-05-05T15:41:44Z</time>
            </trkpt>
            <trkpt lat="42.646250" lon="-71.714170">
                <time>2026-05-05T15:41:45Z</time>
            </trkpt>
            <trkpt lat="42.646310" lon="-71.714230">
                <time>2026-05-05T15:41:46Z</time>
            </trkpt>
            <trkpt lat="42.646380" lon="-71.714290">
                <time>2026-05-05T15:41:47Z</time>
            </trkpt>
            <trkpt lat="42.646440" lon="-71.714360">
                <time>2026-05-05T15:41:48Z</time>
            </trkpt>
            <trkpt lat="42.646500" lon="-71.714440">
                <time>2026-05-05T15:41:49Z</time>
            </trkpt>
            <trkpt lat="42.646560" lon="-71.714530">
                <time>2026-05-05T15:41:50Z</time>
            </trkpt>
            <trkpt lat="42.646630" lon="-71.714630">
                <time>2026-05-05T15:41:51Z</time>
            </trkpt>
            <trkpt lat="42.646680" lon="-71.714750">
                <time>2026-05-05T15:41:52Z</time>
            </trkpt>
            <trkpt lat="42.646740" lon="-71.714850">
                <time>2026-05-05T15:41:53Z</time>
            </trkpt>
            <trkpt lat="42.646800" lon="-71.714960">
                <time>2026-05-05T15:41:54Z</time>
            </trkpt>
            <trkpt lat="42.646880" lon="-71.715070">
                <time>2026-05-05T15:41:55Z</time>
            </trkpt>
            <trkpt lat="42.646960" lon="-71.715130">
                <time>2026-05-05T15:41:56Z</time>
            </trkpt>
            <trkpt lat="42.647060" lon="-71.715200">
                <time>2026-05-05T15:41:57Z</time>
            </trkpt>
            <trkpt lat="42.647150" lon="-71.715250">
                <time>2026-05-05T15:41:58Z</time>
            </trkpt>
            <trkpt lat="42.647220" lon="-71.715290">
                <time>2026-05-05T15:41:59Z</time>
            </trkpt>
            <trkpt lat="42.647280" lon="-71.715320">
                <time>2026-05-05T15:42:00Z</time>
            </trkpt>
            <trkpt lat="42.647310" lon="-71.715340">
                <time>2026-05-05T15:42:01Z</time>
            </trkpt>
            <trkpt lat="42.647340" lon="-71.715340">
                <time>2026-05-05T15:42:02Z</time>
            </trkpt>
            <trkpt lat="42.647350" lon="-71.715350">
                <time>2026-05-05T15:42:03Z</time>
            </trkpt>
            <trkpt lat="42.647370" lon="-71.715350">
                <time>2026-05-05T15:42:04Z</time>
            </trkpt>
            <trkpt lat="42.647410" lon="-71.715370">
                <time>2026-05-05T15:42:05Z</time>
            </trkpt>
            <trkpt lat="42.647470" lon="-71.715400">
                <time>2026-05-05T15:42:06Z</time>
            </trkpt>
            <trkpt lat="42.647550" lon="-71.715430">
                <time>2026-05-05T15:42:07Z</time>
            </trkpt>
            <trkpt lat="42.647620" lon="-71.715470">
                <time>2026-05-05T15:42:08Z</time>
            </trkpt>
            <trkpt lat="42.647700" lon="-71.715510">
                <time>2026-05-05T15:42:09Z</time>
            </trkpt>
            <trkpt lat="42.647790" lon="-71.715560">
                <time>2026-05-05T15:42:10Z</time>
            </trkpt>
            <trkpt lat="42.647900" lon="-71.715620">
                <time>2026-05-05T15:42:11Z</time>
            </trkpt>
            <trkpt lat="42.648010" lon="-71.715670">
                <time>2026-05-05T15:42:12Z</time>
            </trkpt>
            <trkpt lat="42.648120" lon="-71.715730">
                <time>2026-05-05T15:42:13Z</time>
            </trkpt>
            <trkpt lat="42.648230" lon="-71.715810">
                <time>2026-05-05T15:42:14Z</time>
            </trkpt>
            <trkpt lat="42.648330" lon="-71.715880">
                <time>2026-05-05T15:42:15Z</time>
            </trkpt>
            <trkpt lat="42.648440" lon="-71.715960">
                <time>2026-05-05T15:42:16Z</time>
            </trkpt>
            <trkpt lat="42.648550" lon="-71.716050">
                <time>2026-05-05T15:42:17Z</time>
            </trkpt>
            <trkpt lat="42.648660" lon="-71.716120">
                <time>2026-05-05T15:42:18Z</time>
            </trkpt>
            <trkpt lat="42.648770" lon="-71.716200">
                <time>2026-05-05T15:42:19Z</time>
            </trkpt>
            <trkpt lat="42.648870" lon="-71.716250">
                <time>2026-05-05T15:42:20Z</time>
            </trkpt>
            <trkpt lat="42.648980" lon="-71.716290">
                <time>2026-05-05T15:42:21Z</time>
            </trkpt>
            <trkpt lat="42.649090" lon="-71.716320">
                <time>2026-05-05T15:42:22Z</time>
            </trkpt>
            <trkpt lat="42.649180" lon="-71.716340">
                <time>2026-05-05T15:42:23Z</time>
            </trkpt>
            <trkpt lat="42.649270" lon="-71.716350">
                <time>2026-05-05T15:42:24Z</time>
            </trkpt>
            <trkpt lat="42.649350" lon="-71.716370">
                <time>2026-05-05T15:42:25Z</time>
            </trkpt>
            <trkpt lat="42.649430" lon="-71.716400">
                <time>2026-05-05T15:42:26Z</time>
            </trkpt>
            <trkpt lat="42.649490" lon="-71.716450">
                <time>2026-05-05T15:42:27Z</time>
            </trkpt>
            <trkpt lat="42.649520" lon="-71.716530">
                <time>2026-05-05T15:42:28Z</time>
            </trkpt>
            <trkpt lat="42.649540" lon="-71.716570">
                <time>2026-05-05T15:42:29Z</time>
            </trkpt>
            <trkpt lat="42.649540" lon="-71.716590">
                <time>2026-05-05T15:42:30Z</time>
            </trkpt>
            <trkpt lat="42.649550" lon="-71.716600">
                <time>2026-05-05T15:42:31Z</time>
            </trkpt>
            <trkpt lat="42.649570" lon="-71.716620">
                <time>2026-05-05T15:42:32Z</time>
            </trkpt>
            <trkpt lat="42.649600" lon="-71.716640">
                <time>2026-05-05T15:42:33Z</time>
            </trkpt>
            <trkpt lat="42.649640" lon="-71.716640">
                <time>2026-05-05T15:42:34Z</time>
            </trkpt>
            <trkpt lat="42.649710" lon="-71.716640">
                <time>2026-05-05T15:42:35Z</time>
            </trkpt>
            <trkpt lat="42.649770" lon="-71.716630">
                <time>2026-05-05T15:42:36Z</time>
            </trkpt>
            <trkpt lat="42.649840" lon="-71.716620">
                <time>2026-05-05T15:42:37Z</time>
            </trkpt>
            <trkpt lat="42.649920" lon="-71.716620">
                <time>2026-05-05T15:42:38Z</time>
            </trkpt>
            <trkpt lat="42.650010" lon="-71.716630">
                <time>2026-05-05T15:42:39Z</time>
            </trkpt>
            <trkpt lat="42.650110" lon="-71.716640">
                <time>2026-05-05T15:42:40Z</time>
            </trkpt>
            <trkpt lat="42.650210" lon="-71.716650">
                <time>2026-05-05T15:42:41Z</time>
            </trkpt>
            <trkpt lat="42.650320" lon="-71.716670">
                <time>2026-05-05T15:42:42Z</time>
            </trkpt>
            <trkpt lat="42.650420" lon="-71.716690">
                <time>2026-05-05T15:42:43Z</time>
            </trkpt>
            <trkpt lat="42.650530" lon="-71.716700">
                <time>2026-05-05T15:42:44Z</time>
            </trkpt>
            <trkpt lat="42.650650" lon="-71.716710">
                <time>2026-05-05T15:42:45Z</time>
            </trkpt>
            <trkpt lat="42.650770" lon="-71.716720">
                <time>2026-05-05T15:42:46Z</time>
            </trkpt>
            <trkpt lat="42.650880" lon="-71.716710">
                <time>2026-05-05T15:42:47Z</time>
            </trkpt>
            <trkpt lat="42.651010" lon="-71.716710">
                <time>2026-05-05T15:42:48Z</time>
            </trkpt>
            <trkpt lat="42.651130" lon="-71.716680">
                <time>2026-05-05T15:42:49Z</time>
            </trkpt>
            <trkpt lat="42.651250" lon="-71.716650">
                <time>2026-05-05T15:42:50Z</time>
            </trkpt>
            <trkpt lat="42.651370" lon="-71.716600">
                <time>2026-05-05T15:42:51Z</time>
            </trkpt>
            <trkpt lat="42.651490" lon="-71.716550">
                <time>2026-05-05T15:42:52Z</time>
            </trkpt>
            <trkpt lat="42.651610" lon="-71.716500">
                <time>2026-05-05T15:42:53Z</time>
            </trkpt>
            <trkpt lat="42.651730" lon="-71.716440">
                <time>2026-05-05T15:42:54Z</time>
            </trkpt>
            <trkpt lat="42.651860" lon="-71.716390">
                <time>2026-05-05T15:42:55Z</time>
            </trkpt>
            <trkpt lat="42.651990" lon="-71.716340">
                <time>2026-05-05T15:42:56Z</time>
            </trkpt>
            <trkpt lat="42.652120" lon="-71.716290">
                <time>2026-05-05T15:42:57Z</time>
            </trkpt>
            <trkpt lat="42.652250" lon="-71.716250">
                <time>2026-05-05T15:42:58Z</time>
            </trkpt>
            <trkpt lat="42.652380" lon="-71.716220">
                <time>2026-05-05T15:42:59Z</time>
            </trkpt>
            <trkpt lat="42.652510" lon="-71.716200">
                <time>2026-05-05T15:43:00Z</time>
            </trkpt>
            <trkpt lat="42.652640" lon="-71.716180">
                <time>2026-05-05T15:43:01Z</time>
            </trkpt>
            <trkpt lat="42.652770" lon="-71.716150">
                <time>2026-05-05T15:43:02Z</time>
            </trkpt>
            <trkpt lat="42.652900" lon="-71.716120">
                <time>2026-05-05T15:43:03Z</time>
            </trkpt>
            <trkpt lat="42.653020" lon="-71.716090">
                <time>2026-05-05T15:43:04Z</time>
            </trkpt>
            <trkpt lat="42.653160" lon="-71.716070">
                <time>2026-05-05T15:43:05Z</time>
            </trkpt>
            <trkpt lat="42.653290" lon="-71.716050">
                <time>2026-05-05T15:43:06Z</time>
            </trkpt>
            <trkpt lat="42.653420" lon="-71.716030">
                <time>2026-05-05T15:43:07Z</time>
            </trkpt>
            <trkpt lat="42.653550" lon="-71.716020">
                <time>2026-05-05T15:43:08Z</time>
            </trkpt>
            <trkpt lat="42.653690" lon="-71.716020">
                <time>2026-05-05T15:43:09Z</time>
            </trkpt>
            <trkpt lat="42.653820" lon="-71.716030">
                <time>2026-05-05T15:43:10Z</time>
            </trkpt>
            <trkpt lat="42.653960" lon="-71.716050">
                <time>2026-05-05T15:43:11Z</time>
            </trkpt>
            <trkpt lat="42.654090" lon="-71.716060">
                <time>2026-05-05T15:43:12Z</time>
            </trkpt>
            <trkpt lat="42.654220" lon="-71.716070">
                <time>2026-05-05T15:43:13Z</time>
            </trkpt>
            <trkpt lat="42.654360" lon="-71.716060">
                <time>2026-05-05T15:43:14Z</time>
            </trkpt>
            <trkpt lat="42.654500" lon="-71.716050">
                <time>2026-05-05T15:43:15Z</time>
            </trkpt>
            <trkpt lat="42.654630" lon="-71.716020">
                <time>2026-05-05T15:43:16Z</time>
            </trkpt>
            <trkpt lat="42.654760" lon="-71.715980">
                <time>2026-05-05T15:43:17Z</time>
            </trkpt>
            <trkpt lat="42.654880" lon="-71.715920">
                <time>2026-05-05T15:43:18Z</time>
            </trkpt>
            <trkpt lat="42.655010" lon="-71.715860">
                <time>2026-05-05T15:43:19Z</time>
            </trkpt>
            <trkpt lat="42.655130" lon="-71.715790">
                <time>2026-05-05T15:43:20Z</time>
            </trkpt>
            <trkpt lat="42.655260" lon="-71.715710">
                <time>2026-05-05T15:43:21Z</time>
            </trkpt>
            <trkpt lat="42.655380" lon="-71.715630">
                <time>2026-05-05T15:43:22Z</time>
            </trkpt>
            <trkpt lat="42.655500" lon="-71.715560">
                <time>2026-05-05T15:43:23Z</time>
            </trkpt>
            <trkpt lat="42.655630" lon="-71.715500">
                <time>2026-05-05T15:43:24Z</time>
            </trkpt>
            <trkpt lat="42.655760" lon="-71.715450">
                <time>2026-05-05T15:43:25Z</time>
            </trkpt>
            <trkpt lat="42.655890" lon="-71.715400">
                <time>2026-05-05T15:43:26Z</time>
            </trkpt>
            <trkpt lat="42.656030" lon="-71.715350">
                <time>2026-05-05T15:43:27Z</time>
            </trkpt>
            <trkpt lat="42.656160" lon="-71.715320">
                <time>2026-05-05T15:43:28Z</time>
            </trkpt>
            <trkpt lat="42.656300" lon="-71.715290">
                <time>2026-05-05T15:43:29Z</time>
            </trkpt>
            <trkpt lat="42.656440" lon="-71.715260">
                <time>2026-05-05T15:43:30Z</time>
            </trkpt>
            <trkpt lat="42.656570" lon="-71.715230">
                <time>2026-05-05T15:43:31Z</time>
            </trkpt>
            <trkpt lat="42.656700" lon="-71.715200">
                <time>2026-05-05T15:43:32Z</time>
            </trkpt>
            <trkpt lat="42.656830" lon="-71.715170">
                <time>2026-05-05T15:43:33Z</time>
            </trkpt>
            <trkpt lat="42.656960" lon="-71.715150">
                <time>2026-05-05T15:43:34Z</time>
            </trkpt>
            <trkpt lat="42.657090" lon="-71.715120">
                <time>2026-05-05T15:43:35Z</time>
            </trkpt>
            <trkpt lat="42.657210" lon="-71.715100">
                <time>2026-05-05T15:43:36Z</time>
            </trkpt>
            <trkpt lat="42.657330" lon="-71.715080">
                <time>2026-05-05T15:43:37Z</time>
            </trkpt>
            <trkpt lat="42.657450" lon="-71.715050">
                <time>2026-05-05T15:43:38Z</time>
            </trkpt>
            <trkpt lat="42.657560" lon="-71.715030">
                <time>2026-05-05T15:43:39Z</time>
            </trkpt>
            <trkpt lat="42.657660" lon="-71.715010">
                <time>2026-05-05T15:43:40Z</time>
            </trkpt>
            <trkpt lat="42.657730" lon="-71.715000">
                <time>2026-05-05T15:43:41Z</time>
            </trkpt>
            <trkpt lat="42.657790" lon="-71.715000">
                <time>2026-05-05T15:43:42Z</time>
            </trkpt>
            <trkpt lat="42.657840" lon="-71.715030">
                <time>2026-05-05T15:43:43Z</time>
            </trkpt>
            <trkpt lat="42.657870" lon="-71.715090">
                <time>2026-05-05T15:43:44Z</time>
            </trkpt>
            <trkpt lat="42.657870" lon="-71.715150">
                <time>2026-05-05T15:43:45Z</time>
            </trkpt>
            <trkpt lat="42.657860" lon="-71.715220">
                <time>2026-05-05T15:43:46Z</time>
            </trkpt>
            <trkpt lat="42.657850" lon="-71.715300">
                <time>2026-05-05T15:43:47Z</time>
            </trkpt>
            <trkpt lat="42.657840" lon="-71.715390">
                <time>2026-05-05T15:43:48Z</time>
            </trkpt>
            <trkpt lat="42.657820" lon="-71.715480">
                <time>2026-05-05T15:43:49Z</time>
            </trkpt>
            <trkpt lat="42.657810" lon="-71.715600">
                <time>2026-05-05T15:43:50Z</time>
            </trkpt>
            <trkpt lat="42.657790" lon="-71.715730">
                <time>2026-05-05T15:43:51Z</time>
            </trkpt>
            <trkpt lat="42.657770" lon="-71.715880">
                <time>2026-05-05T15:43:52Z</time>
            </trkpt>
            <trkpt lat="42.657750" lon="-71.716030">
                <time>2026-05-05T15:43:53Z</time>
            </trkpt>
            <trkpt lat="42.657730" lon="-71.716190">
                <time>2026-05-05T15:43:54Z</time>
            </trkpt>
            <trkpt lat="42.657700" lon="-71.716350">
                <time>2026-05-05T15:43:55Z</time>
            </trkpt>
            <trkpt lat="42.657660" lon="-71.716500">
                <time>2026-05-05T15:43:56Z</time>
            </trkpt>
            <trkpt lat="42.657630" lon="-71.716660">
                <time>2026-05-05T15:43:57Z</time>
            </trkpt>
            <trkpt lat="42.657590" lon="-71.716820">
                <time>2026-05-05T15:43:58Z</time>
            </trkpt>
            <trkpt lat="42.657550" lon="-71.716980">
                <time>2026-05-05T15:43:59Z</time>
            </trkpt>
            <trkpt lat="42.657510" lon="-71.717150">
                <time>2026-05-05T15:44:00Z</time>
            </trkpt>
            <trkpt lat="42.657480" lon="-71.717330">
                <time>2026-05-05T15:44:01Z</time>
            </trkpt>
            <trkpt lat="42.657440" lon="-71.717500">
                <time>2026-05-05T15:44:02Z</time>
            </trkpt>
            <trkpt lat="42.657400" lon="-71.717680">
                <time>2026-05-05T15:44:03Z</time>
            </trkpt>
            <trkpt lat="42.657390" lon="-71.717860">
                <time>2026-05-05T15:44:04Z</time>
            </trkpt>
            <trkpt lat="42.657340" lon="-71.718030">
                <time>2026-05-05T15:44:05Z</time>
            </trkpt>
            <trkpt lat="42.657310" lon="-71.718210">
                <time>2026-05-05T15:44:06Z</time>
            </trkpt>
            <trkpt lat="42.657290" lon="-71.718380">
                <time>2026-05-05T15:44:07Z</time>
            </trkpt>
            <trkpt lat="42.657280" lon="-71.718540">
                <time>2026-05-05T15:44:08Z</time>
            </trkpt>
            <trkpt lat="42.657270" lon="-71.718700">
                <time>2026-05-05T15:44:09Z</time>
            </trkpt>
            <trkpt lat="42.657260" lon="-71.718870">
                <time>2026-05-05T15:44:10Z</time>
            </trkpt>
            <trkpt lat="42.657240" lon="-71.719030">
                <time>2026-05-05T15:44:11Z</time>
            </trkpt>
            <trkpt lat="42.657190" lon="-71.719190">
                <time>2026-05-05T15:44:12Z</time>
            </trkpt>
            <trkpt lat="42.657140" lon="-71.719360">
                <time>2026-05-05T15:44:13Z</time>
            </trkpt>
            <trkpt lat="42.657080" lon="-71.719540">
                <time>2026-05-05T15:44:14Z</time>
            </trkpt>
            <trkpt lat="42.657010" lon="-71.719710">
                <time>2026-05-05T15:44:15Z</time>
            </trkpt>
            <trkpt lat="42.656940" lon="-71.719890">
                <time>2026-05-05T15:44:16Z</time>
            </trkpt>
            <trkpt lat="42.656870" lon="-71.720070">
                <time>2026-05-05T15:44:17Z</time>
            </trkpt>
            <trkpt lat="42.656810" lon="-71.720250">
                <time>2026-05-05T15:44:18Z</time>
            </trkpt>
            <trkpt lat="42.656750" lon="-71.720420">
                <time>2026-05-05T15:44:19Z</time>
            </trkpt>
            <trkpt lat="42.656680" lon="-71.720580">
                <time>2026-05-05T15:44:20Z</time>
            </trkpt>
            <trkpt lat="42.656620" lon="-71.720740">
                <time>2026-05-05T15:44:21Z</time>
            </trkpt>
            <trkpt lat="42.656560" lon="-71.720880">
                <time>2026-05-05T15:44:22Z</time>
            </trkpt>
            <trkpt lat="42.656520" lon="-71.721030">
                <time>2026-05-05T15:44:23Z</time>
            </trkpt>
            <trkpt lat="42.656480" lon="-71.721180">
                <time>2026-05-05T15:44:24Z</time>
            </trkpt>
            <trkpt lat="42.656470" lon="-71.721330">
                <time>2026-05-05T15:44:25Z</time>
            </trkpt>
            <trkpt lat="42.656450" lon="-71.721490">
                <time>2026-05-05T15:44:26Z</time>
            </trkpt>
            <trkpt lat="42.656480" lon="-71.721680">
                <time>2026-05-05T15:44:27Z</time>
            </trkpt>
            <trkpt lat="42.656490" lon="-71.721860">
                <time>2026-05-05T15:44:28Z</time>
            </trkpt>
            <trkpt lat="42.656510" lon="-71.722050">
                <time>2026-05-05T15:44:29Z</time>
            </trkpt>
            <trkpt lat="42.656520" lon="-71.722240">
                <time>2026-05-05T15:44:30Z</time>
            </trkpt>
            <trkpt lat="42.656540" lon="-71.722440">
                <time>2026-05-05T15:44:31Z</time>
            </trkpt>
            <trkpt lat="42.656550" lon="-71.722620">
                <time>2026-05-05T15:44:32Z</time>
            </trkpt>
            <trkpt lat="42.656560" lon="-71.722810">
                <time>2026-05-05T15:44:33Z</time>
            </trkpt>
            <trkpt lat="42.656580" lon="-71.722990">
                <time>2026-05-05T15:44:34Z</time>
            </trkpt>
            <trkpt lat="42.656580" lon="-71.723180">
                <time>2026-05-05T15:44:35Z</time>
            </trkpt>
            <trkpt lat="42.656580" lon="-71.723370">
                <time>2026-05-05T15:44:36Z</time>
            </trkpt>
            <trkpt lat="42.656590" lon="-71.723560">
                <time>2026-05-05T15:44:37Z</time>
            </trkpt>
            <trkpt lat="42.656600" lon="-71.723750">
                <time>2026-05-05T15:44:38Z</time>
            </trkpt>
            <trkpt lat="42.656620" lon="-71.723920">
                <time>2026-05-05T15:44:39Z</time>
            </trkpt>
            <trkpt lat="42.656640" lon="-71.724100">
                <time>2026-05-05T15:44:40Z</time>
            </trkpt>
            <trkpt lat="42.656680" lon="-71.724290">
                <time>2026-05-05T15:44:41Z</time>
            </trkpt>
            <trkpt lat="42.656710" lon="-71.724480">
                <time>2026-05-05T15:44:42Z</time>
            </trkpt>
            <trkpt lat="42.656750" lon="-71.724680">
                <time>2026-05-05T15:44:43Z</time>
            </trkpt>
            <trkpt lat="42.656800" lon="-71.724890">
                <time>2026-05-05T15:44:44Z</time>
            </trkpt>
            <trkpt lat="42.656840" lon="-71.725090">
                <time>2026-05-05T15:44:45Z</time>
            </trkpt>
            <trkpt lat="42.656880" lon="-71.725290">
                <time>2026-05-05T15:44:46Z</time>
            </trkpt>
            <trkpt lat="42.656920" lon="-71.725490">
                <time>2026-05-05T15:44:47Z</time>
            </trkpt>
            <trkpt lat="42.656970" lon="-71.725690">
                <time>2026-05-05T15:44:48Z</time>
            </trkpt>
            <trkpt lat="42.657020" lon="-71.725890">
                <time>2026-05-05T15:44:49Z</time>
            </trkpt>
            <trkpt lat="42.657060" lon="-71.726080">
                <time>2026-05-05T15:44:50Z</time>
            </trkpt>
            <trkpt lat="42.657110" lon="-71.726270">
                <time>2026-05-05T15:44:51Z</time>
            </trkpt>
            <trkpt lat="42.657160" lon="-71.726460">
                <time>2026-05-05T15:44:52Z</time>
            </trkpt>
            <trkpt lat="42.657200" lon="-71.726670">
                <time>2026-05-05T15:44:53Z</time>
            </trkpt>
            <trkpt lat="42.657250" lon="-71.726870">
                <time>2026-05-05T15:44:54Z</time>
            </trkpt>
            <trkpt lat="42.657280" lon="-71.727070">
                <time>2026-05-05T15:44:55Z</time>
            </trkpt>
            <trkpt lat="42.657310" lon="-71.727270">
                <time>2026-05-05T15:44:56Z</time>
            </trkpt>
            <trkpt lat="42.657340" lon="-71.727480">
                <time>2026-05-05T15:44:57Z</time>
            </trkpt>
            <trkpt lat="42.657330" lon="-71.727680">
                <time>2026-05-05T15:44:58Z</time>
            </trkpt>
            <trkpt lat="42.657320" lon="-71.727890">
                <time>2026-05-05T15:44:59Z</time>
            </trkpt>
            <trkpt lat="42.657310" lon="-71.728100">
                <time>2026-05-05T15:45:00Z</time>
            </trkpt>
            <trkpt lat="42.657290" lon="-71.728310">
                <time>2026-05-05T15:45:01Z</time>
            </trkpt>
            <trkpt lat="42.657260" lon="-71.728530">
                <time>2026-05-05T15:45:02Z</time>
            </trkpt>
            <trkpt lat="42.657220" lon="-71.728730">
                <time>2026-05-05T15:45:03Z</time>
            </trkpt>
            <trkpt lat="42.657180" lon="-71.728940">
                <time>2026-05-05T15:45:04Z</time>
            </trkpt>
            <trkpt lat="42.657140" lon="-71.729140">
                <time>2026-05-05T15:45:05Z</time>
            </trkpt>
            <trkpt lat="42.657110" lon="-71.729350">
                <time>2026-05-05T15:45:06Z</time>
            </trkpt>
            <trkpt lat="42.657070" lon="-71.729560">
                <time>2026-05-05T15:45:07Z</time>
            </trkpt>
            <trkpt lat="42.657040" lon="-71.729770">
                <time>2026-05-05T15:45:08Z</time>
            </trkpt>
            <trkpt lat="42.657010" lon="-71.729970">
                <time>2026-05-05T15:45:09Z</time>
            </trkpt>
            <trkpt lat="42.656970" lon="-71.730180">
                <time>2026-05-05T15:45:10Z</time>
            </trkpt>
            <trkpt lat="42.656910" lon="-71.730380">
                <time>2026-05-05T15:45:11Z</time>
            </trkpt>
            <trkpt lat="42.656850" lon="-71.730570">
                <time>2026-05-05T15:45:12Z</time>
            </trkpt>
            <trkpt lat="42.656780" lon="-71.730760">
                <time>2026-05-05T15:45:13Z</time>
            </trkpt>
            <trkpt lat="42.656690" lon="-71.730950">
                <time>2026-05-05T15:45:14Z</time>
            </trkpt>
            <trkpt lat="42.656610" lon="-71.731140">
                <time>2026-05-05T15:45:15Z</time>
            </trkpt>
            <trkpt lat="42.656540" lon="-71.731340">
                <time>2026-05-05T15:45:16Z</time>
            </trkpt>
            <trkpt lat="42.656460" lon="-71.731540">
                <time>2026-05-05T15:45:17Z</time>
            </trkpt>
            <trkpt lat="42.656390" lon="-71.731740">
                <time>2026-05-05T15:45:18Z</time>
            </trkpt>
            <trkpt lat="42.656330" lon="-71.731940">
                <time>2026-05-05T15:45:19Z</time>
            </trkpt>
            <trkpt lat="42.656260" lon="-71.732140">
                <time>2026-05-05T15:45:20Z</time>
            </trkpt>
            <trkpt lat="42.656200" lon="-71.732350">
                <time>2026-05-05T15:45:21Z</time>
            </trkpt>
            <trkpt lat="42.656150" lon="-71.732550">
                <time>2026-05-05T15:45:22Z</time>
            </trkpt>
            <trkpt lat="42.656090" lon="-71.732760">
                <time>2026-05-05T15:45:23Z</time>
            </trkpt>
            <trkpt lat="42.656030" lon="-71.732960">
                <time>2026-05-05T15:45:24Z</time>
            </trkpt>
            <trkpt lat="42.655970" lon="-71.733160">
                <time>2026-05-05T15:45:25Z</time>
            </trkpt>
            <trkpt lat="42.655920" lon="-71.733350">
                <time>2026-05-05T15:45:26Z</time>
            </trkpt>
            <trkpt lat="42.655880" lon="-71.733540">
                <time>2026-05-05T15:45:27Z</time>
            </trkpt>
            <trkpt lat="42.655840" lon="-71.733730">
                <time>2026-05-05T15:45:28Z</time>
            </trkpt>
            <trkpt lat="42.655810" lon="-71.733940">
                <time>2026-05-05T15:45:29Z</time>
            </trkpt>
            <trkpt lat="42.655810" lon="-71.734140">
                <time>2026-05-05T15:45:30Z</time>
            </trkpt>
            <trkpt lat="42.655820" lon="-71.734350">
                <time>2026-05-05T15:45:31Z</time>
            </trkpt>
            <trkpt lat="42.655840" lon="-71.734530">
                <time>2026-05-05T15:45:32Z</time>
            </trkpt>
            <trkpt lat="42.655890" lon="-71.734730">
                <time>2026-05-05T15:45:33Z</time>
            </trkpt>
            <trkpt lat="42.655960" lon="-71.734920">
                <time>2026-05-05T15:45:34Z</time>
            </trkpt>
            <trkpt lat="42.656010" lon="-71.735110">
                <time>2026-05-05T15:45:35Z</time>
            </trkpt>
            <trkpt lat="42.656070" lon="-71.735300">
                <time>2026-05-05T15:45:36Z</time>
            </trkpt>
            <trkpt lat="42.656130" lon="-71.735500">
                <time>2026-05-05T15:45:37Z</time>
            </trkpt>
            <trkpt lat="42.656190" lon="-71.735710">
                <time>2026-05-05T15:45:38Z</time>
            </trkpt>
            <trkpt lat="42.656240" lon="-71.735910">
                <time>2026-05-05T15:45:39Z</time>
            </trkpt>
            <trkpt lat="42.656310" lon="-71.736120">
                <time>2026-05-05T15:45:40Z</time>
            </trkpt>
            <trkpt lat="42.656380" lon="-71.736310">
                <time>2026-05-05T15:45:41Z</time>
            </trkpt>
            <trkpt lat="42.656440" lon="-71.736510">
                <time>2026-05-05T15:45:42Z</time>
            </trkpt>
            <trkpt lat="42.656510" lon="-71.736700">
                <time>2026-05-05T15:45:43Z</time>
            </trkpt>
            <trkpt lat="42.656570" lon="-71.736900">
                <time>2026-05-05T15:45:44Z</time>
            </trkpt>
            <trkpt lat="42.656630" lon="-71.737100">
                <time>2026-05-05T15:45:45Z</time>
            </trkpt>
            <trkpt lat="42.656690" lon="-71.737300">
                <time>2026-05-05T15:45:46Z</time>
            </trkpt>
            <trkpt lat="42.656750" lon="-71.737510">
                <time>2026-05-05T15:45:47Z</time>
            </trkpt>
            <trkpt lat="42.656800" lon="-71.737710">
                <time>2026-05-05T15:45:48Z</time>
            </trkpt>
            <trkpt lat="42.656840" lon="-71.737910">
                <time>2026-05-05T15:45:49Z</time>
            </trkpt>
            <trkpt lat="42.656870" lon="-71.738110">
                <time>2026-05-05T15:45:50Z</time>
            </trkpt>
            <trkpt lat="42.656890" lon="-71.738320">
                <time>2026-05-05T15:45:51Z</time>
            </trkpt>
            <trkpt lat="42.656890" lon="-71.738530">
                <time>2026-05-05T15:45:52Z</time>
            </trkpt>
            <trkpt lat="42.656880" lon="-71.738730">
                <time>2026-05-05T15:45:53Z</time>
            </trkpt>
            <trkpt lat="42.656860" lon="-71.738930">
                <time>2026-05-05T15:45:54Z</time>
            </trkpt>
            <trkpt lat="42.656860" lon="-71.739130">
                <time>2026-05-05T15:45:55Z</time>
            </trkpt>
            <trkpt lat="42.656850" lon="-71.739330">
                <time>2026-05-05T15:45:56Z</time>
            </trkpt>
            <trkpt lat="42.656820" lon="-71.739520">
                <time>2026-05-05T15:45:57Z</time>
            </trkpt>
            <trkpt lat="42.656780" lon="-71.739700">
                <time>2026-05-05T15:45:58Z</time>
            </trkpt>
            <trkpt lat="42.656700" lon="-71.739890">
                <time>2026-05-05T15:45:59Z</time>
            </trkpt>
            <trkpt lat="42.656610" lon="-71.740040">
                <time>2026-05-05T15:46:00Z</time>
            </trkpt>
            <trkpt lat="42.656520" lon="-71.740190">
                <time>2026-05-05T15:46:01Z</time>
            </trkpt>
            <trkpt lat="42.656450" lon="-71.740310">
                <time>2026-05-05T15:46:02Z</time>
            </trkpt>
            <trkpt lat="42.656390" lon="-71.740430">
                <time>2026-05-05T15:46:03Z</time>
            </trkpt>
            <trkpt lat="42.656350" lon="-71.740560">
                <time>2026-05-05T15:46:04Z</time>
            </trkpt>
            <trkpt lat="42.656320" lon="-71.740710">
                <time>2026-05-05T15:46:05Z</time>
            </trkpt>
            <trkpt lat="42.656290" lon="-71.740880">
                <time>2026-05-05T15:46:06Z</time>
            </trkpt>
            <trkpt lat="42.656280" lon="-71.741050">
                <time>2026-05-05T15:46:07Z</time>
            </trkpt>
            <trkpt lat="42.656270" lon="-71.741230">
                <time>2026-05-05T15:46:08Z</time>
            </trkpt>
            <trkpt lat="42.656240" lon="-71.741420">
                <time>2026-05-05T15:46:09Z</time>
            </trkpt>
            <trkpt lat="42.656200" lon="-71.741610">
                <time>2026-05-05T15:46:10Z</time>
            </trkpt>
            <trkpt lat="42.656160" lon="-71.741790">
                <time>2026-05-05T15:46:11Z</time>
            </trkpt>
            <trkpt lat="42.656130" lon="-71.741980">
                <time>2026-05-05T15:46:12Z</time>
            </trkpt>
            <trkpt lat="42.656090" lon="-71.742160">
                <time>2026-05-05T15:46:13Z</time>
            </trkpt>
            <trkpt lat="42.656060" lon="-71.742350">
                <time>2026-05-05T15:46:14Z</time>
            </trkpt>
            <trkpt lat="42.656040" lon="-71.742540">
                <time>2026-05-05T15:46:15Z</time>
            </trkpt>
            <trkpt lat="42.656040" lon="-71.742720">
                <time>2026-05-05T15:46:16Z</time>
            </trkpt>
            <trkpt lat="42.656050" lon="-71.742890">
                <time>2026-05-05T15:46:17Z</time>
            </trkpt>
            <trkpt lat="42.656100" lon="-71.743070">
                <time>2026-05-05T15:46:18Z</time>
            </trkpt>
            <trkpt lat="42.656150" lon="-71.743250">
                <time>2026-05-05T15:46:19Z</time>
            </trkpt>
            <trkpt lat="42.656200" lon="-71.743430">
                <time>2026-05-05T15:46:20Z</time>
            </trkpt>
            <trkpt lat="42.656260" lon="-71.743620">
                <time>2026-05-05T15:46:21Z</time>
            </trkpt>
            <trkpt lat="42.656310" lon="-71.743820">
                <time>2026-05-05T15:46:22Z</time>
            </trkpt>
            <trkpt lat="42.656360" lon="-71.744010">
                <time>2026-05-05T15:46:23Z</time>
            </trkpt>
            <trkpt lat="42.656420" lon="-71.744200">
                <time>2026-05-05T15:46:24Z</time>
            </trkpt>
            <trkpt lat="42.656470" lon="-71.744390">
                <time>2026-05-05T15:46:25Z</time>
            </trkpt>
            <trkpt lat="42.656530" lon="-71.744580">
                <time>2026-05-05T15:46:26Z</time>
            </trkpt>
            <trkpt lat="42.656580" lon="-71.744770">
                <time>2026-05-05T15:46:27Z</time>
            </trkpt>
            <trkpt lat="42.656640" lon="-71.744960">
                <time>2026-05-05T15:46:28Z</time>
            </trkpt>
            <trkpt lat="42.656690" lon="-71.745150">
                <time>2026-05-05T15:46:29Z</time>
            </trkpt>
            <trkpt lat="42.656740" lon="-71.745330">
                <time>2026-05-05T15:46:30Z</time>
            </trkpt>
            <trkpt lat="42.656790" lon="-71.745510">
                <time>2026-05-05T15:46:31Z</time>
            </trkpt>
            <trkpt lat="42.656840" lon="-71.745670">
                <time>2026-05-05T15:46:32Z</time>
            </trkpt>
            <trkpt lat="42.656880" lon="-71.745820">
                <time>2026-05-05T15:46:33Z</time>
            </trkpt>
            <trkpt lat="42.656920" lon="-71.745970">
                <time>2026-05-05T15:46:34Z</time>
            </trkpt>
            <trkpt lat="42.656960" lon="-71.746090">
                <time>2026-05-05T15:46:35Z</time>
            </trkpt>
            <trkpt lat="42.656990" lon="-71.746200">
                <time>2026-05-05T15:46:36Z</time>
            </trkpt>
            <trkpt lat="42.657010" lon="-71.746280">
                <time>2026-05-05T15:46:37Z</time>
            </trkpt>
            <trkpt lat="42.657020" lon="-71.746320">
                <time>2026-05-05T15:46:38Z</time>
            </trkpt>
            <trkpt lat="42.657030" lon="-71.746350">
                <time>2026-05-05T15:46:39Z</time>
            </trkpt>
            <trkpt lat="42.657040" lon="-71.746370">
                <time>2026-05-05T15:46:40Z</time>
            </trkpt>
            <trkpt lat="42.657060" lon="-71.746400">
                <time>2026-05-05T15:46:41Z</time>
            </trkpt>
            <trkpt lat="42.657100" lon="-71.746420">
                <time>2026-05-05T15:46:42Z</time>
            </trkpt>
            <trkpt lat="42.657150" lon="-71.746440">
                <time>2026-05-05T15:46:43Z</time>
            </trkpt>
            <trkpt lat="42.657220" lon="-71.746430">
                <time>2026-05-05T15:46:44Z</time>
            </trkpt>
            <trkpt lat="42.657300" lon="-71.746420">
                <time>2026-05-05T15:46:45Z</time>
            </trkpt>
            <trkpt lat="42.657390" lon="-71.746400">
                <time>2026-05-05T15:46:46Z</time>
            </trkpt>
            <trkpt lat="42.657480" lon="-71.746390">
                <time>2026-05-05T15:46:47Z</time>
            </trkpt>
            <trkpt lat="42.657570" lon="-71.746370">
                <time>2026-05-05T15:46:48Z</time>
            </trkpt>
            <trkpt lat="42.657660" lon="-71.746350">
                <time>2026-05-05T15:46:49Z</time>
            </trkpt>
            <trkpt lat="42.657760" lon="-71.746340">
                <time>2026-05-05T15:46:50Z</time>
            </trkpt>
            <trkpt lat="42.657870" lon="-71.746320">
                <time>2026-05-05T15:46:51Z</time>
            </trkpt>
            <trkpt lat="42.657980" lon="-71.746290">
                <time>2026-05-05T15:46:52Z</time>
            </trkpt>
            <trkpt lat="42.658090" lon="-71.746280">
                <time>2026-05-05T15:46:53Z</time>
            </trkpt>
            <trkpt lat="42.658210" lon="-71.746260">
                <time>2026-05-05T15:46:54Z</time>
            </trkpt>
            <trkpt lat="42.658330" lon="-71.746240">
                <time>2026-05-05T15:46:55Z</time>
            </trkpt>
            <trkpt lat="42.658450" lon="-71.746220">
                <time>2026-05-05T15:46:56Z</time>
            </trkpt>
            <trkpt lat="42.658570" lon="-71.746200">
                <time>2026-05-05T15:46:57Z</time>
            </trkpt>
            <trkpt lat="42.658680" lon="-71.746190">
                <time>2026-05-05T15:46:58Z</time>
            </trkpt>
            <trkpt lat="42.658810" lon="-71.746180">
                <time>2026-05-05T15:46:59Z</time>
            </trkpt>
            <trkpt lat="42.658930" lon="-71.746170">
                <time>2026-05-05T15:47:00Z</time>
            </trkpt>
            <trkpt lat="42.659040" lon="-71.746160">
                <time>2026-05-05T15:47:01Z</time>
            </trkpt>
            <trkpt lat="42.659160" lon="-71.746150">
                <time>2026-05-05T15:47:02Z</time>
            </trkpt>
            <trkpt lat="42.659280" lon="-71.746160">
                <time>2026-05-05T15:47:03Z</time>
            </trkpt>
            <trkpt lat="42.659400" lon="-71.746150">
                <time>2026-05-05T15:47:04Z</time>
            </trkpt>
            <trkpt lat="42.659530" lon="-71.746140">
                <time>2026-05-05T15:47:05Z</time>
            </trkpt>
            <trkpt lat="42.659660" lon="-71.746130">
                <time>2026-05-05T15:47:06Z</time>
            </trkpt>
            <trkpt lat="42.659790" lon="-71.746140">
                <time>2026-05-05T15:47:07Z</time>
            </trkpt>
            <trkpt lat="42.659920" lon="-71.746140">
                <time>2026-05-05T15:47:08Z</time>
            </trkpt>
            <trkpt lat="42.660050" lon="-71.746140">
                <time>2026-05-05T15:47:09Z</time>
            </trkpt>
            <trkpt lat="42.660180" lon="-71.746130">
                <time>2026-05-05T15:47:10Z</time>
            </trkpt>
            <trkpt lat="42.660320" lon="-71.746120">
                <time>2026-05-05T15:47:11Z</time>
            </trkpt>
            <trkpt lat="42.660450" lon="-71.746110">
                <time>2026-05-05T15:47:12Z</time>
            </trkpt>
            <trkpt lat="42.660590" lon="-71.746120">
                <time>2026-05-05T15:47:13Z</time>
            </trkpt>
            <trkpt lat="42.660730" lon="-71.746120">
                <time>2026-05-05T15:47:14Z</time>
            </trkpt>
            <trkpt lat="42.660860" lon="-71.746120">
                <time>2026-05-05T15:47:15Z</time>
            </trkpt>
            <trkpt lat="42.661000" lon="-71.746120">
                <time>2026-05-05T15:47:16Z</time>
            </trkpt>
            <trkpt lat="42.661150" lon="-71.746120">
                <time>2026-05-05T15:47:17Z</time>
            </trkpt>
            <trkpt lat="42.661290" lon="-71.746120">
                <time>2026-05-05T15:47:18Z</time>
            </trkpt>
            <trkpt lat="42.661440" lon="-71.746110">
                <time>2026-05-05T15:47:19Z</time>
            </trkpt>
            <trkpt lat="42.661580" lon="-71.746100">
                <time>2026-05-05T15:47:20Z</time>
            </trkpt>
            <trkpt lat="42.661730" lon="-71.746090">
                <time>2026-05-05T15:47:21Z</time>
            </trkpt>
            <trkpt lat="42.661880" lon="-71.746080">
                <time>2026-05-05T15:47:22Z</time>
            </trkpt>
            <trkpt lat="42.662020" lon="-71.746070">
                <time>2026-05-05T15:47:23Z</time>
            </trkpt>
            <trkpt lat="42.662160" lon="-71.746050">
                <time>2026-05-05T15:47:24Z</time>
            </trkpt>
            <trkpt lat="42.662310" lon="-71.746030">
                <time>2026-05-05T15:47:25Z</time>
            </trkpt>
            <trkpt lat="42.662440" lon="-71.746020">
                <time>2026-05-05T15:47:26Z</time>
            </trkpt>
            <trkpt lat="42.662570" lon="-71.746010">
                <time>2026-05-05T15:47:27Z</time>
            </trkpt>
            <trkpt lat="42.662690" lon="-71.745990">
                <time>2026-05-05T15:47:28Z</time>
            </trkpt>
            <trkpt lat="42.662780" lon="-71.745970">
                <time>2026-05-05T15:47:29Z</time>
            </trkpt>
            <trkpt lat="42.662860" lon="-71.745950">
                <time>2026-05-05T15:47:30Z</time>
            </trkpt>
            <trkpt lat="42.662930" lon="-71.745920">
                <time>2026-05-05T15:47:31Z</time>
            </trkpt>
            <trkpt lat="42.662980" lon="-71.745910">
                <time>2026-05-05T15:47:32Z</time>
            </trkpt>
            <trkpt lat="42.663040" lon="-71.745920">
                <time>2026-05-05T15:47:33Z</time>
            </trkpt>
            <trkpt lat="42.663090" lon="-71.745950">
                <time>2026-05-05T15:47:34Z</time>
            </trkpt>
            <trkpt lat="42.663130" lon="-71.745990">
                <time>2026-05-05T15:47:35Z</time>
            </trkpt>
            <trkpt lat="42.663170" lon="-71.746040">
                <time>2026-05-05T15:47:36Z</time>
            </trkpt>
            <trkpt lat="42.663210" lon="-71.746110">
                <time>2026-05-05T15:47:37Z</time>
            </trkpt>
            <trkpt lat="42.663240" lon="-71.746190">
                <time>2026-05-05T15:47:38Z</time>
            </trkpt>
            <trkpt lat="42.663270" lon="-71.746290">
                <time>2026-05-05T15:47:39Z</time>
            </trkpt>
            <trkpt lat="42.663290" lon="-71.746400">
                <time>2026-05-05T15:47:40Z</time>
            </trkpt>
            <trkpt lat="42.663310" lon="-71.746520">
                <time>2026-05-05T15:47:41Z</time>
            </trkpt>
            <trkpt lat="42.663350" lon="-71.746630">
                <time>2026-05-05T15:47:42Z</time>
            </trkpt>
            <trkpt lat="42.663380" lon="-71.746760">
                <time>2026-05-05T15:47:43Z</time>
            </trkpt>
            <trkpt lat="42.663410" lon="-71.746860">
                <time>2026-05-05T15:47:44Z</time>
            </trkpt>
            <trkpt lat="42.663440" lon="-71.746980">
                <time>2026-05-05T15:47:45Z</time>
            </trkpt>
            <trkpt lat="42.663460" lon="-71.747110">
                <time>2026-05-05T15:47:46Z</time>
            </trkpt>
            <trkpt lat="42.663480" lon="-71.747240">
                <time>2026-05-05T15:47:47Z</time>
            </trkpt>
            <trkpt lat="42.663490" lon="-71.747370">
                <time>2026-05-05T15:47:48Z</time>
            </trkpt>
            <trkpt lat="42.663510" lon="-71.747500">
                <time>2026-05-05T15:47:49Z</time>
            </trkpt>
            <trkpt lat="42.663540" lon="-71.747630">
                <time>2026-05-05T15:47:50Z</time>
            </trkpt>
            <trkpt lat="42.663580" lon="-71.747770">
                <time>2026-05-05T15:47:51Z</time>
            </trkpt>
            <trkpt lat="42.663620" lon="-71.747910">
                <time>2026-05-05T15:47:52Z</time>
            </trkpt>
            <trkpt lat="42.663680" lon="-71.748050">
                <time>2026-05-05T15:47:53Z</time>
            </trkpt>
            <trkpt lat="42.663730" lon="-71.748210">
                <time>2026-05-05T15:47:54Z</time>
            </trkpt>
            <trkpt lat="42.663790" lon="-71.748360">
                <time>2026-05-05T15:47:55Z</time>
            </trkpt>
            <trkpt lat="42.663840" lon="-71.748520">
                <time>2026-05-05T15:47:56Z</time>
            </trkpt>
            <trkpt lat="42.663890" lon="-71.748680">
                <time>2026-05-05T15:47:57Z</time>
            </trkpt>
            <trkpt lat="42.663940" lon="-71.748840">
                <time>2026-05-05T15:47:58Z</time>
            </trkpt>
            <trkpt lat="42.664000" lon="-71.748990">
                <time>2026-05-05T15:47:59Z</time>
            </trkpt>
            <trkpt lat="42.664050" lon="-71.749150">
                <time>2026-05-05T15:48:00Z</time>
            </trkpt>
            <trkpt lat="42.664090" lon="-71.749300">
                <time>2026-05-05T15:48:01Z</time>
            </trkpt>
            <trkpt lat="42.664140" lon="-71.749460">
                <time>2026-05-05T15:48:02Z</time>
            </trkpt>
            <trkpt lat="42.664190" lon="-71.749610">
                <time>2026-05-05T15:48:03Z</time>
            </trkpt>
            <trkpt lat="42.664230" lon="-71.749750">
                <time>2026-05-05T15:48:04Z</time>
            </trkpt>
            <trkpt lat="42.664260" lon="-71.749880">
                <time>2026-05-05T15:48:05Z</time>
            </trkpt>
            <trkpt lat="42.664280" lon="-71.749950">
                <time>2026-05-05T15:48:06Z</time>
            </trkpt>
            <trkpt lat="42.664310" lon="-71.750010">
                <time>2026-05-05T15:48:07Z</time>
            </trkpt>
            <trkpt lat="42.664320" lon="-71.750050">
                <time>2026-05-05T15:48:08Z</time>
            </trkpt>
            <trkpt lat="42.664330" lon="-71.750080">
                <time>2026-05-05T15:48:09Z</time>
            </trkpt>
            <trkpt lat="42.664340" lon="-71.750090">
                <time>2026-05-05T15:48:10Z</time>
            </trkpt>
            <trkpt lat="42.664360" lon="-71.750110">
                <time>2026-05-05T15:48:11Z</time>
            </trkpt>
            <trkpt lat="42.664390" lon="-71.750130">
                <time>2026-05-05T15:48:12Z</time>
            </trkpt>
            <trkpt lat="42.664440" lon="-71.750120">
                <time>2026-05-05T15:48:13Z</time>
            </trkpt>
            <trkpt lat="42.664510" lon="-71.750100">
                <time>2026-05-05T15:48:14Z</time>
            </trkpt>
            <trkpt lat="42.664600" lon="-71.750070">
                <time>2026-05-05T15:48:15Z</time>
            </trkpt>
            <trkpt lat="42.664690" lon="-71.750050">
                <time>2026-05-05T15:48:16Z</time>
            </trkpt>
            <trkpt lat="42.664790" lon="-71.750020">
                <time>2026-05-05T15:48:17Z</time>
            </trkpt>
            <trkpt lat="42.664910" lon="-71.749990">
                <time>2026-05-05T15:48:18Z</time>
            </trkpt>
            <trkpt lat="42.665040" lon="-71.749960">
                <time>2026-05-05T15:48:19Z</time>
            </trkpt>
            <trkpt lat="42.665170" lon="-71.749920">
                <time>2026-05-05T15:48:20Z</time>
            </trkpt>
            <trkpt lat="42.665310" lon="-71.749880">
                <time>2026-05-05T15:48:21Z</time>
            </trkpt>
            <trkpt lat="42.665450" lon="-71.749830">
                <time>2026-05-05T15:48:22Z</time>
            </trkpt>
            <trkpt lat="42.665610" lon="-71.749790">
                <time>2026-05-05T15:48:23Z</time>
            </trkpt>
            <trkpt lat="42.665780" lon="-71.749740">
                <time>2026-05-05T15:48:24Z</time>
            </trkpt>
            <trkpt lat="42.665950" lon="-71.749720">
                <time>2026-05-05T15:48:25Z</time>
            </trkpt>
            <trkpt lat="42.666110" lon="-71.749680">
                <time>2026-05-05T15:48:26Z</time>
            </trkpt>
            <trkpt lat="42.666280" lon="-71.749630">
                <time>2026-05-05T15:48:27Z</time>
            </trkpt>
            <trkpt lat="42.666440" lon="-71.749600">
                <time>2026-05-05T15:48:28Z</time>
            </trkpt>
            <trkpt lat="42.666610" lon="-71.749560">
                <time>2026-05-05T15:48:29Z</time>
            </trkpt>
            <trkpt lat="42.666780" lon="-71.749520">
                <time>2026-05-05T15:48:30Z</time>
            </trkpt>
            <trkpt lat="42.666940" lon="-71.749480">
                <time>2026-05-05T15:48:31Z</time>
            </trkpt>
            <trkpt lat="42.667110" lon="-71.749440">
                <time>2026-05-05T15:48:32Z</time>
            </trkpt>
            <trkpt lat="42.667270" lon="-71.749400">
                <time>2026-05-05T15:48:33Z</time>
            </trkpt>
            <trkpt lat="42.667430" lon="-71.749360">
                <time>2026-05-05T15:48:34Z</time>
            </trkpt>
            <trkpt lat="42.667590" lon="-71.749300">
                <time>2026-05-05T15:48:35Z</time>
            </trkpt>
            <trkpt lat="42.667750" lon="-71.749240">
                <time>2026-05-05T15:48:36Z</time>
            </trkpt>
            <trkpt lat="42.667910" lon="-71.749170">
                <time>2026-05-05T15:48:37Z</time>
            </trkpt>
            <trkpt lat="42.668070" lon="-71.749090">
                <time>2026-05-05T15:48:38Z</time>
            </trkpt>
            <trkpt lat="42.668230" lon="-71.749010">
                <time>2026-05-05T15:48:39Z</time>
            </trkpt>
            <trkpt lat="42.668390" lon="-71.748930">
                <time>2026-05-05T15:48:40Z</time>
            </trkpt>
            <trkpt lat="42.668540" lon="-71.748850">
                <time>2026-05-05T15:48:41Z</time>
            </trkpt>
            <trkpt lat="42.668700" lon="-71.748780">
                <time>2026-05-05T15:48:42Z</time>
            </trkpt>
            <trkpt lat="42.668860" lon="-71.748700">
                <time>2026-05-05T15:48:43Z</time>
            </trkpt>
            <trkpt lat="42.669010" lon="-71.748630">
                <time>2026-05-05T15:48:44Z</time>
            </trkpt>
            <trkpt lat="42.669170" lon="-71.748580">
                <time>2026-05-05T15:48:45Z</time>
            </trkpt>
            <trkpt lat="42.669320" lon="-71.748530">
                <time>2026-05-05T15:48:46Z</time>
            </trkpt>
            <trkpt lat="42.669480" lon="-71.748480">
                <time>2026-05-05T15:48:47Z</time>
            </trkpt>
            <trkpt lat="42.669630" lon="-71.748420">
                <time>2026-05-05T15:48:48Z</time>
            </trkpt>
            <trkpt lat="42.669780" lon="-71.748370">
                <time>2026-05-05T15:48:49Z</time>
            </trkpt>
            <trkpt lat="42.669930" lon="-71.748310">
                <time>2026-05-05T15:48:50Z</time>
            </trkpt>
            <trkpt lat="42.670100" lon="-71.748250">
                <time>2026-05-05T15:48:51Z</time>
            </trkpt>
            <trkpt lat="42.670260" lon="-71.748190">
                <time>2026-05-05T15:48:52Z</time>
            </trkpt>
            <trkpt lat="42.670420" lon="-71.748130">
                <time>2026-05-05T15:48:53Z</time>
            </trkpt>
            <trkpt lat="42.670590" lon="-71.748080">
                <time>2026-05-05T15:48:54Z</time>
            </trkpt>
            <trkpt lat="42.670740" lon="-71.748010">
                <time>2026-05-05T15:48:55Z</time>
            </trkpt>
            <trkpt lat="42.670900" lon="-71.747950">
                <time>2026-05-05T15:48:56Z</time>
            </trkpt>
            <trkpt lat="42.671060" lon="-71.747890">
                <time>2026-05-05T15:48:57Z</time>
            </trkpt>
            <trkpt lat="42.671210" lon="-71.747830">
                <time>2026-05-05T15:48:58Z</time>
            </trkpt>
            <trkpt lat="42.671370" lon="-71.747760">
                <time>2026-05-05T15:48:59Z</time>
            </trkpt>
            <trkpt lat="42.671520" lon="-71.747670">
                <time>2026-05-05T15:49:00Z</time>
            </trkpt>
            <trkpt lat="42.671670" lon="-71.747580">
                <time>2026-05-05T15:49:01Z</time>
            </trkpt>
            <trkpt lat="42.671820" lon="-71.747470">
                <time>2026-05-05T15:49:02Z</time>
            </trkpt>
            <trkpt lat="42.671970" lon="-71.747350">
                <time>2026-05-05T15:49:03Z</time>
            </trkpt>
            <trkpt lat="42.672110" lon="-71.747220">
                <time>2026-05-05T15:49:04Z</time>
            </trkpt>
            <trkpt lat="42.672250" lon="-71.747080">
                <time>2026-05-05T15:49:05Z</time>
            </trkpt>
            <trkpt lat="42.672390" lon="-71.746940">
                <time>2026-05-05T15:49:06Z</time>
            </trkpt>
            <trkpt lat="42.672530" lon="-71.746810">
                <time>2026-05-05T15:49:07Z</time>
            </trkpt>
            <trkpt lat="42.672670" lon="-71.746670">
                <time>2026-05-05T15:49:08Z</time>
            </trkpt>
            <trkpt lat="42.672820" lon="-71.746530">
                <time>2026-05-05T15:49:09Z</time>
            </trkpt>
            <trkpt lat="42.672960" lon="-71.746400">
                <time>2026-05-05T15:49:10Z</time>
            </trkpt>
            <trkpt lat="42.673100" lon="-71.746270">
                <time>2026-05-05T15:49:11Z</time>
            </trkpt>
            <trkpt lat="42.673240" lon="-71.746140">
                <time>2026-05-05T15:49:12Z</time>
            </trkpt>
            <trkpt lat="42.673370" lon="-71.746010">
                <time>2026-05-05T15:49:13Z</time>
            </trkpt>
            <trkpt lat="42.673500" lon="-71.745880">
                <time>2026-05-05T15:49:14Z</time>
            </trkpt>
            <trkpt lat="42.673620" lon="-71.745760">
                <time>2026-05-05T15:49:15Z</time>
            </trkpt>
            <trkpt lat="42.673750" lon="-71.745640">
                <time>2026-05-05T15:49:16Z</time>
            </trkpt>
            <trkpt lat="42.673870" lon="-71.745520">
                <time>2026-05-05T15:49:17Z</time>
            </trkpt>
            <trkpt lat="42.673990" lon="-71.745410">
                <time>2026-05-05T15:49:18Z</time>
            </trkpt>
            <trkpt lat="42.674110" lon="-71.745290">
                <time>2026-05-05T15:49:19Z</time>
            </trkpt>
            <trkpt lat="42.674230" lon="-71.745170">
                <time>2026-05-05T15:49:20Z</time>
            </trkpt>
            <trkpt lat="42.674340" lon="-71.745060">
                <time>2026-05-05T15:49:21Z</time>
            </trkpt>
            <trkpt lat="42.674450" lon="-71.744950">
                <time>2026-05-05T15:49:22Z</time>
            </trkpt>
            <trkpt lat="42.674560" lon="-71.744840">
                <time>2026-05-05T15:49:23Z</time>
            </trkpt>
            <trkpt lat="42.674670" lon="-71.744740">
                <time>2026-05-05T15:49:24Z</time>
            </trkpt>
            <trkpt lat="42.674770" lon="-71.744630">
                <time>2026-05-05T15:49:25Z</time>
            </trkpt>
            <trkpt lat="42.674880" lon="-71.744520">
                <time>2026-05-05T15:49:26Z</time>
            </trkpt>
            <trkpt lat="42.675000" lon="-71.744410">
                <time>2026-05-05T15:49:27Z</time>
            </trkpt>
            <trkpt lat="42.675110" lon="-71.744300">
                <time>2026-05-05T15:49:28Z</time>
            </trkpt>
            <trkpt lat="42.675220" lon="-71.744190">
                <time>2026-05-05T15:49:29Z</time>
            </trkpt>
            <trkpt lat="42.675320" lon="-71.744090">
                <time>2026-05-05T15:49:30Z</time>
            </trkpt>
            <trkpt lat="42.675430" lon="-71.744010">
                <time>2026-05-05T15:49:31Z</time>
            </trkpt>
            <trkpt lat="42.675540" lon="-71.743950">
                <time>2026-05-05T15:49:32Z</time>
            </trkpt>
            <trkpt lat="42.675650" lon="-71.743910">
                <time>2026-05-05T15:49:33Z</time>
            </trkpt>
            <trkpt lat="42.675760" lon="-71.743900">
                <time>2026-05-05T15:49:34Z</time>
            </trkpt>
            <trkpt lat="42.675870" lon="-71.743910">
                <time>2026-05-05T15:49:35Z</time>
            </trkpt>
            <trkpt lat="42.675980" lon="-71.743910">
                <time>2026-05-05T15:49:36Z</time>
            </trkpt>
            <trkpt lat="42.676100" lon="-71.743900">
                <time>2026-05-05T15:49:37Z</time>
            </trkpt>
            <trkpt lat="42.676210" lon="-71.743900">
                <time>2026-05-05T15:49:38Z</time>
            </trkpt>
            <trkpt lat="42.676330" lon="-71.743900">
                <time>2026-05-05T15:49:39Z</time>
            </trkpt>
            <trkpt lat="42.676440" lon="-71.743900">
                <time>2026-05-05T15:49:40Z</time>
            </trkpt>
            <trkpt lat="42.676540" lon="-71.743900">
                <time>2026-05-05T15:49:41Z</time>
            </trkpt>
            <trkpt lat="42.676650" lon="-71.743890">
                <time>2026-05-05T15:49:42Z</time>
            </trkpt>
            <trkpt lat="42.676750" lon="-71.743890">
                <time>2026-05-05T15:49:43Z</time>
            </trkpt>
            <trkpt lat="42.676850" lon="-71.743890">
                <time>2026-05-05T15:49:44Z</time>
            </trkpt>
            <trkpt lat="42.676930" lon="-71.743890">
                <time>2026-05-05T15:49:45Z</time>
            </trkpt>
            <trkpt lat="42.677010" lon="-71.743890">
                <time>2026-05-05T15:49:46Z</time>
            </trkpt>
            <trkpt lat="42.677080" lon="-71.743900">
                <time>2026-05-05T15:49:47Z</time>
            </trkpt>
            <trkpt lat="42.677130" lon="-71.743900">
                <time>2026-05-05T15:49:48Z</time>
            </trkpt>
            <trkpt lat="42.677160" lon="-71.743900">
                <time>2026-05-05T15:49:49Z</time>
            </trkpt>
            <trkpt lat="42.677180" lon="-71.743890">
                <time>2026-05-05T15:49:50Z</time>
            </trkpt>
            <trkpt lat="42.677190" lon="-71.743890">
                <time>2026-05-05T15:49:51Z</time>
            </trkpt>
            <trkpt lat="42.677200" lon="-71.743870">
                <time>2026-05-05T15:49:52Z</time>
            </trkpt>
            <trkpt lat="42.677230" lon="-71.743830">
                <time>2026-05-05T15:49:53Z</time>
            </trkpt>
            <trkpt lat="42.677240" lon="-71.743780">
                <time>2026-05-05T15:49:54Z</time>
            </trkpt>
            <trkpt lat="42.677240" lon="-71.743680">
                <time>2026-05-05T15:49:55Z</time>
            </trkpt>
            <trkpt lat="42.677240" lon="-71.743560">
                <time>2026-05-05T15:49:56Z</time>
            </trkpt>
            <trkpt lat="42.677240" lon="-71.743430">
                <time>2026-05-05T15:49:57Z</time>
            </trkpt>
            <trkpt lat="42.677240" lon="-71.743290">
                <time>2026-05-05T15:49:58Z</time>
            </trkpt>
            <trkpt lat="42.677250" lon="-71.743130">
                <time>2026-05-05T15:49:59Z</time>
            </trkpt>
            <trkpt lat="42.677250" lon="-71.742940">
                <time>2026-05-05T15:50:00Z</time>
            </trkpt>
            <trkpt lat="42.677240" lon="-71.742750">
                <time>2026-05-05T15:50:01Z</time>
            </trkpt>
            <trkpt lat="42.677240" lon="-71.742560">
                <time>2026-05-05T15:50:02Z</time>
            </trkpt>
            <trkpt lat="42.677240" lon="-71.742360">
                <time>2026-05-05T15:50:03Z</time>
            </trkpt>
            <trkpt lat="42.677240" lon="-71.742160">
                <time>2026-05-05T15:50:04Z</time>
            </trkpt>
            <trkpt lat="42.677240" lon="-71.741960">
                <time>2026-05-05T15:50:05Z</time>
            </trkpt>
            <trkpt lat="42.677240" lon="-71.741760">
                <time>2026-05-05T15:50:06Z</time>
            </trkpt>
            <trkpt lat="42.677240" lon="-71.741570">
                <time>2026-05-05T15:50:07Z</time>
            </trkpt>
            <trkpt lat="42.677240" lon="-71.741380">
                <time>2026-05-05T15:50:08Z</time>
            </trkpt>
            <trkpt lat="42.677240" lon="-71.741200">
                <time>2026-05-05T15:50:09Z</time>
            </trkpt>
            <trkpt lat="42.677240" lon="-71.741020">
                <time>2026-05-05T15:50:10Z</time>
            </trkpt>
            <trkpt lat="42.677240" lon="-71.740850">
                <time>2026-05-05T15:50:11Z</time>
            </trkpt>
            <trkpt lat="42.677240" lon="-71.740690">
                <time>2026-05-05T15:50:12Z</time>
            </trkpt>
            <trkpt lat="42.677230" lon="-71.740570">
                <time>2026-05-05T15:50:13Z</time>
            </trkpt>
            <trkpt lat="42.677230" lon="-71.740470">
                <time>2026-05-05T15:50:14Z</time>
            </trkpt>
            <trkpt lat="42.677220" lon="-71.740410">
                <time>2026-05-05T15:50:15Z</time>
            </trkpt>
            <trkpt lat="42.677230" lon="-71.740350">
                <time>2026-05-05T15:50:16Z</time>
            </trkpt>
            <trkpt lat="42.677250" lon="-71.740300">
                <time>2026-05-05T15:50:17Z</time>
            </trkpt>
            <trkpt lat="42.677300" lon="-71.740260">
                <time>2026-05-05T15:50:18Z</time>
            </trkpt>
            <trkpt lat="42.677370" lon="-71.740250">
                <time>2026-05-05T15:50:19Z</time>
            </trkpt>
            <trkpt lat="42.677450" lon="-71.740250">
                <time>2026-05-05T15:50:20Z</time>
            </trkpt>
            <trkpt lat="42.677540" lon="-71.740250">
                <time>2026-05-05T15:50:21Z</time>
            </trkpt>
            <trkpt lat="42.677640" lon="-71.740260">
                <time>2026-05-05T15:50:22Z</time>
            </trkpt>
            <trkpt lat="42.677750" lon="-71.740260">
                <time>2026-05-05T15:50:23Z</time>
            </trkpt>
            <trkpt lat="42.677860" lon="-71.740260">
                <time>2026-05-05T15:50:24Z</time>
            </trkpt>
            <trkpt lat="42.677980" lon="-71.740270">
                <time>2026-05-05T15:50:25Z</time>
            </trkpt>
            <trkpt lat="42.678100" lon="-71.740270">
                <time>2026-05-05T15:50:26Z</time>
            </trkpt>
            <trkpt lat="42.678220" lon="-71.740270">
                <time>2026-05-05T15:50:27Z</time>
            </trkpt>
            <trkpt lat="42.678350" lon="-71.740270">
                <time>2026-05-05T15:50:28Z</time>
            </trkpt>
            <trkpt lat="42.678470" lon="-71.740270">
                <time>2026-05-05T15:50:29Z</time>
            </trkpt>
            <trkpt lat="42.678590" lon="-71.740270">
                <time>2026-05-05T15:50:30Z</time>
            </trkpt>
            <trkpt lat="42.678720" lon="-71.740290">
                <time>2026-05-05T15:50:31Z</time>
            </trkpt>
            <trkpt lat="42.678850" lon="-71.740320">
                <time>2026-05-05T15:50:32Z</time>
            </trkpt>
            <trkpt lat="42.678980" lon="-71.740350">
                <time>2026-05-05T15:50:33Z</time>
            </trkpt>
            <trkpt lat="42.679100" lon="-71.740380">
                <time>2026-05-05T15:50:34Z</time>
            </trkpt>
            <trkpt lat="42.679220" lon="-71.740400">
                <time>2026-05-05T15:50:35Z</time>
            </trkpt>
            <trkpt lat="42.679340" lon="-71.740440">
                <time>2026-05-05T15:50:36Z</time>
            </trkpt>
            <trkpt lat="42.679440" lon="-71.740480">
                <time>2026-05-05T15:50:37Z</time>
            </trkpt>
            <trkpt lat="42.679530" lon="-71.740520">
                <time>2026-05-05T15:50:38Z</time>
            </trkpt>
            <trkpt lat="42.679590" lon="-71.740540">
                <time>2026-05-05T15:50:39Z</time>
            </trkpt>
            <trkpt lat="42.679650" lon="-71.740540">
                <time>2026-05-05T15:50:40Z</time>
            </trkpt>
            <trkpt lat="42.679690" lon="-71.740510">
                <time>2026-05-05T15:50:41Z</time>
            </trkpt>
            <trkpt lat="42.679700" lon="-71.740440">
                <time>2026-05-05T15:50:42Z</time>
            </trkpt>
            <trkpt lat="42.679720" lon="-71.740390">
                <time>2026-05-05T15:50:43Z</time>
            </trkpt>
            <trkpt lat="42.679740" lon="-71.740320">
                <time>2026-05-05T15:50:44Z</time>
            </trkpt>
            <trkpt lat="42.679770" lon="-71.740250">
                <time>2026-05-05T15:50:45Z</time>
            </trkpt>
            <trkpt lat="42.679790" lon="-71.740170">
                <time>2026-05-05T15:50:46Z</time>
            </trkpt>
            <trkpt lat="42.679820" lon="-71.740080">
                <time>2026-05-05T15:50:47Z</time>
            </trkpt>
            <trkpt lat="42.679850" lon="-71.740000">
                <time>2026-05-05T15:50:48Z</time>
            </trkpt>
            <trkpt lat="42.679880" lon="-71.739910">
                <time>2026-05-05T15:50:49Z</time>
            </trkpt>
            <trkpt lat="42.679920" lon="-71.739810">
                <time>2026-05-05T15:50:50Z</time>
            </trkpt>
            <trkpt lat="42.679960" lon="-71.739690">
                <time>2026-05-05T15:50:51Z</time>
            </trkpt>
            <trkpt lat="42.679990" lon="-71.739570">
                <time>2026-05-05T15:50:52Z</time>
            </trkpt>
            <trkpt lat="42.680040" lon="-71.739450">
                <time>2026-05-05T15:50:53Z</time>
            </trkpt>
            <trkpt lat="42.680080" lon="-71.739330">
                <time>2026-05-05T15:50:54Z</time>
            </trkpt>
            <trkpt lat="42.680130" lon="-71.739190">
                <time>2026-05-05T15:50:55Z</time>
            </trkpt>
            <trkpt lat="42.680170" lon="-71.739050">
                <time>2026-05-05T15:50:56Z</time>
            </trkpt>
            <trkpt lat="42.680220" lon="-71.738890">
                <time>2026-05-05T15:50:57Z</time>
            </trkpt>
            <trkpt lat="42.680280" lon="-71.738730">
                <time>2026-05-05T15:50:58Z</time>
            </trkpt>
            <trkpt lat="42.680330" lon="-71.738570">
                <time>2026-05-05T15:50:59Z</time>
            </trkpt>
            <trkpt lat="42.680380" lon="-71.738410">
                <time>2026-05-05T15:51:00Z</time>
            </trkpt>
            <trkpt lat="42.680430" lon="-71.738260">
                <time>2026-05-05T15:51:01Z</time>
            </trkpt>
            <trkpt lat="42.680480" lon="-71.738100">
                <time>2026-05-05T15:51:02Z</time>
            </trkpt>
            <trkpt lat="42.680520" lon="-71.737950">
                <time>2026-05-05T15:51:03Z</time>
            </trkpt>
            <trkpt lat="42.680570" lon="-71.737790">
                <time>2026-05-05T15:51:04Z</time>
            </trkpt>
            <trkpt lat="42.680610" lon="-71.737640">
                <time>2026-05-05T15:51:05Z</time>
            </trkpt>
            <trkpt lat="42.680660" lon="-71.737480">
                <time>2026-05-05T15:51:06Z</time>
            </trkpt>
            <trkpt lat="42.680710" lon="-71.737330">
                <time>2026-05-05T15:51:07Z</time>
            </trkpt>
            <trkpt lat="42.680820" lon="-71.737220">
                <time>2026-05-05T15:51:08Z</time>
            </trkpt>
            <trkpt lat="42.680920" lon="-71.737100">
                <time>2026-05-05T15:51:09Z</time>
            </trkpt>
            <trkpt lat="42.681030" lon="-71.736980">
                <time>2026-05-05T15:51:10Z</time>
            </trkpt>
            <trkpt lat="42.681160" lon="-71.736890">
                <time>2026-05-05T15:51:11Z</time>
            </trkpt>
            <trkpt lat="42.681280" lon="-71.736810">
                <time>2026-05-05T15:51:12Z</time>
            </trkpt>
            <trkpt lat="42.681400" lon="-71.736720">
                <time>2026-05-05T15:51:13Z</time>
            </trkpt>
            <trkpt lat="42.681520" lon="-71.736630">
                <time>2026-05-05T15:51:14Z</time>
            </trkpt>
            <trkpt lat="42.681640" lon="-71.736560">
                <time>2026-05-05T15:51:15Z</time>
            </trkpt>
            <trkpt lat="42.681770" lon="-71.736480">
                <time>2026-05-05T15:51:16Z</time>
            </trkpt>
            <trkpt lat="42.681890" lon="-71.736400">
                <time>2026-05-05T15:51:17Z</time>
            </trkpt>
            <trkpt lat="42.682000" lon="-71.736320">
                <time>2026-05-05T15:51:18Z</time>
            </trkpt>
            <trkpt lat="42.682100" lon="-71.736240">
                <time>2026-05-05T15:51:19Z</time>
            </trkpt>
            <trkpt lat="42.682210" lon="-71.736130">
                <time>2026-05-05T15:51:20Z</time>
            </trkpt>
            <trkpt lat="42.682310" lon="-71.736020">
                <time>2026-05-05T15:51:21Z</time>
            </trkpt>
            <trkpt lat="42.682400" lon="-71.735900">
                <time>2026-05-05T15:51:22Z</time>
            </trkpt>
            <trkpt lat="42.682470" lon="-71.735750">
                <time>2026-05-05T15:51:23Z</time>
            </trkpt>
            <trkpt lat="42.682520" lon="-71.735580">
                <time>2026-05-05T15:51:24Z</time>
            </trkpt>
            <trkpt lat="42.682550" lon="-71.735400">
                <time>2026-05-05T15:51:25Z</time>
            </trkpt>
            <trkpt lat="42.682600" lon="-71.735230">
                <time>2026-05-05T15:51:26Z</time>
            </trkpt>
            <trkpt lat="42.682640" lon="-71.735050">
                <time>2026-05-05T15:51:27Z</time>
            </trkpt>
            <trkpt lat="42.682670" lon="-71.734890">
                <time>2026-05-05T15:51:28Z</time>
            </trkpt>
            <trkpt lat="42.682700" lon="-71.734730">
                <time>2026-05-05T15:51:29Z</time>
            </trkpt>
            <trkpt lat="42.682730" lon="-71.734580">
                <time>2026-05-05T15:51:30Z</time>
            </trkpt>
            <trkpt lat="42.682750" lon="-71.734420">
                <time>2026-05-05T15:51:31Z</time>
            </trkpt>
            <trkpt lat="42.682750" lon="-71.734260">
                <time>2026-05-05T15:51:32Z</time>
            </trkpt>
            <trkpt lat="42.682720" lon="-71.734130">
                <time>2026-05-05T15:51:33Z</time>
            </trkpt>
            <trkpt lat="42.682700" lon="-71.733980">
                <time>2026-05-05T15:51:34Z</time>
            </trkpt>
            <trkpt lat="42.682680" lon="-71.733860">
                <time>2026-05-05T15:51:35Z</time>
            </trkpt>
            <trkpt lat="42.682660" lon="-71.733740">
                <time>2026-05-05T15:51:36Z</time>
            </trkpt>
            <trkpt lat="42.682640" lon="-71.733650">
                <time>2026-05-05T15:51:37Z</time>
            </trkpt>
            <trkpt lat="42.682610" lon="-71.733590">
                <time>2026-05-05T15:51:38Z</time>
            </trkpt>
            <trkpt lat="42.682610" lon="-71.733510">
                <time>2026-05-05T15:51:39Z</time>
            </trkpt>
            <trkpt lat="42.682580" lon="-71.733410">
                <time>2026-05-05T15:51:40Z</time>
            </trkpt>
            <trkpt lat="42.682560" lon="-71.733300">
                <time>2026-05-05T15:51:41Z</time>
            </trkpt>
            <trkpt lat="42.682520" lon="-71.733180">
                <time>2026-05-05T15:51:42Z</time>
            </trkpt>
            <trkpt lat="42.682480" lon="-71.733030">
                <time>2026-05-05T15:51:43Z</time>
            </trkpt>
            <trkpt lat="42.682430" lon="-71.732900">
                <time>2026-05-05T15:51:44Z</time>
            </trkpt>
            <trkpt lat="42.682380" lon="-71.732760">
                <time>2026-05-05T15:51:45Z</time>
            </trkpt>
            <trkpt lat="42.682330" lon="-71.732600">
                <time>2026-05-05T15:51:46Z</time>
            </trkpt>
            <trkpt lat="42.682300" lon="-71.732440">
                <time>2026-05-05T15:51:47Z</time>
            </trkpt>
            <trkpt lat="42.682260" lon="-71.732280">
                <time>2026-05-05T15:51:48Z</time>
            </trkpt>
            <trkpt lat="42.682230" lon="-71.732100">
                <time>2026-05-05T15:51:49Z</time>
            </trkpt>
            <trkpt lat="42.682200" lon="-71.731940">
                <time>2026-05-05T15:51:50Z</time>
            </trkpt>
            <trkpt lat="42.682180" lon="-71.731770">
                <time>2026-05-05T15:51:51Z</time>
            </trkpt>
            <trkpt lat="42.682160" lon="-71.731610">
                <time>2026-05-05T15:51:52Z</time>
            </trkpt>
            <trkpt lat="42.682140" lon="-71.731460">
                <time>2026-05-05T15:51:53Z</time>
            </trkpt>
            <trkpt lat="42.682120" lon="-71.731300">
                <time>2026-05-05T15:51:54Z</time>
            </trkpt>
            <trkpt lat="42.682110" lon="-71.731150">
                <time>2026-05-05T15:51:55Z</time>
            </trkpt>
            <trkpt lat="42.682100" lon="-71.730990">
                <time>2026-05-05T15:51:56Z</time>
            </trkpt>
            <trkpt lat="42.682090" lon="-71.730830">
                <time>2026-05-05T15:51:57Z</time>
            </trkpt>
            <trkpt lat="42.682090" lon="-71.730660">
                <time>2026-05-05T15:51:58Z</time>
            </trkpt>
            <trkpt lat="42.682090" lon="-71.730510">
                <time>2026-05-05T15:51:59Z</time>
            </trkpt>
            <trkpt lat="42.682090" lon="-71.730340">
                <time>2026-05-05T15:52:00Z</time>
            </trkpt>
            <trkpt lat="42.682110" lon="-71.730180">
                <time>2026-05-05T15:52:01Z</time>
            </trkpt>
            <trkpt lat="42.682130" lon="-71.730000">
                <time>2026-05-05T15:52:02Z</time>
            </trkpt>
            <trkpt lat="42.682170" lon="-71.729830">
                <time>2026-05-05T15:52:03Z</time>
            </trkpt>
            <trkpt lat="42.682210" lon="-71.729660">
                <time>2026-05-05T15:52:04Z</time>
            </trkpt>
            <trkpt lat="42.682220" lon="-71.729480">
                <time>2026-05-05T15:52:05Z</time>
            </trkpt>
            <trkpt lat="42.682230" lon="-71.729290">
                <time>2026-05-05T15:52:06Z</time>
            </trkpt>
            <trkpt lat="42.682220" lon="-71.729100">
                <time>2026-05-05T15:52:07Z</time>
            </trkpt>
            <trkpt lat="42.682200" lon="-71.728910">
                <time>2026-05-05T15:52:08Z</time>
            </trkpt>
            <trkpt lat="42.682190" lon="-71.728720">
                <time>2026-05-05T15:52:09Z</time>
            </trkpt>
            <trkpt lat="42.682190" lon="-71.728520">
                <time>2026-05-05T15:52:10Z</time>
            </trkpt>
            <trkpt lat="42.682200" lon="-71.728320">
                <time>2026-05-05T15:52:11Z</time>
            </trkpt>
            <trkpt lat="42.682210" lon="-71.728130">
                <time>2026-05-05T15:52:12Z</time>
            </trkpt>
            <trkpt lat="42.682210" lon="-71.727940">
                <time>2026-05-05T15:52:13Z</time>
            </trkpt>
            <trkpt lat="42.682210" lon="-71.727750">
                <time>2026-05-05T15:52:14Z</time>
            </trkpt>
            <trkpt lat="42.682210" lon="-71.727570">
                <time>2026-05-05T15:52:15Z</time>
            </trkpt>
            <trkpt lat="42.682230" lon="-71.727400">
                <time>2026-05-05T15:52:16Z</time>
            </trkpt>
            <trkpt lat="42.682230" lon="-71.727230">
                <time>2026-05-05T15:52:17Z</time>
            </trkpt>
            <trkpt lat="42.682240" lon="-71.727050">
                <time>2026-05-05T15:52:18Z</time>
            </trkpt>
            <trkpt lat="42.682250" lon="-71.726870">
                <time>2026-05-05T15:52:19Z</time>
            </trkpt>
            <trkpt lat="42.682260" lon="-71.726680">
                <time>2026-05-05T15:52:20Z</time>
            </trkpt>
            <trkpt lat="42.682260" lon="-71.726520">
                <time>2026-05-05T15:52:21Z</time>
            </trkpt>
            <trkpt lat="42.682260" lon="-71.726350">
                <time>2026-05-05T15:52:22Z</time>
            </trkpt>
            <trkpt lat="42.682260" lon="-71.726170">
                <time>2026-05-05T15:52:23Z</time>
            </trkpt>
            <trkpt lat="42.682260" lon="-71.726000">
                <time>2026-05-05T15:52:24Z</time>
            </trkpt>
            <trkpt lat="42.682250" lon="-71.725840">
                <time>2026-05-05T15:52:25Z</time>
            </trkpt>
            <trkpt lat="42.682250" lon="-71.725690">
                <time>2026-05-05T15:52:26Z</time>
            </trkpt>
            <trkpt lat="42.682260" lon="-71.725550">
                <time>2026-05-05T15:52:27Z</time>
            </trkpt>
            <trkpt lat="42.682260" lon="-71.725410">
                <time>2026-05-05T15:52:28Z</time>
            </trkpt>
            <trkpt lat="42.682250" lon="-71.725290">
                <time>2026-05-05T15:52:29Z</time>
            </trkpt>
            <trkpt lat="42.682250" lon="-71.725210">
                <time>2026-05-05T15:52:30Z</time>
            </trkpt>
            <trkpt lat="42.682270" lon="-71.725160">
                <time>2026-05-05T15:52:31Z</time>
            </trkpt>
            <trkpt lat="42.682290" lon="-71.725120">
                <time>2026-05-05T15:52:32Z</time>
            </trkpt>
            <trkpt lat="42.682340" lon="-71.725110">
                <time>2026-05-05T15:52:33Z</time>
            </trkpt>
            <trkpt lat="42.682390" lon="-71.725130">
                <time>2026-05-05T15:52:34Z</time>
            </trkpt>
            <trkpt lat="42.682450" lon="-71.725150">
                <time>2026-05-05T15:52:35Z</time>
            </trkpt>
            <trkpt lat="42.682530" lon="-71.725170">
                <time>2026-05-05T15:52:36Z</time>
            </trkpt>
            <trkpt lat="42.682620" lon="-71.725210">
                <time>2026-05-05T15:52:37Z</time>
            </trkpt>
            <trkpt lat="42.682720" lon="-71.725240">
                <time>2026-05-05T15:52:38Z</time>
            </trkpt>
            <trkpt lat="42.682830" lon="-71.725280">
                <time>2026-05-05T15:52:39Z</time>
            </trkpt>
            <trkpt lat="42.682940" lon="-71.725300">
                <time>2026-05-05T15:52:40Z</time>
            </trkpt>
            <trkpt lat="42.683060" lon="-71.725340">
                <time>2026-05-05T15:52:41Z</time>
            </trkpt>
            <trkpt lat="42.683200" lon="-71.725380">
                <time>2026-05-05T15:52:42Z</time>
            </trkpt>
            <trkpt lat="42.683340" lon="-71.725430">
                <time>2026-05-05T15:52:43Z</time>
            </trkpt>
            <trkpt lat="42.683480" lon="-71.725480">
                <time>2026-05-05T15:52:44Z</time>
            </trkpt>
            <trkpt lat="42.683620" lon="-71.725520">
                <time>2026-05-05T15:52:45Z</time>
            </trkpt>
            <trkpt lat="42.683750" lon="-71.725550">
                <time>2026-05-05T15:52:46Z</time>
            </trkpt>
            <trkpt lat="42.683880" lon="-71.725590">
                <time>2026-05-05T15:52:47Z</time>
            </trkpt>
            <trkpt lat="42.684020" lon="-71.725620">
                <time>2026-05-05T15:52:48Z</time>
            </trkpt>
            <trkpt lat="42.684160" lon="-71.725660">
                <time>2026-05-05T15:52:49Z</time>
            </trkpt>
            <trkpt lat="42.684290" lon="-71.725670">
                <time>2026-05-05T15:52:50Z</time>
            </trkpt>
            <trkpt lat="42.684410" lon="-71.725670">
                <time>2026-05-05T15:52:51Z</time>
            </trkpt>
            <trkpt lat="42.684540" lon="-71.725660">
                <time>2026-05-05T15:52:52Z</time>
            </trkpt>
            <trkpt lat="42.684660" lon="-71.725630">
                <time>2026-05-05T15:52:53Z</time>
            </trkpt>
            <trkpt lat="42.684780" lon="-71.725590">
                <time>2026-05-05T15:52:54Z</time>
            </trkpt>
            <trkpt lat="42.684890" lon="-71.725540">
                <time>2026-05-05T15:52:55Z</time>
            </trkpt>
            <trkpt lat="42.685010" lon="-71.725480">
                <time>2026-05-05T15:52:56Z</time>
            </trkpt>
            <trkpt lat="42.685130" lon="-71.725420">
                <time>2026-05-05T15:52:57Z</time>
            </trkpt>
            <trkpt lat="42.685260" lon="-71.725360">
                <time>2026-05-05T15:52:58Z</time>
            </trkpt>
            <trkpt lat="42.685390" lon="-71.725320">
                <time>2026-05-05T15:52:59Z</time>
            </trkpt>
            <trkpt lat="42.685530" lon="-71.725270">
                <time>2026-05-05T15:53:00Z</time>
            </trkpt>
            <trkpt lat="42.685670" lon="-71.725220">
                <time>2026-05-05T15:53:01Z</time>
            </trkpt>
            <trkpt lat="42.685810" lon="-71.725180">
                <time>2026-05-05T15:53:02Z</time>
            </trkpt>
            <trkpt lat="42.685950" lon="-71.725140">
                <time>2026-05-05T15:53:03Z</time>
            </trkpt>
            <trkpt lat="42.686080" lon="-71.725100">
                <time>2026-05-05T15:53:04Z</time>
            </trkpt>
            <trkpt lat="42.686210" lon="-71.725050">
                <time>2026-05-05T15:53:05Z</time>
            </trkpt>
            <trkpt lat="42.686340" lon="-71.725010">
                <time>2026-05-05T15:53:06Z</time>
            </trkpt>
            <trkpt lat="42.686460" lon="-71.724950">
                <time>2026-05-05T15:53:07Z</time>
            </trkpt>
            <trkpt lat="42.686590" lon="-71.724880">
                <time>2026-05-05T15:53:08Z</time>
            </trkpt>
            <trkpt lat="42.686710" lon="-71.724790">
                <time>2026-05-05T15:53:09Z</time>
            </trkpt>
            <trkpt lat="42.686830" lon="-71.724700">
                <time>2026-05-05T15:53:10Z</time>
            </trkpt>
            <trkpt lat="42.686950" lon="-71.724600">
                <time>2026-05-05T15:53:11Z</time>
            </trkpt>
            <trkpt lat="42.687060" lon="-71.724490">
                <time>2026-05-05T15:53:12Z</time>
            </trkpt>
            <trkpt lat="42.687180" lon="-71.724390">
                <time>2026-05-05T15:53:13Z</time>
            </trkpt>
            <trkpt lat="42.687280" lon="-71.724290">
                <time>2026-05-05T15:53:14Z</time>
            </trkpt>
            <trkpt lat="42.687400" lon="-71.724210">
                <time>2026-05-05T15:53:15Z</time>
            </trkpt>
            <trkpt lat="42.687510" lon="-71.724130">
                <time>2026-05-05T15:53:16Z</time>
            </trkpt>
            <trkpt lat="42.687630" lon="-71.724060">
                <time>2026-05-05T15:53:17Z</time>
            </trkpt>
            <trkpt lat="42.687750" lon="-71.723990">
                <time>2026-05-05T15:53:18Z</time>
            </trkpt>
            <trkpt lat="42.687870" lon="-71.723930">
                <time>2026-05-05T15:53:19Z</time>
            </trkpt>
            <trkpt lat="42.688010" lon="-71.723880">
                <time>2026-05-05T15:53:20Z</time>
            </trkpt>
            <trkpt lat="42.688140" lon="-71.723840">
                <time>2026-05-05T15:53:21Z</time>
            </trkpt>
            <trkpt lat="42.688280" lon="-71.723800">
                <time>2026-05-05T15:53:22Z</time>
            </trkpt>
            <trkpt lat="42.688420" lon="-71.723740">
                <time>2026-05-05T15:53:23Z</time>
            </trkpt>
            <trkpt lat="42.688550" lon="-71.723690">
                <time>2026-05-05T15:53:24Z</time>
            </trkpt>
            <trkpt lat="42.688690" lon="-71.723640">
                <time>2026-05-05T15:53:25Z</time>
            </trkpt>
            <trkpt lat="42.688830" lon="-71.723600">
                <time>2026-05-05T15:53:26Z</time>
            </trkpt>
            <trkpt lat="42.688980" lon="-71.723570">
                <time>2026-05-05T15:53:27Z</time>
            </trkpt>
            <trkpt lat="42.689120" lon="-71.723540">
                <time>2026-05-05T15:53:28Z</time>
            </trkpt>
            <trkpt lat="42.689270" lon="-71.723510">
                <time>2026-05-05T15:53:29Z</time>
            </trkpt>
            <trkpt lat="42.689410" lon="-71.723480">
                <time>2026-05-05T15:53:30Z</time>
            </trkpt>
            <trkpt lat="42.689560" lon="-71.723450">
                <time>2026-05-05T15:53:31Z</time>
            </trkpt>
            <trkpt lat="42.689700" lon="-71.723430">
                <time>2026-05-05T15:53:32Z</time>
            </trkpt>
            <trkpt lat="42.689840" lon="-71.723420">
                <time>2026-05-05T15:53:33Z</time>
            </trkpt>
            <trkpt lat="42.689990" lon="-71.723410">
                <time>2026-05-05T15:53:34Z</time>
            </trkpt>
            <trkpt lat="42.690130" lon="-71.723420">
                <time>2026-05-05T15:53:35Z</time>
            </trkpt>
            <trkpt lat="42.690280" lon="-71.723430">
                <time>2026-05-05T15:53:36Z</time>
            </trkpt>
            <trkpt lat="42.690440" lon="-71.723430">
                <time>2026-05-05T15:53:37Z</time>
            </trkpt>
            <trkpt lat="42.690580" lon="-71.723430">
                <time>2026-05-05T15:53:38Z</time>
            </trkpt>
            <trkpt lat="42.690730" lon="-71.723400">
                <time>2026-05-05T15:53:39Z</time>
            </trkpt>
            <trkpt lat="42.690880" lon="-71.723350">
                <time>2026-05-05T15:53:40Z</time>
            </trkpt>
            <trkpt lat="42.691020" lon="-71.723290">
                <time>2026-05-05T15:53:41Z</time>
            </trkpt>
            <trkpt lat="42.691150" lon="-71.723220">
                <time>2026-05-05T15:53:42Z</time>
            </trkpt>
            <trkpt lat="42.691280" lon="-71.723150">
                <time>2026-05-05T15:53:43Z</time>
            </trkpt>
            <trkpt lat="42.691400" lon="-71.723100">
                <time>2026-05-05T15:53:44Z</time>
            </trkpt>
            <trkpt lat="42.691530" lon="-71.723060">
                <time>2026-05-05T15:53:45Z</time>
            </trkpt>
            <trkpt lat="42.691670" lon="-71.723020">
                <time>2026-05-05T15:53:46Z</time>
            </trkpt>
            <trkpt lat="42.691810" lon="-71.722980">
                <time>2026-05-05T15:53:47Z</time>
            </trkpt>
            <trkpt lat="42.691950" lon="-71.722950">
                <time>2026-05-05T15:53:48Z</time>
            </trkpt>
            <trkpt lat="42.692100" lon="-71.722910">
                <time>2026-05-05T15:53:49Z</time>
            </trkpt>
            <trkpt lat="42.692240" lon="-71.722880">
                <time>2026-05-05T15:53:50Z</time>
            </trkpt>
            <trkpt lat="42.692380" lon="-71.722840">
                <time>2026-05-05T15:53:51Z</time>
            </trkpt>
            <trkpt lat="42.692520" lon="-71.722800">
                <time>2026-05-05T15:53:52Z</time>
            </trkpt>
            <trkpt lat="42.692650" lon="-71.722770">
                <time>2026-05-05T15:53:53Z</time>
            </trkpt>
            <trkpt lat="42.692770" lon="-71.722730">
                <time>2026-05-05T15:53:54Z</time>
            </trkpt>
            <trkpt lat="42.692900" lon="-71.722690">
                <time>2026-05-05T15:53:55Z</time>
            </trkpt>
            <trkpt lat="42.693020" lon="-71.722660">
                <time>2026-05-05T15:53:56Z</time>
            </trkpt>
            <trkpt lat="42.693140" lon="-71.722620">
                <time>2026-05-05T15:53:57Z</time>
            </trkpt>
            <trkpt lat="42.693270" lon="-71.722610">
                <time>2026-05-05T15:53:58Z</time>
            </trkpt>
            <trkpt lat="42.693400" lon="-71.722610">
                <time>2026-05-05T15:53:59Z</time>
            </trkpt>
            <trkpt lat="42.693540" lon="-71.722630">
                <time>2026-05-05T15:54:00Z</time>
            </trkpt>
            <trkpt lat="42.693680" lon="-71.722640">
                <time>2026-05-05T15:54:01Z</time>
            </trkpt>
            <trkpt lat="42.693820" lon="-71.722660">
                <time>2026-05-05T15:54:02Z</time>
            </trkpt>
            <trkpt lat="42.693970" lon="-71.722680">
                <time>2026-05-05T15:54:03Z</time>
            </trkpt>
            <trkpt lat="42.694110" lon="-71.722710">
                <time>2026-05-05T15:54:04Z</time>
            </trkpt>
            <trkpt lat="42.694250" lon="-71.722750">
                <time>2026-05-05T15:54:05Z</time>
            </trkpt>
            <trkpt lat="42.694390" lon="-71.722780">
                <time>2026-05-05T15:54:06Z</time>
            </trkpt>
            <trkpt lat="42.694530" lon="-71.722820">
                <time>2026-05-05T15:54:07Z</time>
            </trkpt>
            <trkpt lat="42.694680" lon="-71.722860">
                <time>2026-05-05T15:54:08Z</time>
            </trkpt>
            <trkpt lat="42.694820" lon="-71.722910">
                <time>2026-05-05T15:54:09Z</time>
            </trkpt>
            <trkpt lat="42.694960" lon="-71.722940">
                <time>2026-05-05T15:54:10Z</time>
            </trkpt>
            <trkpt lat="42.695110" lon="-71.722970">
                <time>2026-05-05T15:54:11Z</time>
            </trkpt>
            <trkpt lat="42.695250" lon="-71.723000">
                <time>2026-05-05T15:54:12Z</time>
            </trkpt>
            <trkpt lat="42.695390" lon="-71.723040">
                <time>2026-05-05T15:54:13Z</time>
            </trkpt>
            <trkpt lat="42.695530" lon="-71.723070">
                <time>2026-05-05T15:54:14Z</time>
            </trkpt>
            <trkpt lat="42.695680" lon="-71.723120">
                <time>2026-05-05T15:54:15Z</time>
            </trkpt>
            <trkpt lat="42.695830" lon="-71.723150">
                <time>2026-05-05T15:54:16Z</time>
            </trkpt>
            <trkpt lat="42.695970" lon="-71.723190">
                <time>2026-05-05T15:54:17Z</time>
            </trkpt>
            <trkpt lat="42.696120" lon="-71.723210">
                <time>2026-05-05T15:54:18Z</time>
            </trkpt>
            <trkpt lat="42.696270" lon="-71.723240">
                <time>2026-05-05T15:54:19Z</time>
            </trkpt>
            <trkpt lat="42.696420" lon="-71.723270">
                <time>2026-05-05T15:54:20Z</time>
            </trkpt>
            <trkpt lat="42.696570" lon="-71.723270">
                <time>2026-05-05T15:54:21Z</time>
            </trkpt>
            <trkpt lat="42.696710" lon="-71.723290">
                <time>2026-05-05T15:54:22Z</time>
            </trkpt>
            <trkpt lat="42.696860" lon="-71.723320">
                <time>2026-05-05T15:54:23Z</time>
            </trkpt>
            <trkpt lat="42.697000" lon="-71.723350">
                <time>2026-05-05T15:54:24Z</time>
            </trkpt>
            <trkpt lat="42.697130" lon="-71.723380">
                <time>2026-05-05T15:54:25Z</time>
            </trkpt>
            <trkpt lat="42.697270" lon="-71.723400">
                <time>2026-05-05T15:54:26Z</time>
            </trkpt>
            <trkpt lat="42.697400" lon="-71.723410">
                <time>2026-05-05T15:54:27Z</time>
            </trkpt>
            <trkpt lat="42.697540" lon="-71.723430">
                <time>2026-05-05T15:54:28Z</time>
            </trkpt>
            <trkpt lat="42.697680" lon="-71.723440">
                <time>2026-05-05T15:54:29Z</time>
            </trkpt>
            <trkpt lat="42.697820" lon="-71.723460">
                <time>2026-05-05T15:54:30Z</time>
            </trkpt>
            <trkpt lat="42.697960" lon="-71.723470">
                <time>2026-05-05T15:54:31Z</time>
            </trkpt>
            <trkpt lat="42.698100" lon="-71.723490">
                <time>2026-05-05T15:54:32Z</time>
            </trkpt>
            <trkpt lat="42.698240" lon="-71.723500">
                <time>2026-05-05T15:54:33Z</time>
            </trkpt>
            <trkpt lat="42.698380" lon="-71.723520">
                <time>2026-05-05T15:54:34Z</time>
            </trkpt>
            <trkpt lat="42.698530" lon="-71.723540">
                <time>2026-05-05T15:54:35Z</time>
            </trkpt>
            <trkpt lat="42.698680" lon="-71.723560">
                <time>2026-05-05T15:54:36Z</time>
            </trkpt>
            <trkpt lat="42.698830" lon="-71.723590">
                <time>2026-05-05T15:54:37Z</time>
            </trkpt>
            <trkpt lat="42.698980" lon="-71.723610">
                <time>2026-05-05T15:54:38Z</time>
            </trkpt>
            <trkpt lat="42.699130" lon="-71.723630">
                <time>2026-05-05T15:54:39Z</time>
            </trkpt>
            <trkpt lat="42.699280" lon="-71.723650">
                <time>2026-05-05T15:54:40Z</time>
            </trkpt>
            <trkpt lat="42.699430" lon="-71.723690">
                <time>2026-05-05T15:54:41Z</time>
            </trkpt>
            <trkpt lat="42.699570" lon="-71.723740">
                <time>2026-05-05T15:54:42Z</time>
            </trkpt>
            <trkpt lat="42.699710" lon="-71.723800">
                <time>2026-05-05T15:54:43Z</time>
            </trkpt>
            <trkpt lat="42.699840" lon="-71.723860">
                <time>2026-05-05T15:54:44Z</time>
            </trkpt>
            <trkpt lat="42.699970" lon="-71.723940">
                <time>2026-05-05T15:54:45Z</time>
            </trkpt>
            <trkpt lat="42.700100" lon="-71.724020">
                <time>2026-05-05T15:54:46Z</time>
            </trkpt>
            <trkpt lat="42.700230" lon="-71.724100">
                <time>2026-05-05T15:54:47Z</time>
            </trkpt>
            <trkpt lat="42.700370" lon="-71.724190">
                <time>2026-05-05T15:54:48Z</time>
            </trkpt>
            <trkpt lat="42.700510" lon="-71.724290">
                <time>2026-05-05T15:54:49Z</time>
            </trkpt>
            <trkpt lat="42.700650" lon="-71.724390">
                <time>2026-05-05T15:54:50Z</time>
            </trkpt>
            <trkpt lat="42.700790" lon="-71.724490">
                <time>2026-05-05T15:54:51Z</time>
            </trkpt>
            <trkpt lat="42.700920" lon="-71.724580">
                <time>2026-05-05T15:54:52Z</time>
            </trkpt>
            <trkpt lat="42.701050" lon="-71.724670">
                <time>2026-05-05T15:54:53Z</time>
            </trkpt>
            <trkpt lat="42.701190" lon="-71.724760">
                <time>2026-05-05T15:54:54Z</time>
            </trkpt>
            <trkpt lat="42.701320" lon="-71.724850">
                <time>2026-05-05T15:54:55Z</time>
            </trkpt>
            <trkpt lat="42.701450" lon="-71.724940">
                <time>2026-05-05T15:54:56Z</time>
            </trkpt>
            <trkpt lat="42.701590" lon="-71.725030">
                <time>2026-05-05T15:54:57Z</time>
            </trkpt>
            <trkpt lat="42.701730" lon="-71.725120">
                <time>2026-05-05T15:54:58Z</time>
            </trkpt>
            <trkpt lat="42.701860" lon="-71.725210">
                <time>2026-05-05T15:54:59Z</time>
            </trkpt>
            <trkpt lat="42.702000" lon="-71.725310">
                <time>2026-05-05T15:55:00Z</time>
            </trkpt>
            <trkpt lat="42.702130" lon="-71.725410">
                <time>2026-05-05T15:55:01Z</time>
            </trkpt>
            <trkpt lat="42.702250" lon="-71.725530">
                <time>2026-05-05T15:55:02Z</time>
            </trkpt>
            <trkpt lat="42.702380" lon="-71.725640">
                <time>2026-05-05T15:55:03Z</time>
            </trkpt>
            <trkpt lat="42.702500" lon="-71.725750">
                <time>2026-05-05T15:55:04Z</time>
            </trkpt>
            <trkpt lat="42.702640" lon="-71.725860">
                <time>2026-05-05T15:55:05Z</time>
            </trkpt>
            <trkpt lat="42.702780" lon="-71.725960">
                <time>2026-05-05T15:55:06Z</time>
            </trkpt>
            <trkpt lat="42.702910" lon="-71.726060">
                <time>2026-05-05T15:55:07Z</time>
            </trkpt>
            <trkpt lat="42.703050" lon="-71.726140">
                <time>2026-05-05T15:55:08Z</time>
            </trkpt>
            <trkpt lat="42.703190" lon="-71.726230">
                <time>2026-05-05T15:55:09Z</time>
            </trkpt>
            <trkpt lat="42.703330" lon="-71.726300">
                <time>2026-05-05T15:55:10Z</time>
            </trkpt>
            <trkpt lat="42.703480" lon="-71.726380">
                <time>2026-05-05T15:55:11Z</time>
            </trkpt>
            <trkpt lat="42.703620" lon="-71.726450">
                <time>2026-05-05T15:55:12Z</time>
            </trkpt>
            <trkpt lat="42.703770" lon="-71.726530">
                <time>2026-05-05T15:55:13Z</time>
            </trkpt>
            <trkpt lat="42.703910" lon="-71.726580">
                <time>2026-05-05T15:55:14Z</time>
            </trkpt>
            <trkpt lat="42.704060" lon="-71.726650">
                <time>2026-05-05T15:55:15Z</time>
            </trkpt>
            <trkpt lat="42.704200" lon="-71.726690">
                <time>2026-05-05T15:55:16Z</time>
            </trkpt>
            <trkpt lat="42.704350" lon="-71.726740">
                <time>2026-05-05T15:55:17Z</time>
            </trkpt>
            <trkpt lat="42.704480" lon="-71.726800">
                <time>2026-05-05T15:55:18Z</time>
            </trkpt>
            <trkpt lat="42.704620" lon="-71.726860">
                <time>2026-05-05T15:55:19Z</time>
            </trkpt>
            <trkpt lat="42.704760" lon="-71.726920">
                <time>2026-05-05T15:55:20Z</time>
            </trkpt>
            <trkpt lat="42.704900" lon="-71.726980">
                <time>2026-05-05T15:55:21Z</time>
            </trkpt>
            <trkpt lat="42.705040" lon="-71.727030">
                <time>2026-05-05T15:55:22Z</time>
            </trkpt>
            <trkpt lat="42.705180" lon="-71.727070">
                <time>2026-05-05T15:55:23Z</time>
            </trkpt>
            <trkpt lat="42.705320" lon="-71.727100">
                <time>2026-05-05T15:55:24Z</time>
            </trkpt>
            <trkpt lat="42.705450" lon="-71.727150">
                <time>2026-05-05T15:55:25Z</time>
            </trkpt>
            <trkpt lat="42.705580" lon="-71.727210">
                <time>2026-05-05T15:55:26Z</time>
            </trkpt>
            <trkpt lat="42.705720" lon="-71.727270">
                <time>2026-05-05T15:55:27Z</time>
            </trkpt>
            <trkpt lat="42.705860" lon="-71.727290">
                <time>2026-05-05T15:55:28Z</time>
            </trkpt>
            <trkpt lat="42.706000" lon="-71.727270">
                <time>2026-05-05T15:55:29Z</time>
            </trkpt>
            <trkpt lat="42.706130" lon="-71.727190">
                <time>2026-05-05T15:55:30Z</time>
            </trkpt>
            <trkpt lat="42.706260" lon="-71.727090">
                <time>2026-05-05T15:55:31Z</time>
            </trkpt>
            <trkpt lat="42.706370" lon="-71.727000">
                <time>2026-05-05T15:55:32Z</time>
            </trkpt>
            <trkpt lat="42.706490" lon="-71.726940">
                <time>2026-05-05T15:55:33Z</time>
            </trkpt>
            <trkpt lat="42.706600" lon="-71.726890">
                <time>2026-05-05T15:55:34Z</time>
            </trkpt>
            <trkpt lat="42.706710" lon="-71.726870">
                <time>2026-05-05T15:55:35Z</time>
            </trkpt>
            <trkpt lat="42.706820" lon="-71.726840">
                <time>2026-05-05T15:55:36Z</time>
            </trkpt>
            <trkpt lat="42.706920" lon="-71.726820">
                <time>2026-05-05T15:55:37Z</time>
            </trkpt>
            <trkpt lat="42.707020" lon="-71.726790">
                <time>2026-05-05T15:55:38Z</time>
            </trkpt>
            <trkpt lat="42.707130" lon="-71.726760">
                <time>2026-05-05T15:55:39Z</time>
            </trkpt>
            <trkpt lat="42.707250" lon="-71.726730">
                <time>2026-05-05T15:55:40Z</time>
            </trkpt>
            <trkpt lat="42.707350" lon="-71.726710">
                <time>2026-05-05T15:55:41Z</time>
            </trkpt>
            <trkpt lat="42.707460" lon="-71.726680">
                <time>2026-05-05T15:55:42Z</time>
            </trkpt>
            <trkpt lat="42.707570" lon="-71.726650">
                <time>2026-05-05T15:55:43Z</time>
            </trkpt>
            <trkpt lat="42.707680" lon="-71.726630">
                <time>2026-05-05T15:55:44Z</time>
            </trkpt>
            <trkpt lat="42.707790" lon="-71.726610">
                <time>2026-05-05T15:55:45Z</time>
            </trkpt>
            <trkpt lat="42.707900" lon="-71.726600">
                <time>2026-05-05T15:55:46Z</time>
            </trkpt>
            <trkpt lat="42.708000" lon="-71.726580">
                <time>2026-05-05T15:55:47Z</time>
            </trkpt>
            <trkpt lat="42.708100" lon="-71.726560">
                <time>2026-05-05T15:55:48Z</time>
            </trkpt>
            <trkpt lat="42.708180" lon="-71.726550">
                <time>2026-05-05T15:55:49Z</time>
            </trkpt>
            <trkpt lat="42.708250" lon="-71.726540">
                <time>2026-05-05T15:55:50Z</time>
            </trkpt>
            <trkpt lat="42.708320" lon="-71.726540">
                <time>2026-05-05T15:55:51Z</time>
            </trkpt>
            <trkpt lat="42.708400" lon="-71.726540">
                <time>2026-05-05T15:55:52Z</time>
            </trkpt>
            <trkpt lat="42.708490" lon="-71.726520">
                <time>2026-05-05T15:55:53Z</time>
            </trkpt>
            <trkpt lat="42.708590" lon="-71.726500">
                <time>2026-05-05T15:55:54Z</time>
            </trkpt>
            <trkpt lat="42.708680" lon="-71.726490">
                <time>2026-05-05T15:55:55Z</time>
            </trkpt>
            <trkpt lat="42.708780" lon="-71.726490">
                <time>2026-05-05T15:55:56Z</time>
            </trkpt>
            <trkpt lat="42.708870" lon="-71.726500">
                <time>2026-05-05T15:55:57Z</time>
            </trkpt>
            <trkpt lat="42.708970" lon="-71.726510">
                <time>2026-05-05T15:55:58Z</time>
            </trkpt>
            <trkpt lat="42.709060" lon="-71.726530">
                <time>2026-05-05T15:55:59Z</time>
            </trkpt>
            <trkpt lat="42.709160" lon="-71.726560">
                <time>2026-05-05T15:56:00Z</time>
            </trkpt>
            <trkpt lat="42.709260" lon="-71.726580">
                <time>2026-05-05T15:56:01Z</time>
            </trkpt>
            <trkpt lat="42.709360" lon="-71.726610">
                <time>2026-05-05T15:56:02Z</time>
            </trkpt>
            <trkpt lat="42.709470" lon="-71.726650">
                <time>2026-05-05T15:56:03Z</time>
            </trkpt>
            <trkpt lat="42.709580" lon="-71.726690">
                <time>2026-05-05T15:56:04Z</time>
            </trkpt>
            <trkpt lat="42.709690" lon="-71.726740">
                <time>2026-05-05T15:56:05Z</time>
            </trkpt>
            <trkpt lat="42.709800" lon="-71.726800">
                <time>2026-05-05T15:56:06Z</time>
            </trkpt>
            <trkpt lat="42.709900" lon="-71.726850">
                <time>2026-05-05T15:56:07Z</time>
            </trkpt>
            <trkpt lat="42.709990" lon="-71.726920">
                <time>2026-05-05T15:56:08Z</time>
            </trkpt>
            <trkpt lat="42.710080" lon="-71.727000">
                <time>2026-05-05T15:56:09Z</time>
            </trkpt>
            <trkpt lat="42.710170" lon="-71.727090">
                <time>2026-05-05T15:56:10Z</time>
            </trkpt>
            <trkpt lat="42.710260" lon="-71.727180">
                <time>2026-05-05T15:56:11Z</time>
            </trkpt>
            <trkpt lat="42.710340" lon="-71.727290">
                <time>2026-05-05T15:56:12Z</time>
            </trkpt>
            <trkpt lat="42.710410" lon="-71.727400">
                <time>2026-05-05T15:56:13Z</time>
            </trkpt>
            <trkpt lat="42.710490" lon="-71.727520">
                <time>2026-05-05T15:56:14Z</time>
            </trkpt>
            <trkpt lat="42.710560" lon="-71.727670">
                <time>2026-05-05T15:56:15Z</time>
            </trkpt>
            <trkpt lat="42.710630" lon="-71.727810">
                <time>2026-05-05T15:56:16Z</time>
            </trkpt>
            <trkpt lat="42.710690" lon="-71.727950">
                <time>2026-05-05T15:56:17Z</time>
            </trkpt>
            <trkpt lat="42.710760" lon="-71.728090">
                <time>2026-05-05T15:56:18Z</time>
            </trkpt>
            <trkpt lat="42.710830" lon="-71.728210">
                <time>2026-05-05T15:56:19Z</time>
            </trkpt>
            <trkpt lat="42.710920" lon="-71.728340">
                <time>2026-05-05T15:56:20Z</time>
            </trkpt>
            <trkpt lat="42.711000" lon="-71.728470">
                <time>2026-05-05T15:56:21Z</time>
            </trkpt>
            <trkpt lat="42.711090" lon="-71.728580">
                <time>2026-05-05T15:56:22Z</time>
            </trkpt>
            <trkpt lat="42.711200" lon="-71.728690">
                <time>2026-05-05T15:56:23Z</time>
            </trkpt>
            <trkpt lat="42.711300" lon="-71.728790">
                <time>2026-05-05T15:56:24Z</time>
            </trkpt>
            <trkpt lat="42.711410" lon="-71.728890">
                <time>2026-05-05T15:56:25Z</time>
            </trkpt>
            <trkpt lat="42.711530" lon="-71.728970">
                <time>2026-05-05T15:56:26Z</time>
            </trkpt>
            <trkpt lat="42.711640" lon="-71.729060">
                <time>2026-05-05T15:56:27Z</time>
            </trkpt>
            <trkpt lat="42.711740" lon="-71.729150">
                <time>2026-05-05T15:56:28Z</time>
            </trkpt>
            <trkpt lat="42.711850" lon="-71.729250">
                <time>2026-05-05T15:56:29Z</time>
            </trkpt>
            <trkpt lat="42.711950" lon="-71.729370">
                <time>2026-05-05T15:56:30Z</time>
            </trkpt>
            <trkpt lat="42.712040" lon="-71.729480">
                <time>2026-05-05T15:56:31Z</time>
            </trkpt>
            <trkpt lat="42.712130" lon="-71.729590">
                <time>2026-05-05T15:56:32Z</time>
            </trkpt>
            <trkpt lat="42.712220" lon="-71.729710">
                <time>2026-05-05T15:56:33Z</time>
            </trkpt>
            <trkpt lat="42.712320" lon="-71.729810">
                <time>2026-05-05T15:56:34Z</time>
            </trkpt>
            <trkpt lat="42.712410" lon="-71.729930">
                <time>2026-05-05T15:56:35Z</time>
            </trkpt>
            <trkpt lat="42.712510" lon="-71.730050">
                <time>2026-05-05T15:56:36Z</time>
            </trkpt>
            <trkpt lat="42.712600" lon="-71.730170">
                <time>2026-05-05T15:56:37Z</time>
            </trkpt>
            <trkpt lat="42.712700" lon="-71.730290">
                <time>2026-05-05T15:56:38Z</time>
            </trkpt>
            <trkpt lat="42.712780" lon="-71.730430">
                <time>2026-05-05T15:56:39Z</time>
            </trkpt>
            <trkpt lat="42.712870" lon="-71.730570">
                <time>2026-05-05T15:56:40Z</time>
            </trkpt>
            <trkpt lat="42.712960" lon="-71.730700">
                <time>2026-05-05T15:56:41Z</time>
            </trkpt>
            <trkpt lat="42.713050" lon="-71.730840">
                <time>2026-05-05T15:56:42Z</time>
            </trkpt>
            <trkpt lat="42.713140" lon="-71.730980">
                <time>2026-05-05T15:56:43Z</time>
            </trkpt>
            <trkpt lat="42.713230" lon="-71.731110">
                <time>2026-05-05T15:56:44Z</time>
            </trkpt>
            <trkpt lat="42.713340" lon="-71.731250">
                <time>2026-05-05T15:56:45Z</time>
            </trkpt>
            <trkpt lat="42.713450" lon="-71.731370">
                <time>2026-05-05T15:56:46Z</time>
            </trkpt>
            <trkpt lat="42.713550" lon="-71.731490">
                <time>2026-05-05T15:56:47Z</time>
            </trkpt>
            <trkpt lat="42.713650" lon="-71.731590">
                <time>2026-05-05T15:56:48Z</time>
            </trkpt>
            <trkpt lat="42.713750" lon="-71.731710">
                <time>2026-05-05T15:56:49Z</time>
            </trkpt>
            <trkpt lat="42.713860" lon="-71.731820">
                <time>2026-05-05T15:56:50Z</time>
            </trkpt>
            <trkpt lat="42.713970" lon="-71.731940">
                <time>2026-05-05T15:56:51Z</time>
            </trkpt>
            <trkpt lat="42.714080" lon="-71.732070">
                <time>2026-05-05T15:56:52Z</time>
            </trkpt>
            <trkpt lat="42.714190" lon="-71.732200">
                <time>2026-05-05T15:56:53Z</time>
            </trkpt>
            <trkpt lat="42.714310" lon="-71.732330">
                <time>2026-05-05T15:56:54Z</time>
            </trkpt>
            <trkpt lat="42.714430" lon="-71.732450">
                <time>2026-05-05T15:56:55Z</time>
            </trkpt>
            <trkpt lat="42.714540" lon="-71.732600">
                <time>2026-05-05T15:56:56Z</time>
            </trkpt>
            <trkpt lat="42.714660" lon="-71.732740">
                <time>2026-05-05T15:56:57Z</time>
            </trkpt>
            <trkpt lat="42.714780" lon="-71.732880">
                <time>2026-05-05T15:56:58Z</time>
            </trkpt>
            <trkpt lat="42.714900" lon="-71.733030">
                <time>2026-05-05T15:56:59Z</time>
            </trkpt>
            <trkpt lat="42.715010" lon="-71.733170">
                <time>2026-05-05T15:57:00Z</time>
            </trkpt>
            <trkpt lat="42.715130" lon="-71.733310">
                <time>2026-05-05T15:57:01Z</time>
            </trkpt>
            <trkpt lat="42.715230" lon="-71.733460">
                <time>2026-05-05T15:57:02Z</time>
            </trkpt>
            <trkpt lat="42.715340" lon="-71.733610">
                <time>2026-05-05T15:57:03Z</time>
            </trkpt>
            <trkpt lat="42.715450" lon="-71.733760">
                <time>2026-05-05T15:57:04Z</time>
            </trkpt>
            <trkpt lat="42.715540" lon="-71.733910">
                <time>2026-05-05T15:57:05Z</time>
            </trkpt>
            <trkpt lat="42.715650" lon="-71.734060">
                <time>2026-05-05T15:57:06Z</time>
            </trkpt>
            <trkpt lat="42.715770" lon="-71.734200">
                <time>2026-05-05T15:57:07Z</time>
            </trkpt>
            <trkpt lat="42.715890" lon="-71.734340">
                <time>2026-05-05T15:57:08Z</time>
            </trkpt>
            <trkpt lat="42.716010" lon="-71.734450">
                <time>2026-05-05T15:57:09Z</time>
            </trkpt>
            <trkpt lat="42.716130" lon="-71.734560">
                <time>2026-05-05T15:57:10Z</time>
            </trkpt>
            <trkpt lat="42.716260" lon="-71.734670">
                <time>2026-05-05T15:57:11Z</time>
            </trkpt>
            <trkpt lat="42.716380" lon="-71.734780">
                <time>2026-05-05T15:57:12Z</time>
            </trkpt>
            <trkpt lat="42.716500" lon="-71.734880">
                <time>2026-05-05T15:57:13Z</time>
            </trkpt>
            <trkpt lat="42.716620" lon="-71.734980">
                <time>2026-05-05T15:57:14Z</time>
            </trkpt>
            <trkpt lat="42.716730" lon="-71.735080">
                <time>2026-05-05T15:57:15Z</time>
            </trkpt>
            <trkpt lat="42.716830" lon="-71.735160">
                <time>2026-05-05T15:57:16Z</time>
            </trkpt>
            <trkpt lat="42.716930" lon="-71.735250">
                <time>2026-05-05T15:57:17Z</time>
            </trkpt>
            <trkpt lat="42.717030" lon="-71.735330">
                <time>2026-05-05T15:57:18Z</time>
            </trkpt>
            <trkpt lat="42.717130" lon="-71.735400">
                <time>2026-05-05T15:57:19Z</time>
            </trkpt>
            <trkpt lat="42.717230" lon="-71.735470">
                <time>2026-05-05T15:57:20Z</time>
            </trkpt>
            <trkpt lat="42.717320" lon="-71.735540">
                <time>2026-05-05T15:57:21Z</time>
            </trkpt>
            <trkpt lat="42.717410" lon="-71.735610">
                <time>2026-05-05T15:57:22Z</time>
            </trkpt>
            <trkpt lat="42.717490" lon="-71.735680">
                <time>2026-05-05T15:57:23Z</time>
            </trkpt>
            <trkpt lat="42.717570" lon="-71.735750">
                <time>2026-05-05T15:57:24Z</time>
            </trkpt>
            <trkpt lat="42.717650" lon="-71.735810">
                <time>2026-05-05T15:57:25Z</time>
            </trkpt>
            <trkpt lat="42.717730" lon="-71.735880">
                <time>2026-05-05T15:57:26Z</time>
            </trkpt>
            <trkpt lat="42.717810" lon="-71.735950">
                <time>2026-05-05T15:57:27Z</time>
            </trkpt>
            <trkpt lat="42.717880" lon="-71.736010">
                <time>2026-05-05T15:57:28Z</time>
            </trkpt>
            <trkpt lat="42.717950" lon="-71.736080">
                <time>2026-05-05T15:57:29Z</time>
            </trkpt>
            <trkpt lat="42.718030" lon="-71.736150">
                <time>2026-05-05T15:57:30Z</time>
            </trkpt>
            <trkpt lat="42.718110" lon="-71.736230">
                <time>2026-05-05T15:57:31Z</time>
            </trkpt>
            <trkpt lat="42.718200" lon="-71.736320">
                <time>2026-05-05T15:57:32Z</time>
            </trkpt>
            <trkpt lat="42.718280" lon="-71.736400">
                <time>2026-05-05T15:57:33Z</time>
            </trkpt>
            <trkpt lat="42.718380" lon="-71.736500">
                <time>2026-05-05T15:57:34Z</time>
            </trkpt>
            <trkpt lat="42.718470" lon="-71.736600">
                <time>2026-05-05T15:57:35Z</time>
            </trkpt>
            <trkpt lat="42.718560" lon="-71.736700">
                <time>2026-05-05T15:57:36Z</time>
            </trkpt>
            <trkpt lat="42.718660" lon="-71.736790">
                <time>2026-05-05T15:57:37Z</time>
            </trkpt>
            <trkpt lat="42.718770" lon="-71.736890">
                <time>2026-05-05T15:57:38Z</time>
            </trkpt>
            <trkpt lat="42.718890" lon="-71.736990">
                <time>2026-05-05T15:57:39Z</time>
            </trkpt>
            <trkpt lat="42.719000" lon="-71.737090">
                <time>2026-05-05T15:57:40Z</time>
            </trkpt>
            <trkpt lat="42.719110" lon="-71.737180">
                <time>2026-05-05T15:57:41Z</time>
            </trkpt>
            <trkpt lat="42.719230" lon="-71.737260">
                <time>2026-05-05T15:57:42Z</time>
            </trkpt>
            <trkpt lat="42.719350" lon="-71.737350">
                <time>2026-05-05T15:57:43Z</time>
            </trkpt>
            <trkpt lat="42.719470" lon="-71.737430">
                <time>2026-05-05T15:57:44Z</time>
            </trkpt>
            <trkpt lat="42.719580" lon="-71.737500">
                <time>2026-05-05T15:57:45Z</time>
            </trkpt>
            <trkpt lat="42.719700" lon="-71.737580">
                <time>2026-05-05T15:57:46Z</time>
            </trkpt>
            <trkpt lat="42.719820" lon="-71.737670">
                <time>2026-05-05T15:57:47Z</time>
            </trkpt>
            <trkpt lat="42.719940" lon="-71.737750">
                <time>2026-05-05T15:57:48Z</time>
            </trkpt>
            <trkpt lat="42.720060" lon="-71.737830">
                <time>2026-05-05T15:57:49Z</time>
            </trkpt>
            <trkpt lat="42.720180" lon="-71.737910">
                <time>2026-05-05T15:57:50Z</time>
            </trkpt>
            <trkpt lat="42.720290" lon="-71.738000">
                <time>2026-05-05T15:57:51Z</time>
            </trkpt>
            <trkpt lat="42.720410" lon="-71.738060">
                <time>2026-05-05T15:57:52Z</time>
            </trkpt>
            <trkpt lat="42.720550" lon="-71.738110">
                <time>2026-05-05T15:57:53Z</time>
            </trkpt>
            <trkpt lat="42.720680" lon="-71.738150">
                <time>2026-05-05T15:57:54Z</time>
            </trkpt>
            <trkpt lat="42.720810" lon="-71.738200">
                <time>2026-05-05T15:57:55Z</time>
            </trkpt>
            <trkpt lat="42.720950" lon="-71.738220">
                <time>2026-05-05T15:57:56Z</time>
            </trkpt>
            <trkpt lat="42.721080" lon="-71.738260">
                <time>2026-05-05T15:57:57Z</time>
            </trkpt>
            <trkpt lat="42.721210" lon="-71.738280">
                <time>2026-05-05T15:57:58Z</time>
            </trkpt>
            <trkpt lat="42.721350" lon="-71.738320">
                <time>2026-05-05T15:57:59Z</time>
            </trkpt>
            <trkpt lat="42.721470" lon="-71.738380">
                <time>2026-05-05T15:58:00Z</time>
            </trkpt>
            <trkpt lat="42.721600" lon="-71.738430">
                <time>2026-05-05T15:58:01Z</time>
            </trkpt>
            <trkpt lat="42.721720" lon="-71.738510">
                <time>2026-05-05T15:58:02Z</time>
            </trkpt>
            <trkpt lat="42.721840" lon="-71.738600">
                <time>2026-05-05T15:58:03Z</time>
            </trkpt>
            <trkpt lat="42.721960" lon="-71.738700">
                <time>2026-05-05T15:58:04Z</time>
            </trkpt>
            <trkpt lat="42.722060" lon="-71.738820">
                <time>2026-05-05T15:58:05Z</time>
            </trkpt>
            <trkpt lat="42.722160" lon="-71.738940">
                <time>2026-05-05T15:58:06Z</time>
            </trkpt>
            <trkpt lat="42.722270" lon="-71.739050">
                <time>2026-05-05T15:58:07Z</time>
            </trkpt>
            <trkpt lat="42.722380" lon="-71.739160">
                <time>2026-05-05T15:58:08Z</time>
            </trkpt>
            <trkpt lat="42.722500" lon="-71.739260">
                <time>2026-05-05T15:58:09Z</time>
            </trkpt>
            <trkpt lat="42.722610" lon="-71.739360">
                <time>2026-05-05T15:58:10Z</time>
            </trkpt>
            <trkpt lat="42.722730" lon="-71.739460">
                <time>2026-05-05T15:58:11Z</time>
            </trkpt>
            <trkpt lat="42.722850" lon="-71.739540">
                <time>2026-05-05T15:58:12Z</time>
            </trkpt>
            <trkpt lat="42.722980" lon="-71.739610">
                <time>2026-05-05T15:58:13Z</time>
            </trkpt>
            <trkpt lat="42.723110" lon="-71.739690">
                <time>2026-05-05T15:58:14Z</time>
            </trkpt>
            <trkpt lat="42.723250" lon="-71.739760">
                <time>2026-05-05T15:58:15Z</time>
            </trkpt>
            <trkpt lat="42.723380" lon="-71.739830">
                <time>2026-05-05T15:58:16Z</time>
            </trkpt>
            <trkpt lat="42.723520" lon="-71.739890">
                <time>2026-05-05T15:58:17Z</time>
            </trkpt>
            <trkpt lat="42.723660" lon="-71.739950">
                <time>2026-05-05T15:58:18Z</time>
            </trkpt>
            <trkpt lat="42.723800" lon="-71.740010">
                <time>2026-05-05T15:58:19Z</time>
            </trkpt>
            <trkpt lat="42.723930" lon="-71.740060">
                <time>2026-05-05T15:58:20Z</time>
            </trkpt>
            <trkpt lat="42.724060" lon="-71.740110">
                <time>2026-05-05T15:58:21Z</time>
            </trkpt>
            <trkpt lat="42.724200" lon="-71.740150">
                <time>2026-05-05T15:58:22Z</time>
            </trkpt>
            <trkpt lat="42.724340" lon="-71.740200">
                <time>2026-05-05T15:58:23Z</time>
            </trkpt>
            <trkpt lat="42.724490" lon="-71.740230">
                <time>2026-05-05T15:58:24Z</time>
            </trkpt>
            <trkpt lat="42.724630" lon="-71.740270">
                <time>2026-05-05T15:58:25Z</time>
            </trkpt>
            <trkpt lat="42.724780" lon="-71.740290">
                <time>2026-05-05T15:58:26Z</time>
            </trkpt>
            <trkpt lat="42.724920" lon="-71.740320">
                <time>2026-05-05T15:58:27Z</time>
            </trkpt>
            <trkpt lat="42.725070" lon="-71.740350">
                <time>2026-05-05T15:58:28Z</time>
            </trkpt>
            <trkpt lat="42.725210" lon="-71.740360">
                <time>2026-05-05T15:58:29Z</time>
            </trkpt>
            <trkpt lat="42.725360" lon="-71.740380">
                <time>2026-05-05T15:58:30Z</time>
            </trkpt>
            <trkpt lat="42.725500" lon="-71.740410">
                <time>2026-05-05T15:58:31Z</time>
            </trkpt>
            <trkpt lat="42.725640" lon="-71.740440">
                <time>2026-05-05T15:58:32Z</time>
            </trkpt>
            <trkpt lat="42.725790" lon="-71.740480">
                <time>2026-05-05T15:58:33Z</time>
            </trkpt>
            <trkpt lat="42.725920" lon="-71.740530">
                <time>2026-05-05T15:58:34Z</time>
            </trkpt>
            <trkpt lat="42.726060" lon="-71.740590">
                <time>2026-05-05T15:58:35Z</time>
            </trkpt>
            <trkpt lat="42.726190" lon="-71.740650">
                <time>2026-05-05T15:58:36Z</time>
            </trkpt>
            <trkpt lat="42.726330" lon="-71.740730">
                <time>2026-05-05T15:58:37Z</time>
            </trkpt>
            <trkpt lat="42.726460" lon="-71.740790">
                <time>2026-05-05T15:58:38Z</time>
            </trkpt>
            <trkpt lat="42.726600" lon="-71.740840">
                <time>2026-05-05T15:58:39Z</time>
            </trkpt>
            <trkpt lat="42.726730" lon="-71.740900">
                <time>2026-05-05T15:58:40Z</time>
            </trkpt>
            <trkpt lat="42.726880" lon="-71.740950">
                <time>2026-05-05T15:58:41Z</time>
            </trkpt>
            <trkpt lat="42.727010" lon="-71.740990">
                <time>2026-05-05T15:58:42Z</time>
            </trkpt>
            <trkpt lat="42.727170" lon="-71.741030">
                <time>2026-05-05T15:58:43Z</time>
            </trkpt>
            <trkpt lat="42.727320" lon="-71.741070">
                <time>2026-05-05T15:58:44Z</time>
            </trkpt>
            <trkpt lat="42.727470" lon="-71.741090">
                <time>2026-05-05T15:58:45Z</time>
            </trkpt>
            <trkpt lat="42.727620" lon="-71.741120">
                <time>2026-05-05T15:58:46Z</time>
            </trkpt>
            <trkpt lat="42.727760" lon="-71.741150">
                <time>2026-05-05T15:58:47Z</time>
            </trkpt>
            <trkpt lat="42.727910" lon="-71.741190">
                <time>2026-05-05T15:58:48Z</time>
            </trkpt>
            <trkpt lat="42.728060" lon="-71.741240">
                <time>2026-05-05T15:58:49Z</time>
            </trkpt>
            <trkpt lat="42.728200" lon="-71.741290">
                <time>2026-05-05T15:58:50Z</time>
            </trkpt>
            <trkpt lat="42.728340" lon="-71.741370">
                <time>2026-05-05T15:58:51Z</time>
            </trkpt>
            <trkpt lat="42.728480" lon="-71.741440">
                <time>2026-05-05T15:58:52Z</time>
            </trkpt>
            <trkpt lat="42.728610" lon="-71.741520">
                <time>2026-05-05T15:58:53Z</time>
            </trkpt>
            <trkpt lat="42.728740" lon="-71.741590">
                <time>2026-05-05T15:58:54Z</time>
            </trkpt>
            <trkpt lat="42.728860" lon="-71.741680">
                <time>2026-05-05T15:58:55Z</time>
            </trkpt>
            <trkpt lat="42.728980" lon="-71.741760">
                <time>2026-05-05T15:58:56Z</time>
            </trkpt>
            <trkpt lat="42.729100" lon="-71.741850">
                <time>2026-05-05T15:58:57Z</time>
            </trkpt>
            <trkpt lat="42.729230" lon="-71.741930">
                <time>2026-05-05T15:58:58Z</time>
            </trkpt>
            <trkpt lat="42.729360" lon="-71.742000">
                <time>2026-05-05T15:58:59Z</time>
            </trkpt>
            <trkpt lat="42.729500" lon="-71.742060">
                <time>2026-05-05T15:59:00Z</time>
            </trkpt>
            <trkpt lat="42.729620" lon="-71.742120">
                <time>2026-05-05T15:59:01Z</time>
            </trkpt>
            <trkpt lat="42.729750" lon="-71.742180">
                <time>2026-05-05T15:59:02Z</time>
            </trkpt>
            <trkpt lat="42.729870" lon="-71.742240">
                <time>2026-05-05T15:59:03Z</time>
            </trkpt>
            <trkpt lat="42.729990" lon="-71.742310">
                <time>2026-05-05T15:59:04Z</time>
            </trkpt>
            <trkpt lat="42.730110" lon="-71.742390">
                <time>2026-05-05T15:59:05Z</time>
            </trkpt>
            <trkpt lat="42.730230" lon="-71.742480">
                <time>2026-05-05T15:59:06Z</time>
            </trkpt>
            <trkpt lat="42.730340" lon="-71.742590">
                <time>2026-05-05T15:59:07Z</time>
            </trkpt>
            <trkpt lat="42.730460" lon="-71.742710">
                <time>2026-05-05T15:59:08Z</time>
            </trkpt>
            <trkpt lat="42.730590" lon="-71.742820">
                <time>2026-05-05T15:59:09Z</time>
            </trkpt>
            <trkpt lat="42.730700" lon="-71.742930">
                <time>2026-05-05T15:59:10Z</time>
            </trkpt>
            <trkpt lat="42.730830" lon="-71.743040">
                <time>2026-05-05T15:59:11Z</time>
            </trkpt>
            <trkpt lat="42.730950" lon="-71.743140">
                <time>2026-05-05T15:59:12Z</time>
            </trkpt>
            <trkpt lat="42.731070" lon="-71.743250">
                <time>2026-05-05T15:59:13Z</time>
            </trkpt>
            <trkpt lat="42.731190" lon="-71.743360">
                <time>2026-05-05T15:59:14Z</time>
            </trkpt>
            <trkpt lat="42.731310" lon="-71.743470">
                <time>2026-05-05T15:59:15Z</time>
            </trkpt>
            <trkpt lat="42.731440" lon="-71.743580">
                <time>2026-05-05T15:59:16Z</time>
            </trkpt>
            <trkpt lat="42.731570" lon="-71.743680">
                <time>2026-05-05T15:59:17Z</time>
            </trkpt>
            <trkpt lat="42.731700" lon="-71.743790">
                <time>2026-05-05T15:59:18Z</time>
            </trkpt>
            <trkpt lat="42.731840" lon="-71.743890">
                <time>2026-05-05T15:59:19Z</time>
            </trkpt>
            <trkpt lat="42.731960" lon="-71.744000">
                <time>2026-05-05T15:59:20Z</time>
            </trkpt>
            <trkpt lat="42.732090" lon="-71.744100">
                <time>2026-05-05T15:59:21Z</time>
            </trkpt>
            <trkpt lat="42.732230" lon="-71.744200">
                <time>2026-05-05T15:59:22Z</time>
            </trkpt>
            <trkpt lat="42.732360" lon="-71.744300">
                <time>2026-05-05T15:59:23Z</time>
            </trkpt>
            <trkpt lat="42.732490" lon="-71.744410">
                <time>2026-05-05T15:59:24Z</time>
            </trkpt>
            <trkpt lat="42.732620" lon="-71.744520">
                <time>2026-05-05T15:59:25Z</time>
            </trkpt>
            <trkpt lat="42.732750" lon="-71.744620">
                <time>2026-05-05T15:59:26Z</time>
            </trkpt>
            <trkpt lat="42.732870" lon="-71.744730">
                <time>2026-05-05T15:59:27Z</time>
            </trkpt>
            <trkpt lat="42.733000" lon="-71.744830">
                <time>2026-05-05T15:59:28Z</time>
            </trkpt>
            <trkpt lat="42.733130" lon="-71.744940">
                <time>2026-05-05T15:59:29Z</time>
            </trkpt>
            <trkpt lat="42.733260" lon="-71.745030">
                <time>2026-05-05T15:59:30Z</time>
            </trkpt>
            <trkpt lat="42.733390" lon="-71.745140">
                <time>2026-05-05T15:59:31Z</time>
            </trkpt>
            <trkpt lat="42.733510" lon="-71.745240">
                <time>2026-05-05T15:59:32Z</time>
            </trkpt>
            <trkpt lat="42.733640" lon="-71.745330">
                <time>2026-05-05T15:59:33Z</time>
            </trkpt>
            <trkpt lat="42.733770" lon="-71.745410">
                <time>2026-05-05T15:59:34Z</time>
            </trkpt>
            <trkpt lat="42.733890" lon="-71.745480">
                <time>2026-05-05T15:59:35Z</time>
            </trkpt>
            <trkpt lat="42.734030" lon="-71.745550">
                <time>2026-05-05T15:59:36Z</time>
            </trkpt>
            <trkpt lat="42.734160" lon="-71.745620">
                <time>2026-05-05T15:59:37Z</time>
            </trkpt>
            <trkpt lat="42.734300" lon="-71.745690">
                <time>2026-05-05T15:59:38Z</time>
            </trkpt>
            <trkpt lat="42.734440" lon="-71.745750">
                <time>2026-05-05T15:59:39Z</time>
            </trkpt>
            <trkpt lat="42.734570" lon="-71.745820">
                <time>2026-05-05T15:59:40Z</time>
            </trkpt>
            <trkpt lat="42.734710" lon="-71.745860">
                <time>2026-05-05T15:59:41Z</time>
            </trkpt>
            <trkpt lat="42.734840" lon="-71.745920">
                <time>2026-05-05T15:59:42Z</time>
            </trkpt>
            <trkpt lat="42.734990" lon="-71.745950">
                <time>2026-05-05T15:59:43Z</time>
            </trkpt>
            <trkpt lat="42.735130" lon="-71.745990">
                <time>2026-05-05T15:59:44Z</time>
            </trkpt>
            <trkpt lat="42.735280" lon="-71.746020">
                <time>2026-05-05T15:59:45Z</time>
            </trkpt>
            <trkpt lat="42.735420" lon="-71.746040">
                <time>2026-05-05T15:59:46Z</time>
            </trkpt>
            <trkpt lat="42.735570" lon="-71.746060">
                <time>2026-05-05T15:59:47Z</time>
            </trkpt>
            <trkpt lat="42.735710" lon="-71.746070">
                <time>2026-05-05T15:59:48Z</time>
            </trkpt>
            <trkpt lat="42.735850" lon="-71.746090">
                <time>2026-05-05T15:59:49Z</time>
            </trkpt>
            <trkpt lat="42.735990" lon="-71.746110">
                <time>2026-05-05T15:59:50Z</time>
            </trkpt>
            <trkpt lat="42.736130" lon="-71.746130">
                <time>2026-05-05T15:59:51Z</time>
            </trkpt>
            <trkpt lat="42.736260" lon="-71.746150">
                <time>2026-05-05T15:59:52Z</time>
            </trkpt>
            <trkpt lat="42.736390" lon="-71.746160">
                <time>2026-05-05T15:59:53Z</time>
            </trkpt>
            <trkpt lat="42.736520" lon="-71.746180">
                <time>2026-05-05T15:59:54Z</time>
            </trkpt>
            <trkpt lat="42.736640" lon="-71.746200">
                <time>2026-05-05T15:59:55Z</time>
            </trkpt>
            <trkpt lat="42.736770" lon="-71.746210">
                <time>2026-05-05T15:59:56Z</time>
            </trkpt>
            <trkpt lat="42.736910" lon="-71.746220">
                <time>2026-05-05T15:59:57Z</time>
            </trkpt>
            <trkpt lat="42.737030" lon="-71.746230">
                <time>2026-05-05T15:59:58Z</time>
            </trkpt>
            <trkpt lat="42.737160" lon="-71.746240">
                <time>2026-05-05T15:59:59Z</time>
            </trkpt>
            <trkpt lat="42.737290" lon="-71.746250">
                <time>2026-05-05T16:00:00Z</time>
            </trkpt>
            <trkpt lat="42.737420" lon="-71.746260">
                <time>2026-05-05T16:00:01Z</time>
            </trkpt>
            <trkpt lat="42.737550" lon="-71.746240">
                <time>2026-05-05T16:00:02Z</time>
            </trkpt>
            <trkpt lat="42.737680" lon="-71.746220">
                <time>2026-05-05T16:00:03Z</time>
            </trkpt>
            <trkpt lat="42.737810" lon="-71.746210">
                <time>2026-05-05T16:00:04Z</time>
            </trkpt>
            <trkpt lat="42.737940" lon="-71.746190">
                <time>2026-05-05T16:00:05Z</time>
            </trkpt>
            <trkpt lat="42.738070" lon="-71.746160">
                <time>2026-05-05T16:00:06Z</time>
            </trkpt>
            <trkpt lat="42.738210" lon="-71.746120">
                <time>2026-05-05T16:00:07Z</time>
            </trkpt>
            <trkpt lat="42.738340" lon="-71.746090">
                <time>2026-05-05T16:00:08Z</time>
            </trkpt>
            <trkpt lat="42.738470" lon="-71.746050">
                <time>2026-05-05T16:00:09Z</time>
            </trkpt>
            <trkpt lat="42.738590" lon="-71.746010">
                <time>2026-05-05T16:00:10Z</time>
            </trkpt>
            <trkpt lat="42.738710" lon="-71.745980">
                <time>2026-05-05T16:00:11Z</time>
            </trkpt>
            <trkpt lat="42.738820" lon="-71.745950">
                <time>2026-05-05T16:00:12Z</time>
            </trkpt>
            <trkpt lat="42.738920" lon="-71.745920">
                <time>2026-05-05T16:00:13Z</time>
            </trkpt>
            <trkpt lat="42.739010" lon="-71.745900">
                <time>2026-05-05T16:00:14Z</time>
            </trkpt>
            <trkpt lat="42.739090" lon="-71.745880">
                <time>2026-05-05T16:00:15Z</time>
            </trkpt>
            <trkpt lat="42.739160" lon="-71.745860">
                <time>2026-05-05T16:00:16Z</time>
            </trkpt>
            <trkpt lat="42.739230" lon="-71.745840">
                <time>2026-05-05T16:00:17Z</time>
            </trkpt>
            <trkpt lat="42.739290" lon="-71.745830">
                <time>2026-05-05T16:00:18Z</time>
            </trkpt>
            <trkpt lat="42.739360" lon="-71.745830">
                <time>2026-05-05T16:00:19Z</time>
            </trkpt>
            <trkpt lat="42.739430" lon="-71.745830">
                <time>2026-05-05T16:00:20Z</time>
            </trkpt>
            <trkpt lat="42.739510" lon="-71.745840">
                <time>2026-05-05T16:00:21Z</time>
            </trkpt>
            <trkpt lat="42.739600" lon="-71.745850">
                <time>2026-05-05T16:00:22Z</time>
            </trkpt>
            <trkpt lat="42.739690" lon="-71.745880">
                <time>2026-05-05T16:00:23Z</time>
            </trkpt>
            <trkpt lat="42.739790" lon="-71.745910">
                <time>2026-05-05T16:00:24Z</time>
            </trkpt>
            <trkpt lat="42.739900" lon="-71.745950">
                <time>2026-05-05T16:00:25Z</time>
            </trkpt>
            <trkpt lat="42.740020" lon="-71.745990">
                <time>2026-05-05T16:00:26Z</time>
            </trkpt>
            <trkpt lat="42.740150" lon="-71.746020">
                <time>2026-05-05T16:00:27Z</time>
            </trkpt>
            <trkpt lat="42.740270" lon="-71.746070">
                <time>2026-05-05T16:00:28Z</time>
            </trkpt>
            <trkpt lat="42.740400" lon="-71.746110">
                <time>2026-05-05T16:00:29Z</time>
            </trkpt>
            <trkpt lat="42.740540" lon="-71.746140">
                <time>2026-05-05T16:00:30Z</time>
            </trkpt>
            <trkpt lat="42.740680" lon="-71.746180">
                <time>2026-05-05T16:00:31Z</time>
            </trkpt>
            <trkpt lat="42.740810" lon="-71.746220">
                <time>2026-05-05T16:00:32Z</time>
            </trkpt>
            <trkpt lat="42.740950" lon="-71.746260">
                <time>2026-05-05T16:00:33Z</time>
            </trkpt>
            <trkpt lat="42.741090" lon="-71.746290">
                <time>2026-05-05T16:00:34Z</time>
            </trkpt>
            <trkpt lat="42.741230" lon="-71.746330">
                <time>2026-05-05T16:00:35Z</time>
            </trkpt>
            <trkpt lat="42.741360" lon="-71.746360">
                <time>2026-05-05T16:00:36Z</time>
            </trkpt>
            <trkpt lat="42.741500" lon="-71.746380">
                <time>2026-05-05T16:00:37Z</time>
            </trkpt>
            <trkpt lat="42.741630" lon="-71.746420">
                <time>2026-05-05T16:00:38Z</time>
            </trkpt>
            <trkpt lat="42.741770" lon="-71.746440">
                <time>2026-05-05T16:00:39Z</time>
            </trkpt>
            <trkpt lat="42.741900" lon="-71.746450">
                <time>2026-05-05T16:00:40Z</time>
            </trkpt>
            <trkpt lat="42.742030" lon="-71.746450">
                <time>2026-05-05T16:00:41Z</time>
            </trkpt>
            <trkpt lat="42.742170" lon="-71.746460">
                <time>2026-05-05T16:00:42Z</time>
            </trkpt>
            <trkpt lat="42.742300" lon="-71.746470">
                <time>2026-05-05T16:00:43Z</time>
            </trkpt>
            <trkpt lat="42.742430" lon="-71.746460">
                <time>2026-05-05T16:00:44Z</time>
            </trkpt>
            <trkpt lat="42.742550" lon="-71.746450">
                <time>2026-05-05T16:00:45Z</time>
            </trkpt>
            <trkpt lat="42.742650" lon="-71.746440">
                <time>2026-05-05T16:00:46Z</time>
            </trkpt>
            <trkpt lat="42.742740" lon="-71.746440">
                <time>2026-05-05T16:00:47Z</time>
            </trkpt>
            <trkpt lat="42.742810" lon="-71.746440">
                <time>2026-05-05T16:00:48Z</time>
            </trkpt>
            <trkpt lat="42.742850" lon="-71.746430">
                <time>2026-05-05T16:00:49Z</time>
            </trkpt>
            <trkpt lat="42.742860" lon="-71.746430">
                <time>2026-05-05T16:00:50Z</time>
            </trkpt>
            <trkpt lat="42.742870" lon="-71.746430">
                <time>2026-05-05T16:00:51Z</time>
            </trkpt>
            <trkpt lat="42.742870" lon="-71.746430">
                <time>2026-05-05T16:00:52Z</time>
            </trkpt>
            <trkpt lat="42.742870" lon="-71.746420">
                <time>2026-05-05T16:00:53Z</time>
            </trkpt>
            <trkpt lat="42.742860" lon="-71.746420">
                <time>2026-05-05T16:00:54Z</time>
            </trkpt>
            <trkpt lat="42.742860" lon="-71.746420">
                <time>2026-05-05T16:00:55Z</time>
            </trkpt>
            <trkpt lat="42.742860" lon="-71.746420">
                <time>2026-05-05T16:00:56Z</time>
            </trkpt>
            <trkpt lat="42.742860" lon="-71.746420">
                <time>2026-05-05T16:00:57Z</time>
            </trkpt>
            <trkpt lat="42.742870" lon="-71.746410">
                <time>2026-05-05T16:00:58Z</time>
            </trkpt>
            <trkpt lat="42.742900" lon="-71.746420">
                <time>2026-05-05T16:00:59Z</time>
            </trkpt>
            <trkpt lat="42.742980" lon="-71.746410">
                <time>2026-05-05T16:01:00Z</time>
            </trkpt>
            <trkpt lat="42.743060" lon="-71.746400">
                <time>2026-05-05T16:01:01Z</time>
            </trkpt>
            <trkpt lat="42.743160" lon="-71.746400">
                <time>2026-05-05T16:01:02Z</time>
            </trkpt>
            <trkpt lat="42.743270" lon="-71.746380">
                <time>2026-05-05T16:01:03Z</time>
            </trkpt>
            <trkpt lat="42.743390" lon="-71.746350">
                <time>2026-05-05T16:01:04Z</time>
            </trkpt>
            <trkpt lat="42.743520" lon="-71.746320">
                <time>2026-05-05T16:01:05Z</time>
            </trkpt>
            <trkpt lat="42.743650" lon="-71.746280">
                <time>2026-05-05T16:01:06Z</time>
            </trkpt>
            <trkpt lat="42.743780" lon="-71.746250">
                <time>2026-05-05T16:01:07Z</time>
            </trkpt>
            <trkpt lat="42.743920" lon="-71.746210">
                <time>2026-05-05T16:01:08Z</time>
            </trkpt>
            <trkpt lat="42.744070" lon="-71.746160">
                <time>2026-05-05T16:01:09Z</time>
            </trkpt>
            <trkpt lat="42.744210" lon="-71.746110">
                <time>2026-05-05T16:01:10Z</time>
            </trkpt>
            <trkpt lat="42.744360" lon="-71.746060">
                <time>2026-05-05T16:01:11Z</time>
            </trkpt>
            <trkpt lat="42.744500" lon="-71.746000">
                <time>2026-05-05T16:01:12Z</time>
            </trkpt>
            <trkpt lat="42.744650" lon="-71.745940">
                <time>2026-05-05T16:01:13Z</time>
            </trkpt>
            <trkpt lat="42.744800" lon="-71.745880">
                <time>2026-05-05T16:01:14Z</time>
            </trkpt>
            <trkpt lat="42.744950" lon="-71.745840">
                <time>2026-05-05T16:01:15Z</time>
            </trkpt>
            <trkpt lat="42.745100" lon="-71.745790">
                <time>2026-05-05T16:01:16Z</time>
            </trkpt>
            <trkpt lat="42.745250" lon="-71.745750">
                <time>2026-05-05T16:01:17Z</time>
            </trkpt>
            <trkpt lat="42.745400" lon="-71.745710">
                <time>2026-05-05T16:01:18Z</time>
            </trkpt>
            <trkpt lat="42.745560" lon="-71.745670">
                <time>2026-05-05T16:01:19Z</time>
            </trkpt>
            <trkpt lat="42.745720" lon="-71.745640">
                <time>2026-05-05T16:01:20Z</time>
            </trkpt>
            <trkpt lat="42.745880" lon="-71.745620">
                <time>2026-05-05T16:01:21Z</time>
            </trkpt>
            <trkpt lat="42.746030" lon="-71.745610">
                <time>2026-05-05T16:01:22Z</time>
            </trkpt>
            <trkpt lat="42.746180" lon="-71.745590">
                <time>2026-05-05T16:01:23Z</time>
            </trkpt>
            <trkpt lat="42.746330" lon="-71.745590">
                <time>2026-05-05T16:01:24Z</time>
            </trkpt>
            <trkpt lat="42.746470" lon="-71.745570">
                <time>2026-05-05T16:01:25Z</time>
            </trkpt>
            <trkpt lat="42.746620" lon="-71.745550">
                <time>2026-05-05T16:01:26Z</time>
            </trkpt>
            <trkpt lat="42.746780" lon="-71.745550">
                <time>2026-05-05T16:01:27Z</time>
            </trkpt>
            <trkpt lat="42.746920" lon="-71.745530">
                <time>2026-05-05T16:01:28Z</time>
            </trkpt>
            <trkpt lat="42.747060" lon="-71.745530">
                <time>2026-05-05T16:01:29Z</time>
            </trkpt>
            <trkpt lat="42.747200" lon="-71.745520">
                <time>2026-05-05T16:01:30Z</time>
            </trkpt>
            <trkpt lat="42.747340" lon="-71.745520">
                <time>2026-05-05T16:01:31Z</time>
            </trkpt>
            <trkpt lat="42.747480" lon="-71.745520">
                <time>2026-05-05T16:01:32Z</time>
            </trkpt>
            <trkpt lat="42.747620" lon="-71.745520">
                <time>2026-05-05T16:01:33Z</time>
            </trkpt>
            <trkpt lat="42.747760" lon="-71.745540">
                <time>2026-05-05T16:01:34Z</time>
            </trkpt>
            <trkpt lat="42.747910" lon="-71.745530">
                <time>2026-05-05T16:01:35Z</time>
            </trkpt>
            <trkpt lat="42.748060" lon="-71.745550">
                <time>2026-05-05T16:01:36Z</time>
            </trkpt>
            <trkpt lat="42.748210" lon="-71.745550">
                <time>2026-05-05T16:01:37Z</time>
            </trkpt>
            <trkpt lat="42.748370" lon="-71.745550">
                <time>2026-05-05T16:01:38Z</time>
            </trkpt>
            <trkpt lat="42.748520" lon="-71.745540">
                <time>2026-05-05T16:01:39Z</time>
            </trkpt>
            <trkpt lat="42.748680" lon="-71.745510">
                <time>2026-05-05T16:01:40Z</time>
            </trkpt>
            <trkpt lat="42.748830" lon="-71.745490">
                <time>2026-05-05T16:01:41Z</time>
            </trkpt>
            <trkpt lat="42.748970" lon="-71.745470">
                <time>2026-05-05T16:01:42Z</time>
            </trkpt>
            <trkpt lat="42.749110" lon="-71.745460">
                <time>2026-05-05T16:01:43Z</time>
            </trkpt>
            <trkpt lat="42.749230" lon="-71.745430">
                <time>2026-05-05T16:01:44Z</time>
            </trkpt>
            <trkpt lat="42.749340" lon="-71.745380">
                <time>2026-05-05T16:01:45Z</time>
            </trkpt>
            <trkpt lat="42.749450" lon="-71.745320">
                <time>2026-05-05T16:01:46Z</time>
            </trkpt>
            <trkpt lat="42.749510" lon="-71.745180">
                <time>2026-05-05T16:01:47Z</time>
            </trkpt>
            <trkpt lat="42.749560" lon="-71.745040">
                <time>2026-05-05T16:01:48Z</time>
            </trkpt>
            <trkpt lat="42.749590" lon="-71.744900">
                <time>2026-05-05T16:01:49Z</time>
            </trkpt>
            <trkpt lat="42.749610" lon="-71.744760">
                <time>2026-05-05T16:01:50Z</time>
            </trkpt>
            <trkpt lat="42.749620" lon="-71.744590">
                <time>2026-05-05T16:01:51Z</time>
            </trkpt>
            <trkpt lat="42.749630" lon="-71.744400">
                <time>2026-05-05T16:01:52Z</time>
            </trkpt>
            <trkpt lat="42.749650" lon="-71.744210">
                <time>2026-05-05T16:01:53Z</time>
            </trkpt>
            <trkpt lat="42.749670" lon="-71.744030">
                <time>2026-05-05T16:01:54Z</time>
            </trkpt>
            <trkpt lat="42.749690" lon="-71.743850">
                <time>2026-05-05T16:01:55Z</time>
            </trkpt>
            <trkpt lat="42.749710" lon="-71.743670">
                <time>2026-05-05T16:01:56Z</time>
            </trkpt>
            <trkpt lat="42.749730" lon="-71.743480">
                <time>2026-05-05T16:01:57Z</time>
            </trkpt>
            <trkpt lat="42.749750" lon="-71.743300">
                <time>2026-05-05T16:01:58Z</time>
            </trkpt>
            <trkpt lat="42.749790" lon="-71.743110">
                <time>2026-05-05T16:01:59Z</time>
            </trkpt>
            <trkpt lat="42.749820" lon="-71.742920">
                <time>2026-05-05T16:02:00Z</time>
            </trkpt>
            <trkpt lat="42.749850" lon="-71.742750">
                <time>2026-05-05T16:02:01Z</time>
            </trkpt>
            <trkpt lat="42.749880" lon="-71.742560">
                <time>2026-05-05T16:02:02Z</time>
            </trkpt>
            <trkpt lat="42.749910" lon="-71.742380">
                <time>2026-05-05T16:02:03Z</time>
            </trkpt>
            <trkpt lat="42.749940" lon="-71.742180">
                <time>2026-05-05T16:02:04Z</time>
            </trkpt>
            <trkpt lat="42.749990" lon="-71.741990">
                <time>2026-05-05T16:02:05Z</time>
            </trkpt>
            <trkpt lat="42.750020" lon="-71.741790">
                <time>2026-05-05T16:02:06Z</time>
            </trkpt>
            <trkpt lat="42.750060" lon="-71.741590">
                <time>2026-05-05T16:02:07Z</time>
            </trkpt>
            <trkpt lat="42.750100" lon="-71.741380">
                <time>2026-05-05T16:02:08Z</time>
            </trkpt>
            <trkpt lat="42.750140" lon="-71.741170">
                <time>2026-05-05T16:02:09Z</time>
            </trkpt>
            <trkpt lat="42.750170" lon="-71.740970">
                <time>2026-05-05T16:02:10Z</time>
            </trkpt>
            <trkpt lat="42.750200" lon="-71.740760">
                <time>2026-05-05T16:02:11Z</time>
            </trkpt>
            <trkpt lat="42.750220" lon="-71.740550">
                <time>2026-05-05T16:02:12Z</time>
            </trkpt>
            <trkpt lat="42.750240" lon="-71.740340">
                <time>2026-05-05T16:02:13Z</time>
            </trkpt>
            <trkpt lat="42.750250" lon="-71.740130">
                <time>2026-05-05T16:02:14Z</time>
            </trkpt>
            <trkpt lat="42.750250" lon="-71.739930">
                <time>2026-05-05T16:02:15Z</time>
            </trkpt>
            <trkpt lat="42.750260" lon="-71.739720">
                <time>2026-05-05T16:02:16Z</time>
            </trkpt>
            <trkpt lat="42.750250" lon="-71.739540">
                <time>2026-05-05T16:02:17Z</time>
            </trkpt>
            <trkpt lat="42.750230" lon="-71.739340">
                <time>2026-05-05T16:02:18Z</time>
            </trkpt>
            <trkpt lat="42.750220" lon="-71.739150">
                <time>2026-05-05T16:02:19Z</time>
            </trkpt>
            <trkpt lat="42.750210" lon="-71.738940">
                <time>2026-05-05T16:02:20Z</time>
            </trkpt>
            <trkpt lat="42.750190" lon="-71.738740">
                <time>2026-05-05T16:02:21Z</time>
            </trkpt>
            <trkpt lat="42.750170" lon="-71.738540">
                <time>2026-05-05T16:02:22Z</time>
            </trkpt>
            <trkpt lat="42.750140" lon="-71.738350">
                <time>2026-05-05T16:02:23Z</time>
            </trkpt>
            <trkpt lat="42.750110" lon="-71.738150">
                <time>2026-05-05T16:02:24Z</time>
            </trkpt>
            <trkpt lat="42.750070" lon="-71.737970">
                <time>2026-05-05T16:02:25Z</time>
            </trkpt>
            <trkpt lat="42.750030" lon="-71.737780">
                <time>2026-05-05T16:02:26Z</time>
            </trkpt>
            <trkpt lat="42.749980" lon="-71.737600">
                <time>2026-05-05T16:02:27Z</time>
            </trkpt>
            <trkpt lat="42.749930" lon="-71.737420">
                <time>2026-05-05T16:02:28Z</time>
            </trkpt>
            <trkpt lat="42.749880" lon="-71.737230">
                <time>2026-05-05T16:02:29Z</time>
            </trkpt>
            <trkpt lat="42.749830" lon="-71.737050">
                <time>2026-05-05T16:02:30Z</time>
            </trkpt>
            <trkpt lat="42.749790" lon="-71.736880">
                <time>2026-05-05T16:02:31Z</time>
            </trkpt>
            <trkpt lat="42.749760" lon="-71.736710">
                <time>2026-05-05T16:02:32Z</time>
            </trkpt>
            <trkpt lat="42.749730" lon="-71.736540">
                <time>2026-05-05T16:02:33Z</time>
            </trkpt>
            <trkpt lat="42.749730" lon="-71.736370">
                <time>2026-05-05T16:02:34Z</time>
            </trkpt>
            <trkpt lat="42.749730" lon="-71.736190">
                <time>2026-05-05T16:02:35Z</time>
            </trkpt>
            <trkpt lat="42.749720" lon="-71.736020">
                <time>2026-05-05T16:02:36Z</time>
            </trkpt>
            <trkpt lat="42.749720" lon="-71.735850">
                <time>2026-05-05T16:02:37Z</time>
            </trkpt>
            <trkpt lat="42.749710" lon="-71.735680">
                <time>2026-05-05T16:02:38Z</time>
            </trkpt>
            <trkpt lat="42.749710" lon="-71.735510">
                <time>2026-05-05T16:02:39Z</time>
            </trkpt>
            <trkpt lat="42.749710" lon="-71.735350">
                <time>2026-05-05T16:02:40Z</time>
            </trkpt>
            <trkpt lat="42.749710" lon="-71.735190">
                <time>2026-05-05T16:02:41Z</time>
            </trkpt>
            <trkpt lat="42.749700" lon="-71.735050">
                <time>2026-05-05T16:02:42Z</time>
            </trkpt>
            <trkpt lat="42.749690" lon="-71.734910">
                <time>2026-05-05T16:02:43Z</time>
            </trkpt>
            <trkpt lat="42.749680" lon="-71.734780">
                <time>2026-05-05T16:02:44Z</time>
            </trkpt>
            <trkpt lat="42.749670" lon="-71.734660">
                <time>2026-05-05T16:02:45Z</time>
            </trkpt>
            <trkpt lat="42.749660" lon="-71.734550">
                <time>2026-05-05T16:02:46Z</time>
            </trkpt>
            <trkpt lat="42.749660" lon="-71.734450">
                <time>2026-05-05T16:02:47Z</time>
            </trkpt>
            <trkpt lat="42.749700" lon="-71.734380">
                <time>2026-05-05T16:02:48Z</time>
            </trkpt>
            <trkpt lat="42.749760" lon="-71.734340">
                <time>2026-05-05T16:02:49Z</time>
            </trkpt>
            <trkpt lat="42.749830" lon="-71.734300">
                <time>2026-05-05T16:02:50Z</time>
            </trkpt>
            <trkpt lat="42.749920" lon="-71.734250">
                <time>2026-05-05T16:02:51Z</time>
            </trkpt>
            <trkpt lat="42.750020" lon="-71.734200">
                <time>2026-05-05T16:02:52Z</time>
            </trkpt>
            <trkpt lat="42.750110" lon="-71.734150">
                <time>2026-05-05T16:02:53Z</time>
            </trkpt>
            <trkpt lat="42.750220" lon="-71.734090">
                <time>2026-05-05T16:02:54Z</time>
            </trkpt>
            <trkpt lat="42.750330" lon="-71.734020">
                <time>2026-05-05T16:02:55Z</time>
            </trkpt>
            <trkpt lat="42.750450" lon="-71.733950">
                <time>2026-05-05T16:02:56Z</time>
            </trkpt>
            <trkpt lat="42.750570" lon="-71.733880">
                <time>2026-05-05T16:02:57Z</time>
            </trkpt>
            <trkpt lat="42.750690" lon="-71.733820">
                <time>2026-05-05T16:02:58Z</time>
            </trkpt>
            <trkpt lat="42.750820" lon="-71.733750">
                <time>2026-05-05T16:02:59Z</time>
            </trkpt>
            <trkpt lat="42.750950" lon="-71.733680">
                <time>2026-05-05T16:03:00Z</time>
            </trkpt>
            <trkpt lat="42.751090" lon="-71.733610">
                <time>2026-05-05T16:03:01Z</time>
            </trkpt>
            <trkpt lat="42.751230" lon="-71.733530">
                <time>2026-05-05T16:03:02Z</time>
            </trkpt>
            <trkpt lat="42.751370" lon="-71.733460">
                <time>2026-05-05T16:03:03Z</time>
            </trkpt>
            <trkpt lat="42.751520" lon="-71.733400">
                <time>2026-05-05T16:03:04Z</time>
            </trkpt>
            <trkpt lat="42.751660" lon="-71.733340">
                <time>2026-05-05T16:03:05Z</time>
            </trkpt>
            <trkpt lat="42.751800" lon="-71.733290">
                <time>2026-05-05T16:03:06Z</time>
            </trkpt>
            <trkpt lat="42.751940" lon="-71.733240">
                <time>2026-05-05T16:03:07Z</time>
            </trkpt>
            <trkpt lat="42.752090" lon="-71.733200">
                <time>2026-05-05T16:03:08Z</time>
            </trkpt>
            <trkpt lat="42.752230" lon="-71.733170">
                <time>2026-05-05T16:03:09Z</time>
            </trkpt>
            <trkpt lat="42.752370" lon="-71.733130">
                <time>2026-05-05T16:03:10Z</time>
            </trkpt>
            <trkpt lat="42.752510" lon="-71.733090">
                <time>2026-05-05T16:03:11Z</time>
            </trkpt>
            <trkpt lat="42.752650" lon="-71.733050">
                <time>2026-05-05T16:03:12Z</time>
            </trkpt>
            <trkpt lat="42.752780" lon="-71.733010">
                <time>2026-05-05T16:03:13Z</time>
            </trkpt>
            <trkpt lat="42.752910" lon="-71.732980">
                <time>2026-05-05T16:03:14Z</time>
            </trkpt>
            <trkpt lat="42.753040" lon="-71.732950">
                <time>2026-05-05T16:03:15Z</time>
            </trkpt>
            <trkpt lat="42.753170" lon="-71.732920">
                <time>2026-05-05T16:03:16Z</time>
            </trkpt>
            <trkpt lat="42.753300" lon="-71.732920">
                <time>2026-05-05T16:03:17Z</time>
            </trkpt>
            <trkpt lat="42.753430" lon="-71.732930">
                <time>2026-05-05T16:03:18Z</time>
            </trkpt>
            <trkpt lat="42.753570" lon="-71.732950">
                <time>2026-05-05T16:03:19Z</time>
            </trkpt>
            <trkpt lat="42.753700" lon="-71.732980">
                <time>2026-05-05T16:03:20Z</time>
            </trkpt>
            <trkpt lat="42.753840" lon="-71.733010">
                <time>2026-05-05T16:03:21Z</time>
            </trkpt>
            <trkpt lat="42.753980" lon="-71.733030">
                <time>2026-05-05T16:03:22Z</time>
            </trkpt>
            <trkpt lat="42.754120" lon="-71.733050">
                <time>2026-05-05T16:03:23Z</time>
            </trkpt>
            <trkpt lat="42.754260" lon="-71.733080">
                <time>2026-05-05T16:03:24Z</time>
            </trkpt>
            <trkpt lat="42.754390" lon="-71.733090">
                <time>2026-05-05T16:03:25Z</time>
            </trkpt>
            <trkpt lat="42.754520" lon="-71.733100">
                <time>2026-05-05T16:03:26Z</time>
            </trkpt>
            <trkpt lat="42.754640" lon="-71.733080">
                <time>2026-05-05T16:03:27Z</time>
            </trkpt>
            <trkpt lat="42.754760" lon="-71.733050">
                <time>2026-05-05T16:03:28Z</time>
            </trkpt>
            <trkpt lat="42.754880" lon="-71.733000">
                <time>2026-05-05T16:03:29Z</time>
            </trkpt>
            <trkpt lat="42.754990" lon="-71.732930">
                <time>2026-05-05T16:03:30Z</time>
            </trkpt>
            <trkpt lat="42.755110" lon="-71.732830">
                <time>2026-05-05T16:03:31Z</time>
            </trkpt>
            <trkpt lat="42.755220" lon="-71.732730">
                <time>2026-05-05T16:03:32Z</time>
            </trkpt>
            <trkpt lat="42.755330" lon="-71.732630">
                <time>2026-05-05T16:03:33Z</time>
            </trkpt>
            <trkpt lat="42.755450" lon="-71.732520">
                <time>2026-05-05T16:03:34Z</time>
            </trkpt>
            <trkpt lat="42.755580" lon="-71.732410">
                <time>2026-05-05T16:03:35Z</time>
            </trkpt>
            <trkpt lat="42.755710" lon="-71.732300">
                <time>2026-05-05T16:03:36Z</time>
            </trkpt>
            <trkpt lat="42.755840" lon="-71.732200">
                <time>2026-05-05T16:03:37Z</time>
            </trkpt>
            <trkpt lat="42.755970" lon="-71.732090">
                <time>2026-05-05T16:03:38Z</time>
            </trkpt>
            <trkpt lat="42.756110" lon="-71.732000">
                <time>2026-05-05T16:03:39Z</time>
            </trkpt>
            <trkpt lat="42.756260" lon="-71.731910">
                <time>2026-05-05T16:03:40Z</time>
            </trkpt>
            <trkpt lat="42.756400" lon="-71.731840">
                <time>2026-05-05T16:03:41Z</time>
            </trkpt>
            <trkpt lat="42.756530" lon="-71.731760">
                <time>2026-05-05T16:03:42Z</time>
            </trkpt>
            <trkpt lat="42.756670" lon="-71.731670">
                <time>2026-05-05T16:03:43Z</time>
            </trkpt>
            <trkpt lat="42.756790" lon="-71.731590">
                <time>2026-05-05T16:03:44Z</time>
            </trkpt>
            <trkpt lat="42.756920" lon="-71.731510">
                <time>2026-05-05T16:03:45Z</time>
            </trkpt>
            <trkpt lat="42.757040" lon="-71.731420">
                <time>2026-05-05T16:03:46Z</time>
            </trkpt>
            <trkpt lat="42.757150" lon="-71.731320">
                <time>2026-05-05T16:03:47Z</time>
            </trkpt>
            <trkpt lat="42.757270" lon="-71.731240">
                <time>2026-05-05T16:03:48Z</time>
            </trkpt>
            <trkpt lat="42.757400" lon="-71.731180">
                <time>2026-05-05T16:03:49Z</time>
            </trkpt>
            <trkpt lat="42.757530" lon="-71.731130">
                <time>2026-05-05T16:03:50Z</time>
            </trkpt>
            <trkpt lat="42.757670" lon="-71.731070">
                <time>2026-05-05T16:03:51Z</time>
            </trkpt>
            <trkpt lat="42.757810" lon="-71.731030">
                <time>2026-05-05T16:03:52Z</time>
            </trkpt>
            <trkpt lat="42.757950" lon="-71.730980">
                <time>2026-05-05T16:03:53Z</time>
            </trkpt>
            <trkpt lat="42.758080" lon="-71.730930">
                <time>2026-05-05T16:03:54Z</time>
            </trkpt>
            <trkpt lat="42.758220" lon="-71.730900">
                <time>2026-05-05T16:03:55Z</time>
            </trkpt>
            <trkpt lat="42.758360" lon="-71.730880">
                <time>2026-05-05T16:03:56Z</time>
            </trkpt>
            <trkpt lat="42.758490" lon="-71.730870">
                <time>2026-05-05T16:03:57Z</time>
            </trkpt>
            <trkpt lat="42.758630" lon="-71.730860">
                <time>2026-05-05T16:03:58Z</time>
            </trkpt>
            <trkpt lat="42.758770" lon="-71.730840">
                <time>2026-05-05T16:03:59Z</time>
            </trkpt>
            <trkpt lat="42.758880" lon="-71.730810">
                <time>2026-05-05T16:04:00Z</time>
            </trkpt>
            <trkpt lat="42.758990" lon="-71.730770">
                <time>2026-05-05T16:04:01Z</time>
            </trkpt>
            <trkpt lat="42.759090" lon="-71.730740">
                <time>2026-05-05T16:04:02Z</time>
            </trkpt>
            <trkpt lat="42.759190" lon="-71.730700">
                <time>2026-05-05T16:04:03Z</time>
            </trkpt>
            <trkpt lat="42.759250" lon="-71.730670">
                <time>2026-05-05T16:04:04Z</time>
            </trkpt>
            <trkpt lat="42.759310" lon="-71.730660">
                <time>2026-05-05T16:04:05Z</time>
            </trkpt>
            <trkpt lat="42.759350" lon="-71.730680">
                <time>2026-05-05T16:04:06Z</time>
            </trkpt>
            <trkpt lat="42.759390" lon="-71.730720">
                <time>2026-05-05T16:04:07Z</time>
            </trkpt>
            <trkpt lat="42.759420" lon="-71.730790">
                <time>2026-05-05T16:04:08Z</time>
            </trkpt>
            <trkpt lat="42.759460" lon="-71.730880">
                <time>2026-05-05T16:04:09Z</time>
            </trkpt>
            <trkpt lat="42.759510" lon="-71.730990">
                <time>2026-05-05T16:04:10Z</time>
            </trkpt>
            <trkpt lat="42.759550" lon="-71.731130">
                <time>2026-05-05T16:04:11Z</time>
            </trkpt>
            <trkpt lat="42.759590" lon="-71.731290">
                <time>2026-05-05T16:04:12Z</time>
            </trkpt>
            <trkpt lat="42.759630" lon="-71.731440">
                <time>2026-05-05T16:04:13Z</time>
            </trkpt>
            <trkpt lat="42.759650" lon="-71.731600">
                <time>2026-05-05T16:04:14Z</time>
            </trkpt>
            <trkpt lat="42.759670" lon="-71.731770">
                <time>2026-05-05T16:04:15Z</time>
            </trkpt>
            <trkpt lat="42.759670" lon="-71.731950">
                <time>2026-05-05T16:04:16Z</time>
            </trkpt>
            <trkpt lat="42.759680" lon="-71.732130">
                <time>2026-05-05T16:04:17Z</time>
            </trkpt>
            <trkpt lat="42.759680" lon="-71.732340">
                <time>2026-05-05T16:04:18Z</time>
            </trkpt>
            <trkpt lat="42.759680" lon="-71.732530">
                <time>2026-05-05T16:04:19Z</time>
            </trkpt>
            <trkpt lat="42.759680" lon="-71.732720">
                <time>2026-05-05T16:04:20Z</time>
            </trkpt>
            <trkpt lat="42.759690" lon="-71.732900">
                <time>2026-05-05T16:04:21Z</time>
            </trkpt>
            <trkpt lat="42.759710" lon="-71.733080">
                <time>2026-05-05T16:04:22Z</time>
            </trkpt>
            <trkpt lat="42.759740" lon="-71.733260">
                <time>2026-05-05T16:04:23Z</time>
            </trkpt>
            <trkpt lat="42.759780" lon="-71.733430">
                <time>2026-05-05T16:04:24Z</time>
            </trkpt>
            <trkpt lat="42.759860" lon="-71.733590">
                <time>2026-05-05T16:04:25Z</time>
            </trkpt>
            <trkpt lat="42.759960" lon="-71.733740">
                <time>2026-05-05T16:04:26Z</time>
            </trkpt>
            <trkpt lat="42.760050" lon="-71.733890">
                <time>2026-05-05T16:04:27Z</time>
            </trkpt>
            <trkpt lat="42.760160" lon="-71.734030">
                <time>2026-05-05T16:04:28Z</time>
            </trkpt>
            <trkpt lat="42.760260" lon="-71.734170">
                <time>2026-05-05T16:04:29Z</time>
            </trkpt>
            <trkpt lat="42.760360" lon="-71.734310">
                <time>2026-05-05T16:04:30Z</time>
            </trkpt>
            <trkpt lat="42.760460" lon="-71.734470">
                <time>2026-05-05T16:04:31Z</time>
            </trkpt>
            <trkpt lat="42.760550" lon="-71.734620">
                <time>2026-05-05T16:04:32Z</time>
            </trkpt>
            <trkpt lat="42.760640" lon="-71.734760">
                <time>2026-05-05T16:04:33Z</time>
            </trkpt>
            <trkpt lat="42.760730" lon="-71.734920">
                <time>2026-05-05T16:04:34Z</time>
            </trkpt>
            <trkpt lat="42.760820" lon="-71.735060">
                <time>2026-05-05T16:04:35Z</time>
            </trkpt>
            <trkpt lat="42.760900" lon="-71.735200">
                <time>2026-05-05T16:04:36Z</time>
            </trkpt>
            <trkpt lat="42.760990" lon="-71.735320">
                <time>2026-05-05T16:04:37Z</time>
            </trkpt>
            <trkpt lat="42.761070" lon="-71.735460">
                <time>2026-05-05T16:04:38Z</time>
            </trkpt>
            <trkpt lat="42.761150" lon="-71.735590">
                <time>2026-05-05T16:04:39Z</time>
            </trkpt>
            <trkpt lat="42.761230" lon="-71.735720">
                <time>2026-05-05T16:04:40Z</time>
            </trkpt>
            <trkpt lat="42.761310" lon="-71.735850">
                <time>2026-05-05T16:04:41Z</time>
            </trkpt>
            <trkpt lat="42.761400" lon="-71.735980">
                <time>2026-05-05T16:04:42Z</time>
            </trkpt>
            <trkpt lat="42.761490" lon="-71.736090">
                <time>2026-05-05T16:04:43Z</time>
            </trkpt>
            <trkpt lat="42.761600" lon="-71.736190">
                <time>2026-05-05T16:04:44Z</time>
            </trkpt>
            <trkpt lat="42.761710" lon="-71.736300">
                <time>2026-05-05T16:04:45Z</time>
            </trkpt>
            <trkpt lat="42.761810" lon="-71.736420">
                <time>2026-05-05T16:04:46Z</time>
            </trkpt>
            <trkpt lat="42.761930" lon="-71.736520">
                <time>2026-05-05T16:04:47Z</time>
            </trkpt>
            <trkpt lat="42.762040" lon="-71.736620">
                <time>2026-05-05T16:04:48Z</time>
            </trkpt>
            <trkpt lat="42.762150" lon="-71.736720">
                <time>2026-05-05T16:04:49Z</time>
            </trkpt>
            <trkpt lat="42.762250" lon="-71.736820">
                <time>2026-05-05T16:04:50Z</time>
            </trkpt>
            <trkpt lat="42.762360" lon="-71.736900">
                <time>2026-05-05T16:04:51Z</time>
            </trkpt>
            <trkpt lat="42.762480" lon="-71.736970">
                <time>2026-05-05T16:04:52Z</time>
            </trkpt>
            <trkpt lat="42.762610" lon="-71.737040">
                <time>2026-05-05T16:04:53Z</time>
            </trkpt>
            <trkpt lat="42.762740" lon="-71.737100">
                <time>2026-05-05T16:04:54Z</time>
            </trkpt>
            <trkpt lat="42.762860" lon="-71.737150">
                <time>2026-05-05T16:04:55Z</time>
            </trkpt>
            <trkpt lat="42.762980" lon="-71.737210">
                <time>2026-05-05T16:04:56Z</time>
            </trkpt>
            <trkpt lat="42.763090" lon="-71.737290">
                <time>2026-05-05T16:04:57Z</time>
            </trkpt>
            <trkpt lat="42.763200" lon="-71.737400">
                <time>2026-05-05T16:04:58Z</time>
            </trkpt>
            <trkpt lat="42.763310" lon="-71.737530">
                <time>2026-05-05T16:04:59Z</time>
            </trkpt>
            <trkpt lat="42.763420" lon="-71.737660">
                <time>2026-05-05T16:05:00Z</time>
            </trkpt>
            <trkpt lat="42.763530" lon="-71.737800">
                <time>2026-05-05T16:05:01Z</time>
            </trkpt>
            <trkpt lat="42.763650" lon="-71.737940">
                <time>2026-05-05T16:05:02Z</time>
            </trkpt>
            <trkpt lat="42.763760" lon="-71.738090">
                <time>2026-05-05T16:05:03Z</time>
            </trkpt>
            <trkpt lat="42.763890" lon="-71.738240">
                <time>2026-05-05T16:05:04Z</time>
            </trkpt>
            <trkpt lat="42.764000" lon="-71.738380">
                <time>2026-05-05T16:05:05Z</time>
            </trkpt>
            <trkpt lat="42.764120" lon="-71.738530">
                <time>2026-05-05T16:05:06Z</time>
            </trkpt>
            <trkpt lat="42.764240" lon="-71.738670">
                <time>2026-05-05T16:05:07Z</time>
            </trkpt>
            <trkpt lat="42.764360" lon="-71.738820">
                <time>2026-05-05T16:05:08Z</time>
            </trkpt>
            <trkpt lat="42.764470" lon="-71.738970">
                <time>2026-05-05T16:05:09Z</time>
            </trkpt>
            <trkpt lat="42.764590" lon="-71.739120">
                <time>2026-05-05T16:05:10Z</time>
            </trkpt>
            <trkpt lat="42.764700" lon="-71.739260">
                <time>2026-05-05T16:05:11Z</time>
            </trkpt>
            <trkpt lat="42.764810" lon="-71.739400">
                <time>2026-05-05T16:05:12Z</time>
            </trkpt>
            <trkpt lat="42.764910" lon="-71.739530">
                <time>2026-05-05T16:05:13Z</time>
            </trkpt>
            <trkpt lat="42.765020" lon="-71.739660">
                <time>2026-05-05T16:05:14Z</time>
            </trkpt>
            <trkpt lat="42.765120" lon="-71.739790">
                <time>2026-05-05T16:05:15Z</time>
            </trkpt>
            <trkpt lat="42.765220" lon="-71.739920">
                <time>2026-05-05T16:05:16Z</time>
            </trkpt>
            <trkpt lat="42.765320" lon="-71.740040">
                <time>2026-05-05T16:05:17Z</time>
            </trkpt>
            <trkpt lat="42.765410" lon="-71.740140">
                <time>2026-05-05T16:05:18Z</time>
            </trkpt>
            <trkpt lat="42.765520" lon="-71.740240">
                <time>2026-05-05T16:05:19Z</time>
            </trkpt>
            <trkpt lat="42.765650" lon="-71.740320">
                <time>2026-05-05T16:05:20Z</time>
            </trkpt>
            <trkpt lat="42.765780" lon="-71.740370">
                <time>2026-05-05T16:05:21Z</time>
            </trkpt>
            <trkpt lat="42.765930" lon="-71.740420">
                <time>2026-05-05T16:05:22Z</time>
            </trkpt>
            <trkpt lat="42.766070" lon="-71.740450">
                <time>2026-05-05T16:05:23Z</time>
            </trkpt>
            <trkpt lat="42.766220" lon="-71.740510">
                <time>2026-05-05T16:05:24Z</time>
            </trkpt>
            <trkpt lat="42.766350" lon="-71.740570">
                <time>2026-05-05T16:05:25Z</time>
            </trkpt>
            <trkpt lat="42.766490" lon="-71.740620">
                <time>2026-05-05T16:05:26Z</time>
            </trkpt>
            <trkpt lat="42.766630" lon="-71.740680">
                <time>2026-05-05T16:05:27Z</time>
            </trkpt>
            <trkpt lat="42.766780" lon="-71.740730">
                <time>2026-05-05T16:05:28Z</time>
            </trkpt>
            <trkpt lat="42.766920" lon="-71.740770">
                <time>2026-05-05T16:05:29Z</time>
            </trkpt>
            <trkpt lat="42.767070" lon="-71.740800">
                <time>2026-05-05T16:05:30Z</time>
            </trkpt>
            <trkpt lat="42.767220" lon="-71.740860">
                <time>2026-05-05T16:05:31Z</time>
            </trkpt>
            <trkpt lat="42.767360" lon="-71.740900">
                <time>2026-05-05T16:05:32Z</time>
            </trkpt>
            <trkpt lat="42.767510" lon="-71.740940">
                <time>2026-05-05T16:05:33Z</time>
            </trkpt>
            <trkpt lat="42.767650" lon="-71.740990">
                <time>2026-05-05T16:05:34Z</time>
            </trkpt>
            <trkpt lat="42.767790" lon="-71.741030">
                <time>2026-05-05T16:05:35Z</time>
            </trkpt>
            <trkpt lat="42.767910" lon="-71.741080">
                <time>2026-05-05T16:05:36Z</time>
            </trkpt>
            <trkpt lat="42.768050" lon="-71.741140">
                <time>2026-05-05T16:05:37Z</time>
            </trkpt>
            <trkpt lat="42.768190" lon="-71.741210">
                <time>2026-05-05T16:05:38Z</time>
            </trkpt>
            <trkpt lat="42.768320" lon="-71.741270">
                <time>2026-05-05T16:05:39Z</time>
            </trkpt>
            <trkpt lat="42.768440" lon="-71.741320">
                <time>2026-05-05T16:05:40Z</time>
            </trkpt>
            <trkpt lat="42.768570" lon="-71.741360">
                <time>2026-05-05T16:05:41Z</time>
            </trkpt>
            <trkpt lat="42.768700" lon="-71.741390">
                <time>2026-05-05T16:05:42Z</time>
            </trkpt>
            <trkpt lat="42.768830" lon="-71.741420">
                <time>2026-05-05T16:05:43Z</time>
            </trkpt>
            <trkpt lat="42.768960" lon="-71.741440">
                <time>2026-05-05T16:05:44Z</time>
            </trkpt>
            <trkpt lat="42.769080" lon="-71.741460">
                <time>2026-05-05T16:05:45Z</time>
            </trkpt>
            <trkpt lat="42.769200" lon="-71.741480">
                <time>2026-05-05T16:05:46Z</time>
            </trkpt>
            <trkpt lat="42.769310" lon="-71.741500">
                <time>2026-05-05T16:05:47Z</time>
            </trkpt>
            <trkpt lat="42.769410" lon="-71.741520">
                <time>2026-05-05T16:05:48Z</time>
            </trkpt>
            <trkpt lat="42.769490" lon="-71.741550">
                <time>2026-05-05T16:05:49Z</time>
            </trkpt>
            <trkpt lat="42.769560" lon="-71.741600">
                <time>2026-05-05T16:05:50Z</time>
            </trkpt>
            <trkpt lat="42.769600" lon="-71.741690">
                <time>2026-05-05T16:05:51Z</time>
            </trkpt>
            <trkpt lat="42.769640" lon="-71.741780">
                <time>2026-05-05T16:05:52Z</time>
            </trkpt>
            <trkpt lat="42.769670" lon="-71.741890">
                <time>2026-05-05T16:05:53Z</time>
            </trkpt>
            <trkpt lat="42.769710" lon="-71.742010">
                <time>2026-05-05T16:05:54Z</time>
            </trkpt>
            <trkpt lat="42.769740" lon="-71.742170">
                <time>2026-05-05T16:05:55Z</time>
            </trkpt>
            <trkpt lat="42.769800" lon="-71.742350">
                <time>2026-05-05T16:05:56Z</time>
            </trkpt>
            <trkpt lat="42.769840" lon="-71.742510">
                <time>2026-05-05T16:05:57Z</time>
            </trkpt>
            <trkpt lat="42.769880" lon="-71.742680">
                <time>2026-05-05T16:05:58Z</time>
            </trkpt>
            <trkpt lat="42.769920" lon="-71.742860">
                <time>2026-05-05T16:05:59Z</time>
            </trkpt>
            <trkpt lat="42.769970" lon="-71.743030">
                <time>2026-05-05T16:06:00Z</time>
            </trkpt>
            <trkpt lat="42.770030" lon="-71.743190">
                <time>2026-05-05T16:06:01Z</time>
            </trkpt>
            <trkpt lat="42.770090" lon="-71.743350">
                <time>2026-05-05T16:06:02Z</time>
            </trkpt>
            <trkpt lat="42.770140" lon="-71.743500">
                <time>2026-05-05T16:06:03Z</time>
            </trkpt>
            <trkpt lat="42.770200" lon="-71.743670">
                <time>2026-05-05T16:06:04Z</time>
            </trkpt>
            <trkpt lat="42.770250" lon="-71.743840">
                <time>2026-05-05T16:06:05Z</time>
            </trkpt>
            <trkpt lat="42.770300" lon="-71.744010">
                <time>2026-05-05T16:06:06Z</time>
            </trkpt>
            <trkpt lat="42.770360" lon="-71.744170">
                <time>2026-05-05T16:06:07Z</time>
            </trkpt>
            <trkpt lat="42.770410" lon="-71.744330">
                <time>2026-05-05T16:06:08Z</time>
            </trkpt>
            <trkpt lat="42.770460" lon="-71.744510">
                <time>2026-05-05T16:06:09Z</time>
            </trkpt>
            <trkpt lat="42.770520" lon="-71.744680">
                <time>2026-05-05T16:06:10Z</time>
            </trkpt>
            <trkpt lat="42.770570" lon="-71.744840">
                <time>2026-05-05T16:06:11Z</time>
            </trkpt>
            <trkpt lat="42.770610" lon="-71.745010">
                <time>2026-05-05T16:06:12Z</time>
            </trkpt>
            <trkpt lat="42.770630" lon="-71.745200">
                <time>2026-05-05T16:06:13Z</time>
            </trkpt>
            <trkpt lat="42.770650" lon="-71.745390">
                <time>2026-05-05T16:06:14Z</time>
            </trkpt>
            <trkpt lat="42.770660" lon="-71.745590">
                <time>2026-05-05T16:06:15Z</time>
            </trkpt>
            <trkpt lat="42.770670" lon="-71.745790">
                <time>2026-05-05T16:06:16Z</time>
            </trkpt>
            <trkpt lat="42.770690" lon="-71.746000">
                <time>2026-05-05T16:06:17Z</time>
            </trkpt>
            <trkpt lat="42.770700" lon="-71.746210">
                <time>2026-05-05T16:06:18Z</time>
            </trkpt>
            <trkpt lat="42.770710" lon="-71.746410">
                <time>2026-05-05T16:06:19Z</time>
            </trkpt>
            <trkpt lat="42.770720" lon="-71.746630">
                <time>2026-05-05T16:06:20Z</time>
            </trkpt>
            <trkpt lat="42.770720" lon="-71.746840">
                <time>2026-05-05T16:06:21Z</time>
            </trkpt>
            <trkpt lat="42.770730" lon="-71.747050">
                <time>2026-05-05T16:06:22Z</time>
            </trkpt>
            <trkpt lat="42.770740" lon="-71.747260">
                <time>2026-05-05T16:06:23Z</time>
            </trkpt>
            <trkpt lat="42.770740" lon="-71.747470">
                <time>2026-05-05T16:06:24Z</time>
            </trkpt>
            <trkpt lat="42.770740" lon="-71.747690">
                <time>2026-05-05T16:06:25Z</time>
            </trkpt>
            <trkpt lat="42.770740" lon="-71.747900">
                <time>2026-05-05T16:06:26Z</time>
            </trkpt>
            <trkpt lat="42.770740" lon="-71.748100">
                <time>2026-05-05T16:06:27Z</time>
            </trkpt>
            <trkpt lat="42.770750" lon="-71.748300">
                <time>2026-05-05T16:06:28Z</time>
            </trkpt>
            <trkpt lat="42.770750" lon="-71.748490">
                <time>2026-05-05T16:06:29Z</time>
            </trkpt>
            <trkpt lat="42.770740" lon="-71.748690">
                <time>2026-05-05T16:06:30Z</time>
            </trkpt>
            <trkpt lat="42.770750" lon="-71.748880">
                <time>2026-05-05T16:06:31Z</time>
            </trkpt>
            <trkpt lat="42.770750" lon="-71.749080">
                <time>2026-05-05T16:06:32Z</time>
            </trkpt>
            <trkpt lat="42.770760" lon="-71.749270">
                <time>2026-05-05T16:06:33Z</time>
            </trkpt>
            <trkpt lat="42.770760" lon="-71.749480">
                <time>2026-05-05T16:06:34Z</time>
            </trkpt>
            <trkpt lat="42.770780" lon="-71.749690">
                <time>2026-05-05T16:06:35Z</time>
            </trkpt>
            <trkpt lat="42.770780" lon="-71.749890">
                <time>2026-05-05T16:06:36Z</time>
            </trkpt>
            <trkpt lat="42.770790" lon="-71.750080">
                <time>2026-05-05T16:06:37Z</time>
            </trkpt>
            <trkpt lat="42.770780" lon="-71.750280">
                <time>2026-05-05T16:06:38Z</time>
            </trkpt>
            <trkpt lat="42.770770" lon="-71.750480">
                <time>2026-05-05T16:06:39Z</time>
            </trkpt>
            <trkpt lat="42.770750" lon="-71.750670">
                <time>2026-05-05T16:06:40Z</time>
            </trkpt>
            <trkpt lat="42.770730" lon="-71.750890">
                <time>2026-05-05T16:06:41Z</time>
            </trkpt>
            <trkpt lat="42.770700" lon="-71.751100">
                <time>2026-05-05T16:06:42Z</time>
            </trkpt>
            <trkpt lat="42.770660" lon="-71.751310">
                <time>2026-05-05T16:06:43Z</time>
            </trkpt>
            <trkpt lat="42.770620" lon="-71.751530">
                <time>2026-05-05T16:06:44Z</time>
            </trkpt>
            <trkpt lat="42.770580" lon="-71.751730">
                <time>2026-05-05T16:06:45Z</time>
            </trkpt>
            <trkpt lat="42.770550" lon="-71.751950">
                <time>2026-05-05T16:06:46Z</time>
            </trkpt>
            <trkpt lat="42.770530" lon="-71.752160">
                <time>2026-05-05T16:06:47Z</time>
            </trkpt>
            <trkpt lat="42.770520" lon="-71.752370">
                <time>2026-05-05T16:06:48Z</time>
            </trkpt>
            <trkpt lat="42.770510" lon="-71.752580">
                <time>2026-05-05T16:06:49Z</time>
            </trkpt>
            <trkpt lat="42.770510" lon="-71.752780">
                <time>2026-05-05T16:06:50Z</time>
            </trkpt>
            <trkpt lat="42.770520" lon="-71.752970">
                <time>2026-05-05T16:06:51Z</time>
            </trkpt>
            <trkpt lat="42.770530" lon="-71.753160">
                <time>2026-05-05T16:06:52Z</time>
            </trkpt>
            <trkpt lat="42.770540" lon="-71.753360">
                <time>2026-05-05T16:06:53Z</time>
            </trkpt>
            <trkpt lat="42.770560" lon="-71.753540">
                <time>2026-05-05T16:06:54Z</time>
            </trkpt>
            <trkpt lat="42.770580" lon="-71.753730">
                <time>2026-05-05T16:06:55Z</time>
            </trkpt>
            <trkpt lat="42.770600" lon="-71.753920">
                <time>2026-05-05T16:06:56Z</time>
            </trkpt>
            <trkpt lat="42.770630" lon="-71.754110">
                <time>2026-05-05T16:06:57Z</time>
            </trkpt>
            <trkpt lat="42.770640" lon="-71.754310">
                <time>2026-05-05T16:06:58Z</time>
            </trkpt>
            <trkpt lat="42.770670" lon="-71.754480">
                <time>2026-05-05T16:06:59Z</time>
            </trkpt>
            <trkpt lat="42.770700" lon="-71.754650">
                <time>2026-05-05T16:07:00Z</time>
            </trkpt>
            <trkpt lat="42.770750" lon="-71.754800">
                <time>2026-05-05T16:07:01Z</time>
            </trkpt>
            <trkpt lat="42.770780" lon="-71.754950">
                <time>2026-05-05T16:07:02Z</time>
            </trkpt>
            <trkpt lat="42.770820" lon="-71.755100">
                <time>2026-05-05T16:07:03Z</time>
            </trkpt>
            <trkpt lat="42.770840" lon="-71.755230">
                <time>2026-05-05T16:07:04Z</time>
            </trkpt>
            <trkpt lat="42.770860" lon="-71.755360">
                <time>2026-05-05T16:07:05Z</time>
            </trkpt>
            <trkpt lat="42.770880" lon="-71.755490">
                <time>2026-05-05T16:07:06Z</time>
            </trkpt>
            <trkpt lat="42.770880" lon="-71.755600">
                <time>2026-05-05T16:07:07Z</time>
            </trkpt>
            <trkpt lat="42.770890" lon="-71.755680">
                <time>2026-05-05T16:07:08Z</time>
            </trkpt>
            <trkpt lat="42.770890" lon="-71.755720">
                <time>2026-05-05T16:07:09Z</time>
            </trkpt>
            <trkpt lat="42.770890" lon="-71.755740">
                <time>2026-05-05T16:07:10Z</time>
            </trkpt>
            <trkpt lat="42.770880" lon="-71.755770">
                <time>2026-05-05T16:07:11Z</time>
            </trkpt>
            <trkpt lat="42.770870" lon="-71.755810">
                <time>2026-05-05T16:07:12Z</time>
            </trkpt>
            <trkpt lat="42.770820" lon="-71.755860">
                <time>2026-05-05T16:07:13Z</time>
            </trkpt>
            <trkpt lat="42.770740" lon="-71.755900">
                <time>2026-05-05T16:07:14Z</time>
            </trkpt>
            <trkpt lat="42.770690" lon="-71.755950">
                <time>2026-05-05T16:07:15Z</time>
            </trkpt>
            <trkpt lat="42.770620" lon="-71.756000">
                <time>2026-05-05T16:07:16Z</time>
            </trkpt>
            <trkpt lat="42.770520" lon="-71.756080">
                <time>2026-05-05T16:07:17Z</time>
            </trkpt>
            <trkpt lat="42.770430" lon="-71.756160">
                <time>2026-05-05T16:07:18Z</time>
            </trkpt>
            <trkpt lat="42.770330" lon="-71.756250">
                <time>2026-05-05T16:07:19Z</time>
            </trkpt>
            <trkpt lat="42.770240" lon="-71.756330">
                <time>2026-05-05T16:07:20Z</time>
            </trkpt>
            <trkpt lat="42.770150" lon="-71.756410">
                <time>2026-05-05T16:07:21Z</time>
            </trkpt>
            <trkpt lat="42.770060" lon="-71.756490">
                <time>2026-05-05T16:07:22Z</time>
            </trkpt>
            <trkpt lat="42.769980" lon="-71.756540">
                <time>2026-05-05T16:07:23Z</time>
            </trkpt>
            <trkpt lat="42.769880" lon="-71.756600">
                <time>2026-05-05T16:07:24Z</time>
            </trkpt>
            <trkpt lat="42.769780" lon="-71.756620">
                <time>2026-05-05T16:07:25Z</time>
            </trkpt>
            <trkpt lat="42.769690" lon="-71.756630">
                <time>2026-05-05T16:07:26Z</time>
            </trkpt>
            <trkpt lat="42.769600" lon="-71.756600">
                <time>2026-05-05T16:07:27Z</time>
            </trkpt>
            <trkpt lat="42.769510" lon="-71.756560">
                <time>2026-05-05T16:07:28Z</time>
            </trkpt>
            <trkpt lat="42.769420" lon="-71.756510">
                <time>2026-05-05T16:07:29Z</time>
            </trkpt>
            <trkpt lat="42.769340" lon="-71.756460">
                <time>2026-05-05T16:07:30Z</time>
            </trkpt>
            <trkpt lat="42.769250" lon="-71.756430">
                <time>2026-05-05T16:07:31Z</time>
            </trkpt>
            <trkpt lat="42.769150" lon="-71.756400">
                <time>2026-05-05T16:07:32Z</time>
            </trkpt>
            <trkpt lat="42.769030" lon="-71.756380">
                <time>2026-05-05T16:07:33Z</time>
            </trkpt>
            <trkpt lat="42.768910" lon="-71.756350">
                <time>2026-05-05T16:07:34Z</time>
            </trkpt>
            <trkpt lat="42.768800" lon="-71.756310">
                <time>2026-05-05T16:07:35Z</time>
            </trkpt>
            <trkpt lat="42.768680" lon="-71.756310">
                <time>2026-05-05T16:07:36Z</time>
            </trkpt>
            <trkpt lat="42.768550" lon="-71.756350">
                <time>2026-05-05T16:07:37Z</time>
            </trkpt>
            <trkpt lat="42.768440" lon="-71.756380">
                <time>2026-05-05T16:07:38Z</time>
            </trkpt>
            <trkpt lat="42.768320" lon="-71.756470">
                <time>2026-05-05T16:07:39Z</time>
            </trkpt>
            <trkpt lat="42.768220" lon="-71.756560">
                <time>2026-05-05T16:07:40Z</time>
            </trkpt>
            <trkpt lat="42.768120" lon="-71.756690">
                <time>2026-05-05T16:07:41Z</time>
            </trkpt>
            <trkpt lat="42.768030" lon="-71.756830">
                <time>2026-05-05T16:07:42Z</time>
            </trkpt>
            <trkpt lat="42.767930" lon="-71.756970">
                <time>2026-05-05T16:07:43Z</time>
            </trkpt>
            <trkpt lat="42.767830" lon="-71.757120">
                <time>2026-05-05T16:07:44Z</time>
            </trkpt>
            <trkpt lat="42.767740" lon="-71.757270">
                <time>2026-05-05T16:07:45Z</time>
            </trkpt>
            <trkpt lat="42.767660" lon="-71.757410">
                <time>2026-05-05T16:07:46Z</time>
            </trkpt>
            <trkpt lat="42.767570" lon="-71.757560">
                <time>2026-05-05T16:07:47Z</time>
            </trkpt>
            <trkpt lat="42.767490" lon="-71.757720">
                <time>2026-05-05T16:07:48Z</time>
            </trkpt>
            <trkpt lat="42.767430" lon="-71.757880">
                <time>2026-05-05T16:07:49Z</time>
            </trkpt>
            <trkpt lat="42.767390" lon="-71.758050">
                <time>2026-05-05T16:07:50Z</time>
            </trkpt>
            <trkpt lat="42.767380" lon="-71.758220">
                <time>2026-05-05T16:07:51Z</time>
            </trkpt>
            <trkpt lat="42.767370" lon="-71.758400">
                <time>2026-05-05T16:07:52Z</time>
            </trkpt>
            <trkpt lat="42.767380" lon="-71.758580">
                <time>2026-05-05T16:07:53Z</time>
            </trkpt>
            <trkpt lat="42.767400" lon="-71.758770">
                <time>2026-05-05T16:07:54Z</time>
            </trkpt>
            <trkpt lat="42.767430" lon="-71.758950">
                <time>2026-05-05T16:07:55Z</time>
            </trkpt>
            <trkpt lat="42.767440" lon="-71.759130">
                <time>2026-05-05T16:07:56Z</time>
            </trkpt>
            <trkpt lat="42.767450" lon="-71.759310">
                <time>2026-05-05T16:07:57Z</time>
            </trkpt>
            <trkpt lat="42.767460" lon="-71.759490">
                <time>2026-05-05T16:07:58Z</time>
            </trkpt>
            <trkpt lat="42.767450" lon="-71.759670">
                <time>2026-05-05T16:07:59Z</time>
            </trkpt>
            <trkpt lat="42.767410" lon="-71.759850">
                <time>2026-05-05T16:08:00Z</time>
            </trkpt>
            <trkpt lat="42.767320" lon="-71.760020">
                <time>2026-05-05T16:08:01Z</time>
            </trkpt>
            <trkpt lat="42.767240" lon="-71.760170">
                <time>2026-05-05T16:08:02Z</time>
            </trkpt>
            <trkpt lat="42.767140" lon="-71.760320">
                <time>2026-05-05T16:08:03Z</time>
            </trkpt>
            <trkpt lat="42.767030" lon="-71.760450">
                <time>2026-05-05T16:08:04Z</time>
            </trkpt>
            <trkpt lat="42.766910" lon="-71.760550">
                <time>2026-05-05T16:08:05Z</time>
            </trkpt>
            <trkpt lat="42.766780" lon="-71.760630">
                <time>2026-05-05T16:08:06Z</time>
            </trkpt>
            <trkpt lat="42.766650" lon="-71.760710">
                <time>2026-05-05T16:08:07Z</time>
            </trkpt>
            <trkpt lat="42.766530" lon="-71.760770">
                <time>2026-05-05T16:08:08Z</time>
            </trkpt>
            <trkpt lat="42.766390" lon="-71.760830">
                <time>2026-05-05T16:08:09Z</time>
            </trkpt>
            <trkpt lat="42.766260" lon="-71.760890">
                <time>2026-05-05T16:08:10Z</time>
            </trkpt>
            <trkpt lat="42.766120" lon="-71.760950">
                <time>2026-05-05T16:08:11Z</time>
            </trkpt>
            <trkpt lat="42.766010" lon="-71.760980">
                <time>2026-05-05T16:08:12Z</time>
            </trkpt>
            <trkpt lat="42.765890" lon="-71.761030">
                <time>2026-05-05T16:08:13Z</time>
            </trkpt>
            <trkpt lat="42.765750" lon="-71.761080">
                <time>2026-05-05T16:08:14Z</time>
            </trkpt>
            <trkpt lat="42.765630" lon="-71.761130">
                <time>2026-05-05T16:08:15Z</time>
            </trkpt>
            <trkpt lat="42.765500" lon="-71.761190">
                <time>2026-05-05T16:08:16Z</time>
            </trkpt>
            <trkpt lat="42.765370" lon="-71.761260">
                <time>2026-05-05T16:08:17Z</time>
            </trkpt>
            <trkpt lat="42.765230" lon="-71.761330">
                <time>2026-05-05T16:08:18Z</time>
            </trkpt>
            <trkpt lat="42.765090" lon="-71.761380">
                <time>2026-05-05T16:08:19Z</time>
            </trkpt>
            <trkpt lat="42.764940" lon="-71.761450">
                <time>2026-05-05T16:08:20Z</time>
            </trkpt>
            <trkpt lat="42.764790" lon="-71.761510">
                <time>2026-05-05T16:08:21Z</time>
            </trkpt>
            <trkpt lat="42.764640" lon="-71.761580">
                <time>2026-05-05T16:08:22Z</time>
            </trkpt>
            <trkpt lat="42.764500" lon="-71.761620">
                <time>2026-05-05T16:08:23Z</time>
            </trkpt>
            <trkpt lat="42.764360" lon="-71.761680">
                <time>2026-05-05T16:08:24Z</time>
            </trkpt>
            <trkpt lat="42.764230" lon="-71.761760">
                <time>2026-05-05T16:08:25Z</time>
            </trkpt>
            <trkpt lat="42.764090" lon="-71.761850">
                <time>2026-05-05T16:08:26Z</time>
            </trkpt>
            <trkpt lat="42.763960" lon="-71.761940">
                <time>2026-05-05T16:08:27Z</time>
            </trkpt>
            <trkpt lat="42.763820" lon="-71.762020">
                <time>2026-05-05T16:08:28Z</time>
            </trkpt>
            <trkpt lat="42.763690" lon="-71.762080">
                <time>2026-05-05T16:08:29Z</time>
            </trkpt>
            <trkpt lat="42.763550" lon="-71.762110">
                <time>2026-05-05T16:08:30Z</time>
            </trkpt>
            <trkpt lat="42.763420" lon="-71.762130">
                <time>2026-05-05T16:08:31Z</time>
            </trkpt>
            <trkpt lat="42.763270" lon="-71.762130">
                <time>2026-05-05T16:08:32Z</time>
            </trkpt>
            <trkpt lat="42.763110" lon="-71.762100">
                <time>2026-05-05T16:08:33Z</time>
            </trkpt>
            <trkpt lat="42.762950" lon="-71.762050">
                <time>2026-05-05T16:08:34Z</time>
            </trkpt>
            <trkpt lat="42.762800" lon="-71.761990">
                <time>2026-05-05T16:08:35Z</time>
            </trkpt>
            <trkpt lat="42.762660" lon="-71.761930">
                <time>2026-05-05T16:08:36Z</time>
            </trkpt>
            <trkpt lat="42.762520" lon="-71.761870">
                <time>2026-05-05T16:08:37Z</time>
            </trkpt>
            <trkpt lat="42.762380" lon="-71.761820">
                <time>2026-05-05T16:08:38Z</time>
            </trkpt>
            <trkpt lat="42.762240" lon="-71.761810">
                <time>2026-05-05T16:08:39Z</time>
            </trkpt>
            <trkpt lat="42.762120" lon="-71.761830">
                <time>2026-05-05T16:08:40Z</time>
            </trkpt>
            <trkpt lat="42.761990" lon="-71.761890">
                <time>2026-05-05T16:08:41Z</time>
            </trkpt>
            <trkpt lat="42.761880" lon="-71.761990">
                <time>2026-05-05T16:08:42Z</time>
            </trkpt>
            <trkpt lat="42.761780" lon="-71.762110">
                <time>2026-05-05T16:08:43Z</time>
            </trkpt>
            <trkpt lat="42.761690" lon="-71.762250">
                <time>2026-05-05T16:08:44Z</time>
            </trkpt>
            <trkpt lat="42.761590" lon="-71.762390">
                <time>2026-05-05T16:08:45Z</time>
            </trkpt>
            <trkpt lat="42.761490" lon="-71.762530">
                <time>2026-05-05T16:08:46Z</time>
            </trkpt>
            <trkpt lat="42.761380" lon="-71.762650">
                <time>2026-05-05T16:08:47Z</time>
            </trkpt>
            <trkpt lat="42.761270" lon="-71.762750">
                <time>2026-05-05T16:08:48Z</time>
            </trkpt>
            <trkpt lat="42.761150" lon="-71.762850">
                <time>2026-05-05T16:08:49Z</time>
            </trkpt>
            <trkpt lat="42.761040" lon="-71.762940">
                <time>2026-05-05T16:08:50Z</time>
            </trkpt>
            <trkpt lat="42.760930" lon="-71.763030">
                <time>2026-05-05T16:08:51Z</time>
            </trkpt>
            <trkpt lat="42.760820" lon="-71.763110">
                <time>2026-05-05T16:08:52Z</time>
            </trkpt>
            <trkpt lat="42.760720" lon="-71.763190">
                <time>2026-05-05T16:08:53Z</time>
            </trkpt>
            <trkpt lat="42.760620" lon="-71.763280">
                <time>2026-05-05T16:08:54Z</time>
            </trkpt>
            <trkpt lat="42.760520" lon="-71.763370">
                <time>2026-05-05T16:08:55Z</time>
            </trkpt>
            <trkpt lat="42.760410" lon="-71.763460">
                <time>2026-05-05T16:08:56Z</time>
            </trkpt>
            <trkpt lat="42.760300" lon="-71.763560">
                <time>2026-05-05T16:08:57Z</time>
            </trkpt>
            <trkpt lat="42.760190" lon="-71.763630">
                <time>2026-05-05T16:08:58Z</time>
            </trkpt>
            <trkpt lat="42.760080" lon="-71.763710">
                <time>2026-05-05T16:08:59Z</time>
            </trkpt>
            <trkpt lat="42.759950" lon="-71.763760">
                <time>2026-05-05T16:09:00Z</time>
            </trkpt>
            <trkpt lat="42.759830" lon="-71.763810">
                <time>2026-05-05T16:09:01Z</time>
            </trkpt>
            <trkpt lat="42.759700" lon="-71.763870">
                <time>2026-05-05T16:09:02Z</time>
            </trkpt>
            <trkpt lat="42.759580" lon="-71.763930">
                <time>2026-05-05T16:09:03Z</time>
            </trkpt>
            <trkpt lat="42.759460" lon="-71.764000">
                <time>2026-05-05T16:09:04Z</time>
            </trkpt>
            <trkpt lat="42.759350" lon="-71.764080">
                <time>2026-05-05T16:09:05Z</time>
            </trkpt>
            <trkpt lat="42.759240" lon="-71.764150">
                <time>2026-05-05T16:09:06Z</time>
            </trkpt>
            <trkpt lat="42.759120" lon="-71.764220">
                <time>2026-05-05T16:09:07Z</time>
            </trkpt>
            <trkpt lat="42.759000" lon="-71.764300">
                <time>2026-05-05T16:09:08Z</time>
            </trkpt>
            <trkpt lat="42.758880" lon="-71.764380">
                <time>2026-05-05T16:09:09Z</time>
            </trkpt>
            <trkpt lat="42.758790" lon="-71.764450">
                <time>2026-05-05T16:09:10Z</time>
            </trkpt>
            <trkpt lat="42.758680" lon="-71.764520">
                <time>2026-05-05T16:09:11Z</time>
            </trkpt>
            <trkpt lat="42.758570" lon="-71.764580">
                <time>2026-05-05T16:09:12Z</time>
            </trkpt>
            <trkpt lat="42.758450" lon="-71.764640">
                <time>2026-05-05T16:09:13Z</time>
            </trkpt>
            <trkpt lat="42.758330" lon="-71.764720">
                <time>2026-05-05T16:09:14Z</time>
            </trkpt>
            <trkpt lat="42.758220" lon="-71.764780">
                <time>2026-05-05T16:09:15Z</time>
            </trkpt>
            <trkpt lat="42.758100" lon="-71.764820">
                <time>2026-05-05T16:09:16Z</time>
            </trkpt>
            <trkpt lat="42.757990" lon="-71.764840">
                <time>2026-05-05T16:09:17Z</time>
            </trkpt>
            <trkpt lat="42.757890" lon="-71.764850">
                <time>2026-05-05T16:09:18Z</time>
            </trkpt>
            <trkpt lat="42.757760" lon="-71.764870">
                <time>2026-05-05T16:09:19Z</time>
            </trkpt>
            <trkpt lat="42.757640" lon="-71.764860">
                <time>2026-05-05T16:09:20Z</time>
            </trkpt>
            <trkpt lat="42.757520" lon="-71.764850">
                <time>2026-05-05T16:09:21Z</time>
            </trkpt>
            <trkpt lat="42.757400" lon="-71.764860">
                <time>2026-05-05T16:09:22Z</time>
            </trkpt>
            <trkpt lat="42.757260" lon="-71.764860">
                <time>2026-05-05T16:09:23Z</time>
            </trkpt>
            <trkpt lat="42.757140" lon="-71.764870">
                <time>2026-05-05T16:09:24Z</time>
            </trkpt>
            <trkpt lat="42.757010" lon="-71.764900">
                <time>2026-05-05T16:09:25Z</time>
            </trkpt>
            <trkpt lat="42.756880" lon="-71.764950">
                <time>2026-05-05T16:09:26Z</time>
            </trkpt>
            <trkpt lat="42.756730" lon="-71.765020">
                <time>2026-05-05T16:09:27Z</time>
            </trkpt>
            <trkpt lat="42.756590" lon="-71.765090">
                <time>2026-05-05T16:09:28Z</time>
            </trkpt>
            <trkpt lat="42.756450" lon="-71.765150">
                <time>2026-05-05T16:09:29Z</time>
            </trkpt>
            <trkpt lat="42.756300" lon="-71.765210">
                <time>2026-05-05T16:09:30Z</time>
            </trkpt>
            <trkpt lat="42.756160" lon="-71.765280">
                <time>2026-05-05T16:09:31Z</time>
            </trkpt>
            <trkpt lat="42.756010" lon="-71.765340">
                <time>2026-05-05T16:09:32Z</time>
            </trkpt>
            <trkpt lat="42.755870" lon="-71.765410">
                <time>2026-05-05T16:09:33Z</time>
            </trkpt>
            <trkpt lat="42.755740" lon="-71.765450">
                <time>2026-05-05T16:09:34Z</time>
            </trkpt>
            <trkpt lat="42.755600" lon="-71.765510">
                <time>2026-05-05T16:09:35Z</time>
            </trkpt>
            <trkpt lat="42.755460" lon="-71.765590">
                <time>2026-05-05T16:09:36Z</time>
            </trkpt>
            <trkpt lat="42.755320" lon="-71.765680">
                <time>2026-05-05T16:09:37Z</time>
            </trkpt>
            <trkpt lat="42.755180" lon="-71.765780">
                <time>2026-05-05T16:09:38Z</time>
            </trkpt>
            <trkpt lat="42.755040" lon="-71.765880">
                <time>2026-05-05T16:09:39Z</time>
            </trkpt>
            <trkpt lat="42.754900" lon="-71.765980">
                <time>2026-05-05T16:09:40Z</time>
            </trkpt>
            <trkpt lat="42.754760" lon="-71.766070">
                <time>2026-05-05T16:09:41Z</time>
            </trkpt>
            <trkpt lat="42.754620" lon="-71.766170">
                <time>2026-05-05T16:09:42Z</time>
            </trkpt>
            <trkpt lat="42.754480" lon="-71.766270">
                <time>2026-05-05T16:09:43Z</time>
            </trkpt>
            <trkpt lat="42.754360" lon="-71.766370">
                <time>2026-05-05T16:09:44Z</time>
            </trkpt>
            <trkpt lat="42.754230" lon="-71.766460">
                <time>2026-05-05T16:09:45Z</time>
            </trkpt>
            <trkpt lat="42.754100" lon="-71.766550">
                <time>2026-05-05T16:09:46Z</time>
            </trkpt>
            <trkpt lat="42.753980" lon="-71.766630">
                <time>2026-05-05T16:09:47Z</time>
            </trkpt>
            <trkpt lat="42.753860" lon="-71.766700">
                <time>2026-05-05T16:09:48Z</time>
            </trkpt>
            <trkpt lat="42.753740" lon="-71.766780">
                <time>2026-05-05T16:09:49Z</time>
            </trkpt>
            <trkpt lat="42.753620" lon="-71.766870">
                <time>2026-05-05T16:09:50Z</time>
            </trkpt>
            <trkpt lat="42.753510" lon="-71.766940">
                <time>2026-05-05T16:09:51Z</time>
            </trkpt>
            <trkpt lat="42.753410" lon="-71.767020">
                <time>2026-05-05T16:09:52Z</time>
            </trkpt>
            <trkpt lat="42.753320" lon="-71.767100">
                <time>2026-05-05T16:09:53Z</time>
            </trkpt>
            <trkpt lat="42.753240" lon="-71.767160">
                <time>2026-05-05T16:09:54Z</time>
            </trkpt>
            <trkpt lat="42.753180" lon="-71.767200">
                <time>2026-05-05T16:09:55Z</time>
            </trkpt>
            <trkpt lat="42.753130" lon="-71.767230">
                <time>2026-05-05T16:09:56Z</time>
            </trkpt>
            <trkpt lat="42.753110" lon="-71.767240">
                <time>2026-05-05T16:09:57Z</time>
            </trkpt>
            <trkpt lat="42.753090" lon="-71.767250">
                <time>2026-05-05T16:09:58Z</time>
            </trkpt>
            <trkpt lat="42.753090" lon="-71.767260">
                <time>2026-05-05T16:09:59Z</time>
            </trkpt>
            <trkpt lat="42.753100" lon="-71.767250">
                <time>2026-05-05T16:10:00Z</time>
            </trkpt>
            <trkpt lat="42.753090" lon="-71.767260">
                <time>2026-05-05T16:10:01Z</time>
            </trkpt>
            <trkpt lat="42.753090" lon="-71.767260">
                <time>2026-05-05T16:10:02Z</time>
            </trkpt>
            <trkpt lat="42.753100" lon="-71.767250">
                <time>2026-05-05T16:10:03Z</time>
            </trkpt>
            <trkpt lat="42.753100" lon="-71.767260">
                <time>2026-05-05T16:10:04Z</time>
            </trkpt>
            <trkpt lat="42.753100" lon="-71.767260">
                <time>2026-05-05T16:10:05Z</time>
            </trkpt>
            <trkpt lat="42.753100" lon="-71.767260">
                <time>2026-05-05T16:10:06Z</time>
            </trkpt>
            <trkpt lat="42.753090" lon="-71.767250">
                <time>2026-05-05T16:10:07Z</time>
            </trkpt>
            <trkpt lat="42.753080" lon="-71.767270">
                <time>2026-05-05T16:10:08Z</time>
            </trkpt>
            <trkpt lat="42.753070" lon="-71.767280">
                <time>2026-05-05T16:10:09Z</time>
            </trkpt>
            <trkpt lat="42.753060" lon="-71.767300">
                <time>2026-05-05T16:10:10Z</time>
            </trkpt>
            <trkpt lat="42.753040" lon="-71.767340">
                <time>2026-05-05T16:10:11Z</time>
            </trkpt>
            <trkpt lat="42.753050" lon="-71.767380">
                <time>2026-05-05T16:10:12Z</time>
            </trkpt>
            <trkpt lat="42.753070" lon="-71.767420">
                <time>2026-05-05T16:10:13Z</time>
            </trkpt>
            <trkpt lat="42.753090" lon="-71.767480">
                <time>2026-05-05T16:10:14Z</time>
            </trkpt>
            <trkpt lat="42.753120" lon="-71.767550">
                <time>2026-05-05T16:10:15Z</time>
            </trkpt>
            <trkpt lat="42.753140" lon="-71.767620">
                <time>2026-05-05T16:10:16Z</time>
            </trkpt>
            <trkpt lat="42.753180" lon="-71.767690">
                <time>2026-05-05T16:10:17Z</time>
            </trkpt>
            <trkpt lat="42.753220" lon="-71.767760">
                <time>2026-05-05T16:10:18Z</time>
            </trkpt>
            <trkpt lat="42.753250" lon="-71.767830">
                <time>2026-05-05T16:10:19Z</time>
            </trkpt>
            <trkpt lat="42.753290" lon="-71.767910">
                <time>2026-05-05T16:10:20Z</time>
            </trkpt>
            <trkpt lat="42.753330" lon="-71.767980">
                <time>2026-05-05T16:10:21Z</time>
            </trkpt>
            <trkpt lat="42.753360" lon="-71.768050">
                <time>2026-05-05T16:10:22Z</time>
            </trkpt>
            <trkpt lat="42.753400" lon="-71.768130">
                <time>2026-05-05T16:10:23Z</time>
            </trkpt>
            <trkpt lat="42.753430" lon="-71.768210">
                <time>2026-05-05T16:10:24Z</time>
            </trkpt>
            <trkpt lat="42.753470" lon="-71.768290">
                <time>2026-05-05T16:10:25Z</time>
            </trkpt>
            <trkpt lat="42.753500" lon="-71.768380">
                <time>2026-05-05T16:10:26Z</time>
            </trkpt>
            <trkpt lat="42.753520" lon="-71.768470">
                <time>2026-05-05T16:10:27Z</time>
            </trkpt>
            <trkpt lat="42.753550" lon="-71.768550">
                <time>2026-05-05T16:10:28Z</time>
            </trkpt>
            <trkpt lat="42.753550" lon="-71.768650">
                <time>2026-05-05T16:10:29Z</time>
            </trkpt>
            <trkpt lat="42.753570" lon="-71.768730">
                <time>2026-05-05T16:10:30Z</time>
            </trkpt>
            <trkpt lat="42.753590" lon="-71.768810">
                <time>2026-05-05T16:10:31Z</time>
            </trkpt>
            <trkpt lat="42.753610" lon="-71.768900">
                <time>2026-05-05T16:10:32Z</time>
            </trkpt>
            <trkpt lat="42.753630" lon="-71.769000">
                <time>2026-05-05T16:10:33Z</time>
            </trkpt>
            <trkpt lat="42.753650" lon="-71.769100">
                <time>2026-05-05T16:10:34Z</time>
            </trkpt>
            <trkpt lat="42.753670" lon="-71.769200">
                <time>2026-05-05T16:10:35Z</time>
            </trkpt>
            <trkpt lat="42.753680" lon="-71.769300">
                <time>2026-05-05T16:10:36Z</time>
            </trkpt>
            <trkpt lat="42.753700" lon="-71.769390">
                <time>2026-05-05T16:10:37Z</time>
            </trkpt>
            <trkpt lat="42.753730" lon="-71.769470">
                <time>2026-05-05T16:10:38Z</time>
            </trkpt>
            <trkpt lat="42.753770" lon="-71.769550">
                <time>2026-05-05T16:10:39Z</time>
            </trkpt>
            <trkpt lat="42.753810" lon="-71.769630">
                <time>2026-05-05T16:10:40Z</time>
            </trkpt>
            <trkpt lat="42.753860" lon="-71.769700">
                <time>2026-05-05T16:10:41Z</time>
            </trkpt>
            <trkpt lat="42.753920" lon="-71.769780">
                <time>2026-05-05T16:10:42Z</time>
            </trkpt>
            <trkpt lat="42.753980" lon="-71.769870">
                <time>2026-05-05T16:10:43Z</time>
            </trkpt>
            <trkpt lat="42.754050" lon="-71.769940">
                <time>2026-05-05T16:10:44Z</time>
            </trkpt>
            <trkpt lat="42.754110" lon="-71.770020">
                <time>2026-05-05T16:10:45Z</time>
            </trkpt>
            <trkpt lat="42.754170" lon="-71.770100">
                <time>2026-05-05T16:10:46Z</time>
            </trkpt>
            <trkpt lat="42.754230" lon="-71.770170">
                <time>2026-05-05T16:10:47Z</time>
            </trkpt>
            <trkpt lat="42.754280" lon="-71.770240">
                <time>2026-05-05T16:10:48Z</time>
            </trkpt>
            <trkpt lat="42.754340" lon="-71.770310">
                <time>2026-05-05T16:10:49Z</time>
            </trkpt>
            <trkpt lat="42.754400" lon="-71.770380">
                <time>2026-05-05T16:10:50Z</time>
            </trkpt>
            <trkpt lat="42.754450" lon="-71.770460">
                <time>2026-05-05T16:10:51Z</time>
            </trkpt>
            <trkpt lat="42.754500" lon="-71.770530">
                <time>2026-05-05T16:10:52Z</time>
            </trkpt>
            <trkpt lat="42.754560" lon="-71.770610">
                <time>2026-05-05T16:10:53Z</time>
            </trkpt>
            <trkpt lat="42.754610" lon="-71.770680">
                <time>2026-05-05T16:10:54Z</time>
            </trkpt>
            <trkpt lat="42.754670" lon="-71.770750">
                <time>2026-05-05T16:10:55Z</time>
            </trkpt>
            <trkpt lat="42.754730" lon="-71.770800">
                <time>2026-05-05T16:10:56Z</time>
            </trkpt>
            <trkpt lat="42.754790" lon="-71.770860">
                <time>2026-05-05T16:10:57Z</time>
            </trkpt>
            <trkpt lat="42.754860" lon="-71.770910">
                <time>2026-05-05T16:10:58Z</time>
            </trkpt>
            <trkpt lat="42.754920" lon="-71.770980">
                <time>2026-05-05T16:10:59Z</time>
            </trkpt>
            <trkpt lat="42.754990" lon="-71.771040">
                <time>2026-05-05T16:11:00Z</time>
            </trkpt>
            <trkpt lat="42.755050" lon="-71.771100">
                <time>2026-05-05T16:11:01Z</time>
            </trkpt>
            <trkpt lat="42.755120" lon="-71.771170">
                <time>2026-05-05T16:11:02Z</time>
            </trkpt>
            <trkpt lat="42.755180" lon="-71.771230">
                <time>2026-05-05T16:11:03Z</time>
            </trkpt>
            <trkpt lat="42.755240" lon="-71.771290">
                <time>2026-05-05T16:11:04Z</time>
            </trkpt>
            <trkpt lat="42.755310" lon="-71.771350">
                <time>2026-05-05T16:11:05Z</time>
            </trkpt>
            <trkpt lat="42.755360" lon="-71.771390">
                <time>2026-05-05T16:11:06Z</time>
            </trkpt>
            <trkpt lat="42.755430" lon="-71.771440">
                <time>2026-05-05T16:11:07Z</time>
            </trkpt>
            <trkpt lat="42.755490" lon="-71.771490">
                <time>2026-05-05T16:11:08Z</time>
            </trkpt>
            <trkpt lat="42.755570" lon="-71.771540">
                <time>2026-05-05T16:11:09Z</time>
            </trkpt>
            <trkpt lat="42.755640" lon="-71.771590">
                <time>2026-05-05T16:11:10Z</time>
            </trkpt>
            <trkpt lat="42.755730" lon="-71.771630">
                <time>2026-05-05T16:11:11Z</time>
            </trkpt>
            <trkpt lat="42.755800" lon="-71.771660">
                <time>2026-05-05T16:11:12Z</time>
            </trkpt>
            <trkpt lat="42.755890" lon="-71.771670">
                <time>2026-05-05T16:11:13Z</time>
            </trkpt>
            <trkpt lat="42.755970" lon="-71.771690">
                <time>2026-05-05T16:11:14Z</time>
            </trkpt>
            <trkpt lat="42.756050" lon="-71.771690">
                <time>2026-05-05T16:11:15Z</time>
            </trkpt>
            <trkpt lat="42.756140" lon="-71.771690">
                <time>2026-05-05T16:11:16Z</time>
            </trkpt>
            <trkpt lat="42.756230" lon="-71.771690">
                <time>2026-05-05T16:11:17Z</time>
            </trkpt>
            <trkpt lat="42.756320" lon="-71.771680">
                <time>2026-05-05T16:11:18Z</time>
            </trkpt>
            <trkpt lat="42.756400" lon="-71.771680">
                <time>2026-05-05T16:11:19Z</time>
            </trkpt>
            <trkpt lat="42.756480" lon="-71.771670">
                <time>2026-05-05T16:11:20Z</time>
            </trkpt>
            <trkpt lat="42.756560" lon="-71.771660">
                <time>2026-05-05T16:11:21Z</time>
            </trkpt>
            <trkpt lat="42.756640" lon="-71.771660">
                <time>2026-05-05T16:11:22Z</time>
            </trkpt>
            <trkpt lat="42.756720" lon="-71.771670">
                <time>2026-05-05T16:11:23Z</time>
            </trkpt>
            <trkpt lat="42.756800" lon="-71.771680">
                <time>2026-05-05T16:11:24Z</time>
            </trkpt>
            <trkpt lat="42.756870" lon="-71.771710">
                <time>2026-05-05T16:11:25Z</time>
            </trkpt>
            <trkpt lat="42.756930" lon="-71.771740">
                <time>2026-05-05T16:11:26Z</time>
            </trkpt>
            <trkpt lat="42.756990" lon="-71.771780">
                <time>2026-05-05T16:11:27Z</time>
            </trkpt>
            <trkpt lat="42.757050" lon="-71.771830">
                <time>2026-05-05T16:11:28Z</time>
            </trkpt>
            <trkpt lat="42.757100" lon="-71.771890">
                <time>2026-05-05T16:11:29Z</time>
            </trkpt>
            <trkpt lat="42.757140" lon="-71.771950">
                <time>2026-05-05T16:11:30Z</time>
            </trkpt>
            <trkpt lat="42.757190" lon="-71.772000">
                <time>2026-05-05T16:11:31Z</time>
            </trkpt>
            <trkpt lat="42.757240" lon="-71.772060">
                <time>2026-05-05T16:11:32Z</time>
            </trkpt>
            <trkpt lat="42.757290" lon="-71.772120">
                <time>2026-05-05T16:11:33Z</time>
            </trkpt>
            <trkpt lat="42.757340" lon="-71.772180">
                <time>2026-05-05T16:11:34Z</time>
            </trkpt>
            <trkpt lat="42.757380" lon="-71.772250">
                <time>2026-05-05T16:11:35Z</time>
            </trkpt>
            <trkpt lat="42.757420" lon="-71.772320">
                <time>2026-05-05T16:11:36Z</time>
            </trkpt>
            <trkpt lat="42.757460" lon="-71.772400">
                <time>2026-05-05T16:11:37Z</time>
            </trkpt>
            <trkpt lat="42.757510" lon="-71.772470">
                <time>2026-05-05T16:11:38Z</time>
            </trkpt>
            <trkpt lat="42.757570" lon="-71.772530">
                <time>2026-05-05T16:11:39Z</time>
            </trkpt>
            <trkpt lat="42.757620" lon="-71.772580">
                <time>2026-05-05T16:11:40Z</time>
            </trkpt>
            <trkpt lat="42.757700" lon="-71.772640">
                <time>2026-05-05T16:11:41Z</time>
            </trkpt>
            <trkpt lat="42.757760" lon="-71.772710">
                <time>2026-05-05T16:11:42Z</time>
            </trkpt>
            <trkpt lat="42.757840" lon="-71.772760">
                <time>2026-05-05T16:11:43Z</time>
            </trkpt>
            <trkpt lat="42.757940" lon="-71.772790">
                <time>2026-05-05T16:11:44Z</time>
            </trkpt>
            <trkpt lat="42.758030" lon="-71.772830">
                <time>2026-05-05T16:11:45Z</time>
            </trkpt>
            <trkpt lat="42.758110" lon="-71.772880">
                <time>2026-05-05T16:11:46Z</time>
            </trkpt>
            <trkpt lat="42.758200" lon="-71.772910">
                <time>2026-05-05T16:11:47Z</time>
            </trkpt>
            <trkpt lat="42.758300" lon="-71.772940">
                <time>2026-05-05T16:11:48Z</time>
            </trkpt>
            <trkpt lat="42.758400" lon="-71.772970">
                <time>2026-05-05T16:11:49Z</time>
            </trkpt>
            <trkpt lat="42.758490" lon="-71.772990">
                <time>2026-05-05T16:11:50Z</time>
            </trkpt>
            <trkpt lat="42.758580" lon="-71.773020">
                <time>2026-05-05T16:11:51Z</time>
            </trkpt>
            <trkpt lat="42.758670" lon="-71.773050">
                <time>2026-05-05T16:11:52Z</time>
            </trkpt>
            <trkpt lat="42.758770" lon="-71.773090">
                <time>2026-05-05T16:11:53Z</time>
            </trkpt>
            <trkpt lat="42.758840" lon="-71.773130">
                <time>2026-05-05T16:11:54Z</time>
            </trkpt>
            <trkpt lat="42.758930" lon="-71.773170">
                <time>2026-05-05T16:11:55Z</time>
            </trkpt>
            <trkpt lat="42.759020" lon="-71.773230">
                <time>2026-05-05T16:11:56Z</time>
            </trkpt>
            <trkpt lat="42.759100" lon="-71.773280">
                <time>2026-05-05T16:11:57Z</time>
            </trkpt>
            <trkpt lat="42.759180" lon="-71.773330">
                <time>2026-05-05T16:11:58Z</time>
            </trkpt>
            <trkpt lat="42.759250" lon="-71.773370">
                <time>2026-05-05T16:11:59Z</time>
            </trkpt>
            <trkpt lat="42.759320" lon="-71.773410">
                <time>2026-05-05T16:12:00Z</time>
            </trkpt>
            <trkpt lat="42.759400" lon="-71.773440">
                <time>2026-05-05T16:12:01Z</time>
            </trkpt>
            <trkpt lat="42.759480" lon="-71.773460">
                <time>2026-05-05T16:12:02Z</time>
            </trkpt>
            <trkpt lat="42.759550" lon="-71.773500">
                <time>2026-05-05T16:12:03Z</time>
            </trkpt>
            <trkpt lat="42.759620" lon="-71.773520">
                <time>2026-05-05T16:12:04Z</time>
            </trkpt>
            <trkpt lat="42.759700" lon="-71.773550">
                <time>2026-05-05T16:12:05Z</time>
            </trkpt>
            <trkpt lat="42.759770" lon="-71.773590">
                <time>2026-05-05T16:12:06Z</time>
            </trkpt>
            <trkpt lat="42.759840" lon="-71.773650">
                <time>2026-05-05T16:12:07Z</time>
            </trkpt>
            <trkpt lat="42.759920" lon="-71.773700">
                <time>2026-05-05T16:12:08Z</time>
            </trkpt>
            <trkpt lat="42.759980" lon="-71.773770">
                <time>2026-05-05T16:12:09Z</time>
            </trkpt>
            <trkpt lat="42.760040" lon="-71.773820">
                <time>2026-05-05T16:12:10Z</time>
            </trkpt>
            <trkpt lat="42.760100" lon="-71.773870">
                <time>2026-05-05T16:12:11Z</time>
            </trkpt>
            <trkpt lat="42.760170" lon="-71.773930">
                <time>2026-05-05T16:12:12Z</time>
            </trkpt>
            <trkpt lat="42.760250" lon="-71.773990">
                <time>2026-05-05T16:12:13Z</time>
            </trkpt>
            <trkpt lat="42.760330" lon="-71.774060">
                <time>2026-05-05T16:12:14Z</time>
            </trkpt>
            <trkpt lat="42.760410" lon="-71.774120">
                <time>2026-05-05T16:12:15Z</time>
            </trkpt>
            <trkpt lat="42.760490" lon="-71.774190">
                <time>2026-05-05T16:12:16Z</time>
            </trkpt>
            <trkpt lat="42.760570" lon="-71.774250">
                <time>2026-05-05T16:12:17Z</time>
            </trkpt>
            <trkpt lat="42.760650" lon="-71.774290">
                <time>2026-05-05T16:12:18Z</time>
            </trkpt>
            <trkpt lat="42.760740" lon="-71.774330">
                <time>2026-05-05T16:12:19Z</time>
            </trkpt>
            <trkpt lat="42.760860" lon="-71.774310">
                <time>2026-05-05T16:12:20Z</time>
            </trkpt>
            <trkpt lat="42.760970" lon="-71.774330">
                <time>2026-05-05T16:12:21Z</time>
            </trkpt>
            <trkpt lat="42.761090" lon="-71.774330">
                <time>2026-05-05T16:12:22Z</time>
            </trkpt>
            <trkpt lat="42.761210" lon="-71.774340">
                <time>2026-05-05T16:12:23Z</time>
            </trkpt>
            <trkpt lat="42.761320" lon="-71.774340">
                <time>2026-05-05T16:12:24Z</time>
            </trkpt>
            <trkpt lat="42.761450" lon="-71.774330">
                <time>2026-05-05T16:12:25Z</time>
            </trkpt>
            <trkpt lat="42.761570" lon="-71.774340">
                <time>2026-05-05T16:12:26Z</time>
            </trkpt>
            <trkpt lat="42.761680" lon="-71.774340">
                <time>2026-05-05T16:12:27Z</time>
            </trkpt>
            <trkpt lat="42.761800" lon="-71.774340">
                <time>2026-05-05T16:12:28Z</time>
            </trkpt>
            <trkpt lat="42.761930" lon="-71.774360">
                <time>2026-05-05T16:12:29Z</time>
            </trkpt>
            <trkpt lat="42.762050" lon="-71.774380">
                <time>2026-05-05T16:12:30Z</time>
            </trkpt>
            <trkpt lat="42.762180" lon="-71.774390">
                <time>2026-05-05T16:12:31Z</time>
            </trkpt>
            <trkpt lat="42.762310" lon="-71.774400">
                <time>2026-05-05T16:12:32Z</time>
            </trkpt>
            <trkpt lat="42.762450" lon="-71.774410">
                <time>2026-05-05T16:12:33Z</time>
            </trkpt>
            <trkpt lat="42.762580" lon="-71.774400">
                <time>2026-05-05T16:12:34Z</time>
            </trkpt>
            <trkpt lat="42.762710" lon="-71.774410">
                <time>2026-05-05T16:12:35Z</time>
            </trkpt>
            <trkpt lat="42.762840" lon="-71.774410">
                <time>2026-05-05T16:12:36Z</time>
            </trkpt>
            <trkpt lat="42.762960" lon="-71.774400">
                <time>2026-05-05T16:12:37Z</time>
            </trkpt>
            <trkpt lat="42.763080" lon="-71.774390">
                <time>2026-05-05T16:12:38Z</time>
            </trkpt>
            <trkpt lat="42.763190" lon="-71.774390">
                <time>2026-05-05T16:12:39Z</time>
            </trkpt>
            <trkpt lat="42.763300" lon="-71.774390">
                <time>2026-05-05T16:12:40Z</time>
            </trkpt>
            <trkpt lat="42.763410" lon="-71.774410">
                <time>2026-05-05T16:12:41Z</time>
            </trkpt>
            <trkpt lat="42.763530" lon="-71.774430">
                <time>2026-05-05T16:12:42Z</time>
            </trkpt>
            <trkpt lat="42.763650" lon="-71.774460">
                <time>2026-05-05T16:12:43Z</time>
            </trkpt>
            <trkpt lat="42.763780" lon="-71.774500">
                <time>2026-05-05T16:12:44Z</time>
            </trkpt>
            <trkpt lat="42.763920" lon="-71.774530">
                <time>2026-05-05T16:12:45Z</time>
            </trkpt>
            <trkpt lat="42.764060" lon="-71.774570">
                <time>2026-05-05T16:12:46Z</time>
            </trkpt>
            <trkpt lat="42.764210" lon="-71.774600">
                <time>2026-05-05T16:12:47Z</time>
            </trkpt>
            <trkpt lat="42.764360" lon="-71.774630">
                <time>2026-05-05T16:12:48Z</time>
            </trkpt>
            <trkpt lat="42.764510" lon="-71.774670">
                <time>2026-05-05T16:12:49Z</time>
            </trkpt>
            <trkpt lat="42.764670" lon="-71.774700">
                <time>2026-05-05T16:12:50Z</time>
            </trkpt>
            <trkpt lat="42.764820" lon="-71.774730">
                <time>2026-05-05T16:12:51Z</time>
            </trkpt>
            <trkpt lat="42.764970" lon="-71.774760">
                <time>2026-05-05T16:12:52Z</time>
            </trkpt>
            <trkpt lat="42.765120" lon="-71.774790">
                <time>2026-05-05T16:12:53Z</time>
            </trkpt>
            <trkpt lat="42.765270" lon="-71.774840">
                <time>2026-05-05T16:12:54Z</time>
            </trkpt>
            <trkpt lat="42.765420" lon="-71.774870">
                <time>2026-05-05T16:12:55Z</time>
            </trkpt>
            <trkpt lat="42.765570" lon="-71.774910">
                <time>2026-05-05T16:12:56Z</time>
            </trkpt>
            <trkpt lat="42.765710" lon="-71.774950">
                <time>2026-05-05T16:12:57Z</time>
            </trkpt>
            <trkpt lat="42.765860" lon="-71.775000">
                <time>2026-05-05T16:12:58Z</time>
            </trkpt>
            <trkpt lat="42.766010" lon="-71.775050">
                <time>2026-05-05T16:12:59Z</time>
            </trkpt>
            <trkpt lat="42.766170" lon="-71.775110">
                <time>2026-05-05T16:13:00Z</time>
            </trkpt>
            <trkpt lat="42.766320" lon="-71.775170">
                <time>2026-05-05T16:13:01Z</time>
            </trkpt>
            <trkpt lat="42.766470" lon="-71.775230">
                <time>2026-05-05T16:13:02Z</time>
            </trkpt>
            <trkpt lat="42.766620" lon="-71.775290">
                <time>2026-05-05T16:13:03Z</time>
            </trkpt>
            <trkpt lat="42.766780" lon="-71.775360">
                <time>2026-05-05T16:13:04Z</time>
            </trkpt>
            <trkpt lat="42.766940" lon="-71.775420">
                <time>2026-05-05T16:13:05Z</time>
            </trkpt>
            <trkpt lat="42.767100" lon="-71.775480">
                <time>2026-05-05T16:13:06Z</time>
            </trkpt>
            <trkpt lat="42.767260" lon="-71.775540">
                <time>2026-05-05T16:13:07Z</time>
            </trkpt>
            <trkpt lat="42.767410" lon="-71.775600">
                <time>2026-05-05T16:13:08Z</time>
            </trkpt>
            <trkpt lat="42.767570" lon="-71.775650">
                <time>2026-05-05T16:13:09Z</time>
            </trkpt>
            <trkpt lat="42.767730" lon="-71.775700">
                <time>2026-05-05T16:13:10Z</time>
            </trkpt>
            <trkpt lat="42.767890" lon="-71.775750">
                <time>2026-05-05T16:13:11Z</time>
            </trkpt>
            <trkpt lat="42.768040" lon="-71.775800">
                <time>2026-05-05T16:13:12Z</time>
            </trkpt>
            <trkpt lat="42.768190" lon="-71.775860">
                <time>2026-05-05T16:13:13Z</time>
            </trkpt>
            <trkpt lat="42.768340" lon="-71.775900">
                <time>2026-05-05T16:13:14Z</time>
            </trkpt>
            <trkpt lat="42.768490" lon="-71.775960">
                <time>2026-05-05T16:13:15Z</time>
            </trkpt>
            <trkpt lat="42.768640" lon="-71.776010">
                <time>2026-05-05T16:13:16Z</time>
            </trkpt>
            <trkpt lat="42.768790" lon="-71.776060">
                <time>2026-05-05T16:13:17Z</time>
            </trkpt>
            <trkpt lat="42.768940" lon="-71.776110">
                <time>2026-05-05T16:13:18Z</time>
            </trkpt>
            <trkpt lat="42.769090" lon="-71.776150">
                <time>2026-05-05T16:13:19Z</time>
            </trkpt>
            <trkpt lat="42.769230" lon="-71.776190">
                <time>2026-05-05T16:13:20Z</time>
            </trkpt>
            <trkpt lat="42.769360" lon="-71.776230">
                <time>2026-05-05T16:13:21Z</time>
            </trkpt>
            <trkpt lat="42.769490" lon="-71.776260">
                <time>2026-05-05T16:13:22Z</time>
            </trkpt>
            <trkpt lat="42.769620" lon="-71.776280">
                <time>2026-05-05T16:13:23Z</time>
            </trkpt>
            <trkpt lat="42.769760" lon="-71.776290">
                <time>2026-05-05T16:13:24Z</time>
            </trkpt>
            <trkpt lat="42.769900" lon="-71.776300">
                <time>2026-05-05T16:13:25Z</time>
            </trkpt>
            <trkpt lat="42.770040" lon="-71.776310">
                <time>2026-05-05T16:13:26Z</time>
            </trkpt>
            <trkpt lat="42.770180" lon="-71.776320">
                <time>2026-05-05T16:13:27Z</time>
            </trkpt>
            <trkpt lat="42.770320" lon="-71.776340">
                <time>2026-05-05T16:13:28Z</time>
            </trkpt>
            <trkpt lat="42.770460" lon="-71.776350">
                <time>2026-05-05T16:13:29Z</time>
            </trkpt>
            <trkpt lat="42.770590" lon="-71.776370">
                <time>2026-05-05T16:13:30Z</time>
            </trkpt>
            <trkpt lat="42.770720" lon="-71.776380">
                <time>2026-05-05T16:13:31Z</time>
            </trkpt>
            <trkpt lat="42.770810" lon="-71.776420">
                <time>2026-05-05T16:13:32Z</time>
            </trkpt>
            <trkpt lat="42.770900" lon="-71.776490">
                <time>2026-05-05T16:13:33Z</time>
            </trkpt>
            <trkpt lat="42.770970" lon="-71.776590">
                <time>2026-05-05T16:13:34Z</time>
            </trkpt>
            <trkpt lat="42.771010" lon="-71.776720">
                <time>2026-05-05T16:13:35Z</time>
            </trkpt>
            <trkpt lat="42.771010" lon="-71.776850">
                <time>2026-05-05T16:13:36Z</time>
            </trkpt>
            <trkpt lat="42.771000" lon="-71.777000">
                <time>2026-05-05T16:13:37Z</time>
            </trkpt>
            <trkpt lat="42.770980" lon="-71.777160">
                <time>2026-05-05T16:13:38Z</time>
            </trkpt>
            <trkpt lat="42.770960" lon="-71.777340">
                <time>2026-05-05T16:13:39Z</time>
            </trkpt>
            <trkpt lat="42.770940" lon="-71.777510">
                <time>2026-05-05T16:13:40Z</time>
            </trkpt>
            <trkpt lat="42.770910" lon="-71.777680">
                <time>2026-05-05T16:13:41Z</time>
            </trkpt>
            <trkpt lat="42.770890" lon="-71.777850">
                <time>2026-05-05T16:13:42Z</time>
            </trkpt>
            <trkpt lat="42.770870" lon="-71.778030">
                <time>2026-05-05T16:13:43Z</time>
            </trkpt>
            <trkpt lat="42.770850" lon="-71.778210">
                <time>2026-05-05T16:13:44Z</time>
            </trkpt>
            <trkpt lat="42.770830" lon="-71.778400">
                <time>2026-05-05T16:13:45Z</time>
            </trkpt>
            <trkpt lat="42.770810" lon="-71.778580">
                <time>2026-05-05T16:13:46Z</time>
            </trkpt>
            <trkpt lat="42.770800" lon="-71.778760">
                <time>2026-05-05T16:13:47Z</time>
            </trkpt>
            <trkpt lat="42.770790" lon="-71.778950">
                <time>2026-05-05T16:13:48Z</time>
            </trkpt>
            <trkpt lat="42.770780" lon="-71.779130">
                <time>2026-05-05T16:13:49Z</time>
            </trkpt>
            <trkpt lat="42.770760" lon="-71.779330">
                <time>2026-05-05T16:13:50Z</time>
            </trkpt>
            <trkpt lat="42.770750" lon="-71.779530">
                <time>2026-05-05T16:13:51Z</time>
            </trkpt>
            <trkpt lat="42.770740" lon="-71.779730">
                <time>2026-05-05T16:13:52Z</time>
            </trkpt>
            <trkpt lat="42.770740" lon="-71.779930">
                <time>2026-05-05T16:13:53Z</time>
            </trkpt>
            <trkpt lat="42.770720" lon="-71.780130">
                <time>2026-05-05T16:13:54Z</time>
            </trkpt>
            <trkpt lat="42.770720" lon="-71.780340">
                <time>2026-05-05T16:13:55Z</time>
            </trkpt>
            <trkpt lat="42.770710" lon="-71.780540">
                <time>2026-05-05T16:13:56Z</time>
            </trkpt>
            <trkpt lat="42.770690" lon="-71.780750">
                <time>2026-05-05T16:13:57Z</time>
            </trkpt>
            <trkpt lat="42.770670" lon="-71.780950">
                <time>2026-05-05T16:13:58Z</time>
            </trkpt>
            <trkpt lat="42.770660" lon="-71.781140">
                <time>2026-05-05T16:13:59Z</time>
            </trkpt>
            <trkpt lat="42.770660" lon="-71.781320">
                <time>2026-05-05T16:14:00Z</time>
            </trkpt>
            <trkpt lat="42.770660" lon="-71.781490">
                <time>2026-05-05T16:14:01Z</time>
            </trkpt>
            <trkpt lat="42.770670" lon="-71.781670">
                <time>2026-05-05T16:14:02Z</time>
            </trkpt>
            <trkpt lat="42.770690" lon="-71.781860">
                <time>2026-05-05T16:14:03Z</time>
            </trkpt>
            <trkpt lat="42.770720" lon="-71.782050">
                <time>2026-05-05T16:14:04Z</time>
            </trkpt>
            <trkpt lat="42.770750" lon="-71.782240">
                <time>2026-05-05T16:14:05Z</time>
            </trkpt>
            <trkpt lat="42.770780" lon="-71.782440">
                <time>2026-05-05T16:14:06Z</time>
            </trkpt>
            <trkpt lat="42.770820" lon="-71.782640">
                <time>2026-05-05T16:14:07Z</time>
            </trkpt>
            <trkpt lat="42.770850" lon="-71.782830">
                <time>2026-05-05T16:14:08Z</time>
            </trkpt>
            <trkpt lat="42.770890" lon="-71.783010">
                <time>2026-05-05T16:14:09Z</time>
            </trkpt>
            <trkpt lat="42.770920" lon="-71.783200">
                <time>2026-05-05T16:14:10Z</time>
            </trkpt>
            <trkpt lat="42.770940" lon="-71.783390">
                <time>2026-05-05T16:14:11Z</time>
            </trkpt>
            <trkpt lat="42.770930" lon="-71.783580">
                <time>2026-05-05T16:14:12Z</time>
            </trkpt>
            <trkpt lat="42.770910" lon="-71.783760">
                <time>2026-05-05T16:14:13Z</time>
            </trkpt>
            <trkpt lat="42.770880" lon="-71.783950">
                <time>2026-05-05T16:14:14Z</time>
            </trkpt>
            <trkpt lat="42.770840" lon="-71.784120">
                <time>2026-05-05T16:14:15Z</time>
            </trkpt>
            <trkpt lat="42.770800" lon="-71.784300">
                <time>2026-05-05T16:14:16Z</time>
            </trkpt>
            <trkpt lat="42.770760" lon="-71.784470">
                <time>2026-05-05T16:14:17Z</time>
            </trkpt>
            <trkpt lat="42.770720" lon="-71.784640">
                <time>2026-05-05T16:14:18Z</time>
            </trkpt>
            <trkpt lat="42.770680" lon="-71.784810">
                <time>2026-05-05T16:14:19Z</time>
            </trkpt>
            <trkpt lat="42.770650" lon="-71.784970">
                <time>2026-05-05T16:14:20Z</time>
            </trkpt>
            <trkpt lat="42.770640" lon="-71.785140">
                <time>2026-05-05T16:14:21Z</time>
            </trkpt>
            <trkpt lat="42.770640" lon="-71.785320">
                <time>2026-05-05T16:14:22Z</time>
            </trkpt>
            <trkpt lat="42.770690" lon="-71.785470">
                <time>2026-05-05T16:14:23Z</time>
            </trkpt>
            <trkpt lat="42.770750" lon="-71.785620">
                <time>2026-05-05T16:14:24Z</time>
            </trkpt>
            <trkpt lat="42.770860" lon="-71.785750">
                <time>2026-05-05T16:14:25Z</time>
            </trkpt>
            <trkpt lat="42.770970" lon="-71.785870">
                <time>2026-05-05T16:14:26Z</time>
            </trkpt>
            <trkpt lat="42.771080" lon="-71.785990">
                <time>2026-05-05T16:14:27Z</time>
            </trkpt>
            <trkpt lat="42.771170" lon="-71.786120">
                <time>2026-05-05T16:14:28Z</time>
            </trkpt>
            <trkpt lat="42.771270" lon="-71.786240">
                <time>2026-05-05T16:14:29Z</time>
            </trkpt>
            <trkpt lat="42.771330" lon="-71.786400">
                <time>2026-05-05T16:14:30Z</time>
            </trkpt>
            <trkpt lat="42.771340" lon="-71.786580">
                <time>2026-05-05T16:14:31Z</time>
            </trkpt>
            <trkpt lat="42.771350" lon="-71.786760">
                <time>2026-05-05T16:14:32Z</time>
            </trkpt>
            <trkpt lat="42.771320" lon="-71.786940">
                <time>2026-05-05T16:14:33Z</time>
            </trkpt>
            <trkpt lat="42.771310" lon="-71.787120">
                <time>2026-05-05T16:14:34Z</time>
            </trkpt>
            <trkpt lat="42.771300" lon="-71.787310">
                <time>2026-05-05T16:14:35Z</time>
            </trkpt>
            <trkpt lat="42.771300" lon="-71.787490">
                <time>2026-05-05T16:14:36Z</time>
            </trkpt>
            <trkpt lat="42.771290" lon="-71.787680">
                <time>2026-05-05T16:14:37Z</time>
            </trkpt>
            <trkpt lat="42.771280" lon="-71.787860">
                <time>2026-05-05T16:14:38Z</time>
            </trkpt>
            <trkpt lat="42.771280" lon="-71.788040">
                <time>2026-05-05T16:14:39Z</time>
            </trkpt>
            <trkpt lat="42.771280" lon="-71.788220">
                <time>2026-05-05T16:14:40Z</time>
            </trkpt>
            <trkpt lat="42.771280" lon="-71.788390">
                <time>2026-05-05T16:14:41Z</time>
            </trkpt>
            <trkpt lat="42.771270" lon="-71.788560">
                <time>2026-05-05T16:14:42Z</time>
            </trkpt>
            <trkpt lat="42.771270" lon="-71.788730">
                <time>2026-05-05T16:14:43Z</time>
            </trkpt>
            <trkpt lat="42.771260" lon="-71.788920">
                <time>2026-05-05T16:14:44Z</time>
            </trkpt>
            <trkpt lat="42.771260" lon="-71.789100">
                <time>2026-05-05T16:14:45Z</time>
            </trkpt>
            <trkpt lat="42.771260" lon="-71.789290">
                <time>2026-05-05T16:14:46Z</time>
            </trkpt>
            <trkpt lat="42.771260" lon="-71.789460">
                <time>2026-05-05T16:14:47Z</time>
            </trkpt>
            <trkpt lat="42.771260" lon="-71.789640">
                <time>2026-05-05T16:14:48Z</time>
            </trkpt>
            <trkpt lat="42.771260" lon="-71.789820">
                <time>2026-05-05T16:14:49Z</time>
            </trkpt>
            <trkpt lat="42.771270" lon="-71.789960">
                <time>2026-05-05T16:14:50Z</time>
            </trkpt>
            <trkpt lat="42.771280" lon="-71.790060">
                <time>2026-05-05T16:14:51Z</time>
            </trkpt>
            <trkpt lat="42.771280" lon="-71.790130">
                <time>2026-05-05T16:14:52Z</time>
            </trkpt>
            <trkpt lat="42.771280" lon="-71.790170">
                <time>2026-05-05T16:14:53Z</time>
            </trkpt>
            <trkpt lat="42.771280" lon="-71.790180">
                <time>2026-05-05T16:14:54Z</time>
            </trkpt>
            <trkpt lat="42.771280" lon="-71.790210">
                <time>2026-05-05T16:14:55Z</time>
            </trkpt>
            <trkpt lat="42.771280" lon="-71.790280">
                <time>2026-05-05T16:14:56Z</time>
            </trkpt>
            <trkpt lat="42.771250" lon="-71.790370">
                <time>2026-05-05T16:14:57Z</time>
            </trkpt>
            <trkpt lat="42.771200" lon="-71.790470">
                <time>2026-05-05T16:14:58Z</time>
            </trkpt>
            <trkpt lat="42.771150" lon="-71.790560">
                <time>2026-05-05T16:14:59Z</time>
            </trkpt>
            <trkpt lat="42.771100" lon="-71.790660">
                <time>2026-05-05T16:15:00Z</time>
            </trkpt>
            <trkpt lat="42.771030" lon="-71.790780">
                <time>2026-05-05T16:15:01Z</time>
            </trkpt>
            <trkpt lat="42.770970" lon="-71.790920">
                <time>2026-05-05T16:15:02Z</time>
            </trkpt>
            <trkpt lat="42.770900" lon="-71.791050">
                <time>2026-05-05T16:15:03Z</time>
            </trkpt>
            <trkpt lat="42.770840" lon="-71.791180">
                <time>2026-05-05T16:15:04Z</time>
            </trkpt>
            <trkpt lat="42.770770" lon="-71.791330">
                <time>2026-05-05T16:15:05Z</time>
            </trkpt>
            <trkpt lat="42.770700" lon="-71.791470">
                <time>2026-05-05T16:15:06Z</time>
            </trkpt>
            <trkpt lat="42.770620" lon="-71.791630">
                <time>2026-05-05T16:15:07Z</time>
            </trkpt>
            <trkpt lat="42.770550" lon="-71.791780">
                <time>2026-05-05T16:15:08Z</time>
            </trkpt>
            <trkpt lat="42.770460" lon="-71.791930">
                <time>2026-05-05T16:15:09Z</time>
            </trkpt>
            <trkpt lat="42.770390" lon="-71.792070">
                <time>2026-05-05T16:15:10Z</time>
            </trkpt>
            <trkpt lat="42.770300" lon="-71.792210">
                <time>2026-05-05T16:15:11Z</time>
            </trkpt>
            <trkpt lat="42.770200" lon="-71.792350">
                <time>2026-05-05T16:15:12Z</time>
            </trkpt>
            <trkpt lat="42.770090" lon="-71.792470">
                <time>2026-05-05T16:15:13Z</time>
            </trkpt>
            <trkpt lat="42.769990" lon="-71.792580">
                <time>2026-05-05T16:15:14Z</time>
            </trkpt>
            <trkpt lat="42.769900" lon="-71.792690">
                <time>2026-05-05T16:15:15Z</time>
            </trkpt>
            <trkpt lat="42.769810" lon="-71.792810">
                <time>2026-05-05T16:15:16Z</time>
            </trkpt>
            <trkpt lat="42.769720" lon="-71.792930">
                <time>2026-05-05T16:15:17Z</time>
            </trkpt>
            <trkpt lat="42.769630" lon="-71.793060">
                <time>2026-05-05T16:15:18Z</time>
            </trkpt>
            <trkpt lat="42.769540" lon="-71.793190">
                <time>2026-05-05T16:15:19Z</time>
            </trkpt>
            <trkpt lat="42.769440" lon="-71.793330">
                <time>2026-05-05T16:15:20Z</time>
            </trkpt>
            <trkpt lat="42.769350" lon="-71.793460">
                <time>2026-05-05T16:15:21Z</time>
            </trkpt>
            <trkpt lat="42.769250" lon="-71.793590">
                <time>2026-05-05T16:15:22Z</time>
            </trkpt>
            <trkpt lat="42.769160" lon="-71.793710">
                <time>2026-05-05T16:15:23Z</time>
            </trkpt>
            <trkpt lat="42.769050" lon="-71.793820">
                <time>2026-05-05T16:15:24Z</time>
            </trkpt>
            <trkpt lat="42.768950" lon="-71.793920">
                <time>2026-05-05T16:15:25Z</time>
            </trkpt>
            <trkpt lat="42.768850" lon="-71.794030">
                <time>2026-05-05T16:15:26Z</time>
            </trkpt>
            <trkpt lat="42.768750" lon="-71.794140">
                <time>2026-05-05T16:15:27Z</time>
            </trkpt>
            <trkpt lat="42.768660" lon="-71.794270">
                <time>2026-05-05T16:15:28Z</time>
            </trkpt>
            <trkpt lat="42.768580" lon="-71.794420">
                <time>2026-05-05T16:15:29Z</time>
            </trkpt>
            <trkpt lat="42.768510" lon="-71.794580">
                <time>2026-05-05T16:15:30Z</time>
            </trkpt>
            <trkpt lat="42.768450" lon="-71.794740">
                <time>2026-05-05T16:15:31Z</time>
            </trkpt>
            <trkpt lat="42.768380" lon="-71.794920">
                <time>2026-05-05T16:15:32Z</time>
            </trkpt>
            <trkpt lat="42.768320" lon="-71.795090">
                <time>2026-05-05T16:15:33Z</time>
            </trkpt>
            <trkpt lat="42.768260" lon="-71.795270">
                <time>2026-05-05T16:15:34Z</time>
            </trkpt>
            <trkpt lat="42.768190" lon="-71.795460">
                <time>2026-05-05T16:15:35Z</time>
            </trkpt>
            <trkpt lat="42.768120" lon="-71.795640">
                <time>2026-05-05T16:15:36Z</time>
            </trkpt>
            <trkpt lat="42.768050" lon="-71.795820">
                <time>2026-05-05T16:15:37Z</time>
            </trkpt>
            <trkpt lat="42.767980" lon="-71.796020">
                <time>2026-05-05T16:15:38Z</time>
            </trkpt>
            <trkpt lat="42.767900" lon="-71.796210">
                <time>2026-05-05T16:15:39Z</time>
            </trkpt>
            <trkpt lat="42.767830" lon="-71.796410">
                <time>2026-05-05T16:15:40Z</time>
            </trkpt>
            <trkpt lat="42.767750" lon="-71.796610">
                <time>2026-05-05T16:15:41Z</time>
            </trkpt>
            <trkpt lat="42.767680" lon="-71.796800">
                <time>2026-05-05T16:15:42Z</time>
            </trkpt>
            <trkpt lat="42.767610" lon="-71.797000">
                <time>2026-05-05T16:15:43Z</time>
            </trkpt>
            <trkpt lat="42.767540" lon="-71.797190">
                <time>2026-05-05T16:15:44Z</time>
            </trkpt>
            <trkpt lat="42.767480" lon="-71.797370">
                <time>2026-05-05T16:15:45Z</time>
            </trkpt>
            <trkpt lat="42.767410" lon="-71.797550">
                <time>2026-05-05T16:15:46Z</time>
            </trkpt>
            <trkpt lat="42.767350" lon="-71.797730">
                <time>2026-05-05T16:15:47Z</time>
            </trkpt>
            <trkpt lat="42.767290" lon="-71.797890">
                <time>2026-05-05T16:15:48Z</time>
            </trkpt>
            <trkpt lat="42.767250" lon="-71.798050">
                <time>2026-05-05T16:15:49Z</time>
            </trkpt>
            <trkpt lat="42.767220" lon="-71.798220">
                <time>2026-05-05T16:15:50Z</time>
            </trkpt>
            <trkpt lat="42.767210" lon="-71.798410">
                <time>2026-05-05T16:15:51Z</time>
            </trkpt>
            <trkpt lat="42.767220" lon="-71.798590">
                <time>2026-05-05T16:15:52Z</time>
            </trkpt>
            <trkpt lat="42.767240" lon="-71.798770">
                <time>2026-05-05T16:15:53Z</time>
            </trkpt>
            <trkpt lat="42.767270" lon="-71.798950">
                <time>2026-05-05T16:15:54Z</time>
            </trkpt>
            <trkpt lat="42.767310" lon="-71.799140">
                <time>2026-05-05T16:15:55Z</time>
            </trkpt>
            <trkpt lat="42.767360" lon="-71.799320">
                <time>2026-05-05T16:15:56Z</time>
            </trkpt>
            <trkpt lat="42.767410" lon="-71.799500">
                <time>2026-05-05T16:15:57Z</time>
            </trkpt>
            <trkpt lat="42.767450" lon="-71.799690">
                <time>2026-05-05T16:15:58Z</time>
            </trkpt>
            <trkpt lat="42.767500" lon="-71.799870">
                <time>2026-05-05T16:15:59Z</time>
            </trkpt>
            <trkpt lat="42.767560" lon="-71.800050">
                <time>2026-05-05T16:16:00Z</time>
            </trkpt>
            <trkpt lat="42.767620" lon="-71.800220">
                <time>2026-05-05T16:16:01Z</time>
            </trkpt>
            <trkpt lat="42.767690" lon="-71.800400">
                <time>2026-05-05T16:16:02Z</time>
            </trkpt>
            <trkpt lat="42.767760" lon="-71.800570">
                <time>2026-05-05T16:16:03Z</time>
            </trkpt>
            <trkpt lat="42.767830" lon="-71.800740">
                <time>2026-05-05T16:16:04Z</time>
            </trkpt>
            <trkpt lat="42.767890" lon="-71.800920">
                <time>2026-05-05T16:16:05Z</time>
            </trkpt>
            <trkpt lat="42.767950" lon="-71.801100">
                <time>2026-05-05T16:16:06Z</time>
            </trkpt>
            <trkpt lat="42.768000" lon="-71.801280">
                <time>2026-05-05T16:16:07Z</time>
            </trkpt>
            <trkpt lat="42.768050" lon="-71.801460">
                <time>2026-05-05T16:16:08Z</time>
            </trkpt>
            <trkpt lat="42.768100" lon="-71.801640">
                <time>2026-05-05T16:16:09Z</time>
            </trkpt>
            <trkpt lat="42.768150" lon="-71.801820">
                <time>2026-05-05T16:16:10Z</time>
            </trkpt>
            <trkpt lat="42.768190" lon="-71.802000">
                <time>2026-05-05T16:16:11Z</time>
            </trkpt>
            <trkpt lat="42.768230" lon="-71.802180">
                <time>2026-05-05T16:16:12Z</time>
            </trkpt>
            <trkpt lat="42.768270" lon="-71.802370">
                <time>2026-05-05T16:16:13Z</time>
            </trkpt>
            <trkpt lat="42.768300" lon="-71.802560">
                <time>2026-05-05T16:16:14Z</time>
            </trkpt>
            <trkpt lat="42.768360" lon="-71.802740">
                <time>2026-05-05T16:16:15Z</time>
            </trkpt>
            <trkpt lat="42.768390" lon="-71.802910">
                <time>2026-05-05T16:16:16Z</time>
            </trkpt>
            <trkpt lat="42.768440" lon="-71.803080">
                <time>2026-05-05T16:16:17Z</time>
            </trkpt>
            <trkpt lat="42.768490" lon="-71.803240">
                <time>2026-05-05T16:16:18Z</time>
            </trkpt>
            <trkpt lat="42.768530" lon="-71.803390">
                <time>2026-05-05T16:16:19Z</time>
            </trkpt>
            <trkpt lat="42.768550" lon="-71.803550">
                <time>2026-05-05T16:16:20Z</time>
            </trkpt>
            <trkpt lat="42.768570" lon="-71.803710">
                <time>2026-05-05T16:16:21Z</time>
            </trkpt>
            <trkpt lat="42.768570" lon="-71.803850">
                <time>2026-05-05T16:16:22Z</time>
            </trkpt>
            <trkpt lat="42.768560" lon="-71.804000">
                <time>2026-05-05T16:16:23Z</time>
            </trkpt>
            <trkpt lat="42.768560" lon="-71.804120">
                <time>2026-05-05T16:16:24Z</time>
            </trkpt>
            <trkpt lat="42.768550" lon="-71.804220">
                <time>2026-05-05T16:16:25Z</time>
            </trkpt>
            <trkpt lat="42.768550" lon="-71.804270">
                <time>2026-05-05T16:16:26Z</time>
            </trkpt>
            <trkpt lat="42.768550" lon="-71.804300">
                <time>2026-05-05T16:16:27Z</time>
            </trkpt>
            <trkpt lat="42.768540" lon="-71.804320">
                <time>2026-05-05T16:16:28Z</time>
            </trkpt>
            <trkpt lat="42.768540" lon="-71.804380">
                <time>2026-05-05T16:16:29Z</time>
            </trkpt>
            <trkpt lat="42.768530" lon="-71.804460">
                <time>2026-05-05T16:16:30Z</time>
            </trkpt>
            <trkpt lat="42.768520" lon="-71.804560">
                <time>2026-05-05T16:16:31Z</time>
            </trkpt>
            <trkpt lat="42.768510" lon="-71.804660">
                <time>2026-05-05T16:16:32Z</time>
            </trkpt>
            <trkpt lat="42.768510" lon="-71.804780">
                <time>2026-05-05T16:16:33Z</time>
            </trkpt>
            <trkpt lat="42.768490" lon="-71.804900">
                <time>2026-05-05T16:16:34Z</time>
            </trkpt>
            <trkpt lat="42.768480" lon="-71.805030">
                <time>2026-05-05T16:16:35Z</time>
            </trkpt>
            <trkpt lat="42.768470" lon="-71.805150">
                <time>2026-05-05T16:16:36Z</time>
            </trkpt>
            <trkpt lat="42.768460" lon="-71.805270">
                <time>2026-05-05T16:16:37Z</time>
            </trkpt>
            <trkpt lat="42.768450" lon="-71.805390">
                <time>2026-05-05T16:16:38Z</time>
            </trkpt>
            <trkpt lat="42.768450" lon="-71.805510">
                <time>2026-05-05T16:16:39Z</time>
            </trkpt>
            <trkpt lat="42.768440" lon="-71.805620">
                <time>2026-05-05T16:16:40Z</time>
            </trkpt>
            <trkpt lat="42.768440" lon="-71.805720">
                <time>2026-05-05T16:16:41Z</time>
            </trkpt>
            <trkpt lat="42.768440" lon="-71.805800">
                <time>2026-05-05T16:16:42Z</time>
            </trkpt>
            <trkpt lat="42.768430" lon="-71.805860">
                <time>2026-05-05T16:16:43Z</time>
            </trkpt>
            <trkpt lat="42.768410" lon="-71.805900">
                <time>2026-05-05T16:16:44Z</time>
            </trkpt>
            <trkpt lat="42.768370" lon="-71.805930">
                <time>2026-05-05T16:16:45Z</time>
            </trkpt>
            <trkpt lat="42.768320" lon="-71.805960">
                <time>2026-05-05T16:16:46Z</time>
            </trkpt>
            <trkpt lat="42.768250" lon="-71.806010">
                <time>2026-05-05T16:16:47Z</time>
            </trkpt>
            <trkpt lat="42.768190" lon="-71.806060">
                <time>2026-05-05T16:16:48Z</time>
            </trkpt>
            <trkpt lat="42.768120" lon="-71.806110">
                <time>2026-05-05T16:16:49Z</time>
            </trkpt>
            <trkpt lat="42.768060" lon="-71.806180">
                <time>2026-05-05T16:16:50Z</time>
            </trkpt>
            <trkpt lat="42.768010" lon="-71.806250">
                <time>2026-05-05T16:16:51Z</time>
            </trkpt>
            <trkpt lat="42.767950" lon="-71.806330">
                <time>2026-05-05T16:16:52Z</time>
            </trkpt>
            <trkpt lat="42.767890" lon="-71.806410">
                <time>2026-05-05T16:16:53Z</time>
            </trkpt>
            <trkpt lat="42.767840" lon="-71.806490">
                <time>2026-05-05T16:16:54Z</time>
            </trkpt>
            <trkpt lat="42.767780" lon="-71.806570">
                <time>2026-05-05T16:16:55Z</time>
            </trkpt>
            <trkpt lat="42.767730" lon="-71.806640">
                <time>2026-05-05T16:16:56Z</time>
            </trkpt>
            <trkpt lat="42.767680" lon="-71.806720">
                <time>2026-05-05T16:16:57Z</time>
            </trkpt>
            <trkpt lat="42.767640" lon="-71.806800">
                <time>2026-05-05T16:16:58Z</time>
            </trkpt>
            <trkpt lat="42.767590" lon="-71.806900">
                <time>2026-05-05T16:16:59Z</time>
            </trkpt>
            <trkpt lat="42.767550" lon="-71.807000">
                <time>2026-05-05T16:17:00Z</time>
            </trkpt>
            <trkpt lat="42.767500" lon="-71.807100">
                <time>2026-05-05T16:17:01Z</time>
            </trkpt>
            <trkpt lat="42.767460" lon="-71.807210">
                <time>2026-05-05T16:17:02Z</time>
            </trkpt>
            <trkpt lat="42.767430" lon="-71.807320">
                <time>2026-05-05T16:17:03Z</time>
            </trkpt>
            <trkpt lat="42.767400" lon="-71.807450">
                <time>2026-05-05T16:17:04Z</time>
            </trkpt>
            <trkpt lat="42.767370" lon="-71.807580">
                <time>2026-05-05T16:17:05Z</time>
            </trkpt>
            <trkpt lat="42.767340" lon="-71.807710">
                <time>2026-05-05T16:17:06Z</time>
            </trkpt>
            <trkpt lat="42.767330" lon="-71.807840">
                <time>2026-05-05T16:17:07Z</time>
            </trkpt>
            <trkpt lat="42.767310" lon="-71.807960">
                <time>2026-05-05T16:17:08Z</time>
            </trkpt>
            <trkpt lat="42.767280" lon="-71.808060">
                <time>2026-05-05T16:17:09Z</time>
            </trkpt>
            <trkpt lat="42.767230" lon="-71.808140">
                <time>2026-05-05T16:17:10Z</time>
            </trkpt>
            <trkpt lat="42.767150" lon="-71.808200">
                <time>2026-05-05T16:17:11Z</time>
            </trkpt>
            <trkpt lat="42.767070" lon="-71.808240">
                <time>2026-05-05T16:17:12Z</time>
            </trkpt>
            <trkpt lat="42.766970" lon="-71.808280">
                <time>2026-05-05T16:17:13Z</time>
            </trkpt>
            <trkpt lat="42.766880" lon="-71.808320">
                <time>2026-05-05T16:17:14Z</time>
            </trkpt>
            <trkpt lat="42.766800" lon="-71.808380">
                <time>2026-05-05T16:17:15Z</time>
            </trkpt>
            <trkpt lat="42.766720" lon="-71.808450">
                <time>2026-05-05T16:17:16Z</time>
            </trkpt>
            <trkpt lat="42.766670" lon="-71.808540">
                <time>2026-05-05T16:17:17Z</time>
            </trkpt>
            <trkpt lat="42.766620" lon="-71.808650">
                <time>2026-05-05T16:17:18Z</time>
            </trkpt>
            <trkpt lat="42.766580" lon="-71.808770">
                <time>2026-05-05T16:17:19Z</time>
            </trkpt>
            <trkpt lat="42.766550" lon="-71.808890">
                <time>2026-05-05T16:17:20Z</time>
            </trkpt>
            <trkpt lat="42.766510" lon="-71.809020">
                <time>2026-05-05T16:17:21Z</time>
            </trkpt>
            <trkpt lat="42.766480" lon="-71.809150">
                <time>2026-05-05T16:17:22Z</time>
            </trkpt>
            <trkpt lat="42.766450" lon="-71.809270">
                <time>2026-05-05T16:17:23Z</time>
            </trkpt>
            <trkpt lat="42.766420" lon="-71.809400">
                <time>2026-05-05T16:17:24Z</time>
            </trkpt>
            <trkpt lat="42.766390" lon="-71.809530">
                <time>2026-05-05T16:17:25Z</time>
            </trkpt>
            <trkpt lat="42.766370" lon="-71.809630">
                <time>2026-05-05T16:17:26Z</time>
            </trkpt>
            <trkpt lat="42.766350" lon="-71.809720">
                <time>2026-05-05T16:17:27Z</time>
            </trkpt>
            <trkpt lat="42.766330" lon="-71.809790">
                <time>2026-05-05T16:17:28Z</time>
            </trkpt>
            <trkpt lat="42.766320" lon="-71.809850">
                <time>2026-05-05T16:17:29Z</time>
            </trkpt>
            <trkpt lat="42.766320" lon="-71.809870">
                <time>2026-05-05T16:17:30Z</time>
            </trkpt>
            <trkpt lat="42.766310" lon="-71.809880">
                <time>2026-05-05T16:17:31Z</time>
            </trkpt>
            <trkpt lat="42.766310" lon="-71.809910">
                <time>2026-05-05T16:17:32Z</time>
            </trkpt>
            <trkpt lat="42.766310" lon="-71.809970">
                <time>2026-05-05T16:17:33Z</time>
            </trkpt>
            <trkpt lat="42.766310" lon="-71.810050">
                <time>2026-05-05T16:17:34Z</time>
            </trkpt>
            <trkpt lat="42.766320" lon="-71.810140">
                <time>2026-05-05T16:17:35Z</time>
            </trkpt>
            <trkpt lat="42.766330" lon="-71.810230">
                <time>2026-05-05T16:17:36Z</time>
            </trkpt>
            <trkpt lat="42.766330" lon="-71.810330">
                <time>2026-05-05T16:17:37Z</time>
            </trkpt>
            <trkpt lat="42.766330" lon="-71.810430">
                <time>2026-05-05T16:17:38Z</time>
            </trkpt>
            <trkpt lat="42.766330" lon="-71.810550">
                <time>2026-05-05T16:17:39Z</time>
            </trkpt>
            <trkpt lat="42.766340" lon="-71.810670">
                <time>2026-05-05T16:17:40Z</time>
            </trkpt>
            <trkpt lat="42.766350" lon="-71.810800">
                <time>2026-05-05T16:17:41Z</time>
            </trkpt>
            <trkpt lat="42.766370" lon="-71.810920">
                <time>2026-05-05T16:17:42Z</time>
            </trkpt>
            <trkpt lat="42.766380" lon="-71.811030">
                <time>2026-05-05T16:17:43Z</time>
            </trkpt>
            <trkpt lat="42.766400" lon="-71.811140">
                <time>2026-05-05T16:17:44Z</time>
            </trkpt>
            <trkpt lat="42.766430" lon="-71.811240">
                <time>2026-05-05T16:17:45Z</time>
            </trkpt>
            <trkpt lat="42.766470" lon="-71.811330">
                <time>2026-05-05T16:17:46Z</time>
            </trkpt>
            <trkpt lat="42.766510" lon="-71.811410">
                <time>2026-05-05T16:17:47Z</time>
            </trkpt>
            <trkpt lat="42.766560" lon="-71.811490">
                <time>2026-05-05T16:17:48Z</time>
            </trkpt>
            <trkpt lat="42.766610" lon="-71.811560">
                <time>2026-05-05T16:17:49Z</time>
            </trkpt>
            <trkpt lat="42.766670" lon="-71.811610">
                <time>2026-05-05T16:17:50Z</time>
            </trkpt>
            <trkpt lat="42.766710" lon="-71.811640">
                <time>2026-05-05T16:17:51Z</time>
            </trkpt>
            <trkpt lat="42.766750" lon="-71.811680">
                <time>2026-05-05T16:17:52Z</time>
            </trkpt>
            <trkpt lat="42.766780" lon="-71.811730">
                <time>2026-05-05T16:17:53Z</time>
            </trkpt>
            <trkpt lat="42.766790" lon="-71.811800">
                <time>2026-05-05T16:17:54Z</time>
            </trkpt>
            <trkpt lat="42.766770" lon="-71.811860">
                <time>2026-05-05T16:17:55Z</time>
            </trkpt>
            <trkpt lat="42.766740" lon="-71.811930">
                <time>2026-05-05T16:17:56Z</time>
            </trkpt>
            <trkpt lat="42.766690" lon="-71.812000">
                <time>2026-05-05T16:17:57Z</time>
            </trkpt>
            <trkpt lat="42.766630" lon="-71.812080">
                <time>2026-05-05T16:17:58Z</time>
            </trkpt>
            <trkpt lat="42.766560" lon="-71.812170">
                <time>2026-05-05T16:17:59Z</time>
            </trkpt>
            <trkpt lat="42.766490" lon="-71.812270">
                <time>2026-05-05T16:18:00Z</time>
            </trkpt>
            <trkpt lat="42.766430" lon="-71.812370">
                <time>2026-05-05T16:18:01Z</time>
            </trkpt>
            <trkpt lat="42.766360" lon="-71.812480">
                <time>2026-05-05T16:18:02Z</time>
            </trkpt>
            <trkpt lat="42.766290" lon="-71.812590">
                <time>2026-05-05T16:18:03Z</time>
            </trkpt>
            <trkpt lat="42.766230" lon="-71.812700">
                <time>2026-05-05T16:18:04Z</time>
            </trkpt>
            <trkpt lat="42.766170" lon="-71.812810">
                <time>2026-05-05T16:18:05Z</time>
            </trkpt>
            <trkpt lat="42.766110" lon="-71.812940">
                <time>2026-05-05T16:18:06Z</time>
            </trkpt>
            <trkpt lat="42.766050" lon="-71.813080">
                <time>2026-05-05T16:18:07Z</time>
            </trkpt>
            <trkpt lat="42.766010" lon="-71.813230">
                <time>2026-05-05T16:18:08Z</time>
            </trkpt>
            <trkpt lat="42.765980" lon="-71.813390">
                <time>2026-05-05T16:18:09Z</time>
            </trkpt>
            <trkpt lat="42.765970" lon="-71.813550">
                <time>2026-05-05T16:18:10Z</time>
            </trkpt>
            <trkpt lat="42.765990" lon="-71.813700">
                <time>2026-05-05T16:18:11Z</time>
            </trkpt>
            <trkpt lat="42.766030" lon="-71.813850">
                <time>2026-05-05T16:18:12Z</time>
            </trkpt>
            <trkpt lat="42.766080" lon="-71.814000">
                <time>2026-05-05T16:18:13Z</time>
            </trkpt>
            <trkpt lat="42.766120" lon="-71.814150">
                <time>2026-05-05T16:18:14Z</time>
            </trkpt>
            <trkpt lat="42.766160" lon="-71.814300">
                <time>2026-05-05T16:18:15Z</time>
            </trkpt>
            <trkpt lat="42.766210" lon="-71.814450">
                <time>2026-05-05T16:18:16Z</time>
            </trkpt>
            <trkpt lat="42.766250" lon="-71.814600">
                <time>2026-05-05T16:18:17Z</time>
            </trkpt>
            <trkpt lat="42.766300" lon="-71.814760">
                <time>2026-05-05T16:18:18Z</time>
            </trkpt>
            <trkpt lat="42.766330" lon="-71.814930">
                <time>2026-05-05T16:18:19Z</time>
            </trkpt>
            <trkpt lat="42.766360" lon="-71.815100">
                <time>2026-05-05T16:18:20Z</time>
            </trkpt>
            <trkpt lat="42.766380" lon="-71.815270">
                <time>2026-05-05T16:18:21Z</time>
            </trkpt>
            <trkpt lat="42.766390" lon="-71.815450">
                <time>2026-05-05T16:18:22Z</time>
            </trkpt>
            <trkpt lat="42.766390" lon="-71.815640">
                <time>2026-05-05T16:18:23Z</time>
            </trkpt>
            <trkpt lat="42.766360" lon="-71.815830">
                <time>2026-05-05T16:18:24Z</time>
            </trkpt>
            <trkpt lat="42.766330" lon="-71.816020">
                <time>2026-05-05T16:18:25Z</time>
            </trkpt>
            <trkpt lat="42.766280" lon="-71.816220">
                <time>2026-05-05T16:18:26Z</time>
            </trkpt>
            <trkpt lat="42.766230" lon="-71.816430">
                <time>2026-05-05T16:18:27Z</time>
            </trkpt>
            <trkpt lat="42.766180" lon="-71.816620">
                <time>2026-05-05T16:18:28Z</time>
            </trkpt>
            <trkpt lat="42.766120" lon="-71.816810">
                <time>2026-05-05T16:18:29Z</time>
            </trkpt>
            <trkpt lat="42.766060" lon="-71.817000">
                <time>2026-05-05T16:18:30Z</time>
            </trkpt>
            <trkpt lat="42.766000" lon="-71.817200">
                <time>2026-05-05T16:18:31Z</time>
            </trkpt>
            <trkpt lat="42.765930" lon="-71.817410">
                <time>2026-05-05T16:18:32Z</time>
            </trkpt>
            <trkpt lat="42.765880" lon="-71.817600">
                <time>2026-05-05T16:18:33Z</time>
            </trkpt>
            <trkpt lat="42.765830" lon="-71.817800">
                <time>2026-05-05T16:18:34Z</time>
            </trkpt>
            <trkpt lat="42.765780" lon="-71.818010">
                <time>2026-05-05T16:18:35Z</time>
            </trkpt>
            <trkpt lat="42.765750" lon="-71.818230">
                <time>2026-05-05T16:18:36Z</time>
            </trkpt>
            <trkpt lat="42.765730" lon="-71.818450">
                <time>2026-05-05T16:18:37Z</time>
            </trkpt>
            <trkpt lat="42.765710" lon="-71.818660">
                <time>2026-05-05T16:18:38Z</time>
            </trkpt>
            <trkpt lat="42.765690" lon="-71.818870">
                <time>2026-05-05T16:18:39Z</time>
            </trkpt>
            <trkpt lat="42.765670" lon="-71.819080">
                <time>2026-05-05T16:18:40Z</time>
            </trkpt>
            <trkpt lat="42.765650" lon="-71.819300">
                <time>2026-05-05T16:18:41Z</time>
            </trkpt>
            <trkpt lat="42.765620" lon="-71.819510">
                <time>2026-05-05T16:18:42Z</time>
            </trkpt>
            <trkpt lat="42.765570" lon="-71.819730">
                <time>2026-05-05T16:18:43Z</time>
            </trkpt>
            <trkpt lat="42.765500" lon="-71.819940">
                <time>2026-05-05T16:18:44Z</time>
            </trkpt>
            <trkpt lat="42.765410" lon="-71.820150">
                <time>2026-05-05T16:18:45Z</time>
            </trkpt>
            <trkpt lat="42.765310" lon="-71.820350">
                <time>2026-05-05T16:18:46Z</time>
            </trkpt>
            <trkpt lat="42.765200" lon="-71.820530">
                <time>2026-05-05T16:18:47Z</time>
            </trkpt>
            <trkpt lat="42.765090" lon="-71.820720">
                <time>2026-05-05T16:18:48Z</time>
            </trkpt>
            <trkpt lat="42.764980" lon="-71.820900">
                <time>2026-05-05T16:18:49Z</time>
            </trkpt>
            <trkpt lat="42.764860" lon="-71.821090">
                <time>2026-05-05T16:18:50Z</time>
            </trkpt>
            <trkpt lat="42.764740" lon="-71.821270">
                <time>2026-05-05T16:18:51Z</time>
            </trkpt>
            <trkpt lat="42.764610" lon="-71.821420">
                <time>2026-05-05T16:18:52Z</time>
            </trkpt>
            <trkpt lat="42.764460" lon="-71.821560">
                <time>2026-05-05T16:18:53Z</time>
            </trkpt>
            <trkpt lat="42.764290" lon="-71.821680">
                <time>2026-05-05T16:18:54Z</time>
            </trkpt>
            <trkpt lat="42.764130" lon="-71.821780">
                <time>2026-05-05T16:18:55Z</time>
            </trkpt>
            <trkpt lat="42.763960" lon="-71.821890">
                <time>2026-05-05T16:18:56Z</time>
            </trkpt>
            <trkpt lat="42.763780" lon="-71.822010">
                <time>2026-05-05T16:18:57Z</time>
            </trkpt>
            <trkpt lat="42.763620" lon="-71.822120">
                <time>2026-05-05T16:18:58Z</time>
            </trkpt>
            <trkpt lat="42.763450" lon="-71.822230">
                <time>2026-05-05T16:18:59Z</time>
            </trkpt>
            <trkpt lat="42.763280" lon="-71.822340">
                <time>2026-05-05T16:19:00Z</time>
            </trkpt>
            <trkpt lat="42.763110" lon="-71.822430">
                <time>2026-05-05T16:19:01Z</time>
            </trkpt>
            <trkpt lat="42.762940" lon="-71.822500">
                <time>2026-05-05T16:19:02Z</time>
            </trkpt>
            <trkpt lat="42.762750" lon="-71.822550">
                <time>2026-05-05T16:19:03Z</time>
            </trkpt>
            <trkpt lat="42.762570" lon="-71.822590">
                <time>2026-05-05T16:19:04Z</time>
            </trkpt>
            <trkpt lat="42.762380" lon="-71.822620">
                <time>2026-05-05T16:19:05Z</time>
            </trkpt>
            <trkpt lat="42.762200" lon="-71.822640">
                <time>2026-05-05T16:19:06Z</time>
            </trkpt>
            <trkpt lat="42.762020" lon="-71.822670">
                <time>2026-05-05T16:19:07Z</time>
            </trkpt>
            <trkpt lat="42.761840" lon="-71.822690">
                <time>2026-05-05T16:19:08Z</time>
            </trkpt>
            <trkpt lat="42.761670" lon="-71.822720">
                <time>2026-05-05T16:19:09Z</time>
            </trkpt>
            <trkpt lat="42.761500" lon="-71.822760">
                <time>2026-05-05T16:19:10Z</time>
            </trkpt>
            <trkpt lat="42.761330" lon="-71.822800">
                <time>2026-05-05T16:19:11Z</time>
            </trkpt>
            <trkpt lat="42.761150" lon="-71.822860">
                <time>2026-05-05T16:19:12Z</time>
            </trkpt>
            <trkpt lat="42.760980" lon="-71.822920">
                <time>2026-05-05T16:19:13Z</time>
            </trkpt>
            <trkpt lat="42.760810" lon="-71.822990">
                <time>2026-05-05T16:19:14Z</time>
            </trkpt>
            <trkpt lat="42.760640" lon="-71.823080">
                <time>2026-05-05T16:19:15Z</time>
            </trkpt>
            <trkpt lat="42.760470" lon="-71.823150">
                <time>2026-05-05T16:19:16Z</time>
            </trkpt>
            <trkpt lat="42.760310" lon="-71.823250">
                <time>2026-05-05T16:19:17Z</time>
            </trkpt>
            <trkpt lat="42.760140" lon="-71.823350">
                <time>2026-05-05T16:19:18Z</time>
            </trkpt>
            <trkpt lat="42.759980" lon="-71.823450">
                <time>2026-05-05T16:19:19Z</time>
            </trkpt>
            <trkpt lat="42.759820" lon="-71.823560">
                <time>2026-05-05T16:19:20Z</time>
            </trkpt>
            <trkpt lat="42.759660" lon="-71.823670">
                <time>2026-05-05T16:19:21Z</time>
            </trkpt>
            <trkpt lat="42.759510" lon="-71.823790">
                <time>2026-05-05T16:19:22Z</time>
            </trkpt>
            <trkpt lat="42.759360" lon="-71.823920">
                <time>2026-05-05T16:19:23Z</time>
            </trkpt>
            <trkpt lat="42.759210" lon="-71.824030">
                <time>2026-05-05T16:19:24Z</time>
            </trkpt>
            <trkpt lat="42.759060" lon="-71.824150">
                <time>2026-05-05T16:19:25Z</time>
            </trkpt>
            <trkpt lat="42.758900" lon="-71.824250">
                <time>2026-05-05T16:19:26Z</time>
            </trkpt>
            <trkpt lat="42.758720" lon="-71.824320">
                <time>2026-05-05T16:19:27Z</time>
            </trkpt>
            <trkpt lat="42.758550" lon="-71.824380">
                <time>2026-05-05T16:19:28Z</time>
            </trkpt>
            <trkpt lat="42.758370" lon="-71.824430">
                <time>2026-05-05T16:19:29Z</time>
            </trkpt>
            <trkpt lat="42.758190" lon="-71.824480">
                <time>2026-05-05T16:19:30Z</time>
            </trkpt>
            <trkpt lat="42.758010" lon="-71.824520">
                <time>2026-05-05T16:19:31Z</time>
            </trkpt>
            <trkpt lat="42.757820" lon="-71.824560">
                <time>2026-05-05T16:19:32Z</time>
            </trkpt>
            <trkpt lat="42.757630" lon="-71.824610">
                <time>2026-05-05T16:19:33Z</time>
            </trkpt>
            <trkpt lat="42.757440" lon="-71.824660">
                <time>2026-05-05T16:19:34Z</time>
            </trkpt>
            <trkpt lat="42.757250" lon="-71.824710">
                <time>2026-05-05T16:19:35Z</time>
            </trkpt>
            <trkpt lat="42.757060" lon="-71.824750">
                <time>2026-05-05T16:19:36Z</time>
            </trkpt>
            <trkpt lat="42.756880" lon="-71.824810">
                <time>2026-05-05T16:19:37Z</time>
            </trkpt>
            <trkpt lat="42.756690" lon="-71.824850">
                <time>2026-05-05T16:19:38Z</time>
            </trkpt>
            <trkpt lat="42.756510" lon="-71.824900">
                <time>2026-05-05T16:19:39Z</time>
            </trkpt>
            <trkpt lat="42.756330" lon="-71.824950">
                <time>2026-05-05T16:19:40Z</time>
            </trkpt>
            <trkpt lat="42.756150" lon="-71.825000">
                <time>2026-05-05T16:19:41Z</time>
            </trkpt>
            <trkpt lat="42.755980" lon="-71.825060">
                <time>2026-05-05T16:19:42Z</time>
            </trkpt>
            <trkpt lat="42.755790" lon="-71.825130">
                <time>2026-05-05T16:19:43Z</time>
            </trkpt>
            <trkpt lat="42.755610" lon="-71.825220">
                <time>2026-05-05T16:19:44Z</time>
            </trkpt>
            <trkpt lat="42.755420" lon="-71.825290">
                <time>2026-05-05T16:19:45Z</time>
            </trkpt>
            <trkpt lat="42.755240" lon="-71.825380">
                <time>2026-05-05T16:19:46Z</time>
            </trkpt>
            <trkpt lat="42.755060" lon="-71.825460">
                <time>2026-05-05T16:19:47Z</time>
            </trkpt>
            <trkpt lat="42.754890" lon="-71.825530">
                <time>2026-05-05T16:19:48Z</time>
            </trkpt>
            <trkpt lat="42.754710" lon="-71.825620">
                <time>2026-05-05T16:19:49Z</time>
            </trkpt>
            <trkpt lat="42.754540" lon="-71.825700">
                <time>2026-05-05T16:19:50Z</time>
            </trkpt>
            <trkpt lat="42.754360" lon="-71.825780">
                <time>2026-05-05T16:19:51Z</time>
            </trkpt>
            <trkpt lat="42.754180" lon="-71.825850">
                <time>2026-05-05T16:19:52Z</time>
            </trkpt>
            <trkpt lat="42.754010" lon="-71.825930">
                <time>2026-05-05T16:19:53Z</time>
            </trkpt>
            <trkpt lat="42.753830" lon="-71.826010">
                <time>2026-05-05T16:19:54Z</time>
            </trkpt>
            <trkpt lat="42.753670" lon="-71.826080">
                <time>2026-05-05T16:19:55Z</time>
            </trkpt>
            <trkpt lat="42.753500" lon="-71.826150">
                <time>2026-05-05T16:19:56Z</time>
            </trkpt>
            <trkpt lat="42.753340" lon="-71.826210">
                <time>2026-05-05T16:19:57Z</time>
            </trkpt>
            <trkpt lat="42.753180" lon="-71.826290">
                <time>2026-05-05T16:19:58Z</time>
            </trkpt>
            <trkpt lat="42.753020" lon="-71.826360">
                <time>2026-05-05T16:19:59Z</time>
            </trkpt>
            <trkpt lat="42.752860" lon="-71.826440">
                <time>2026-05-05T16:20:00Z</time>
            </trkpt>
            <trkpt lat="42.752700" lon="-71.826510">
                <time>2026-05-05T16:20:01Z</time>
            </trkpt>
            <trkpt lat="42.752550" lon="-71.826580">
                <time>2026-05-05T16:20:02Z</time>
            </trkpt>
            <trkpt lat="42.752390" lon="-71.826650">
                <time>2026-05-05T16:20:03Z</time>
            </trkpt>
            <trkpt lat="42.752250" lon="-71.826720">
                <time>2026-05-05T16:20:04Z</time>
            </trkpt>
            <trkpt lat="42.752110" lon="-71.826770">
                <time>2026-05-05T16:20:05Z</time>
            </trkpt>
            <trkpt lat="42.751960" lon="-71.826810">
                <time>2026-05-05T16:20:06Z</time>
            </trkpt>
            <trkpt lat="42.751810" lon="-71.826820">
                <time>2026-05-05T16:20:07Z</time>
            </trkpt>
            <trkpt lat="42.751670" lon="-71.826830">
                <time>2026-05-05T16:20:08Z</time>
            </trkpt>
            <trkpt lat="42.751520" lon="-71.826830">
                <time>2026-05-05T16:20:09Z</time>
            </trkpt>
            <trkpt lat="42.751370" lon="-71.826840">
                <time>2026-05-05T16:20:10Z</time>
            </trkpt>
            <trkpt lat="42.751230" lon="-71.826860">
                <time>2026-05-05T16:20:11Z</time>
            </trkpt>
            <trkpt lat="42.751090" lon="-71.826880">
                <time>2026-05-05T16:20:12Z</time>
            </trkpt>
            <trkpt lat="42.750960" lon="-71.826910">
                <time>2026-05-05T16:20:13Z</time>
            </trkpt>
            <trkpt lat="42.750840" lon="-71.826950">
                <time>2026-05-05T16:20:14Z</time>
            </trkpt>
            <trkpt lat="42.750720" lon="-71.827010">
                <time>2026-05-05T16:20:15Z</time>
            </trkpt>
            <trkpt lat="42.750630" lon="-71.827090">
                <time>2026-05-05T16:20:16Z</time>
            </trkpt>
            <trkpt lat="42.750530" lon="-71.827170">
                <time>2026-05-05T16:20:17Z</time>
            </trkpt>
            <trkpt lat="42.750450" lon="-71.827240">
                <time>2026-05-05T16:20:18Z</time>
            </trkpt>
            <trkpt lat="42.750370" lon="-71.827310">
                <time>2026-05-05T16:20:19Z</time>
            </trkpt>
            <trkpt lat="42.750310" lon="-71.827370">
                <time>2026-05-05T16:20:20Z</time>
            </trkpt>
            <trkpt lat="42.750260" lon="-71.827420">
                <time>2026-05-05T16:20:21Z</time>
            </trkpt>
            <trkpt lat="42.750220" lon="-71.827470">
                <time>2026-05-05T16:20:22Z</time>
            </trkpt>
            <trkpt lat="42.750210" lon="-71.827490">
                <time>2026-05-05T16:20:23Z</time>
            </trkpt>
            <trkpt lat="42.750210" lon="-71.827500">
                <time>2026-05-05T16:20:24Z</time>
            </trkpt>
            <trkpt lat="42.750200" lon="-71.827530">
                <time>2026-05-05T16:20:25Z</time>
            </trkpt>
            <trkpt lat="42.750190" lon="-71.827590">
                <time>2026-05-05T16:20:26Z</time>
            </trkpt>
            <trkpt lat="42.750210" lon="-71.827660">
                <time>2026-05-05T16:20:27Z</time>
            </trkpt>
            <trkpt lat="42.750240" lon="-71.827750">
                <time>2026-05-05T16:20:28Z</time>
            </trkpt>
            <trkpt lat="42.750290" lon="-71.827850">
                <time>2026-05-05T16:20:29Z</time>
            </trkpt>
            <trkpt lat="42.750330" lon="-71.827970">
                <time>2026-05-05T16:20:30Z</time>
            </trkpt>
            <trkpt lat="42.750380" lon="-71.828080">
                <time>2026-05-05T16:20:31Z</time>
            </trkpt>
            <trkpt lat="42.750430" lon="-71.828210">
                <time>2026-05-05T16:20:32Z</time>
            </trkpt>
            <trkpt lat="42.750490" lon="-71.828360">
                <time>2026-05-05T16:20:33Z</time>
            </trkpt>
            <trkpt lat="42.750560" lon="-71.828530">
                <time>2026-05-05T16:20:34Z</time>
            </trkpt>
            <trkpt lat="42.750630" lon="-71.828700">
                <time>2026-05-05T16:20:35Z</time>
            </trkpt>
            <trkpt lat="42.750710" lon="-71.828880">
                <time>2026-05-05T16:20:36Z</time>
            </trkpt>
            <trkpt lat="42.750790" lon="-71.829060">
                <time>2026-05-05T16:20:37Z</time>
            </trkpt>
            <trkpt lat="42.750900" lon="-71.829250">
                <time>2026-05-05T16:20:38Z</time>
            </trkpt>
            <trkpt lat="42.751010" lon="-71.829440">
                <time>2026-05-05T16:20:39Z</time>
            </trkpt>
            <trkpt lat="42.751140" lon="-71.829610">
                <time>2026-05-05T16:20:40Z</time>
            </trkpt>
            <trkpt lat="42.751270" lon="-71.829790">
                <time>2026-05-05T16:20:41Z</time>
            </trkpt>
            <trkpt lat="42.751400" lon="-71.829950">
                <time>2026-05-05T16:20:42Z</time>
            </trkpt>
            <trkpt lat="42.751550" lon="-71.830110">
                <time>2026-05-05T16:20:43Z</time>
            </trkpt>
            <trkpt lat="42.751700" lon="-71.830260">
                <time>2026-05-05T16:20:44Z</time>
            </trkpt>
            <trkpt lat="42.751850" lon="-71.830410">
                <time>2026-05-05T16:20:45Z</time>
            </trkpt>
            <trkpt lat="42.752000" lon="-71.830560">
                <time>2026-05-05T16:20:46Z</time>
            </trkpt>
            <trkpt lat="42.752150" lon="-71.830710">
                <time>2026-05-05T16:20:47Z</time>
            </trkpt>
            <trkpt lat="42.752310" lon="-71.830850">
                <time>2026-05-05T16:20:48Z</time>
            </trkpt>
            <trkpt lat="42.752460" lon="-71.831010">
                <time>2026-05-05T16:20:49Z</time>
            </trkpt>
            <trkpt lat="42.752610" lon="-71.831160">
                <time>2026-05-05T16:20:50Z</time>
            </trkpt>
            <trkpt lat="42.752760" lon="-71.831320">
                <time>2026-05-05T16:20:51Z</time>
            </trkpt>
            <trkpt lat="42.752920" lon="-71.831470">
                <time>2026-05-05T16:20:52Z</time>
            </trkpt>
            <trkpt lat="42.753080" lon="-71.831620">
                <time>2026-05-05T16:20:53Z</time>
            </trkpt>
            <trkpt lat="42.753230" lon="-71.831780">
                <time>2026-05-05T16:20:54Z</time>
            </trkpt>
            <trkpt lat="42.753390" lon="-71.831930">
                <time>2026-05-05T16:20:55Z</time>
            </trkpt>
            <trkpt lat="42.753540" lon="-71.832090">
                <time>2026-05-05T16:20:56Z</time>
            </trkpt>
            <trkpt lat="42.753700" lon="-71.832250">
                <time>2026-05-05T16:20:57Z</time>
            </trkpt>
            <trkpt lat="42.753850" lon="-71.832430">
                <time>2026-05-05T16:20:58Z</time>
            </trkpt>
            <trkpt lat="42.754000" lon="-71.832610">
                <time>2026-05-05T16:20:59Z</time>
            </trkpt>
            <trkpt lat="42.754150" lon="-71.832810">
                <time>2026-05-05T16:21:00Z</time>
            </trkpt>
            <trkpt lat="42.754300" lon="-71.833020">
                <time>2026-05-05T16:21:01Z</time>
            </trkpt>
            <trkpt lat="42.754440" lon="-71.833260">
                <time>2026-05-05T16:21:02Z</time>
            </trkpt>
            <trkpt lat="42.754580" lon="-71.833490">
                <time>2026-05-05T16:21:03Z</time>
            </trkpt>
            <trkpt lat="42.754710" lon="-71.833740">
                <time>2026-05-05T16:21:04Z</time>
            </trkpt>
            <trkpt lat="42.754840" lon="-71.833980">
                <time>2026-05-05T16:21:05Z</time>
            </trkpt>
            <trkpt lat="42.754960" lon="-71.834220">
                <time>2026-05-05T16:21:06Z</time>
            </trkpt>
            <trkpt lat="42.755090" lon="-71.834450">
                <time>2026-05-05T16:21:07Z</time>
            </trkpt>
            <trkpt lat="42.755210" lon="-71.834690">
                <time>2026-05-05T16:21:08Z</time>
            </trkpt>
            <trkpt lat="42.755330" lon="-71.834920">
                <time>2026-05-05T16:21:09Z</time>
            </trkpt>
            <trkpt lat="42.755450" lon="-71.835160">
                <time>2026-05-05T16:21:10Z</time>
            </trkpt>
            <trkpt lat="42.755560" lon="-71.835400">
                <time>2026-05-05T16:21:11Z</time>
            </trkpt>
            <trkpt lat="42.755670" lon="-71.835640">
                <time>2026-05-05T16:21:12Z</time>
            </trkpt>
            <trkpt lat="42.755760" lon="-71.835890">
                <time>2026-05-05T16:21:13Z</time>
            </trkpt>
            <trkpt lat="42.755840" lon="-71.836150">
                <time>2026-05-05T16:21:14Z</time>
            </trkpt>
            <trkpt lat="42.755910" lon="-71.836410">
                <time>2026-05-05T16:21:15Z</time>
            </trkpt>
            <trkpt lat="42.755960" lon="-71.836680">
                <time>2026-05-05T16:21:16Z</time>
            </trkpt>
            <trkpt lat="42.756020" lon="-71.836960">
                <time>2026-05-05T16:21:17Z</time>
            </trkpt>
            <trkpt lat="42.756060" lon="-71.837230">
                <time>2026-05-05T16:21:18Z</time>
            </trkpt>
            <trkpt lat="42.756100" lon="-71.837510">
                <time>2026-05-05T16:21:19Z</time>
            </trkpt>
            <trkpt lat="42.756150" lon="-71.837790">
                <time>2026-05-05T16:21:20Z</time>
            </trkpt>
            <trkpt lat="42.756190" lon="-71.838060">
                <time>2026-05-05T16:21:21Z</time>
            </trkpt>
            <trkpt lat="42.756230" lon="-71.838330">
                <time>2026-05-05T16:21:22Z</time>
            </trkpt>
            <trkpt lat="42.756280" lon="-71.838610">
                <time>2026-05-05T16:21:23Z</time>
            </trkpt>
            <trkpt lat="42.756320" lon="-71.838880">
                <time>2026-05-05T16:21:24Z</time>
            </trkpt>
            <trkpt lat="42.756370" lon="-71.839160">
                <time>2026-05-05T16:21:25Z</time>
            </trkpt>
            <trkpt lat="42.756410" lon="-71.839440">
                <time>2026-05-05T16:21:26Z</time>
            </trkpt>
            <trkpt lat="42.756450" lon="-71.839720">
                <time>2026-05-05T16:21:27Z</time>
            </trkpt>
            <trkpt lat="42.756500" lon="-71.839990">
                <time>2026-05-05T16:21:28Z</time>
            </trkpt>
            <trkpt lat="42.756540" lon="-71.840270">
                <time>2026-05-05T16:21:29Z</time>
            </trkpt>
            <trkpt lat="42.756580" lon="-71.840530">
                <time>2026-05-05T16:21:30Z</time>
            </trkpt>
            <trkpt lat="42.756620" lon="-71.840800">
                <time>2026-05-05T16:21:31Z</time>
            </trkpt>
            <trkpt lat="42.756670" lon="-71.841050">
                <time>2026-05-05T16:21:32Z</time>
            </trkpt>
            <trkpt lat="42.756710" lon="-71.841290">
                <time>2026-05-05T16:21:33Z</time>
            </trkpt>
            <trkpt lat="42.756740" lon="-71.841530">
                <time>2026-05-05T16:21:34Z</time>
            </trkpt>
            <trkpt lat="42.756780" lon="-71.841770">
                <time>2026-05-05T16:21:35Z</time>
            </trkpt>
            <trkpt lat="42.756820" lon="-71.841980">
                <time>2026-05-05T16:21:36Z</time>
            </trkpt>
            <trkpt lat="42.756850" lon="-71.842190">
                <time>2026-05-05T16:21:37Z</time>
            </trkpt>
            <trkpt lat="42.756880" lon="-71.842400">
                <time>2026-05-05T16:21:38Z</time>
            </trkpt>
            <trkpt lat="42.756910" lon="-71.842600">
                <time>2026-05-05T16:21:39Z</time>
            </trkpt>
            <trkpt lat="42.756940" lon="-71.842800">
                <time>2026-05-05T16:21:40Z</time>
            </trkpt>
            <trkpt lat="42.756970" lon="-71.843000">
                <time>2026-05-05T16:21:41Z</time>
            </trkpt>
            <trkpt lat="42.757000" lon="-71.843190">
                <time>2026-05-05T16:21:42Z</time>
            </trkpt>
            <trkpt lat="42.757020" lon="-71.843380">
                <time>2026-05-05T16:21:43Z</time>
            </trkpt>
            <trkpt lat="42.757050" lon="-71.843570">
                <time>2026-05-05T16:21:44Z</time>
            </trkpt>
            <trkpt lat="42.757080" lon="-71.843760">
                <time>2026-05-05T16:21:45Z</time>
            </trkpt>
            <trkpt lat="42.757120" lon="-71.843950">
                <time>2026-05-05T16:21:46Z</time>
            </trkpt>
            <trkpt lat="42.757150" lon="-71.844150">
                <time>2026-05-05T16:21:47Z</time>
            </trkpt>
            <trkpt lat="42.757190" lon="-71.844350">
                <time>2026-05-05T16:21:48Z</time>
            </trkpt>
            <trkpt lat="42.757220" lon="-71.844570">
                <time>2026-05-05T16:21:49Z</time>
            </trkpt>
            <trkpt lat="42.757250" lon="-71.844790">
                <time>2026-05-05T16:21:50Z</time>
            </trkpt>
            <trkpt lat="42.757280" lon="-71.845010">
                <time>2026-05-05T16:21:51Z</time>
            </trkpt>
            <trkpt lat="42.757310" lon="-71.845230">
                <time>2026-05-05T16:21:52Z</time>
            </trkpt>
            <trkpt lat="42.757350" lon="-71.845450">
                <time>2026-05-05T16:21:53Z</time>
            </trkpt>
            <trkpt lat="42.757380" lon="-71.845660">
                <time>2026-05-05T16:21:54Z</time>
            </trkpt>
            <trkpt lat="42.757410" lon="-71.845870">
                <time>2026-05-05T16:21:55Z</time>
            </trkpt>
            <trkpt lat="42.757450" lon="-71.846090">
                <time>2026-05-05T16:21:56Z</time>
            </trkpt>
            <trkpt lat="42.757480" lon="-71.846310">
                <time>2026-05-05T16:21:57Z</time>
            </trkpt>
            <trkpt lat="42.757510" lon="-71.846530">
                <time>2026-05-05T16:21:58Z</time>
            </trkpt>
            <trkpt lat="42.757530" lon="-71.846740">
                <time>2026-05-05T16:21:59Z</time>
            </trkpt>
            <trkpt lat="42.757560" lon="-71.846960">
                <time>2026-05-05T16:22:00Z</time>
            </trkpt>
            <trkpt lat="42.757580" lon="-71.847170">
                <time>2026-05-05T16:22:01Z</time>
            </trkpt>
            <trkpt lat="42.757610" lon="-71.847390">
                <time>2026-05-05T16:22:02Z</time>
            </trkpt>
            <trkpt lat="42.757630" lon="-71.847610">
                <time>2026-05-05T16:22:03Z</time>
            </trkpt>
            <trkpt lat="42.757650" lon="-71.847830">
                <time>2026-05-05T16:22:04Z</time>
            </trkpt>
            <trkpt lat="42.757680" lon="-71.848050">
                <time>2026-05-05T16:22:05Z</time>
            </trkpt>
            <trkpt lat="42.757700" lon="-71.848270">
                <time>2026-05-05T16:22:06Z</time>
            </trkpt>
            <trkpt lat="42.757710" lon="-71.848490">
                <time>2026-05-05T16:22:07Z</time>
            </trkpt>
            <trkpt lat="42.757740" lon="-71.848710">
                <time>2026-05-05T16:22:08Z</time>
            </trkpt>
            <trkpt lat="42.757760" lon="-71.848930">
                <time>2026-05-05T16:22:09Z</time>
            </trkpt>
            <trkpt lat="42.757780" lon="-71.849140">
                <time>2026-05-05T16:22:10Z</time>
            </trkpt>
            <trkpt lat="42.757800" lon="-71.849360">
                <time>2026-05-05T16:22:11Z</time>
            </trkpt>
            <trkpt lat="42.757830" lon="-71.849580">
                <time>2026-05-05T16:22:12Z</time>
            </trkpt>
            <trkpt lat="42.757850" lon="-71.849800">
                <time>2026-05-05T16:22:13Z</time>
            </trkpt>
            <trkpt lat="42.757870" lon="-71.850030">
                <time>2026-05-05T16:22:14Z</time>
            </trkpt>
            <trkpt lat="42.757890" lon="-71.850260">
                <time>2026-05-05T16:22:15Z</time>
            </trkpt>
            <trkpt lat="42.757910" lon="-71.850490">
                <time>2026-05-05T16:22:16Z</time>
            </trkpt>
            <trkpt lat="42.757930" lon="-71.850720">
                <time>2026-05-05T16:22:17Z</time>
            </trkpt>
            <trkpt lat="42.757950" lon="-71.850950">
                <time>2026-05-05T16:22:18Z</time>
            </trkpt>
            <trkpt lat="42.757970" lon="-71.851180">
                <time>2026-05-05T16:22:19Z</time>
            </trkpt>
            <trkpt lat="42.758000" lon="-71.851400">
                <time>2026-05-05T16:22:20Z</time>
            </trkpt>
            <trkpt lat="42.758020" lon="-71.851620">
                <time>2026-05-05T16:22:21Z</time>
            </trkpt>
            <trkpt lat="42.758040" lon="-71.851840">
                <time>2026-05-05T16:22:22Z</time>
            </trkpt>
            <trkpt lat="42.758060" lon="-71.852060">
                <time>2026-05-05T16:22:23Z</time>
            </trkpt>
            <trkpt lat="42.758090" lon="-71.852290">
                <time>2026-05-05T16:22:24Z</time>
            </trkpt>
            <trkpt lat="42.758120" lon="-71.852520">
                <time>2026-05-05T16:22:25Z</time>
            </trkpt>
            <trkpt lat="42.758140" lon="-71.852750">
                <time>2026-05-05T16:22:26Z</time>
            </trkpt>
            <trkpt lat="42.758170" lon="-71.852980">
                <time>2026-05-05T16:22:27Z</time>
            </trkpt>
            <trkpt lat="42.758190" lon="-71.853220">
                <time>2026-05-05T16:22:28Z</time>
            </trkpt>
            <trkpt lat="42.758210" lon="-71.853450">
                <time>2026-05-05T16:22:29Z</time>
            </trkpt>
            <trkpt lat="42.758240" lon="-71.853690">
                <time>2026-05-05T16:22:30Z</time>
            </trkpt>
            <trkpt lat="42.758260" lon="-71.853930">
                <time>2026-05-05T16:22:31Z</time>
            </trkpt>
            <trkpt lat="42.758280" lon="-71.854170">
                <time>2026-05-05T16:22:32Z</time>
            </trkpt>
            <trkpt lat="42.758300" lon="-71.854410">
                <time>2026-05-05T16:22:33Z</time>
            </trkpt>
            <trkpt lat="42.758320" lon="-71.854640">
                <time>2026-05-05T16:22:34Z</time>
            </trkpt>
            <trkpt lat="42.758340" lon="-71.854880">
                <time>2026-05-05T16:22:35Z</time>
            </trkpt>
            <trkpt lat="42.758360" lon="-71.855130">
                <time>2026-05-05T16:22:36Z</time>
            </trkpt>
            <trkpt lat="42.758370" lon="-71.855370">
                <time>2026-05-05T16:22:37Z</time>
            </trkpt>
            <trkpt lat="42.758400" lon="-71.855610">
                <time>2026-05-05T16:22:38Z</time>
            </trkpt>
            <trkpt lat="42.758420" lon="-71.855850">
                <time>2026-05-05T16:22:39Z</time>
            </trkpt>
            <trkpt lat="42.758440" lon="-71.856090">
                <time>2026-05-05T16:22:40Z</time>
            </trkpt>
            <trkpt lat="42.758450" lon="-71.856320">
                <time>2026-05-05T16:22:41Z</time>
            </trkpt>
            <trkpt lat="42.758470" lon="-71.856550">
                <time>2026-05-05T16:22:42Z</time>
            </trkpt>
            <trkpt lat="42.758480" lon="-71.856790">
                <time>2026-05-05T16:22:43Z</time>
            </trkpt>
            <trkpt lat="42.758500" lon="-71.857020">
                <time>2026-05-05T16:22:44Z</time>
            </trkpt>
            <trkpt lat="42.758520" lon="-71.857250">
                <time>2026-05-05T16:22:45Z</time>
            </trkpt>
            <trkpt lat="42.758540" lon="-71.857500">
                <time>2026-05-05T16:22:46Z</time>
            </trkpt>
            <trkpt lat="42.758570" lon="-71.857730">
                <time>2026-05-05T16:22:47Z</time>
            </trkpt>
            <trkpt lat="42.758610" lon="-71.857970">
                <time>2026-05-05T16:22:48Z</time>
            </trkpt>
            <trkpt lat="42.758650" lon="-71.858200">
                <time>2026-05-05T16:22:49Z</time>
            </trkpt>
            <trkpt lat="42.758680" lon="-71.858440">
                <time>2026-05-05T16:22:50Z</time>
            </trkpt>
            <trkpt lat="42.758710" lon="-71.858680">
                <time>2026-05-05T16:22:51Z</time>
            </trkpt>
            <trkpt lat="42.758750" lon="-71.858920">
                <time>2026-05-05T16:22:52Z</time>
            </trkpt>
            <trkpt lat="42.758790" lon="-71.859150">
                <time>2026-05-05T16:22:53Z</time>
            </trkpt>
            <trkpt lat="42.758830" lon="-71.859400">
                <time>2026-05-05T16:22:54Z</time>
            </trkpt>
            <trkpt lat="42.758870" lon="-71.859640">
                <time>2026-05-05T16:22:55Z</time>
            </trkpt>
            <trkpt lat="42.758910" lon="-71.859880">
                <time>2026-05-05T16:22:56Z</time>
            </trkpt>
            <trkpt lat="42.758960" lon="-71.860130">
                <time>2026-05-05T16:22:57Z</time>
            </trkpt>
            <trkpt lat="42.759000" lon="-71.860370">
                <time>2026-05-05T16:22:58Z</time>
            </trkpt>
            <trkpt lat="42.759050" lon="-71.860620">
                <time>2026-05-05T16:22:59Z</time>
            </trkpt>
            <trkpt lat="42.759090" lon="-71.860870">
                <time>2026-05-05T16:23:00Z</time>
            </trkpt>
            <trkpt lat="42.759140" lon="-71.861120">
                <time>2026-05-05T16:23:01Z</time>
            </trkpt>
            <trkpt lat="42.759190" lon="-71.861370">
                <time>2026-05-05T16:23:02Z</time>
            </trkpt>
            <trkpt lat="42.759240" lon="-71.861630">
                <time>2026-05-05T16:23:03Z</time>
            </trkpt>
            <trkpt lat="42.759290" lon="-71.861890">
                <time>2026-05-05T16:23:04Z</time>
            </trkpt>
            <trkpt lat="42.759330" lon="-71.862150">
                <time>2026-05-05T16:23:05Z</time>
            </trkpt>
            <trkpt lat="42.759380" lon="-71.862410">
                <time>2026-05-05T16:23:06Z</time>
            </trkpt>
            <trkpt lat="42.759440" lon="-71.862660">
                <time>2026-05-05T16:23:07Z</time>
            </trkpt>
            <trkpt lat="42.759480" lon="-71.862930">
                <time>2026-05-05T16:23:08Z</time>
            </trkpt>
            <trkpt lat="42.759530" lon="-71.863190">
                <time>2026-05-05T16:23:09Z</time>
            </trkpt>
            <trkpt lat="42.759580" lon="-71.863440">
                <time>2026-05-05T16:23:10Z</time>
            </trkpt>
            <trkpt lat="42.759620" lon="-71.863700">
                <time>2026-05-05T16:23:11Z</time>
            </trkpt>
            <trkpt lat="42.759670" lon="-71.863960">
                <time>2026-05-05T16:23:12Z</time>
            </trkpt>
            <trkpt lat="42.759720" lon="-71.864230">
                <time>2026-05-05T16:23:13Z</time>
            </trkpt>
            <trkpt lat="42.759760" lon="-71.864490">
                <time>2026-05-05T16:23:14Z</time>
            </trkpt>
            <trkpt lat="42.759800" lon="-71.864760">
                <time>2026-05-05T16:23:15Z</time>
            </trkpt>
            <trkpt lat="42.759840" lon="-71.865030">
                <time>2026-05-05T16:23:16Z</time>
            </trkpt>
            <trkpt lat="42.759880" lon="-71.865300">
                <time>2026-05-05T16:23:17Z</time>
            </trkpt>
            <trkpt lat="42.759910" lon="-71.865580">
                <time>2026-05-05T16:23:18Z</time>
            </trkpt>
            <trkpt lat="42.759940" lon="-71.865860">
                <time>2026-05-05T16:23:19Z</time>
            </trkpt>
            <trkpt lat="42.759970" lon="-71.866140">
                <time>2026-05-05T16:23:20Z</time>
            </trkpt>
            <trkpt lat="42.760000" lon="-71.866420">
                <time>2026-05-05T16:23:21Z</time>
            </trkpt>
            <trkpt lat="42.760020" lon="-71.866700">
                <time>2026-05-05T16:23:22Z</time>
            </trkpt>
            <trkpt lat="42.760050" lon="-71.866990">
                <time>2026-05-05T16:23:23Z</time>
            </trkpt>
            <trkpt lat="42.760070" lon="-71.867270">
                <time>2026-05-05T16:23:24Z</time>
            </trkpt>
            <trkpt lat="42.760100" lon="-71.867550">
                <time>2026-05-05T16:23:25Z</time>
            </trkpt>
            <trkpt lat="42.760120" lon="-71.867840">
                <time>2026-05-05T16:23:26Z</time>
            </trkpt>
            <trkpt lat="42.760150" lon="-71.868120">
                <time>2026-05-05T16:23:27Z</time>
            </trkpt>
            <trkpt lat="42.760170" lon="-71.868400">
                <time>2026-05-05T16:23:28Z</time>
            </trkpt>
            <trkpt lat="42.760200" lon="-71.868690">
                <time>2026-05-05T16:23:29Z</time>
            </trkpt>
            <trkpt lat="42.760230" lon="-71.868970">
                <time>2026-05-05T16:23:30Z</time>
            </trkpt>
            <trkpt lat="42.760250" lon="-71.869260">
                <time>2026-05-05T16:23:31Z</time>
            </trkpt>
            <trkpt lat="42.760280" lon="-71.869550">
                <time>2026-05-05T16:23:32Z</time>
            </trkpt>
            <trkpt lat="42.760310" lon="-71.869840">
                <time>2026-05-05T16:23:33Z</time>
            </trkpt>
            <trkpt lat="42.760330" lon="-71.870120">
                <time>2026-05-05T16:23:34Z</time>
            </trkpt>
            <trkpt lat="42.760360" lon="-71.870410">
                <time>2026-05-05T16:23:35Z</time>
            </trkpt>
            <trkpt lat="42.760380" lon="-71.870690">
                <time>2026-05-05T16:23:36Z</time>
            </trkpt>
            <trkpt lat="42.760400" lon="-71.870960">
                <time>2026-05-05T16:23:37Z</time>
            </trkpt>
            <trkpt lat="42.760430" lon="-71.871240">
                <time>2026-05-05T16:23:38Z</time>
            </trkpt>
            <trkpt lat="42.760450" lon="-71.871510">
                <time>2026-05-05T16:23:39Z</time>
            </trkpt>
            <trkpt lat="42.760470" lon="-71.871780">
                <time>2026-05-05T16:23:40Z</time>
            </trkpt>
            <trkpt lat="42.760500" lon="-71.872050">
                <time>2026-05-05T16:23:41Z</time>
            </trkpt>
            <trkpt lat="42.760520" lon="-71.872320">
                <time>2026-05-05T16:23:42Z</time>
            </trkpt>
            <trkpt lat="42.760540" lon="-71.872580">
                <time>2026-05-05T16:23:43Z</time>
            </trkpt>
            <trkpt lat="42.760570" lon="-71.872840">
                <time>2026-05-05T16:23:44Z</time>
            </trkpt>
            <trkpt lat="42.760590" lon="-71.873100">
                <time>2026-05-05T16:23:45Z</time>
            </trkpt>
            <trkpt lat="42.760610" lon="-71.873350">
                <time>2026-05-05T16:23:46Z</time>
            </trkpt>
            <trkpt lat="42.760640" lon="-71.873600">
                <time>2026-05-05T16:23:47Z</time>
            </trkpt>
            <trkpt lat="42.760660" lon="-71.873860">
                <time>2026-05-05T16:23:48Z</time>
            </trkpt>
            <trkpt lat="42.760680" lon="-71.874120">
                <time>2026-05-05T16:23:49Z</time>
            </trkpt>
            <trkpt lat="42.760700" lon="-71.874370">
                <time>2026-05-05T16:23:50Z</time>
            </trkpt>
            <trkpt lat="42.760720" lon="-71.874620">
                <time>2026-05-05T16:23:51Z</time>
            </trkpt>
            <trkpt lat="42.760740" lon="-71.874870">
                <time>2026-05-05T16:23:52Z</time>
            </trkpt>
            <trkpt lat="42.760760" lon="-71.875110">
                <time>2026-05-05T16:23:53Z</time>
            </trkpt>
            <trkpt lat="42.760790" lon="-71.875340">
                <time>2026-05-05T16:23:54Z</time>
            </trkpt>
            <trkpt lat="42.760810" lon="-71.875560">
                <time>2026-05-05T16:23:55Z</time>
            </trkpt>
            <trkpt lat="42.760830" lon="-71.875780">
                <time>2026-05-05T16:23:56Z</time>
            </trkpt>
            <trkpt lat="42.760860" lon="-71.875990">
                <time>2026-05-05T16:23:57Z</time>
            </trkpt>
            <trkpt lat="42.760880" lon="-71.876200">
                <time>2026-05-05T16:23:58Z</time>
            </trkpt>
            <trkpt lat="42.760900" lon="-71.876410">
                <time>2026-05-05T16:23:59Z</time>
            </trkpt>
            <trkpt lat="42.760930" lon="-71.876620">
                <time>2026-05-05T16:24:00Z</time>
            </trkpt>
            <trkpt lat="42.760960" lon="-71.876830">
                <time>2026-05-05T16:24:01Z</time>
            </trkpt>
            <trkpt lat="42.760990" lon="-71.877050">
                <time>2026-05-05T16:24:02Z</time>
            </trkpt>
            <trkpt lat="42.761020" lon="-71.877270">
                <time>2026-05-05T16:24:03Z</time>
            </trkpt>
            <trkpt lat="42.761060" lon="-71.877510">
                <time>2026-05-05T16:24:04Z</time>
            </trkpt>
            <trkpt lat="42.761100" lon="-71.877740">
                <time>2026-05-05T16:24:05Z</time>
            </trkpt>
            <trkpt lat="42.761140" lon="-71.877970">
                <time>2026-05-05T16:24:06Z</time>
            </trkpt>
            <trkpt lat="42.761190" lon="-71.878210">
                <time>2026-05-05T16:24:07Z</time>
            </trkpt>
            <trkpt lat="42.761230" lon="-71.878440">
                <time>2026-05-05T16:24:08Z</time>
            </trkpt>
            <trkpt lat="42.761270" lon="-71.878680">
                <time>2026-05-05T16:24:09Z</time>
            </trkpt>
            <trkpt lat="42.761320" lon="-71.878910">
                <time>2026-05-05T16:24:10Z</time>
            </trkpt>
            <trkpt lat="42.761360" lon="-71.879150">
                <time>2026-05-05T16:24:11Z</time>
            </trkpt>
            <trkpt lat="42.761410" lon="-71.879380">
                <time>2026-05-05T16:24:12Z</time>
            </trkpt>
            <trkpt lat="42.761450" lon="-71.879620">
                <time>2026-05-05T16:24:13Z</time>
            </trkpt>
            <trkpt lat="42.761490" lon="-71.879860">
                <time>2026-05-05T16:24:14Z</time>
            </trkpt>
            <trkpt lat="42.761530" lon="-71.880110">
                <time>2026-05-05T16:24:15Z</time>
            </trkpt>
            <trkpt lat="42.761580" lon="-71.880360">
                <time>2026-05-05T16:24:16Z</time>
            </trkpt>
            <trkpt lat="42.761630" lon="-71.880610">
                <time>2026-05-05T16:24:17Z</time>
            </trkpt>
            <trkpt lat="42.761670" lon="-71.880880">
                <time>2026-05-05T16:24:18Z</time>
            </trkpt>
            <trkpt lat="42.761710" lon="-71.881150">
                <time>2026-05-05T16:24:19Z</time>
            </trkpt>
            <trkpt lat="42.761760" lon="-71.881420">
                <time>2026-05-05T16:24:20Z</time>
            </trkpt>
            <trkpt lat="42.761800" lon="-71.881690">
                <time>2026-05-05T16:24:21Z</time>
            </trkpt>
            <trkpt lat="42.761840" lon="-71.881960">
                <time>2026-05-05T16:24:22Z</time>
            </trkpt>
            <trkpt lat="42.761890" lon="-71.882230">
                <time>2026-05-05T16:24:23Z</time>
            </trkpt>
            <trkpt lat="42.761940" lon="-71.882490">
                <time>2026-05-05T16:24:24Z</time>
            </trkpt>
            <trkpt lat="42.761970" lon="-71.882770">
                <time>2026-05-05T16:24:25Z</time>
            </trkpt>
            <trkpt lat="42.762010" lon="-71.883030">
                <time>2026-05-05T16:24:26Z</time>
            </trkpt>
            <trkpt lat="42.762050" lon="-71.883300">
                <time>2026-05-05T16:24:27Z</time>
            </trkpt>
            <trkpt lat="42.762100" lon="-71.883550">
                <time>2026-05-05T16:24:28Z</time>
            </trkpt>
            <trkpt lat="42.762140" lon="-71.883800">
                <time>2026-05-05T16:24:29Z</time>
            </trkpt>
            <trkpt lat="42.762180" lon="-71.884050">
                <time>2026-05-05T16:24:30Z</time>
            </trkpt>
            <trkpt lat="42.762230" lon="-71.884300">
                <time>2026-05-05T16:24:31Z</time>
            </trkpt>
            <trkpt lat="42.762280" lon="-71.884560">
                <time>2026-05-05T16:24:32Z</time>
            </trkpt>
            <trkpt lat="42.762320" lon="-71.884820">
                <time>2026-05-05T16:24:33Z</time>
            </trkpt>
            <trkpt lat="42.762370" lon="-71.885080">
                <time>2026-05-05T16:24:34Z</time>
            </trkpt>
            <trkpt lat="42.762410" lon="-71.885340">
                <time>2026-05-05T16:24:35Z</time>
            </trkpt>
            <trkpt lat="42.762440" lon="-71.885590">
                <time>2026-05-05T16:24:36Z</time>
            </trkpt>
            <trkpt lat="42.762490" lon="-71.885850">
                <time>2026-05-05T16:24:37Z</time>
            </trkpt>
            <trkpt lat="42.762530" lon="-71.886110">
                <time>2026-05-05T16:24:38Z</time>
            </trkpt>
            <trkpt lat="42.762570" lon="-71.886360">
                <time>2026-05-05T16:24:39Z</time>
            </trkpt>
            <trkpt lat="42.762610" lon="-71.886610">
                <time>2026-05-05T16:24:40Z</time>
            </trkpt>
            <trkpt lat="42.762650" lon="-71.886860">
                <time>2026-05-05T16:24:41Z</time>
            </trkpt>
            <trkpt lat="42.762690" lon="-71.887120">
                <time>2026-05-05T16:24:42Z</time>
            </trkpt>
            <trkpt lat="42.762730" lon="-71.887370">
                <time>2026-05-05T16:24:43Z</time>
            </trkpt>
            <trkpt lat="42.762760" lon="-71.887620">
                <time>2026-05-05T16:24:44Z</time>
            </trkpt>
            <trkpt lat="42.762800" lon="-71.887880">
                <time>2026-05-05T16:24:45Z</time>
            </trkpt>
            <trkpt lat="42.762830" lon="-71.888130">
                <time>2026-05-05T16:24:46Z</time>
            </trkpt>
            <trkpt lat="42.762870" lon="-71.888390">
                <time>2026-05-05T16:24:47Z</time>
            </trkpt>
            <trkpt lat="42.762900" lon="-71.888650">
                <time>2026-05-05T16:24:48Z</time>
            </trkpt>
            <trkpt lat="42.762940" lon="-71.888910">
                <time>2026-05-05T16:24:49Z</time>
            </trkpt>
            <trkpt lat="42.762980" lon="-71.889170">
                <time>2026-05-05T16:24:50Z</time>
            </trkpt>
            <trkpt lat="42.763010" lon="-71.889430">
                <time>2026-05-05T16:24:51Z</time>
            </trkpt>
            <trkpt lat="42.763050" lon="-71.889700">
                <time>2026-05-05T16:24:52Z</time>
            </trkpt>
            <trkpt lat="42.763080" lon="-71.889960">
                <time>2026-05-05T16:24:53Z</time>
            </trkpt>
            <trkpt lat="42.763120" lon="-71.890220">
                <time>2026-05-05T16:24:54Z</time>
            </trkpt>
            <trkpt lat="42.763150" lon="-71.890470">
                <time>2026-05-05T16:24:55Z</time>
            </trkpt>
            <trkpt lat="42.763190" lon="-71.890710">
                <time>2026-05-05T16:24:56Z</time>
            </trkpt>
            <trkpt lat="42.763230" lon="-71.890960">
                <time>2026-05-05T16:24:57Z</time>
            </trkpt>
            <trkpt lat="42.763280" lon="-71.891190">
                <time>2026-05-05T16:24:58Z</time>
            </trkpt>
            <trkpt lat="42.763330" lon="-71.891420">
                <time>2026-05-05T16:24:59Z</time>
            </trkpt>
            <trkpt lat="42.763400" lon="-71.891640">
                <time>2026-05-05T16:25:00Z</time>
            </trkpt>
            <trkpt lat="42.763490" lon="-71.891860">
                <time>2026-05-05T16:25:01Z</time>
            </trkpt>
            <trkpt lat="42.763590" lon="-71.892060">
                <time>2026-05-05T16:25:02Z</time>
            </trkpt>
            <trkpt lat="42.763690" lon="-71.892270">
                <time>2026-05-05T16:25:03Z</time>
            </trkpt>
            <trkpt lat="42.763820" lon="-71.892440">
                <time>2026-05-05T16:25:04Z</time>
            </trkpt>
            <trkpt lat="42.763970" lon="-71.892590">
                <time>2026-05-05T16:25:05Z</time>
            </trkpt>
            <trkpt lat="42.764120" lon="-71.892730">
                <time>2026-05-05T16:25:06Z</time>
            </trkpt>
            <trkpt lat="42.764270" lon="-71.892890">
                <time>2026-05-05T16:25:07Z</time>
            </trkpt>
            <trkpt lat="42.764420" lon="-71.893030">
                <time>2026-05-05T16:25:08Z</time>
            </trkpt>
            <trkpt lat="42.764570" lon="-71.893190">
                <time>2026-05-05T16:25:09Z</time>
            </trkpt>
            <trkpt lat="42.764720" lon="-71.893330">
                <time>2026-05-05T16:25:10Z</time>
            </trkpt>
            <trkpt lat="42.764870" lon="-71.893470">
                <time>2026-05-05T16:25:11Z</time>
            </trkpt>
            <trkpt lat="42.765010" lon="-71.893620">
                <time>2026-05-05T16:25:12Z</time>
            </trkpt>
            <trkpt lat="42.765160" lon="-71.893770">
                <time>2026-05-05T16:25:13Z</time>
            </trkpt>
            <trkpt lat="42.765310" lon="-71.893920">
                <time>2026-05-05T16:25:14Z</time>
            </trkpt>
            <trkpt lat="42.765470" lon="-71.894060">
                <time>2026-05-05T16:25:15Z</time>
            </trkpt>
            <trkpt lat="42.765620" lon="-71.894200">
                <time>2026-05-05T16:25:16Z</time>
            </trkpt>
            <trkpt lat="42.765780" lon="-71.894340">
                <time>2026-05-05T16:25:17Z</time>
            </trkpt>
            <trkpt lat="42.765950" lon="-71.894460">
                <time>2026-05-05T16:25:18Z</time>
            </trkpt>
            <trkpt lat="42.766110" lon="-71.894600">
                <time>2026-05-05T16:25:19Z</time>
            </trkpt>
            <trkpt lat="42.766280" lon="-71.894720">
                <time>2026-05-05T16:25:20Z</time>
            </trkpt>
            <trkpt lat="42.766450" lon="-71.894840">
                <time>2026-05-05T16:25:21Z</time>
            </trkpt>
            <trkpt lat="42.766620" lon="-71.894960">
                <time>2026-05-05T16:25:22Z</time>
            </trkpt>
            <trkpt lat="42.766790" lon="-71.895070">
                <time>2026-05-05T16:25:23Z</time>
            </trkpt>
            <trkpt lat="42.766970" lon="-71.895180">
                <time>2026-05-05T16:25:24Z</time>
            </trkpt>
            <trkpt lat="42.767150" lon="-71.895270">
                <time>2026-05-05T16:25:25Z</time>
            </trkpt>
            <trkpt lat="42.767330" lon="-71.895360">
                <time>2026-05-05T16:25:26Z</time>
            </trkpt>
            <trkpt lat="42.767520" lon="-71.895420">
                <time>2026-05-05T16:25:27Z</time>
            </trkpt>
            <trkpt lat="42.767710" lon="-71.895480">
                <time>2026-05-05T16:25:28Z</time>
            </trkpt>
            <trkpt lat="42.767910" lon="-71.895540">
                <time>2026-05-05T16:25:29Z</time>
            </trkpt>
            <trkpt lat="42.768090" lon="-71.895610">
                <time>2026-05-05T16:25:30Z</time>
            </trkpt>
            <trkpt lat="42.768290" lon="-71.895670">
                <time>2026-05-05T16:25:31Z</time>
            </trkpt>
            <trkpt lat="42.768490" lon="-71.895730">
                <time>2026-05-05T16:25:32Z</time>
            </trkpt>
            <trkpt lat="42.768690" lon="-71.895790">
                <time>2026-05-05T16:25:33Z</time>
            </trkpt>
            <trkpt lat="42.768880" lon="-71.895860">
                <time>2026-05-05T16:25:34Z</time>
            </trkpt>
            <trkpt lat="42.769080" lon="-71.895920">
                <time>2026-05-05T16:25:35Z</time>
            </trkpt>
            <trkpt lat="42.769260" lon="-71.895990">
                <time>2026-05-05T16:25:36Z</time>
            </trkpt>
            <trkpt lat="42.769450" lon="-71.896050">
                <time>2026-05-05T16:25:37Z</time>
            </trkpt>
            <trkpt lat="42.769630" lon="-71.896120">
                <time>2026-05-05T16:25:38Z</time>
            </trkpt>
            <trkpt lat="42.769810" lon="-71.896200">
                <time>2026-05-05T16:25:39Z</time>
            </trkpt>
            <trkpt lat="42.769980" lon="-71.896280">
                <time>2026-05-05T16:25:40Z</time>
            </trkpt>
            <trkpt lat="42.770160" lon="-71.896370">
                <time>2026-05-05T16:25:41Z</time>
            </trkpt>
            <trkpt lat="42.770330" lon="-71.896470">
                <time>2026-05-05T16:25:42Z</time>
            </trkpt>
            <trkpt lat="42.770500" lon="-71.896580">
                <time>2026-05-05T16:25:43Z</time>
            </trkpt>
            <trkpt lat="42.770670" lon="-71.896690">
                <time>2026-05-05T16:25:44Z</time>
            </trkpt>
            <trkpt lat="42.770830" lon="-71.896810">
                <time>2026-05-05T16:25:45Z</time>
            </trkpt>
            <trkpt lat="42.770990" lon="-71.896930">
                <time>2026-05-05T16:25:46Z</time>
            </trkpt>
            <trkpt lat="42.771130" lon="-71.897080">
                <time>2026-05-05T16:25:47Z</time>
            </trkpt>
            <trkpt lat="42.771270" lon="-71.897250">
                <time>2026-05-05T16:25:48Z</time>
            </trkpt>
            <trkpt lat="42.771400" lon="-71.897430">
                <time>2026-05-05T16:25:49Z</time>
            </trkpt>
            <trkpt lat="42.771520" lon="-71.897620">
                <time>2026-05-05T16:25:50Z</time>
            </trkpt>
            <trkpt lat="42.771640" lon="-71.897820">
                <time>2026-05-05T16:25:51Z</time>
            </trkpt>
            <trkpt lat="42.771760" lon="-71.898020">
                <time>2026-05-05T16:25:52Z</time>
            </trkpt>
            <trkpt lat="42.771880" lon="-71.898210">
                <time>2026-05-05T16:25:53Z</time>
            </trkpt>
            <trkpt lat="42.772000" lon="-71.898400">
                <time>2026-05-05T16:25:54Z</time>
            </trkpt>
            <trkpt lat="42.772130" lon="-71.898590">
                <time>2026-05-05T16:25:55Z</time>
            </trkpt>
            <trkpt lat="42.772270" lon="-71.898760">
                <time>2026-05-05T16:25:56Z</time>
            </trkpt>
            <trkpt lat="42.772420" lon="-71.898930">
                <time>2026-05-05T16:25:57Z</time>
            </trkpt>
            <trkpt lat="42.772580" lon="-71.899090">
                <time>2026-05-05T16:25:58Z</time>
            </trkpt>
            <trkpt lat="42.772740" lon="-71.899220">
                <time>2026-05-05T16:25:59Z</time>
            </trkpt>
            <trkpt lat="42.772900" lon="-71.899330">
                <time>2026-05-05T16:26:00Z</time>
            </trkpt>
            <trkpt lat="42.773070" lon="-71.899420">
                <time>2026-05-05T16:26:01Z</time>
            </trkpt>
            <trkpt lat="42.773240" lon="-71.899500">
                <time>2026-05-05T16:26:02Z</time>
            </trkpt>
            <trkpt lat="42.773410" lon="-71.899550">
                <time>2026-05-05T16:26:03Z</time>
            </trkpt>
            <trkpt lat="42.773610" lon="-71.899590">
                <time>2026-05-05T16:26:04Z</time>
            </trkpt>
            <trkpt lat="42.773780" lon="-71.899620">
                <time>2026-05-05T16:26:05Z</time>
            </trkpt>
            <trkpt lat="42.773960" lon="-71.899650">
                <time>2026-05-05T16:26:06Z</time>
            </trkpt>
            <trkpt lat="42.774140" lon="-71.899670">
                <time>2026-05-05T16:26:07Z</time>
            </trkpt>
            <trkpt lat="42.774320" lon="-71.899690">
                <time>2026-05-05T16:26:08Z</time>
            </trkpt>
            <trkpt lat="42.774500" lon="-71.899710">
                <time>2026-05-05T16:26:09Z</time>
            </trkpt>
            <trkpt lat="42.774690" lon="-71.899730">
                <time>2026-05-05T16:26:10Z</time>
            </trkpt>
            <trkpt lat="42.774870" lon="-71.899750">
                <time>2026-05-05T16:26:11Z</time>
            </trkpt>
            <trkpt lat="42.775050" lon="-71.899760">
                <time>2026-05-05T16:26:12Z</time>
            </trkpt>
            <trkpt lat="42.775240" lon="-71.899790">
                <time>2026-05-05T16:26:13Z</time>
            </trkpt>
            <trkpt lat="42.775430" lon="-71.899840">
                <time>2026-05-05T16:26:14Z</time>
            </trkpt>
            <trkpt lat="42.775620" lon="-71.899880">
                <time>2026-05-05T16:26:15Z</time>
            </trkpt>
            <trkpt lat="42.775830" lon="-71.899970">
                <time>2026-05-05T16:26:16Z</time>
            </trkpt>
            <trkpt lat="42.776010" lon="-71.900070">
                <time>2026-05-05T16:26:17Z</time>
            </trkpt>
            <trkpt lat="42.776220" lon="-71.900220">
                <time>2026-05-05T16:26:18Z</time>
            </trkpt>
            <trkpt lat="42.776410" lon="-71.900360">
                <time>2026-05-05T16:26:19Z</time>
            </trkpt>
            <trkpt lat="42.776590" lon="-71.900510">
                <time>2026-05-05T16:26:20Z</time>
            </trkpt>
            <trkpt lat="42.776780" lon="-71.900650">
                <time>2026-05-05T16:26:21Z</time>
            </trkpt>
            <trkpt lat="42.776960" lon="-71.900780">
                <time>2026-05-05T16:26:22Z</time>
            </trkpt>
            <trkpt lat="42.777120" lon="-71.900920">
                <time>2026-05-05T16:26:23Z</time>
            </trkpt>
            <trkpt lat="42.777310" lon="-71.901060">
                <time>2026-05-05T16:26:24Z</time>
            </trkpt>
            <trkpt lat="42.777500" lon="-71.901190">
                <time>2026-05-05T16:26:25Z</time>
            </trkpt>
            <trkpt lat="42.777680" lon="-71.901330">
                <time>2026-05-05T16:26:26Z</time>
            </trkpt>
            <trkpt lat="42.777870" lon="-71.901470">
                <time>2026-05-05T16:26:27Z</time>
            </trkpt>
            <trkpt lat="42.778050" lon="-71.901620">
                <time>2026-05-05T16:26:28Z</time>
            </trkpt>
            <trkpt lat="42.778240" lon="-71.901760">
                <time>2026-05-05T16:26:29Z</time>
            </trkpt>
            <trkpt lat="42.778410" lon="-71.901900">
                <time>2026-05-05T16:26:30Z</time>
            </trkpt>
            <trkpt lat="42.778580" lon="-71.902050">
                <time>2026-05-05T16:26:31Z</time>
            </trkpt>
            <trkpt lat="42.778750" lon="-71.902190">
                <time>2026-05-05T16:26:32Z</time>
            </trkpt>
            <trkpt lat="42.778910" lon="-71.902330">
                <time>2026-05-05T16:26:33Z</time>
            </trkpt>
            <trkpt lat="42.779050" lon="-71.902490">
                <time>2026-05-05T16:26:34Z</time>
            </trkpt>
            <trkpt lat="42.779190" lon="-71.902660">
                <time>2026-05-05T16:26:35Z</time>
            </trkpt>
            <trkpt lat="42.779340" lon="-71.902830">
                <time>2026-05-05T16:26:36Z</time>
            </trkpt>
            <trkpt lat="42.779490" lon="-71.902990">
                <time>2026-05-05T16:26:37Z</time>
            </trkpt>
            <trkpt lat="42.779620" lon="-71.903170">
                <time>2026-05-05T16:26:38Z</time>
            </trkpt>
            <trkpt lat="42.779760" lon="-71.903340">
                <time>2026-05-05T16:26:39Z</time>
            </trkpt>
            <trkpt lat="42.779900" lon="-71.903520">
                <time>2026-05-05T16:26:40Z</time>
            </trkpt>
            <trkpt lat="42.780040" lon="-71.903690">
                <time>2026-05-05T16:26:41Z</time>
            </trkpt>
            <trkpt lat="42.780170" lon="-71.903870">
                <time>2026-05-05T16:26:42Z</time>
            </trkpt>
            <trkpt lat="42.780310" lon="-71.904030">
                <time>2026-05-05T16:26:43Z</time>
            </trkpt>
            <trkpt lat="42.780440" lon="-71.904200">
                <time>2026-05-05T16:26:44Z</time>
            </trkpt>
            <trkpt lat="42.780560" lon="-71.904370">
                <time>2026-05-05T16:26:45Z</time>
            </trkpt>
            <trkpt lat="42.780670" lon="-71.904520">
                <time>2026-05-05T16:26:46Z</time>
            </trkpt>
            <trkpt lat="42.780790" lon="-71.904670">
                <time>2026-05-05T16:26:47Z</time>
            </trkpt>
            <trkpt lat="42.780890" lon="-71.904800">
                <time>2026-05-05T16:26:48Z</time>
            </trkpt>
            <trkpt lat="42.780990" lon="-71.904920">
                <time>2026-05-05T16:26:49Z</time>
            </trkpt>
            <trkpt lat="42.781120" lon="-71.905000">
                <time>2026-05-05T16:26:50Z</time>
            </trkpt>
            <trkpt lat="42.781250" lon="-71.905070">
                <time>2026-05-05T16:26:51Z</time>
            </trkpt>
            <trkpt lat="42.781380" lon="-71.905150">
                <time>2026-05-05T16:26:52Z</time>
            </trkpt>
            <trkpt lat="42.781530" lon="-71.905230">
                <time>2026-05-05T16:26:53Z</time>
            </trkpt>
            <trkpt lat="42.781680" lon="-71.905310">
                <time>2026-05-05T16:26:54Z</time>
            </trkpt>
            <trkpt lat="42.781830" lon="-71.905370">
                <time>2026-05-05T16:26:55Z</time>
            </trkpt>
            <trkpt lat="42.781980" lon="-71.905440">
                <time>2026-05-05T16:26:56Z</time>
            </trkpt>
            <trkpt lat="42.782140" lon="-71.905530">
                <time>2026-05-05T16:26:57Z</time>
            </trkpt>
            <trkpt lat="42.782320" lon="-71.905610">
                <time>2026-05-05T16:26:58Z</time>
            </trkpt>
            <trkpt lat="42.782490" lon="-71.905700">
                <time>2026-05-05T16:26:59Z</time>
            </trkpt>
            <trkpt lat="42.782670" lon="-71.905800">
                <time>2026-05-05T16:27:00Z</time>
            </trkpt>
            <trkpt lat="42.782840" lon="-71.905890">
                <time>2026-05-05T16:27:01Z</time>
            </trkpt>
            <trkpt lat="42.783020" lon="-71.905970">
                <time>2026-05-05T16:27:02Z</time>
            </trkpt>
            <trkpt lat="42.783200" lon="-71.906060">
                <time>2026-05-05T16:27:03Z</time>
            </trkpt>
            <trkpt lat="42.783380" lon="-71.906150">
                <time>2026-05-05T16:27:04Z</time>
            </trkpt>
            <trkpt lat="42.783540" lon="-71.906250">
                <time>2026-05-05T16:27:05Z</time>
            </trkpt>
            <trkpt lat="42.783710" lon="-71.906340">
                <time>2026-05-05T16:27:06Z</time>
            </trkpt>
            <trkpt lat="42.783890" lon="-71.906430">
                <time>2026-05-05T16:27:07Z</time>
            </trkpt>
            <trkpt lat="42.784050" lon="-71.906530">
                <time>2026-05-05T16:27:08Z</time>
            </trkpt>
            <trkpt lat="42.784220" lon="-71.906630">
                <time>2026-05-05T16:27:09Z</time>
            </trkpt>
            <trkpt lat="42.784390" lon="-71.906740">
                <time>2026-05-05T16:27:10Z</time>
            </trkpt>
            <trkpt lat="42.784560" lon="-71.906850">
                <time>2026-05-05T16:27:11Z</time>
            </trkpt>
            <trkpt lat="42.784730" lon="-71.906960">
                <time>2026-05-05T16:27:12Z</time>
            </trkpt>
            <trkpt lat="42.784910" lon="-71.907070">
                <time>2026-05-05T16:27:13Z</time>
            </trkpt>
            <trkpt lat="42.785070" lon="-71.907170">
                <time>2026-05-05T16:27:14Z</time>
            </trkpt>
            <trkpt lat="42.785240" lon="-71.907280">
                <time>2026-05-05T16:27:15Z</time>
            </trkpt>
            <trkpt lat="42.785410" lon="-71.907380">
                <time>2026-05-05T16:27:16Z</time>
            </trkpt>
            <trkpt lat="42.785580" lon="-71.907470">
                <time>2026-05-05T16:27:17Z</time>
            </trkpt>
            <trkpt lat="42.785740" lon="-71.907570">
                <time>2026-05-05T16:27:18Z</time>
            </trkpt>
            <trkpt lat="42.785910" lon="-71.907670">
                <time>2026-05-05T16:27:19Z</time>
            </trkpt>
            <trkpt lat="42.786070" lon="-71.907770">
                <time>2026-05-05T16:27:20Z</time>
            </trkpt>
            <trkpt lat="42.786240" lon="-71.907870">
                <time>2026-05-05T16:27:21Z</time>
            </trkpt>
            <trkpt lat="42.786400" lon="-71.907980">
                <time>2026-05-05T16:27:22Z</time>
            </trkpt>
            <trkpt lat="42.786580" lon="-71.908080">
                <time>2026-05-05T16:27:23Z</time>
            </trkpt>
            <trkpt lat="42.786750" lon="-71.908180">
                <time>2026-05-05T16:27:24Z</time>
            </trkpt>
            <trkpt lat="42.786930" lon="-71.908290">
                <time>2026-05-05T16:27:25Z</time>
            </trkpt>
            <trkpt lat="42.787100" lon="-71.908390">
                <time>2026-05-05T16:27:26Z</time>
            </trkpt>
            <trkpt lat="42.787260" lon="-71.908500">
                <time>2026-05-05T16:27:27Z</time>
            </trkpt>
            <trkpt lat="42.787430" lon="-71.908610">
                <time>2026-05-05T16:27:28Z</time>
            </trkpt>
            <trkpt lat="42.787610" lon="-71.908720">
                <time>2026-05-05T16:27:29Z</time>
            </trkpt>
            <trkpt lat="42.787790" lon="-71.908830">
                <time>2026-05-05T16:27:30Z</time>
            </trkpt>
            <trkpt lat="42.787960" lon="-71.908930">
                <time>2026-05-05T16:27:31Z</time>
            </trkpt>
            <trkpt lat="42.788140" lon="-71.909040">
                <time>2026-05-05T16:27:32Z</time>
            </trkpt>
            <trkpt lat="42.788310" lon="-71.909150">
                <time>2026-05-05T16:27:33Z</time>
            </trkpt>
            <trkpt lat="42.788490" lon="-71.909260">
                <time>2026-05-05T16:27:34Z</time>
            </trkpt>
            <trkpt lat="42.788670" lon="-71.909360">
                <time>2026-05-05T16:27:35Z</time>
            </trkpt>
            <trkpt lat="42.788850" lon="-71.909470">
                <time>2026-05-05T16:27:36Z</time>
            </trkpt>
            <trkpt lat="42.789030" lon="-71.909560">
                <time>2026-05-05T16:27:37Z</time>
            </trkpt>
            <trkpt lat="42.789200" lon="-71.909670">
                <time>2026-05-05T16:27:38Z</time>
            </trkpt>
            <trkpt lat="42.789380" lon="-71.909770">
                <time>2026-05-05T16:27:39Z</time>
            </trkpt>
            <trkpt lat="42.789560" lon="-71.909880">
                <time>2026-05-05T16:27:40Z</time>
            </trkpt>
            <trkpt lat="42.789730" lon="-71.909980">
                <time>2026-05-05T16:27:41Z</time>
            </trkpt>
            <trkpt lat="42.789900" lon="-71.910080">
                <time>2026-05-05T16:27:42Z</time>
            </trkpt>
            <trkpt lat="42.790060" lon="-71.910190">
                <time>2026-05-05T16:27:43Z</time>
            </trkpt>
            <trkpt lat="42.790230" lon="-71.910300">
                <time>2026-05-05T16:27:44Z</time>
            </trkpt>
            <trkpt lat="42.790400" lon="-71.910410">
                <time>2026-05-05T16:27:45Z</time>
            </trkpt>
            <trkpt lat="42.790560" lon="-71.910530">
                <time>2026-05-05T16:27:46Z</time>
            </trkpt>
            <trkpt lat="42.790720" lon="-71.910640">
                <time>2026-05-05T16:27:47Z</time>
            </trkpt>
            <trkpt lat="42.790890" lon="-71.910750">
                <time>2026-05-05T16:27:48Z</time>
            </trkpt>
            <trkpt lat="42.791030" lon="-71.910860">
                <time>2026-05-05T16:27:49Z</time>
            </trkpt>
            <trkpt lat="42.791200" lon="-71.910950">
                <time>2026-05-05T16:27:50Z</time>
            </trkpt>
            <trkpt lat="42.791390" lon="-71.911020">
                <time>2026-05-05T16:27:51Z</time>
            </trkpt>
            <trkpt lat="42.791570" lon="-71.911090">
                <time>2026-05-05T16:27:52Z</time>
            </trkpt>
            <trkpt lat="42.791760" lon="-71.911140">
                <time>2026-05-05T16:27:53Z</time>
            </trkpt>
            <trkpt lat="42.791930" lon="-71.911230">
                <time>2026-05-05T16:27:54Z</time>
            </trkpt>
            <trkpt lat="42.792100" lon="-71.911310">
                <time>2026-05-05T16:27:55Z</time>
            </trkpt>
            <trkpt lat="42.792250" lon="-71.911410">
                <time>2026-05-05T16:27:56Z</time>
            </trkpt>
            <trkpt lat="42.792410" lon="-71.911520">
                <time>2026-05-05T16:27:57Z</time>
            </trkpt>
            <trkpt lat="42.792560" lon="-71.911660">
                <time>2026-05-05T16:27:58Z</time>
            </trkpt>
            <trkpt lat="42.792720" lon="-71.911800">
                <time>2026-05-05T16:27:59Z</time>
            </trkpt>
            <trkpt lat="42.792880" lon="-71.911930">
                <time>2026-05-05T16:28:00Z</time>
            </trkpt>
            <trkpt lat="42.793040" lon="-71.912070">
                <time>2026-05-05T16:28:01Z</time>
            </trkpt>
            <trkpt lat="42.793210" lon="-71.912200">
                <time>2026-05-05T16:28:02Z</time>
            </trkpt>
            <trkpt lat="42.793370" lon="-71.912330">
                <time>2026-05-05T16:28:03Z</time>
            </trkpt>
            <trkpt lat="42.793550" lon="-71.912440">
                <time>2026-05-05T16:28:04Z</time>
            </trkpt>
            <trkpt lat="42.793730" lon="-71.912550">
                <time>2026-05-05T16:28:05Z</time>
            </trkpt>
            <trkpt lat="42.793910" lon="-71.912650">
                <time>2026-05-05T16:28:06Z</time>
            </trkpt>
            <trkpt lat="42.794100" lon="-71.912740">
                <time>2026-05-05T16:28:07Z</time>
            </trkpt>
            <trkpt lat="42.794290" lon="-71.912830">
                <time>2026-05-05T16:28:08Z</time>
            </trkpt>
            <trkpt lat="42.794490" lon="-71.912900">
                <time>2026-05-05T16:28:09Z</time>
            </trkpt>
            <trkpt lat="42.794700" lon="-71.912970">
                <time>2026-05-05T16:28:10Z</time>
            </trkpt>
            <trkpt lat="42.794900" lon="-71.913030">
                <time>2026-05-05T16:28:11Z</time>
            </trkpt>
            <trkpt lat="42.795110" lon="-71.913090">
                <time>2026-05-05T16:28:12Z</time>
            </trkpt>
            <trkpt lat="42.795300" lon="-71.913130">
                <time>2026-05-05T16:28:13Z</time>
            </trkpt>
            <trkpt lat="42.795480" lon="-71.913180">
                <time>2026-05-05T16:28:14Z</time>
            </trkpt>
            <trkpt lat="42.795670" lon="-71.913210">
                <time>2026-05-05T16:28:15Z</time>
            </trkpt>
            <trkpt lat="42.795870" lon="-71.913220">
                <time>2026-05-05T16:28:16Z</time>
            </trkpt>
            <trkpt lat="42.796070" lon="-71.913270">
                <time>2026-05-05T16:28:17Z</time>
            </trkpt>
            <trkpt lat="42.796260" lon="-71.913290">
                <time>2026-05-05T16:28:18Z</time>
            </trkpt>
            <trkpt lat="42.796450" lon="-71.913320">
                <time>2026-05-05T16:28:19Z</time>
            </trkpt>
            <trkpt lat="42.796650" lon="-71.913360">
                <time>2026-05-05T16:28:20Z</time>
            </trkpt>
            <trkpt lat="42.796840" lon="-71.913390">
                <time>2026-05-05T16:28:21Z</time>
            </trkpt>
            <trkpt lat="42.797020" lon="-71.913440">
                <time>2026-05-05T16:28:22Z</time>
            </trkpt>
            <trkpt lat="42.797220" lon="-71.913470">
                <time>2026-05-05T16:28:23Z</time>
            </trkpt>
            <trkpt lat="42.797410" lon="-71.913510">
                <time>2026-05-05T16:28:24Z</time>
            </trkpt>
            <trkpt lat="42.797600" lon="-71.913540">
                <time>2026-05-05T16:28:25Z</time>
            </trkpt>
            <trkpt lat="42.797800" lon="-71.913570">
                <time>2026-05-05T16:28:26Z</time>
            </trkpt>
            <trkpt lat="42.797980" lon="-71.913590">
                <time>2026-05-05T16:28:27Z</time>
            </trkpt>
            <trkpt lat="42.798170" lon="-71.913620">
                <time>2026-05-05T16:28:28Z</time>
            </trkpt>
            <trkpt lat="42.798370" lon="-71.913660">
                <time>2026-05-05T16:28:29Z</time>
            </trkpt>
            <trkpt lat="42.798550" lon="-71.913700">
                <time>2026-05-05T16:28:30Z</time>
            </trkpt>
            <trkpt lat="42.798740" lon="-71.913740">
                <time>2026-05-05T16:28:31Z</time>
            </trkpt>
            <trkpt lat="42.798930" lon="-71.913780">
                <time>2026-05-05T16:28:32Z</time>
            </trkpt>
            <trkpt lat="42.799120" lon="-71.913820">
                <time>2026-05-05T16:28:33Z</time>
            </trkpt>
            <trkpt lat="42.799310" lon="-71.913860">
                <time>2026-05-05T16:28:34Z</time>
            </trkpt>
            <trkpt lat="42.799500" lon="-71.913910">
                <time>2026-05-05T16:28:35Z</time>
            </trkpt>
            <trkpt lat="42.799680" lon="-71.913950">
                <time>2026-05-05T16:28:36Z</time>
            </trkpt>
            <trkpt lat="42.799860" lon="-71.913990">
                <time>2026-05-05T16:28:37Z</time>
            </trkpt>
            <trkpt lat="42.800050" lon="-71.914030">
                <time>2026-05-05T16:28:38Z</time>
            </trkpt>
            <trkpt lat="42.800220" lon="-71.914070">
                <time>2026-05-05T16:28:39Z</time>
            </trkpt>
            <trkpt lat="42.800400" lon="-71.914120">
                <time>2026-05-05T16:28:40Z</time>
            </trkpt>
            <trkpt lat="42.800570" lon="-71.914170">
                <time>2026-05-05T16:28:41Z</time>
            </trkpt>
            <trkpt lat="42.800730" lon="-71.914220">
                <time>2026-05-05T16:28:42Z</time>
            </trkpt>
            <trkpt lat="42.800910" lon="-71.914290">
                <time>2026-05-05T16:28:43Z</time>
            </trkpt>
            <trkpt lat="42.801080" lon="-71.914350">
                <time>2026-05-05T16:28:44Z</time>
            </trkpt>
            <trkpt lat="42.801240" lon="-71.914410">
                <time>2026-05-05T16:28:45Z</time>
            </trkpt>
            <trkpt lat="42.801400" lon="-71.914450">
                <time>2026-05-05T16:28:46Z</time>
            </trkpt>
            <trkpt lat="42.801550" lon="-71.914500">
                <time>2026-05-05T16:28:47Z</time>
            </trkpt>
            <trkpt lat="42.801710" lon="-71.914540">
                <time>2026-05-05T16:28:48Z</time>
            </trkpt>
            <trkpt lat="42.801900" lon="-71.914560">
                <time>2026-05-05T16:28:49Z</time>
            </trkpt>
            <trkpt lat="42.802060" lon="-71.914580">
                <time>2026-05-05T16:28:50Z</time>
            </trkpt>
            <trkpt lat="42.802210" lon="-71.914620">
                <time>2026-05-05T16:28:51Z</time>
            </trkpt>
            <trkpt lat="42.802360" lon="-71.914650">
                <time>2026-05-05T16:28:52Z</time>
            </trkpt>
            <trkpt lat="42.802470" lon="-71.914660">
                <time>2026-05-05T16:28:53Z</time>
            </trkpt>
            <trkpt lat="42.802560" lon="-71.914670">
                <time>2026-05-05T16:28:54Z</time>
            </trkpt>
            <trkpt lat="42.802620" lon="-71.914690">
                <time>2026-05-05T16:28:55Z</time>
            </trkpt>
            <trkpt lat="42.802660" lon="-71.914750">
                <time>2026-05-05T16:28:56Z</time>
            </trkpt>
            <trkpt lat="42.802640" lon="-71.914850">
                <time>2026-05-05T16:28:57Z</time>
            </trkpt>
            <trkpt lat="42.802620" lon="-71.914940">
                <time>2026-05-05T16:28:58Z</time>
            </trkpt>
            <trkpt lat="42.802610" lon="-71.915070">
                <time>2026-05-05T16:28:59Z</time>
            </trkpt>
            <trkpt lat="42.802610" lon="-71.915220">
                <time>2026-05-05T16:29:00Z</time>
            </trkpt>
            <trkpt lat="42.802610" lon="-71.915410">
                <time>2026-05-05T16:29:01Z</time>
            </trkpt>
            <trkpt lat="42.802620" lon="-71.915590">
                <time>2026-05-05T16:29:02Z</time>
            </trkpt>
            <trkpt lat="42.802640" lon="-71.915780">
                <time>2026-05-05T16:29:03Z</time>
            </trkpt>
            <trkpt lat="42.802650" lon="-71.915960">
                <time>2026-05-05T16:29:04Z</time>
            </trkpt>
            <trkpt lat="42.802660" lon="-71.916140">
                <time>2026-05-05T16:29:05Z</time>
            </trkpt>
            <trkpt lat="42.802680" lon="-71.916320">
                <time>2026-05-05T16:29:06Z</time>
            </trkpt>
            <trkpt lat="42.802700" lon="-71.916500">
                <time>2026-05-05T16:29:07Z</time>
            </trkpt>
            <trkpt lat="42.802720" lon="-71.916660">
                <time>2026-05-05T16:29:08Z</time>
            </trkpt>
            <trkpt lat="42.802750" lon="-71.916810">
                <time>2026-05-05T16:29:09Z</time>
            </trkpt>
            <trkpt lat="42.802790" lon="-71.916960">
                <time>2026-05-05T16:29:10Z</time>
            </trkpt>
            <trkpt lat="42.802900" lon="-71.917080">
                <time>2026-05-05T16:29:11Z</time>
            </trkpt>
            <trkpt lat="42.803020" lon="-71.917200">
                <time>2026-05-05T16:29:12Z</time>
            </trkpt>
            <trkpt lat="42.803140" lon="-71.917330">
                <time>2026-05-05T16:29:13Z</time>
            </trkpt>
            <trkpt lat="42.803240" lon="-71.917470">
                <time>2026-05-05T16:29:14Z</time>
            </trkpt>
            <trkpt lat="42.803370" lon="-71.917610">
                <time>2026-05-05T16:29:15Z</time>
            </trkpt>
            <trkpt lat="42.803490" lon="-71.917760">
                <time>2026-05-05T16:29:16Z</time>
            </trkpt>
            <trkpt lat="42.803610" lon="-71.917910">
                <time>2026-05-05T16:29:17Z</time>
            </trkpt>
            <trkpt lat="42.803750" lon="-71.918070">
                <time>2026-05-05T16:29:18Z</time>
            </trkpt>
            <trkpt lat="42.803890" lon="-71.918210">
                <time>2026-05-05T16:29:19Z</time>
            </trkpt>
            <trkpt lat="42.804020" lon="-71.918360">
                <time>2026-05-05T16:29:20Z</time>
            </trkpt>
            <trkpt lat="42.804110" lon="-71.918530">
                <time>2026-05-05T16:29:21Z</time>
            </trkpt>
            <trkpt lat="42.804230" lon="-71.918700">
                <time>2026-05-05T16:29:22Z</time>
            </trkpt>
            <trkpt lat="42.804340" lon="-71.918860">
                <time>2026-05-05T16:29:23Z</time>
            </trkpt>
            <trkpt lat="42.804430" lon="-71.919030">
                <time>2026-05-05T16:29:24Z</time>
            </trkpt>
            <trkpt lat="42.804520" lon="-71.919200">
                <time>2026-05-05T16:29:25Z</time>
            </trkpt>
            <trkpt lat="42.804590" lon="-71.919380">
                <time>2026-05-05T16:29:26Z</time>
            </trkpt>
            <trkpt lat="42.804680" lon="-71.919560">
                <time>2026-05-05T16:29:27Z</time>
            </trkpt>
            <trkpt lat="42.804750" lon="-71.919740">
                <time>2026-05-05T16:29:28Z</time>
            </trkpt>
            <trkpt lat="42.804810" lon="-71.919940">
                <time>2026-05-05T16:29:29Z</time>
            </trkpt>
            <trkpt lat="42.804880" lon="-71.920120">
                <time>2026-05-05T16:29:30Z</time>
            </trkpt>
            <trkpt lat="42.804940" lon="-71.920310">
                <time>2026-05-05T16:29:31Z</time>
            </trkpt>
            <trkpt lat="42.804980" lon="-71.920500">
                <time>2026-05-05T16:29:32Z</time>
            </trkpt>
            <trkpt lat="42.804990" lon="-71.920700">
                <time>2026-05-05T16:29:33Z</time>
            </trkpt>
            <trkpt lat="42.805000" lon="-71.920910">
                <time>2026-05-05T16:29:34Z</time>
            </trkpt>
            <trkpt lat="42.804990" lon="-71.921150">
                <time>2026-05-05T16:29:35Z</time>
            </trkpt>
            <trkpt lat="42.804980" lon="-71.921380">
                <time>2026-05-05T16:29:36Z</time>
            </trkpt>
            <trkpt lat="42.804970" lon="-71.921610">
                <time>2026-05-05T16:29:37Z</time>
            </trkpt>
            <trkpt lat="42.804970" lon="-71.921830">
                <time>2026-05-05T16:29:38Z</time>
            </trkpt>
            <trkpt lat="42.804970" lon="-71.922060">
                <time>2026-05-05T16:29:39Z</time>
            </trkpt>
            <trkpt lat="42.804960" lon="-71.922290">
                <time>2026-05-05T16:29:40Z</time>
            </trkpt>
            <trkpt lat="42.804970" lon="-71.922520">
                <time>2026-05-05T16:29:41Z</time>
            </trkpt>
            <trkpt lat="42.804960" lon="-71.922750">
                <time>2026-05-05T16:29:42Z</time>
            </trkpt>
            <trkpt lat="42.804970" lon="-71.922970">
                <time>2026-05-05T16:29:43Z</time>
            </trkpt>
            <trkpt lat="42.804970" lon="-71.923190">
                <time>2026-05-05T16:29:44Z</time>
            </trkpt>
            <trkpt lat="42.804980" lon="-71.923420">
                <time>2026-05-05T16:29:45Z</time>
            </trkpt>
            <trkpt lat="42.804980" lon="-71.923640">
                <time>2026-05-05T16:29:46Z</time>
            </trkpt>
            <trkpt lat="42.804980" lon="-71.923870">
                <time>2026-05-05T16:29:47Z</time>
            </trkpt>
            <trkpt lat="42.804980" lon="-71.924100">
                <time>2026-05-05T16:29:48Z</time>
            </trkpt>
            <trkpt lat="42.804980" lon="-71.924320">
                <time>2026-05-05T16:29:49Z</time>
            </trkpt>
            <trkpt lat="42.804980" lon="-71.924560">
                <time>2026-05-05T16:29:50Z</time>
            </trkpt>
            <trkpt lat="42.804980" lon="-71.924800">
                <time>2026-05-05T16:29:51Z</time>
            </trkpt>
            <trkpt lat="42.804990" lon="-71.925040">
                <time>2026-05-05T16:29:52Z</time>
            </trkpt>
            <trkpt lat="42.804990" lon="-71.925300">
                <time>2026-05-05T16:29:53Z</time>
            </trkpt>
            <trkpt lat="42.805000" lon="-71.925540">
                <time>2026-05-05T16:29:54Z</time>
            </trkpt>
            <trkpt lat="42.805000" lon="-71.925800">
                <time>2026-05-05T16:29:55Z</time>
            </trkpt>
            <trkpt lat="42.805000" lon="-71.926050">
                <time>2026-05-05T16:29:56Z</time>
            </trkpt>
            <trkpt lat="42.805010" lon="-71.926300">
                <time>2026-05-05T16:29:57Z</time>
            </trkpt>
            <trkpt lat="42.805020" lon="-71.926540">
                <time>2026-05-05T16:29:58Z</time>
            </trkpt>
            <trkpt lat="42.805030" lon="-71.926770">
                <time>2026-05-05T16:29:59Z</time>
            </trkpt>
            <trkpt lat="42.805040" lon="-71.927010">
                <time>2026-05-05T16:30:00Z</time>
            </trkpt>
            <trkpt lat="42.805040" lon="-71.927240">
                <time>2026-05-05T16:30:01Z</time>
            </trkpt>
            <trkpt lat="42.805050" lon="-71.927460">
                <time>2026-05-05T16:30:02Z</time>
            </trkpt>
            <trkpt lat="42.805060" lon="-71.927690">
                <time>2026-05-05T16:30:03Z</time>
            </trkpt>
            <trkpt lat="42.805060" lon="-71.927940">
                <time>2026-05-05T16:30:04Z</time>
            </trkpt>
            <trkpt lat="42.805060" lon="-71.928180">
                <time>2026-05-05T16:30:05Z</time>
            </trkpt>
            <trkpt lat="42.805070" lon="-71.928420">
                <time>2026-05-05T16:30:06Z</time>
            </trkpt>
            <trkpt lat="42.805080" lon="-71.928660">
                <time>2026-05-05T16:30:07Z</time>
            </trkpt>
            <trkpt lat="42.805070" lon="-71.928900">
                <time>2026-05-05T16:30:08Z</time>
            </trkpt>
            <trkpt lat="42.805080" lon="-71.929140">
                <time>2026-05-05T16:30:09Z</time>
            </trkpt>
            <trkpt lat="42.805070" lon="-71.929370">
                <time>2026-05-05T16:30:10Z</time>
            </trkpt>
            <trkpt lat="42.805070" lon="-71.929590">
                <time>2026-05-05T16:30:11Z</time>
            </trkpt>
            <trkpt lat="42.805080" lon="-71.929830">
                <time>2026-05-05T16:30:12Z</time>
            </trkpt>
            <trkpt lat="42.805090" lon="-71.930060">
                <time>2026-05-05T16:30:13Z</time>
            </trkpt>
            <trkpt lat="42.805100" lon="-71.930290">
                <time>2026-05-05T16:30:14Z</time>
            </trkpt>
            <trkpt lat="42.805110" lon="-71.930520">
                <time>2026-05-05T16:30:15Z</time>
            </trkpt>
            <trkpt lat="42.805110" lon="-71.930750">
                <time>2026-05-05T16:30:16Z</time>
            </trkpt>
            <trkpt lat="42.805110" lon="-71.930980">
                <time>2026-05-05T16:30:17Z</time>
            </trkpt>
            <trkpt lat="42.805120" lon="-71.931220">
                <time>2026-05-05T16:30:18Z</time>
            </trkpt>
            <trkpt lat="42.805110" lon="-71.931460">
                <time>2026-05-05T16:30:19Z</time>
            </trkpt>
            <trkpt lat="42.805120" lon="-71.931700">
                <time>2026-05-05T16:30:20Z</time>
            </trkpt>
            <trkpt lat="42.805120" lon="-71.931950">
                <time>2026-05-05T16:30:21Z</time>
            </trkpt>
            <trkpt lat="42.805130" lon="-71.932190">
                <time>2026-05-05T16:30:22Z</time>
            </trkpt>
            <trkpt lat="42.805140" lon="-71.932450">
                <time>2026-05-05T16:30:23Z</time>
            </trkpt>
            <trkpt lat="42.805140" lon="-71.932700">
                <time>2026-05-05T16:30:24Z</time>
            </trkpt>
            <trkpt lat="42.805140" lon="-71.932950">
                <time>2026-05-05T16:30:25Z</time>
            </trkpt>
            <trkpt lat="42.805140" lon="-71.933190">
                <time>2026-05-05T16:30:26Z</time>
            </trkpt>
            <trkpt lat="42.805130" lon="-71.933430">
                <time>2026-05-05T16:30:27Z</time>
            </trkpt>
            <trkpt lat="42.805140" lon="-71.933660">
                <time>2026-05-05T16:30:28Z</time>
            </trkpt>
            <trkpt lat="42.805150" lon="-71.933890">
                <time>2026-05-05T16:30:29Z</time>
            </trkpt>
            <trkpt lat="42.805150" lon="-71.934110">
                <time>2026-05-05T16:30:30Z</time>
            </trkpt>
            <trkpt lat="42.805160" lon="-71.934320">
                <time>2026-05-05T16:30:31Z</time>
            </trkpt>
            <trkpt lat="42.805180" lon="-71.934500">
                <time>2026-05-05T16:30:32Z</time>
            </trkpt>
            <trkpt lat="42.805230" lon="-71.934670">
                <time>2026-05-05T16:30:33Z</time>
            </trkpt>
            <trkpt lat="42.805300" lon="-71.934810">
                <time>2026-05-05T16:30:34Z</time>
            </trkpt>
            <trkpt lat="42.805390" lon="-71.934960">
                <time>2026-05-05T16:30:35Z</time>
            </trkpt>
            <trkpt lat="42.805500" lon="-71.935090">
                <time>2026-05-05T16:30:36Z</time>
            </trkpt>
            <trkpt lat="42.805600" lon="-71.935230">
                <time>2026-05-05T16:30:37Z</time>
            </trkpt>
            <trkpt lat="42.805690" lon="-71.935360">
                <time>2026-05-05T16:30:38Z</time>
            </trkpt>
            <trkpt lat="42.805780" lon="-71.935500">
                <time>2026-05-05T16:30:39Z</time>
            </trkpt>
            <trkpt lat="42.805840" lon="-71.935660">
                <time>2026-05-05T16:30:40Z</time>
            </trkpt>
            <trkpt lat="42.805880" lon="-71.935820">
                <time>2026-05-05T16:30:41Z</time>
            </trkpt>
            <trkpt lat="42.805930" lon="-71.935980">
                <time>2026-05-05T16:30:42Z</time>
            </trkpt>
            <trkpt lat="42.805980" lon="-71.936150">
                <time>2026-05-05T16:30:43Z</time>
            </trkpt>
            <trkpt lat="42.806060" lon="-71.936280">
                <time>2026-05-05T16:30:44Z</time>
            </trkpt>
            <trkpt lat="42.806130" lon="-71.936410">
                <time>2026-05-05T16:30:45Z</time>
            </trkpt>
            <trkpt lat="42.806220" lon="-71.936530">
                <time>2026-05-05T16:30:46Z</time>
            </trkpt>
            <trkpt lat="42.806330" lon="-71.936620">
                <time>2026-05-05T16:30:47Z</time>
            </trkpt>
            <trkpt lat="42.806410" lon="-71.936740">
                <time>2026-05-05T16:30:48Z</time>
            </trkpt>
            <trkpt lat="42.806550" lon="-71.936880">
                <time>2026-05-05T16:30:49Z</time>
            </trkpt>
            <trkpt lat="42.806660" lon="-71.937080">
                <time>2026-05-05T16:30:50Z</time>
            </trkpt>
            <trkpt lat="42.806770" lon="-71.937260">
                <time>2026-05-05T16:30:51Z</time>
            </trkpt>
            <trkpt lat="42.806860" lon="-71.937470">
                <time>2026-05-05T16:30:52Z</time>
            </trkpt>
            <trkpt lat="42.806990" lon="-71.937660">
                <time>2026-05-05T16:30:53Z</time>
            </trkpt>
            <trkpt lat="42.807110" lon="-71.937850">
                <time>2026-05-05T16:30:54Z</time>
            </trkpt>
            <trkpt lat="42.807230" lon="-71.938000">
                <time>2026-05-05T16:30:55Z</time>
            </trkpt>
            <trkpt lat="42.807360" lon="-71.938140">
                <time>2026-05-05T16:30:56Z</time>
            </trkpt>
            <trkpt lat="42.807520" lon="-71.938230">
                <time>2026-05-05T16:30:57Z</time>
            </trkpt>
            <trkpt lat="42.807650" lon="-71.938330">
                <time>2026-05-05T16:30:58Z</time>
            </trkpt>
            <trkpt lat="42.807800" lon="-71.938440">
                <time>2026-05-05T16:30:59Z</time>
            </trkpt>
            <trkpt lat="42.807950" lon="-71.938540">
                <time>2026-05-05T16:31:00Z</time>
            </trkpt>
            <trkpt lat="42.808080" lon="-71.938660">
                <time>2026-05-05T16:31:01Z</time>
            </trkpt>
            <trkpt lat="42.808220" lon="-71.938790">
                <time>2026-05-05T16:31:02Z</time>
            </trkpt>
            <trkpt lat="42.808350" lon="-71.938920">
                <time>2026-05-05T16:31:03Z</time>
            </trkpt>
            <trkpt lat="42.808460" lon="-71.939060">
                <time>2026-05-05T16:31:04Z</time>
            </trkpt>
            <trkpt lat="42.808560" lon="-71.939190">
                <time>2026-05-05T16:31:05Z</time>
            </trkpt>
            <trkpt lat="42.808670" lon="-71.939300">
                <time>2026-05-05T16:31:06Z</time>
            </trkpt>
            <trkpt lat="42.808750" lon="-71.939420">
                <time>2026-05-05T16:31:07Z</time>
            </trkpt>
            <trkpt lat="42.808830" lon="-71.939570">
                <time>2026-05-05T16:31:08Z</time>
            </trkpt>
            <trkpt lat="42.808890" lon="-71.939730">
                <time>2026-05-05T16:31:09Z</time>
            </trkpt>
            <trkpt lat="42.808950" lon="-71.939900">
                <time>2026-05-05T16:31:10Z</time>
            </trkpt>
            <trkpt lat="42.808980" lon="-71.940070">
                <time>2026-05-05T16:31:11Z</time>
            </trkpt>
            <trkpt lat="42.809000" lon="-71.940250">
                <time>2026-05-05T16:31:12Z</time>
            </trkpt>
            <trkpt lat="42.809020" lon="-71.940440">
                <time>2026-05-05T16:31:13Z</time>
            </trkpt>
            <trkpt lat="42.809050" lon="-71.940630">
                <time>2026-05-05T16:31:14Z</time>
            </trkpt>
            <trkpt lat="42.809090" lon="-71.940810">
                <time>2026-05-05T16:31:15Z</time>
            </trkpt>
            <trkpt lat="42.809130" lon="-71.941000">
                <time>2026-05-05T16:31:16Z</time>
            </trkpt>
            <trkpt lat="42.809170" lon="-71.941180">
                <time>2026-05-05T16:31:17Z</time>
            </trkpt>
            <trkpt lat="42.809220" lon="-71.941370">
                <time>2026-05-05T16:31:18Z</time>
            </trkpt>
            <trkpt lat="42.809260" lon="-71.941550">
                <time>2026-05-05T16:31:19Z</time>
            </trkpt>
            <trkpt lat="42.809310" lon="-71.941730">
                <time>2026-05-05T16:31:20Z</time>
            </trkpt>
            <trkpt lat="42.809350" lon="-71.941930">
                <time>2026-05-05T16:31:21Z</time>
            </trkpt>
            <trkpt lat="42.809400" lon="-71.942120">
                <time>2026-05-05T16:31:22Z</time>
            </trkpt>
            <trkpt lat="42.809450" lon="-71.942310">
                <time>2026-05-05T16:31:23Z</time>
            </trkpt>
            <trkpt lat="42.809480" lon="-71.942500">
                <time>2026-05-05T16:31:24Z</time>
            </trkpt>
            <trkpt lat="42.809520" lon="-71.942690">
                <time>2026-05-05T16:31:25Z</time>
            </trkpt>
            <trkpt lat="42.809540" lon="-71.942870">
                <time>2026-05-05T16:31:26Z</time>
            </trkpt>
            <trkpt lat="42.809570" lon="-71.943050">
                <time>2026-05-05T16:31:27Z</time>
            </trkpt>
            <trkpt lat="42.809620" lon="-71.943230">
                <time>2026-05-05T16:31:28Z</time>
            </trkpt>
            <trkpt lat="42.809710" lon="-71.943390">
                <time>2026-05-05T16:31:29Z</time>
            </trkpt>
            <trkpt lat="42.809860" lon="-71.943500">
                <time>2026-05-05T16:31:30Z</time>
            </trkpt>
            <trkpt lat="42.809960" lon="-71.943630">
                <time>2026-05-05T16:31:31Z</time>
            </trkpt>
            <trkpt lat="42.810120" lon="-71.943710">
                <time>2026-05-05T16:31:32Z</time>
            </trkpt>
            <trkpt lat="42.810260" lon="-71.943800">
                <time>2026-05-05T16:31:33Z</time>
            </trkpt>
            <trkpt lat="42.810440" lon="-71.943860">
                <time>2026-05-05T16:31:34Z</time>
            </trkpt>
            <trkpt lat="42.810580" lon="-71.943920">
                <time>2026-05-05T16:31:35Z</time>
            </trkpt>
            <trkpt lat="42.810740" lon="-71.943990">
                <time>2026-05-05T16:31:36Z</time>
            </trkpt>
            <trkpt lat="42.810880" lon="-71.944050">
                <time>2026-05-05T16:31:37Z</time>
            </trkpt>
            <trkpt lat="42.811040" lon="-71.944100">
                <time>2026-05-05T16:31:38Z</time>
            </trkpt>
            <trkpt lat="42.811200" lon="-71.944160">
                <time>2026-05-05T16:31:39Z</time>
            </trkpt>
            <trkpt lat="42.811340" lon="-71.944210">
                <time>2026-05-05T16:31:40Z</time>
            </trkpt>
            <trkpt lat="42.811490" lon="-71.944250">
                <time>2026-05-05T16:31:41Z</time>
            </trkpt>
            <trkpt lat="42.811630" lon="-71.944290">
                <time>2026-05-05T16:31:42Z</time>
            </trkpt>
            <trkpt lat="42.811750" lon="-71.944340">
                <time>2026-05-05T16:31:43Z</time>
            </trkpt>
            <trkpt lat="42.811890" lon="-71.944410">
                <time>2026-05-05T16:31:44Z</time>
            </trkpt>
            <trkpt lat="42.812010" lon="-71.944510">
                <time>2026-05-05T16:31:45Z</time>
            </trkpt>
            <trkpt lat="42.812120" lon="-71.944620">
                <time>2026-05-05T16:31:46Z</time>
            </trkpt>
            <trkpt lat="42.812230" lon="-71.944730">
                <time>2026-05-05T16:31:47Z</time>
            </trkpt>
            <trkpt lat="42.812330" lon="-71.944850">
                <time>2026-05-05T16:31:48Z</time>
            </trkpt>
            <trkpt lat="42.812440" lon="-71.944960">
                <time>2026-05-05T16:31:49Z</time>
            </trkpt>
            <trkpt lat="42.812540" lon="-71.945090">
                <time>2026-05-05T16:31:50Z</time>
            </trkpt>
            <trkpt lat="42.812630" lon="-71.945240">
                <time>2026-05-05T16:31:51Z</time>
            </trkpt>
            <trkpt lat="42.812710" lon="-71.945390">
                <time>2026-05-05T16:31:52Z</time>
            </trkpt>
            <trkpt lat="42.812780" lon="-71.945560">
                <time>2026-05-05T16:31:53Z</time>
            </trkpt>
            <trkpt lat="42.812820" lon="-71.945730">
                <time>2026-05-05T16:31:54Z</time>
            </trkpt>
            <trkpt lat="42.812850" lon="-71.945920">
                <time>2026-05-05T16:31:55Z</time>
            </trkpt>
            <trkpt lat="42.812870" lon="-71.946110">
                <time>2026-05-05T16:31:56Z</time>
            </trkpt>
            <trkpt lat="42.812870" lon="-71.946300">
                <time>2026-05-05T16:31:57Z</time>
            </trkpt>
            <trkpt lat="42.812880" lon="-71.946500">
                <time>2026-05-05T16:31:58Z</time>
            </trkpt>
            <trkpt lat="42.812880" lon="-71.946710">
                <time>2026-05-05T16:31:59Z</time>
            </trkpt>
            <trkpt lat="42.812900" lon="-71.946920">
                <time>2026-05-05T16:32:00Z</time>
            </trkpt>
            <trkpt lat="42.812910" lon="-71.947130">
                <time>2026-05-05T16:32:01Z</time>
            </trkpt>
            <trkpt lat="42.812940" lon="-71.947340">
                <time>2026-05-05T16:32:02Z</time>
            </trkpt>
            <trkpt lat="42.812950" lon="-71.947560">
                <time>2026-05-05T16:32:03Z</time>
            </trkpt>
            <trkpt lat="42.812980" lon="-71.947770">
                <time>2026-05-05T16:32:04Z</time>
            </trkpt>
            <trkpt lat="42.812990" lon="-71.947990">
                <time>2026-05-05T16:32:05Z</time>
            </trkpt>
            <trkpt lat="42.812980" lon="-71.948220">
                <time>2026-05-05T16:32:06Z</time>
            </trkpt>
            <trkpt lat="42.812970" lon="-71.948440">
                <time>2026-05-05T16:32:07Z</time>
            </trkpt>
            <trkpt lat="42.812950" lon="-71.948670">
                <time>2026-05-05T16:32:08Z</time>
            </trkpt>
            <trkpt lat="42.812930" lon="-71.948890">
                <time>2026-05-05T16:32:09Z</time>
            </trkpt>
            <trkpt lat="42.812890" lon="-71.949120">
                <time>2026-05-05T16:32:10Z</time>
            </trkpt>
            <trkpt lat="42.812870" lon="-71.949320">
                <time>2026-05-05T16:32:11Z</time>
            </trkpt>
            <trkpt lat="42.812840" lon="-71.949530">
                <time>2026-05-05T16:32:12Z</time>
            </trkpt>
            <trkpt lat="42.812830" lon="-71.949730">
                <time>2026-05-05T16:32:13Z</time>
            </trkpt>
            <trkpt lat="42.812820" lon="-71.949940">
                <time>2026-05-05T16:32:14Z</time>
            </trkpt>
            <trkpt lat="42.812800" lon="-71.950130">
                <time>2026-05-05T16:32:15Z</time>
            </trkpt>
            <trkpt lat="42.812810" lon="-71.950330">
                <time>2026-05-05T16:32:16Z</time>
            </trkpt>
            <trkpt lat="42.812820" lon="-71.950540">
                <time>2026-05-05T16:32:17Z</time>
            </trkpt>
            <trkpt lat="42.812850" lon="-71.950740">
                <time>2026-05-05T16:32:18Z</time>
            </trkpt>
            <trkpt lat="42.812870" lon="-71.950950">
                <time>2026-05-05T16:32:19Z</time>
            </trkpt>
            <trkpt lat="42.812900" lon="-71.951150">
                <time>2026-05-05T16:32:20Z</time>
            </trkpt>
            <trkpt lat="42.812940" lon="-71.951330">
                <time>2026-05-05T16:32:21Z</time>
            </trkpt>
            <trkpt lat="42.813000" lon="-71.951490">
                <time>2026-05-05T16:32:22Z</time>
            </trkpt>
            <trkpt lat="42.813070" lon="-71.951640">
                <time>2026-05-05T16:32:23Z</time>
            </trkpt>
            <trkpt lat="42.813150" lon="-71.951810">
                <time>2026-05-05T16:32:24Z</time>
            </trkpt>
            <trkpt lat="42.813220" lon="-71.951980">
                <time>2026-05-05T16:32:25Z</time>
            </trkpt>
            <trkpt lat="42.813300" lon="-71.952150">
                <time>2026-05-05T16:32:26Z</time>
            </trkpt>
            <trkpt lat="42.813390" lon="-71.952320">
                <time>2026-05-05T16:32:27Z</time>
            </trkpt>
            <trkpt lat="42.813480" lon="-71.952500">
                <time>2026-05-05T16:32:28Z</time>
            </trkpt>
            <trkpt lat="42.813570" lon="-71.952670">
                <time>2026-05-05T16:32:29Z</time>
            </trkpt>
            <trkpt lat="42.813660" lon="-71.952850">
                <time>2026-05-05T16:32:30Z</time>
            </trkpt>
            <trkpt lat="42.813750" lon="-71.953040">
                <time>2026-05-05T16:32:31Z</time>
            </trkpt>
            <trkpt lat="42.813840" lon="-71.953240">
                <time>2026-05-05T16:32:32Z</time>
            </trkpt>
            <trkpt lat="42.813930" lon="-71.953430">
                <time>2026-05-05T16:32:33Z</time>
            </trkpt>
            <trkpt lat="42.814030" lon="-71.953610">
                <time>2026-05-05T16:32:34Z</time>
            </trkpt>
            <trkpt lat="42.814120" lon="-71.953800">
                <time>2026-05-05T16:32:35Z</time>
            </trkpt>
            <trkpt lat="42.814210" lon="-71.953980">
                <time>2026-05-05T16:32:36Z</time>
            </trkpt>
            <trkpt lat="42.814300" lon="-71.954160">
                <time>2026-05-05T16:32:37Z</time>
            </trkpt>
            <trkpt lat="42.814390" lon="-71.954340">
                <time>2026-05-05T16:32:38Z</time>
            </trkpt>
            <trkpt lat="42.814460" lon="-71.954540">
                <time>2026-05-05T16:32:39Z</time>
            </trkpt>
            <trkpt lat="42.814550" lon="-71.954730">
                <time>2026-05-05T16:32:40Z</time>
            </trkpt>
            <trkpt lat="42.814620" lon="-71.954940">
                <time>2026-05-05T16:32:41Z</time>
            </trkpt>
            <trkpt lat="42.814700" lon="-71.955160">
                <time>2026-05-05T16:32:42Z</time>
            </trkpt>
            <trkpt lat="42.814770" lon="-71.955380">
                <time>2026-05-05T16:32:43Z</time>
            </trkpt>
            <trkpt lat="42.814840" lon="-71.955600">
                <time>2026-05-05T16:32:44Z</time>
            </trkpt>
            <trkpt lat="42.814910" lon="-71.955820">
                <time>2026-05-05T16:32:45Z</time>
            </trkpt>
            <trkpt lat="42.814980" lon="-71.956030">
                <time>2026-05-05T16:32:46Z</time>
            </trkpt>
            <trkpt lat="42.815050" lon="-71.956240">
                <time>2026-05-05T16:32:47Z</time>
            </trkpt>
            <trkpt lat="42.815110" lon="-71.956460">
                <time>2026-05-05T16:32:48Z</time>
            </trkpt>
            <trkpt lat="42.815170" lon="-71.956660">
                <time>2026-05-05T16:32:49Z</time>
            </trkpt>
            <trkpt lat="42.815240" lon="-71.956870">
                <time>2026-05-05T16:32:50Z</time>
            </trkpt>
            <trkpt lat="42.815300" lon="-71.957080">
                <time>2026-05-05T16:32:51Z</time>
            </trkpt>
            <trkpt lat="42.815370" lon="-71.957290">
                <time>2026-05-05T16:32:52Z</time>
            </trkpt>
            <trkpt lat="42.815430" lon="-71.957500">
                <time>2026-05-05T16:32:53Z</time>
            </trkpt>
            <trkpt lat="42.815520" lon="-71.957690">
                <time>2026-05-05T16:32:54Z</time>
            </trkpt>
            <trkpt lat="42.815600" lon="-71.957870">
                <time>2026-05-05T16:32:55Z</time>
            </trkpt>
            <trkpt lat="42.815680" lon="-71.958040">
                <time>2026-05-05T16:32:56Z</time>
            </trkpt>
            <trkpt lat="42.815760" lon="-71.958200">
                <time>2026-05-05T16:32:57Z</time>
            </trkpt>
            <trkpt lat="42.815840" lon="-71.958370">
                <time>2026-05-05T16:32:58Z</time>
            </trkpt>
            <trkpt lat="42.815910" lon="-71.958520">
                <time>2026-05-05T16:32:59Z</time>
            </trkpt>
            <trkpt lat="42.815990" lon="-71.958680">
                <time>2026-05-05T16:33:00Z</time>
            </trkpt>
            <trkpt lat="42.816050" lon="-71.958820">
                <time>2026-05-05T16:33:01Z</time>
            </trkpt>
            <trkpt lat="42.816110" lon="-71.958930">
                <time>2026-05-05T16:33:02Z</time>
            </trkpt>
            <trkpt lat="42.816180" lon="-71.959030">
                <time>2026-05-05T16:33:03Z</time>
            </trkpt>
            <trkpt lat="42.816270" lon="-71.959080">
                <time>2026-05-05T16:33:04Z</time>
            </trkpt>
            <trkpt lat="42.816360" lon="-71.959100">
                <time>2026-05-05T16:33:05Z</time>
            </trkpt>
            <trkpt lat="42.816450" lon="-71.959100">
                <time>2026-05-05T16:33:06Z</time>
            </trkpt>
            <trkpt lat="42.816560" lon="-71.959090">
                <time>2026-05-05T16:33:07Z</time>
            </trkpt>
            <trkpt lat="42.816660" lon="-71.959090">
                <time>2026-05-05T16:33:08Z</time>
            </trkpt>
            <trkpt lat="42.816770" lon="-71.959090">
                <time>2026-05-05T16:33:09Z</time>
            </trkpt>
            <trkpt lat="42.816890" lon="-71.959100">
                <time>2026-05-05T16:33:10Z</time>
            </trkpt>
            <trkpt lat="42.817000" lon="-71.959100">
                <time>2026-05-05T16:33:11Z</time>
            </trkpt>
            <trkpt lat="42.817120" lon="-71.959100">
                <time>2026-05-05T16:33:12Z</time>
            </trkpt>
            <trkpt lat="42.817240" lon="-71.959100">
                <time>2026-05-05T16:33:13Z</time>
            </trkpt>
            <trkpt lat="42.817370" lon="-71.959090">
                <time>2026-05-05T16:33:14Z</time>
            </trkpt>
            <trkpt lat="42.817500" lon="-71.959090">
                <time>2026-05-05T16:33:15Z</time>
            </trkpt>
            <trkpt lat="42.817640" lon="-71.959070">
                <time>2026-05-05T16:33:16Z</time>
            </trkpt>
            <trkpt lat="42.817780" lon="-71.959070">
                <time>2026-05-05T16:33:17Z</time>
            </trkpt>
            <trkpt lat="42.817920" lon="-71.959080">
                <time>2026-05-05T16:33:18Z</time>
            </trkpt>
            <trkpt lat="42.818080" lon="-71.959070">
                <time>2026-05-05T16:33:19Z</time>
            </trkpt>
            <trkpt lat="42.818230" lon="-71.959060">
                <time>2026-05-05T16:33:20Z</time>
            </trkpt>
            <trkpt lat="42.818380" lon="-71.959040">
                <time>2026-05-05T16:33:21Z</time>
            </trkpt>
            <trkpt lat="42.818530" lon="-71.959030">
                <time>2026-05-05T16:33:22Z</time>
            </trkpt>
            <trkpt lat="42.818660" lon="-71.959020">
                <time>2026-05-05T16:33:23Z</time>
            </trkpt>
            <trkpt lat="42.818830" lon="-71.958970">
                <time>2026-05-05T16:33:24Z</time>
            </trkpt>
            <trkpt lat="42.818980" lon="-71.958920">
                <time>2026-05-05T16:33:25Z</time>
            </trkpt>
            <trkpt lat="42.819110" lon="-71.958900">
                <time>2026-05-05T16:33:26Z</time>
            </trkpt>
            <trkpt lat="42.819260" lon="-71.958850">
                <time>2026-05-05T16:33:27Z</time>
            </trkpt>
            <trkpt lat="42.819400" lon="-71.958810">
                <time>2026-05-05T16:33:28Z</time>
            </trkpt>
            <trkpt lat="42.819540" lon="-71.958770">
                <time>2026-05-05T16:33:29Z</time>
            </trkpt>
            <trkpt lat="42.819690" lon="-71.958720">
                <time>2026-05-05T16:33:30Z</time>
            </trkpt>
            <trkpt lat="42.819840" lon="-71.958690">
                <time>2026-05-05T16:33:31Z</time>
            </trkpt>
            <trkpt lat="42.819960" lon="-71.958650">
                <time>2026-05-05T16:33:32Z</time>
            </trkpt>
            <trkpt lat="42.820100" lon="-71.958620">
                <time>2026-05-05T16:33:33Z</time>
            </trkpt>
            <trkpt lat="42.820230" lon="-71.958590">
                <time>2026-05-05T16:33:34Z</time>
            </trkpt>
            <trkpt lat="42.820360" lon="-71.958560">
                <time>2026-05-05T16:33:35Z</time>
            </trkpt>
            <trkpt lat="42.820470" lon="-71.958550">
                <time>2026-05-05T16:33:36Z</time>
            </trkpt>
            <trkpt lat="42.820590" lon="-71.958610">
                <time>2026-05-05T16:33:37Z</time>
            </trkpt>
            <trkpt lat="42.820680" lon="-71.958700">
                <time>2026-05-05T16:33:38Z</time>
            </trkpt>
            <trkpt lat="42.820770" lon="-71.958840">
                <time>2026-05-05T16:33:39Z</time>
            </trkpt>
            <trkpt lat="42.820830" lon="-71.959020">
                <time>2026-05-05T16:33:40Z</time>
            </trkpt>
            <trkpt lat="42.820790" lon="-71.959250">
                <time>2026-05-05T16:33:41Z</time>
            </trkpt>
            <trkpt lat="42.820850" lon="-71.959430">
                <time>2026-05-05T16:33:42Z</time>
            </trkpt>
            <trkpt lat="42.820870" lon="-71.959620">
                <time>2026-05-05T16:33:43Z</time>
            </trkpt>
            <trkpt lat="42.820910" lon="-71.959810">
                <time>2026-05-05T16:33:44Z</time>
            </trkpt>
            <trkpt lat="42.820960" lon="-71.960000">
                <time>2026-05-05T16:33:45Z</time>
            </trkpt>
            <trkpt lat="42.821020" lon="-71.960190">
                <time>2026-05-05T16:33:46Z</time>
            </trkpt>
            <trkpt lat="42.821070" lon="-71.960390">
                <time>2026-05-05T16:33:47Z</time>
            </trkpt>
            <trkpt lat="42.821130" lon="-71.960590">
                <time>2026-05-05T16:33:48Z</time>
            </trkpt>
            <trkpt lat="42.821170" lon="-71.960780">
                <time>2026-05-05T16:33:49Z</time>
            </trkpt>
            <trkpt lat="42.821220" lon="-71.960970">
                <time>2026-05-05T16:33:50Z</time>
            </trkpt>
            <trkpt lat="42.821250" lon="-71.961190">
                <time>2026-05-05T16:33:51Z</time>
            </trkpt>
            <trkpt lat="42.821260" lon="-71.961410">
                <time>2026-05-05T16:33:52Z</time>
            </trkpt>
            <trkpt lat="42.821290" lon="-71.961620">
                <time>2026-05-05T16:33:53Z</time>
            </trkpt>
            <trkpt lat="42.821330" lon="-71.961820">
                <time>2026-05-05T16:33:54Z</time>
            </trkpt>
            <trkpt lat="42.821360" lon="-71.962010">
                <time>2026-05-05T16:33:55Z</time>
            </trkpt>
            <trkpt lat="42.821390" lon="-71.962210">
                <time>2026-05-05T16:33:56Z</time>
            </trkpt>
            <trkpt lat="42.821420" lon="-71.962400">
                <time>2026-05-05T16:33:57Z</time>
            </trkpt>
            <trkpt lat="42.821450" lon="-71.962610">
                <time>2026-05-05T16:33:58Z</time>
            </trkpt>
            <trkpt lat="42.821490" lon="-71.962830">
                <time>2026-05-05T16:33:59Z</time>
            </trkpt>
            <trkpt lat="42.821530" lon="-71.963040">
                <time>2026-05-05T16:34:00Z</time>
            </trkpt>
            <trkpt lat="42.821570" lon="-71.963240">
                <time>2026-05-05T16:34:01Z</time>
            </trkpt>
            <trkpt lat="42.821600" lon="-71.963440">
                <time>2026-05-05T16:34:02Z</time>
            </trkpt>
            <trkpt lat="42.821640" lon="-71.963630">
                <time>2026-05-05T16:34:03Z</time>
            </trkpt>
            <trkpt lat="42.821660" lon="-71.963840">
                <time>2026-05-05T16:34:04Z</time>
            </trkpt>
            <trkpt lat="42.821650" lon="-71.964060">
                <time>2026-05-05T16:34:05Z</time>
            </trkpt>
            <trkpt lat="42.821650" lon="-71.964270">
                <time>2026-05-05T16:34:06Z</time>
            </trkpt>
            <trkpt lat="42.821650" lon="-71.964480">
                <time>2026-05-05T16:34:07Z</time>
            </trkpt>
            <trkpt lat="42.821660" lon="-71.964690">
                <time>2026-05-05T16:34:08Z</time>
            </trkpt>
            <trkpt lat="42.821660" lon="-71.964910">
                <time>2026-05-05T16:34:09Z</time>
            </trkpt>
            <trkpt lat="42.821660" lon="-71.965130">
                <time>2026-05-05T16:34:10Z</time>
            </trkpt>
            <trkpt lat="42.821670" lon="-71.965360">
                <time>2026-05-05T16:34:11Z</time>
            </trkpt>
            <trkpt lat="42.821680" lon="-71.965590">
                <time>2026-05-05T16:34:12Z</time>
            </trkpt>
            <trkpt lat="42.821690" lon="-71.965810">
                <time>2026-05-05T16:34:13Z</time>
            </trkpt>
            <trkpt lat="42.821690" lon="-71.966020">
                <time>2026-05-05T16:34:14Z</time>
            </trkpt>
            <trkpt lat="42.821690" lon="-71.966240">
                <time>2026-05-05T16:34:15Z</time>
            </trkpt>
            <trkpt lat="42.821690" lon="-71.966450">
                <time>2026-05-05T16:34:16Z</time>
            </trkpt>
            <trkpt lat="42.821690" lon="-71.966660">
                <time>2026-05-05T16:34:17Z</time>
            </trkpt>
            <trkpt lat="42.821700" lon="-71.966870">
                <time>2026-05-05T16:34:18Z</time>
            </trkpt>
            <trkpt lat="42.821690" lon="-71.967080">
                <time>2026-05-05T16:34:19Z</time>
            </trkpt>
            <trkpt lat="42.821690" lon="-71.967290">
                <time>2026-05-05T16:34:20Z</time>
            </trkpt>
            <trkpt lat="42.821700" lon="-71.967490">
                <time>2026-05-05T16:34:21Z</time>
            </trkpt>
            <trkpt lat="42.821700" lon="-71.967710">
                <time>2026-05-05T16:34:22Z</time>
            </trkpt>
            <trkpt lat="42.821700" lon="-71.967920">
                <time>2026-05-05T16:34:23Z</time>
            </trkpt>
            <trkpt lat="42.821700" lon="-71.968130">
                <time>2026-05-05T16:34:24Z</time>
            </trkpt>
            <trkpt lat="42.821700" lon="-71.968340">
                <time>2026-05-05T16:34:25Z</time>
            </trkpt>
            <trkpt lat="42.821710" lon="-71.968540">
                <time>2026-05-05T16:34:26Z</time>
            </trkpt>
            <trkpt lat="42.821720" lon="-71.968730">
                <time>2026-05-05T16:34:27Z</time>
            </trkpt>
            <trkpt lat="42.821720" lon="-71.968910">
                <time>2026-05-05T16:34:28Z</time>
            </trkpt>
            <trkpt lat="42.821730" lon="-71.969090">
                <time>2026-05-05T16:34:29Z</time>
            </trkpt>
            <trkpt lat="42.821740" lon="-71.969260">
                <time>2026-05-05T16:34:30Z</time>
            </trkpt>
            <trkpt lat="42.821750" lon="-71.969420">
                <time>2026-05-05T16:34:31Z</time>
            </trkpt>
            <trkpt lat="42.821770" lon="-71.969550">
                <time>2026-05-05T16:34:32Z</time>
            </trkpt>
            <trkpt lat="42.821820" lon="-71.969650">
                <time>2026-05-05T16:34:33Z</time>
            </trkpt>
            <trkpt lat="42.821870" lon="-71.969740">
                <time>2026-05-05T16:34:34Z</time>
            </trkpt>
            <trkpt lat="42.821930" lon="-71.969810">
                <time>2026-05-05T16:34:35Z</time>
            </trkpt>
            <trkpt lat="42.822060" lon="-71.969750">
                <time>2026-05-05T16:34:36Z</time>
            </trkpt>
            <trkpt lat="42.822190" lon="-71.969740">
                <time>2026-05-05T16:34:37Z</time>
            </trkpt>
            <trkpt lat="42.822310" lon="-71.969730">
                <time>2026-05-05T16:34:38Z</time>
            </trkpt>
            <trkpt lat="42.822460" lon="-71.969710">
                <time>2026-05-05T16:34:39Z</time>
            </trkpt>
            <trkpt lat="42.822600" lon="-71.969700">
                <time>2026-05-05T16:34:40Z</time>
            </trkpt>
            <trkpt lat="42.822750" lon="-71.969690">
                <time>2026-05-05T16:34:41Z</time>
            </trkpt>
            <trkpt lat="42.822910" lon="-71.969670">
                <time>2026-05-05T16:34:42Z</time>
            </trkpt>
            <trkpt lat="42.823070" lon="-71.969650">
                <time>2026-05-05T16:34:43Z</time>
            </trkpt>
            <trkpt lat="42.823230" lon="-71.969620">
                <time>2026-05-05T16:34:44Z</time>
            </trkpt>
            <trkpt lat="42.823390" lon="-71.969600">
                <time>2026-05-05T16:34:45Z</time>
            </trkpt>
            <trkpt lat="42.823540" lon="-71.969560">
                <time>2026-05-05T16:34:46Z</time>
            </trkpt>
            <trkpt lat="42.823710" lon="-71.969500">
                <time>2026-05-05T16:34:47Z</time>
            </trkpt>
            <trkpt lat="42.823860" lon="-71.969440">
                <time>2026-05-05T16:34:48Z</time>
            </trkpt>
            <trkpt lat="42.824000" lon="-71.969350">
                <time>2026-05-05T16:34:49Z</time>
            </trkpt>
            <trkpt lat="42.824140" lon="-71.969270">
                <time>2026-05-05T16:34:50Z</time>
            </trkpt>
            <trkpt lat="42.824280" lon="-71.969180">
                <time>2026-05-05T16:34:51Z</time>
            </trkpt>
            <trkpt lat="42.824430" lon="-71.969080">
                <time>2026-05-05T16:34:52Z</time>
            </trkpt>
            <trkpt lat="42.824560" lon="-71.969000">
                <time>2026-05-05T16:34:53Z</time>
            </trkpt>
            <trkpt lat="42.824710" lon="-71.968910">
                <time>2026-05-05T16:34:54Z</time>
            </trkpt>
            <trkpt lat="42.824850" lon="-71.968810">
                <time>2026-05-05T16:34:55Z</time>
            </trkpt>
            <trkpt lat="42.825000" lon="-71.968720">
                <time>2026-05-05T16:34:56Z</time>
            </trkpt>
            <trkpt lat="42.825150" lon="-71.968620">
                <time>2026-05-05T16:34:57Z</time>
            </trkpt>
            <trkpt lat="42.825290" lon="-71.968530">
                <time>2026-05-05T16:34:58Z</time>
            </trkpt>
            <trkpt lat="42.825430" lon="-71.968420">
                <time>2026-05-05T16:34:59Z</time>
            </trkpt>
            <trkpt lat="42.825570" lon="-71.968330">
                <time>2026-05-05T16:35:00Z</time>
            </trkpt>
            <trkpt lat="42.825700" lon="-71.968230">
                <time>2026-05-05T16:35:01Z</time>
            </trkpt>
            <trkpt lat="42.825840" lon="-71.968140">
                <time>2026-05-05T16:35:02Z</time>
            </trkpt>
            <trkpt lat="42.825980" lon="-71.968040">
                <time>2026-05-05T16:35:03Z</time>
            </trkpt>
            <trkpt lat="42.826120" lon="-71.967930">
                <time>2026-05-05T16:35:04Z</time>
            </trkpt>
            <trkpt lat="42.826250" lon="-71.967840">
                <time>2026-05-05T16:35:05Z</time>
            </trkpt>
            <trkpt lat="42.826390" lon="-71.967740">
                <time>2026-05-05T16:35:06Z</time>
            </trkpt>
            <trkpt lat="42.826520" lon="-71.967640">
                <time>2026-05-05T16:35:07Z</time>
            </trkpt>
            <trkpt lat="42.826660" lon="-71.967540">
                <time>2026-05-05T16:35:08Z</time>
            </trkpt>
            <trkpt lat="42.826790" lon="-71.967440">
                <time>2026-05-05T16:35:09Z</time>
            </trkpt>
            <trkpt lat="42.826920" lon="-71.967340">
                <time>2026-05-05T16:35:10Z</time>
            </trkpt>
            <trkpt lat="42.827050" lon="-71.967250">
                <time>2026-05-05T16:35:11Z</time>
            </trkpt>
            <trkpt lat="42.827190" lon="-71.967160">
                <time>2026-05-05T16:35:12Z</time>
            </trkpt>
            <trkpt lat="42.827330" lon="-71.967070">
                <time>2026-05-05T16:35:13Z</time>
            </trkpt>
            <trkpt lat="42.827470" lon="-71.966970">
                <time>2026-05-05T16:35:14Z</time>
            </trkpt>
            <trkpt lat="42.827610" lon="-71.966910">
                <time>2026-05-05T16:35:15Z</time>
            </trkpt>
            <trkpt lat="42.827750" lon="-71.966860">
                <time>2026-05-05T16:35:16Z</time>
            </trkpt>
            <trkpt lat="42.827910" lon="-71.966830">
                <time>2026-05-05T16:35:17Z</time>
            </trkpt>
            <trkpt lat="42.828080" lon="-71.966820">
                <time>2026-05-05T16:35:18Z</time>
            </trkpt>
            <trkpt lat="42.828240" lon="-71.966820">
                <time>2026-05-05T16:35:19Z</time>
            </trkpt>
            <trkpt lat="42.828400" lon="-71.966820">
                <time>2026-05-05T16:35:20Z</time>
            </trkpt>
            <trkpt lat="42.828560" lon="-71.966820">
                <time>2026-05-05T16:35:21Z</time>
            </trkpt>
            <trkpt lat="42.828720" lon="-71.966810">
                <time>2026-05-05T16:35:22Z</time>
            </trkpt>
            <trkpt lat="42.828880" lon="-71.966790">
                <time>2026-05-05T16:35:23Z</time>
            </trkpt>
            <trkpt lat="42.829030" lon="-71.966740">
                <time>2026-05-05T16:35:24Z</time>
            </trkpt>
            <trkpt lat="42.829160" lon="-71.966670">
                <time>2026-05-05T16:35:25Z</time>
            </trkpt>
            <trkpt lat="42.829280" lon="-71.966570">
                <time>2026-05-05T16:35:26Z</time>
            </trkpt>
            <trkpt lat="42.829380" lon="-71.966430">
                <time>2026-05-05T16:35:27Z</time>
            </trkpt>
            <trkpt lat="42.829460" lon="-71.966260">
                <time>2026-05-05T16:35:28Z</time>
            </trkpt>
            <trkpt lat="42.829510" lon="-71.966060">
                <time>2026-05-05T16:35:29Z</time>
            </trkpt>
            <trkpt lat="42.829530" lon="-71.965850">
                <time>2026-05-05T16:35:30Z</time>
            </trkpt>
            <trkpt lat="42.829560" lon="-71.965630">
                <time>2026-05-05T16:35:31Z</time>
            </trkpt>
            <trkpt lat="42.829580" lon="-71.965400">
                <time>2026-05-05T16:35:32Z</time>
            </trkpt>
            <trkpt lat="42.829600" lon="-71.965180">
                <time>2026-05-05T16:35:33Z</time>
            </trkpt>
            <trkpt lat="42.829620" lon="-71.964960">
                <time>2026-05-05T16:35:34Z</time>
            </trkpt>
            <trkpt lat="42.829640" lon="-71.964750">
                <time>2026-05-05T16:35:35Z</time>
            </trkpt>
            <trkpt lat="42.829650" lon="-71.964540">
                <time>2026-05-05T16:35:36Z</time>
            </trkpt>
            <trkpt lat="42.829650" lon="-71.964320">
                <time>2026-05-05T16:35:37Z</time>
            </trkpt>
            <trkpt lat="42.829650" lon="-71.964110">
                <time>2026-05-05T16:35:38Z</time>
            </trkpt>
            <trkpt lat="42.829640" lon="-71.963900">
                <time>2026-05-05T16:35:39Z</time>
            </trkpt>
            <trkpt lat="42.829630" lon="-71.963680">
                <time>2026-05-05T16:35:40Z</time>
            </trkpt>
            <trkpt lat="42.829640" lon="-71.963470">
                <time>2026-05-05T16:35:41Z</time>
            </trkpt>
            <trkpt lat="42.829630" lon="-71.963250">
                <time>2026-05-05T16:35:42Z</time>
            </trkpt>
            <trkpt lat="42.829630" lon="-71.963030">
                <time>2026-05-05T16:35:43Z</time>
            </trkpt>
            <trkpt lat="42.829630" lon="-71.962820">
                <time>2026-05-05T16:35:44Z</time>
            </trkpt>
            <trkpt lat="42.829640" lon="-71.962600">
                <time>2026-05-05T16:35:45Z</time>
            </trkpt>
            <trkpt lat="42.829640" lon="-71.962400">
                <time>2026-05-05T16:35:46Z</time>
            </trkpt>
            <trkpt lat="42.829630" lon="-71.962200">
                <time>2026-05-05T16:35:47Z</time>
            </trkpt>
            <trkpt lat="42.829610" lon="-71.961990">
                <time>2026-05-05T16:35:48Z</time>
            </trkpt>
            <trkpt lat="42.829580" lon="-71.961800">
                <time>2026-05-05T16:35:49Z</time>
            </trkpt>
            <trkpt lat="42.829580" lon="-71.961610">
                <time>2026-05-05T16:35:50Z</time>
            </trkpt>
            <trkpt lat="42.829610" lon="-71.961440">
                <time>2026-05-05T16:35:51Z</time>
            </trkpt>
            <trkpt lat="42.829670" lon="-71.961280">
                <time>2026-05-05T16:35:52Z</time>
            </trkpt>
            <trkpt lat="42.829750" lon="-71.961120">
                <time>2026-05-05T16:35:53Z</time>
            </trkpt>
            <trkpt lat="42.829840" lon="-71.960960">
                <time>2026-05-05T16:35:54Z</time>
            </trkpt>
            <trkpt lat="42.829940" lon="-71.960830">
                <time>2026-05-05T16:35:55Z</time>
            </trkpt>
            <trkpt lat="42.830060" lon="-71.960700">
                <time>2026-05-05T16:35:56Z</time>
            </trkpt>
            <trkpt lat="42.830180" lon="-71.960580">
                <time>2026-05-05T16:35:57Z</time>
            </trkpt>
            <trkpt lat="42.830330" lon="-71.960480">
                <time>2026-05-05T16:35:58Z</time>
            </trkpt>
            <trkpt lat="42.830470" lon="-71.960350">
                <time>2026-05-05T16:35:59Z</time>
            </trkpt>
            <trkpt lat="42.830620" lon="-71.960240">
                <time>2026-05-05T16:36:00Z</time>
            </trkpt>
            <trkpt lat="42.830750" lon="-71.960070">
                <time>2026-05-05T16:36:01Z</time>
            </trkpt>
            <trkpt lat="42.830870" lon="-71.959940">
                <time>2026-05-05T16:36:02Z</time>
            </trkpt>
            <trkpt lat="42.831000" lon="-71.959780">
                <time>2026-05-05T16:36:03Z</time>
            </trkpt>
            <trkpt lat="42.831120" lon="-71.959620">
                <time>2026-05-05T16:36:04Z</time>
            </trkpt>
            <trkpt lat="42.831250" lon="-71.959440">
                <time>2026-05-05T16:36:05Z</time>
            </trkpt>
            <trkpt lat="42.831350" lon="-71.959220">
                <time>2026-05-05T16:36:06Z</time>
            </trkpt>
            <trkpt lat="42.831450" lon="-71.959010">
                <time>2026-05-05T16:36:07Z</time>
            </trkpt>
            <trkpt lat="42.831530" lon="-71.958780">
                <time>2026-05-05T16:36:08Z</time>
            </trkpt>
            <trkpt lat="42.831620" lon="-71.958570">
                <time>2026-05-05T16:36:09Z</time>
            </trkpt>
            <trkpt lat="42.831720" lon="-71.958380">
                <time>2026-05-05T16:36:10Z</time>
            </trkpt>
            <trkpt lat="42.831830" lon="-71.958200">
                <time>2026-05-05T16:36:11Z</time>
            </trkpt>
            <trkpt lat="42.831970" lon="-71.958060">
                <time>2026-05-05T16:36:12Z</time>
            </trkpt>
            <trkpt lat="42.832110" lon="-71.957950">
                <time>2026-05-05T16:36:13Z</time>
            </trkpt>
            <trkpt lat="42.832230" lon="-71.957840">
                <time>2026-05-05T16:36:14Z</time>
            </trkpt>
            <trkpt lat="42.832360" lon="-71.957740">
                <time>2026-05-05T16:36:15Z</time>
            </trkpt>
            <trkpt lat="42.832470" lon="-71.957650">
                <time>2026-05-05T16:36:16Z</time>
            </trkpt>
            <trkpt lat="42.832590" lon="-71.957570">
                <time>2026-05-05T16:36:17Z</time>
            </trkpt>
            <trkpt lat="42.832690" lon="-71.957530">
                <time>2026-05-05T16:36:18Z</time>
            </trkpt>
            <trkpt lat="42.832800" lon="-71.957510">
                <time>2026-05-05T16:36:19Z</time>
            </trkpt>
            <trkpt lat="42.832900" lon="-71.957530">
                <time>2026-05-05T16:36:20Z</time>
            </trkpt>
            <trkpt lat="42.833020" lon="-71.957580">
                <time>2026-05-05T16:36:21Z</time>
            </trkpt>
            <trkpt lat="42.833130" lon="-71.957650">
                <time>2026-05-05T16:36:22Z</time>
            </trkpt>
            <trkpt lat="42.833250" lon="-71.957750">
                <time>2026-05-05T16:36:23Z</time>
            </trkpt>
            <trkpt lat="42.833320" lon="-71.957870">
                <time>2026-05-05T16:36:24Z</time>
            </trkpt>
            <trkpt lat="42.833350" lon="-71.958070">
                <time>2026-05-05T16:36:25Z</time>
            </trkpt>
            <trkpt lat="42.833390" lon="-71.958250">
                <time>2026-05-05T16:36:26Z</time>
            </trkpt>
            <trkpt lat="42.833430" lon="-71.958420">
                <time>2026-05-05T16:36:27Z</time>
            </trkpt>
            <trkpt lat="42.833460" lon="-71.958600">
                <time>2026-05-05T16:36:28Z</time>
            </trkpt>
            <trkpt lat="42.833490" lon="-71.958770">
                <time>2026-05-05T16:36:29Z</time>
            </trkpt>
            <trkpt lat="42.833520" lon="-71.958950">
                <time>2026-05-05T16:36:30Z</time>
            </trkpt>
            <trkpt lat="42.833570" lon="-71.959130">
                <time>2026-05-05T16:36:31Z</time>
            </trkpt>
            <trkpt lat="42.833620" lon="-71.959290">
                <time>2026-05-05T16:36:32Z</time>
            </trkpt>
            <trkpt lat="42.833690" lon="-71.959450">
                <time>2026-05-05T16:36:33Z</time>
            </trkpt>
            <trkpt lat="42.833770" lon="-71.959620">
                <time>2026-05-05T16:36:34Z</time>
            </trkpt>
            <trkpt lat="42.833870" lon="-71.959750">
                <time>2026-05-05T16:36:35Z</time>
            </trkpt>
            <trkpt lat="42.833960" lon="-71.959890">
                <time>2026-05-05T16:36:36Z</time>
            </trkpt>
            <trkpt lat="42.834060" lon="-71.960020">
                <time>2026-05-05T16:36:37Z</time>
            </trkpt>
            <trkpt lat="42.834190" lon="-71.960140">
                <time>2026-05-05T16:36:38Z</time>
            </trkpt>
            <trkpt lat="42.834330" lon="-71.960260">
                <time>2026-05-05T16:36:39Z</time>
            </trkpt>
            <trkpt lat="42.834460" lon="-71.960380">
                <time>2026-05-05T16:36:40Z</time>
            </trkpt>
            <trkpt lat="42.834590" lon="-71.960470">
                <time>2026-05-05T16:36:41Z</time>
            </trkpt>
            <trkpt lat="42.834760" lon="-71.960540">
                <time>2026-05-05T16:36:42Z</time>
            </trkpt>
            <trkpt lat="42.834910" lon="-71.960600">
                <time>2026-05-05T16:36:43Z</time>
            </trkpt>
            <trkpt lat="42.835050" lon="-71.960650">
                <time>2026-05-05T16:36:44Z</time>
            </trkpt>
            <trkpt lat="42.835200" lon="-71.960720">
                <time>2026-05-05T16:36:45Z</time>
            </trkpt>
            <trkpt lat="42.835320" lon="-71.960800">
                <time>2026-05-05T16:36:46Z</time>
            </trkpt>
            <trkpt lat="42.835440" lon="-71.960890">
                <time>2026-05-05T16:36:47Z</time>
            </trkpt>
            <trkpt lat="42.835480" lon="-71.961090">
                <time>2026-05-05T16:36:48Z</time>
            </trkpt>
            <trkpt lat="42.835580" lon="-71.961250">
                <time>2026-05-05T16:36:49Z</time>
            </trkpt>
            <trkpt lat="42.835670" lon="-71.961400">
                <time>2026-05-05T16:36:50Z</time>
            </trkpt>
            <trkpt lat="42.835780" lon="-71.961530">
                <time>2026-05-05T16:36:51Z</time>
            </trkpt>
            <trkpt lat="42.835900" lon="-71.961650">
                <time>2026-05-05T16:36:52Z</time>
            </trkpt>
            <trkpt lat="42.836040" lon="-71.961760">
                <time>2026-05-05T16:36:53Z</time>
            </trkpt>
            <trkpt lat="42.836170" lon="-71.961870">
                <time>2026-05-05T16:36:54Z</time>
            </trkpt>
            <trkpt lat="42.836300" lon="-71.961980">
                <time>2026-05-05T16:36:55Z</time>
            </trkpt>
            <trkpt lat="42.836430" lon="-71.962090">
                <time>2026-05-05T16:36:56Z</time>
            </trkpt>
            <trkpt lat="42.836580" lon="-71.962210">
                <time>2026-05-05T16:36:57Z</time>
            </trkpt>
            <trkpt lat="42.836730" lon="-71.962300">
                <time>2026-05-05T16:36:58Z</time>
            </trkpt>
            <trkpt lat="42.836890" lon="-71.962410">
                <time>2026-05-05T16:36:59Z</time>
            </trkpt>
            <trkpt lat="42.837040" lon="-71.962520">
                <time>2026-05-05T16:37:00Z</time>
            </trkpt>
            <trkpt lat="42.837180" lon="-71.962620">
                <time>2026-05-05T16:37:01Z</time>
            </trkpt>
            <trkpt lat="42.837330" lon="-71.962720">
                <time>2026-05-05T16:37:02Z</time>
            </trkpt>
            <trkpt lat="42.837490" lon="-71.962790">
                <time>2026-05-05T16:37:03Z</time>
            </trkpt>
            <trkpt lat="42.837630" lon="-71.962880">
                <time>2026-05-05T16:37:04Z</time>
            </trkpt>
            <trkpt lat="42.837780" lon="-71.962940">
                <time>2026-05-05T16:37:05Z</time>
            </trkpt>
            <trkpt lat="42.837940" lon="-71.962930">
                <time>2026-05-05T16:37:06Z</time>
            </trkpt>
            <trkpt lat="42.838120" lon="-71.962990">
                <time>2026-05-05T16:37:07Z</time>
            </trkpt>
            <trkpt lat="42.838280" lon="-71.963010">
                <time>2026-05-05T16:37:08Z</time>
            </trkpt>
            <trkpt lat="42.838460" lon="-71.963040">
                <time>2026-05-05T16:37:09Z</time>
            </trkpt>
            <trkpt lat="42.838630" lon="-71.963090">
                <time>2026-05-05T16:37:10Z</time>
            </trkpt>
            <trkpt lat="42.838810" lon="-71.963120">
                <time>2026-05-05T16:37:11Z</time>
            </trkpt>
            <trkpt lat="42.838980" lon="-71.963140">
                <time>2026-05-05T16:37:12Z</time>
            </trkpt>
            <trkpt lat="42.839140" lon="-71.963170">
                <time>2026-05-05T16:37:13Z</time>
            </trkpt>
            <trkpt lat="42.839310" lon="-71.963200">
                <time>2026-05-05T16:37:14Z</time>
            </trkpt>
            <trkpt lat="42.839470" lon="-71.963240">
                <time>2026-05-05T16:37:15Z</time>
            </trkpt>
            <trkpt lat="42.839630" lon="-71.963280">
                <time>2026-05-05T16:37:16Z</time>
            </trkpt>
            <trkpt lat="42.839790" lon="-71.963350">
                <time>2026-05-05T16:37:17Z</time>
            </trkpt>
            <trkpt lat="42.839950" lon="-71.963420">
                <time>2026-05-05T16:37:18Z</time>
            </trkpt>
            <trkpt lat="42.840110" lon="-71.963490">
                <time>2026-05-05T16:37:19Z</time>
            </trkpt>
            <trkpt lat="42.840270" lon="-71.963580">
                <time>2026-05-05T16:37:20Z</time>
            </trkpt>
            <trkpt lat="42.840440" lon="-71.963670">
                <time>2026-05-05T16:37:21Z</time>
            </trkpt>
            <trkpt lat="42.840600" lon="-71.963760">
                <time>2026-05-05T16:37:22Z</time>
            </trkpt>
            <trkpt lat="42.840760" lon="-71.963870">
                <time>2026-05-05T16:37:23Z</time>
            </trkpt>
            <trkpt lat="42.840900" lon="-71.964000">
                <time>2026-05-05T16:37:24Z</time>
            </trkpt>
            <trkpt lat="42.841020" lon="-71.964110">
                <time>2026-05-05T16:37:25Z</time>
            </trkpt>
            <trkpt lat="42.841150" lon="-71.964180">
                <time>2026-05-05T16:37:26Z</time>
            </trkpt>
            <trkpt lat="42.841280" lon="-71.964230">
                <time>2026-05-05T16:37:27Z</time>
            </trkpt>
            <trkpt lat="42.841410" lon="-71.964230">
                <time>2026-05-05T16:37:28Z</time>
            </trkpt>
            <trkpt lat="42.841570" lon="-71.964210">
                <time>2026-05-05T16:37:29Z</time>
            </trkpt>
            <trkpt lat="42.841730" lon="-71.964170">
                <time>2026-05-05T16:37:30Z</time>
            </trkpt>
            <trkpt lat="42.841880" lon="-71.964170">
                <time>2026-05-05T16:37:31Z</time>
            </trkpt>
            <trkpt lat="42.842020" lon="-71.964170">
                <time>2026-05-05T16:37:32Z</time>
            </trkpt>
            <trkpt lat="42.842170" lon="-71.964160">
                <time>2026-05-05T16:37:33Z</time>
            </trkpt>
            <trkpt lat="42.842320" lon="-71.964150">
                <time>2026-05-05T16:37:34Z</time>
            </trkpt>
            <trkpt lat="42.842450" lon="-71.964130">
                <time>2026-05-05T16:37:35Z</time>
            </trkpt>
            <trkpt lat="42.842590" lon="-71.964110">
                <time>2026-05-05T16:37:36Z</time>
            </trkpt>
            <trkpt lat="42.842720" lon="-71.964100">
                <time>2026-05-05T16:37:37Z</time>
            </trkpt>
            <trkpt lat="42.842860" lon="-71.964110">
                <time>2026-05-05T16:37:38Z</time>
            </trkpt>
            <trkpt lat="42.842990" lon="-71.964140">
                <time>2026-05-05T16:37:39Z</time>
            </trkpt>
            <trkpt lat="42.843110" lon="-71.964200">
                <time>2026-05-05T16:37:40Z</time>
            </trkpt>
            <trkpt lat="42.843230" lon="-71.964260">
                <time>2026-05-05T16:37:41Z</time>
            </trkpt>
            <trkpt lat="42.843360" lon="-71.964320">
                <time>2026-05-05T16:37:42Z</time>
            </trkpt>
            <trkpt lat="42.843480" lon="-71.964360">
                <time>2026-05-05T16:37:43Z</time>
            </trkpt>
            <trkpt lat="42.843620" lon="-71.964350">
                <time>2026-05-05T16:37:44Z</time>
            </trkpt>
            <trkpt lat="42.843760" lon="-71.964340">
                <time>2026-05-05T16:37:45Z</time>
            </trkpt>
            <trkpt lat="42.843920" lon="-71.964320">
                <time>2026-05-05T16:37:46Z</time>
            </trkpt>
            <trkpt lat="42.844080" lon="-71.964290">
                <time>2026-05-05T16:37:47Z</time>
            </trkpt>
            <trkpt lat="42.844240" lon="-71.964270">
                <time>2026-05-05T16:37:48Z</time>
            </trkpt>
            <trkpt lat="42.844410" lon="-71.964260">
                <time>2026-05-05T16:37:49Z</time>
            </trkpt>
            <trkpt lat="42.844570" lon="-71.964240">
                <time>2026-05-05T16:37:50Z</time>
            </trkpt>
            <trkpt lat="42.844730" lon="-71.964220">
                <time>2026-05-05T16:37:51Z</time>
            </trkpt>
            <trkpt lat="42.844910" lon="-71.964200">
                <time>2026-05-05T16:37:52Z</time>
            </trkpt>
            <trkpt lat="42.845080" lon="-71.964170">
                <time>2026-05-05T16:37:53Z</time>
            </trkpt>
            <trkpt lat="42.845270" lon="-71.964140">
                <time>2026-05-05T16:37:54Z</time>
            </trkpt>
            <trkpt lat="42.845450" lon="-71.964110">
                <time>2026-05-05T16:37:55Z</time>
            </trkpt>
            <trkpt lat="42.845630" lon="-71.964070">
                <time>2026-05-05T16:37:56Z</time>
            </trkpt>
            <trkpt lat="42.845810" lon="-71.964030">
                <time>2026-05-05T16:37:57Z</time>
            </trkpt>
            <trkpt lat="42.845990" lon="-71.963980">
                <time>2026-05-05T16:37:58Z</time>
            </trkpt>
            <trkpt lat="42.846170" lon="-71.963920">
                <time>2026-05-05T16:37:59Z</time>
            </trkpt>
            <trkpt lat="42.846340" lon="-71.963880">
                <time>2026-05-05T16:38:00Z</time>
            </trkpt>
            <trkpt lat="42.846510" lon="-71.963830">
                <time>2026-05-05T16:38:01Z</time>
            </trkpt>
            <trkpt lat="42.846680" lon="-71.963770">
                <time>2026-05-05T16:38:02Z</time>
            </trkpt>
            <trkpt lat="42.846860" lon="-71.963720">
                <time>2026-05-05T16:38:03Z</time>
            </trkpt>
            <trkpt lat="42.847030" lon="-71.963660">
                <time>2026-05-05T16:38:04Z</time>
            </trkpt>
            <trkpt lat="42.847200" lon="-71.963600">
                <time>2026-05-05T16:38:05Z</time>
            </trkpt>
            <trkpt lat="42.847380" lon="-71.963550">
                <time>2026-05-05T16:38:06Z</time>
            </trkpt>
            <trkpt lat="42.847550" lon="-71.963490">
                <time>2026-05-05T16:38:07Z</time>
            </trkpt>
            <trkpt lat="42.847720" lon="-71.963430">
                <time>2026-05-05T16:38:08Z</time>
            </trkpt>
            <trkpt lat="42.847890" lon="-71.963390">
                <time>2026-05-05T16:38:09Z</time>
            </trkpt>
            <trkpt lat="42.848070" lon="-71.963340">
                <time>2026-05-05T16:38:10Z</time>
            </trkpt>
            <trkpt lat="42.848250" lon="-71.963330">
                <time>2026-05-05T16:38:11Z</time>
            </trkpt>
            <trkpt lat="42.848430" lon="-71.963350">
                <time>2026-05-05T16:38:12Z</time>
            </trkpt>
            <trkpt lat="42.848610" lon="-71.963370">
                <time>2026-05-05T16:38:13Z</time>
            </trkpt>
            <trkpt lat="42.848800" lon="-71.963400">
                <time>2026-05-05T16:38:14Z</time>
            </trkpt>
            <trkpt lat="42.848980" lon="-71.963430">
                <time>2026-05-05T16:38:15Z</time>
            </trkpt>
            <trkpt lat="42.849160" lon="-71.963450">
                <time>2026-05-05T16:38:16Z</time>
            </trkpt>
            <trkpt lat="42.849350" lon="-71.963470">
                <time>2026-05-05T16:38:17Z</time>
            </trkpt>
            <trkpt lat="42.849530" lon="-71.963490">
                <time>2026-05-05T16:38:18Z</time>
            </trkpt>
            <trkpt lat="42.849710" lon="-71.963510">
                <time>2026-05-05T16:38:19Z</time>
            </trkpt>
            <trkpt lat="42.849900" lon="-71.963540">
                <time>2026-05-05T16:38:20Z</time>
            </trkpt>
            <trkpt lat="42.850090" lon="-71.963560">
                <time>2026-05-05T16:38:21Z</time>
            </trkpt>
            <trkpt lat="42.850280" lon="-71.963580">
                <time>2026-05-05T16:38:22Z</time>
            </trkpt>
            <trkpt lat="42.850460" lon="-71.963600">
                <time>2026-05-05T16:38:23Z</time>
            </trkpt>
            <trkpt lat="42.850650" lon="-71.963620">
                <time>2026-05-05T16:38:24Z</time>
            </trkpt>
            <trkpt lat="42.850830" lon="-71.963640">
                <time>2026-05-05T16:38:25Z</time>
            </trkpt>
            <trkpt lat="42.851000" lon="-71.963680">
                <time>2026-05-05T16:38:26Z</time>
            </trkpt>
            <trkpt lat="42.851180" lon="-71.963710">
                <time>2026-05-05T16:38:27Z</time>
            </trkpt>
            <trkpt lat="42.851360" lon="-71.963730">
                <time>2026-05-05T16:38:28Z</time>
            </trkpt>
            <trkpt lat="42.851540" lon="-71.963720">
                <time>2026-05-05T16:38:29Z</time>
            </trkpt>
            <trkpt lat="42.851710" lon="-71.963750">
                <time>2026-05-05T16:38:30Z</time>
            </trkpt>
            <trkpt lat="42.851880" lon="-71.963770">
                <time>2026-05-05T16:38:31Z</time>
            </trkpt>
            <trkpt lat="42.852050" lon="-71.963800">
                <time>2026-05-05T16:38:32Z</time>
            </trkpt>
            <trkpt lat="42.852220" lon="-71.963810">
                <time>2026-05-05T16:38:33Z</time>
            </trkpt>
            <trkpt lat="42.852380" lon="-71.963810">
                <time>2026-05-05T16:38:34Z</time>
            </trkpt>
            <trkpt lat="42.852530" lon="-71.963800">
                <time>2026-05-05T16:38:35Z</time>
            </trkpt>
            <trkpt lat="42.852680" lon="-71.963780">
                <time>2026-05-05T16:38:36Z</time>
            </trkpt>
            <trkpt lat="42.852830" lon="-71.963760">
                <time>2026-05-05T16:38:37Z</time>
            </trkpt>
            <trkpt lat="42.852970" lon="-71.963740">
                <time>2026-05-05T16:38:38Z</time>
            </trkpt>
            <trkpt lat="42.853110" lon="-71.963710">
                <time>2026-05-05T16:38:39Z</time>
            </trkpt>
            <trkpt lat="42.853260" lon="-71.963690">
                <time>2026-05-05T16:38:40Z</time>
            </trkpt>
            <trkpt lat="42.853400" lon="-71.963670">
                <time>2026-05-05T16:38:41Z</time>
            </trkpt>
            <trkpt lat="42.853540" lon="-71.963640">
                <time>2026-05-05T16:38:42Z</time>
            </trkpt>
            <trkpt lat="42.853670" lon="-71.963620">
                <time>2026-05-05T16:38:43Z</time>
            </trkpt>
            <trkpt lat="42.853800" lon="-71.963610">
                <time>2026-05-05T16:38:44Z</time>
            </trkpt>
            <trkpt lat="42.853930" lon="-71.963590">
                <time>2026-05-05T16:38:45Z</time>
            </trkpt>
            <trkpt lat="42.854050" lon="-71.963570">
                <time>2026-05-05T16:38:46Z</time>
            </trkpt>
            <trkpt lat="42.854160" lon="-71.963550">
                <time>2026-05-05T16:38:47Z</time>
            </trkpt>
            <trkpt lat="42.854270" lon="-71.963540">
                <time>2026-05-05T16:38:48Z</time>
            </trkpt>
            <trkpt lat="42.854370" lon="-71.963530">
                <time>2026-05-05T16:38:49Z</time>
            </trkpt>
            <trkpt lat="42.854460" lon="-71.963540">
                <time>2026-05-05T16:38:50Z</time>
            </trkpt>
            <trkpt lat="42.854540" lon="-71.963560">
                <time>2026-05-05T16:38:51Z</time>
            </trkpt>
            <trkpt lat="42.854590" lon="-71.963610">
                <time>2026-05-05T16:38:52Z</time>
            </trkpt>
            <trkpt lat="42.854620" lon="-71.963650">
                <time>2026-05-05T16:38:53Z</time>
            </trkpt>
            <trkpt lat="42.854630" lon="-71.963650">
                <time>2026-05-05T16:38:54Z</time>
            </trkpt>
            <trkpt lat="42.854630" lon="-71.963660">
                <time>2026-05-05T16:38:55Z</time>
            </trkpt>
            <trkpt lat="42.854630" lon="-71.963660">
                <time>2026-05-05T16:38:56Z</time>
            </trkpt>
            <trkpt lat="42.854640" lon="-71.963660">
                <time>2026-05-05T16:38:57Z</time>
            </trkpt>
            <trkpt lat="42.854640" lon="-71.963660">
                <time>2026-05-05T16:38:58Z</time>
            </trkpt>
            <trkpt lat="42.854640" lon="-71.963660">
                <time>2026-05-05T16:38:59Z</time>
            </trkpt>
            <trkpt lat="42.854640" lon="-71.963660">
                <time>2026-05-05T16:39:00Z</time>
            </trkpt>
            <trkpt lat="42.854640" lon="-71.963660">
                <time>2026-05-05T16:39:01Z</time>
            </trkpt>
            <trkpt lat="42.854640" lon="-71.963660">
                <time>2026-05-05T16:39:02Z</time>
            </trkpt>
            <trkpt lat="42.854630" lon="-71.963660">
                <time>2026-05-05T16:39:03Z</time>
            </trkpt>
            <trkpt lat="42.854640" lon="-71.963660">
                <time>2026-05-05T16:39:04Z</time>
            </trkpt>
            <trkpt lat="42.854630" lon="-71.963660">
                <time>2026-05-05T16:39:05Z</time>
            </trkpt>
            <trkpt lat="42.854640" lon="-71.963680">
                <time>2026-05-05T16:39:06Z</time>
            </trkpt>
            <trkpt lat="42.854680" lon="-71.963700">
                <time>2026-05-05T16:39:07Z</time>
            </trkpt>
            <trkpt lat="42.854740" lon="-71.963710">
                <time>2026-05-05T16:39:08Z</time>
            </trkpt>
            <trkpt lat="42.854830" lon="-71.963680">
                <time>2026-05-05T16:39:09Z</time>
            </trkpt>
            <trkpt lat="42.854930" lon="-71.963640">
                <time>2026-05-05T16:39:10Z</time>
            </trkpt>
            <trkpt lat="42.855040" lon="-71.963600">
                <time>2026-05-05T16:39:11Z</time>
            </trkpt>
            <trkpt lat="42.855160" lon="-71.963560">
                <time>2026-05-05T16:39:12Z</time>
            </trkpt>
            <trkpt lat="42.855290" lon="-71.963520">
                <time>2026-05-05T16:39:13Z</time>
            </trkpt>
            <trkpt lat="42.855430" lon="-71.963490">
                <time>2026-05-05T16:39:14Z</time>
            </trkpt>
            <trkpt lat="42.855570" lon="-71.963460">
                <time>2026-05-05T16:39:15Z</time>
            </trkpt>
            <trkpt lat="42.855730" lon="-71.963440">
                <time>2026-05-05T16:39:16Z</time>
            </trkpt>
            <trkpt lat="42.855890" lon="-71.963420">
                <time>2026-05-05T16:39:17Z</time>
            </trkpt>
            <trkpt lat="42.856060" lon="-71.963400">
                <time>2026-05-05T16:39:18Z</time>
            </trkpt>
            <trkpt lat="42.856230" lon="-71.963380">
                <time>2026-05-05T16:39:19Z</time>
            </trkpt>
            <trkpt lat="42.856400" lon="-71.963370">
                <time>2026-05-05T16:39:20Z</time>
            </trkpt>
            <trkpt lat="42.856560" lon="-71.963360">
                <time>2026-05-05T16:39:21Z</time>
            </trkpt>
            <trkpt lat="42.856720" lon="-71.963340">
                <time>2026-05-05T16:39:22Z</time>
            </trkpt>
            <trkpt lat="42.856890" lon="-71.963330">
                <time>2026-05-05T16:39:23Z</time>
            </trkpt>
            <trkpt lat="42.857050" lon="-71.963310">
                <time>2026-05-05T16:39:24Z</time>
            </trkpt>
            <trkpt lat="42.857210" lon="-71.963300">
                <time>2026-05-05T16:39:25Z</time>
            </trkpt>
            <trkpt lat="42.857370" lon="-71.963290">
                <time>2026-05-05T16:39:26Z</time>
            </trkpt>
            <trkpt lat="42.857520" lon="-71.963280">
                <time>2026-05-05T16:39:27Z</time>
            </trkpt>
            <trkpt lat="42.857680" lon="-71.963270">
                <time>2026-05-05T16:39:28Z</time>
            </trkpt>
            <trkpt lat="42.857840" lon="-71.963250">
                <time>2026-05-05T16:39:29Z</time>
            </trkpt>
            <trkpt lat="42.858000" lon="-71.963240">
                <time>2026-05-05T16:39:30Z</time>
            </trkpt>
            <trkpt lat="42.858150" lon="-71.963220">
                <time>2026-05-05T16:39:31Z</time>
            </trkpt>
            <trkpt lat="42.858300" lon="-71.963190">
                <time>2026-05-05T16:39:32Z</time>
            </trkpt>
            <trkpt lat="42.858440" lon="-71.963150">
                <time>2026-05-05T16:39:33Z</time>
            </trkpt>
            <trkpt lat="42.858570" lon="-71.963100">
                <time>2026-05-05T16:39:34Z</time>
            </trkpt>
            <trkpt lat="42.858690" lon="-71.963050">
                <time>2026-05-05T16:39:35Z</time>
            </trkpt>
            <trkpt lat="42.858800" lon="-71.962990">
                <time>2026-05-05T16:39:36Z</time>
            </trkpt>
            <trkpt lat="42.858900" lon="-71.962940">
                <time>2026-05-05T16:39:37Z</time>
            </trkpt>
            <trkpt lat="42.858990" lon="-71.962880">
                <time>2026-05-05T16:39:38Z</time>
            </trkpt>
            <trkpt lat="42.859090" lon="-71.962830">
                <time>2026-05-05T16:39:39Z</time>
            </trkpt>
            <trkpt lat="42.859170" lon="-71.962780">
                <time>2026-05-05T16:39:40Z</time>
            </trkpt>
            <trkpt lat="42.859250" lon="-71.962780">
                <time>2026-05-05T16:39:41Z</time>
            </trkpt>
            <trkpt lat="42.859320" lon="-71.962820">
                <time>2026-05-05T16:39:42Z</time>
            </trkpt>
            <trkpt lat="42.859350" lon="-71.962920">
                <time>2026-05-05T16:39:43Z</time>
            </trkpt>
            <trkpt lat="42.859380" lon="-71.963010">
                <time>2026-05-05T16:39:44Z</time>
            </trkpt>
            <trkpt lat="42.859450" lon="-71.963130">
                <time>2026-05-05T16:39:45Z</time>
            </trkpt>
            <trkpt lat="42.859510" lon="-71.963240">
                <time>2026-05-05T16:39:46Z</time>
            </trkpt>
            <trkpt lat="42.859570" lon="-71.963350">
                <time>2026-05-05T16:39:47Z</time>
            </trkpt>
            <trkpt lat="42.859640" lon="-71.963490">
                <time>2026-05-05T16:39:48Z</time>
            </trkpt>
            <trkpt lat="42.859700" lon="-71.963620">
                <time>2026-05-05T16:39:49Z</time>
            </trkpt>
            <trkpt lat="42.859740" lon="-71.963760">
                <time>2026-05-05T16:39:50Z</time>
            </trkpt>
            <trkpt lat="42.859780" lon="-71.963900">
                <time>2026-05-05T16:39:51Z</time>
            </trkpt>
            <trkpt lat="42.859810" lon="-71.964040">
                <time>2026-05-05T16:39:52Z</time>
            </trkpt>
            <trkpt lat="42.859820" lon="-71.964190">
                <time>2026-05-05T16:39:53Z</time>
            </trkpt>
            <trkpt lat="42.859830" lon="-71.964340">
                <time>2026-05-05T16:39:54Z</time>
            </trkpt>
            <trkpt lat="42.859840" lon="-71.964500">
                <time>2026-05-05T16:39:55Z</time>
            </trkpt>
            <trkpt lat="42.859850" lon="-71.964650">
                <time>2026-05-05T16:39:56Z</time>
            </trkpt>
            <trkpt lat="42.859850" lon="-71.964810">
                <time>2026-05-05T16:39:57Z</time>
            </trkpt>
            <trkpt lat="42.859840" lon="-71.964970">
                <time>2026-05-05T16:39:58Z</time>
            </trkpt>
            <trkpt lat="42.859810" lon="-71.965130">
                <time>2026-05-05T16:39:59Z</time>
            </trkpt>
            <trkpt lat="42.859790" lon="-71.965290">
                <time>2026-05-05T16:40:00Z</time>
            </trkpt>
            <trkpt lat="42.859750" lon="-71.965440">
                <time>2026-05-05T16:40:01Z</time>
            </trkpt>
            <trkpt lat="42.859710" lon="-71.965590">
                <time>2026-05-05T16:40:02Z</time>
            </trkpt>
            <trkpt lat="42.859670" lon="-71.965730">
                <time>2026-05-05T16:40:03Z</time>
            </trkpt>
            <trkpt lat="42.859610" lon="-71.965860">
                <time>2026-05-05T16:40:04Z</time>
            </trkpt>
            <trkpt lat="42.859540" lon="-71.965970">
                <time>2026-05-05T16:40:05Z</time>
            </trkpt>
            <trkpt lat="42.859450" lon="-71.966070">
                <time>2026-05-05T16:40:06Z</time>
            </trkpt>
            <trkpt lat="42.859360" lon="-71.966150">
                <time>2026-05-05T16:40:07Z</time>
            </trkpt>
            <trkpt lat="42.859230" lon="-71.966200">
                <time>2026-05-05T16:40:08Z</time>
            </trkpt>
            <trkpt lat="42.859110" lon="-71.966250">
                <time>2026-05-05T16:40:09Z</time>
            </trkpt>
            <trkpt lat="42.858990" lon="-71.966300">
                <time>2026-05-05T16:40:10Z</time>
            </trkpt>
            <trkpt lat="42.858860" lon="-71.966350">
                <time>2026-05-05T16:40:11Z</time>
            </trkpt>
            <trkpt lat="42.858720" lon="-71.966390">
                <time>2026-05-05T16:40:12Z</time>
            </trkpt>
            <trkpt lat="42.858580" lon="-71.966420">
                <time>2026-05-05T16:40:13Z</time>
            </trkpt>
            <trkpt lat="42.858440" lon="-71.966440">
                <time>2026-05-05T16:40:14Z</time>
            </trkpt>
            <trkpt lat="42.858290" lon="-71.966440">
                <time>2026-05-05T16:40:15Z</time>
            </trkpt>
            <trkpt lat="42.858150" lon="-71.966450">
                <time>2026-05-05T16:40:16Z</time>
            </trkpt>
            <trkpt lat="42.858000" lon="-71.966460">
                <time>2026-05-05T16:40:17Z</time>
            </trkpt>
            <trkpt lat="42.857880" lon="-71.966480">
                <time>2026-05-05T16:40:18Z</time>
            </trkpt>
            <trkpt lat="42.857760" lon="-71.966520">
                <time>2026-05-05T16:40:19Z</time>
            </trkpt>
            <trkpt lat="42.857640" lon="-71.966570">
                <time>2026-05-05T16:40:20Z</time>
            </trkpt>
            <trkpt lat="42.857530" lon="-71.966640">
                <time>2026-05-05T16:40:21Z</time>
            </trkpt>
            <trkpt lat="42.857430" lon="-71.966750">
                <time>2026-05-05T16:40:22Z</time>
            </trkpt>
            <trkpt lat="42.857320" lon="-71.966890">
                <time>2026-05-05T16:40:23Z</time>
            </trkpt>
            <trkpt lat="42.857220" lon="-71.967030">
                <time>2026-05-05T16:40:24Z</time>
            </trkpt>
            <trkpt lat="42.857110" lon="-71.967180">
                <time>2026-05-05T16:40:25Z</time>
            </trkpt>
            <trkpt lat="42.857000" lon="-71.967330">
                <time>2026-05-05T16:40:26Z</time>
            </trkpt>
            <trkpt lat="42.856900" lon="-71.967480">
                <time>2026-05-05T16:40:27Z</time>
            </trkpt>
            <trkpt lat="42.856790" lon="-71.967630">
                <time>2026-05-05T16:40:28Z</time>
            </trkpt>
            <trkpt lat="42.856690" lon="-71.967760">
                <time>2026-05-05T16:40:29Z</time>
            </trkpt>
            <trkpt lat="42.856590" lon="-71.967910">
                <time>2026-05-05T16:40:30Z</time>
            </trkpt>
            <trkpt lat="42.856500" lon="-71.968050">
                <time>2026-05-05T16:40:31Z</time>
            </trkpt>
            <trkpt lat="42.856420" lon="-71.968180">
                <time>2026-05-05T16:40:32Z</time>
            </trkpt>
            <trkpt lat="42.856350" lon="-71.968310">
                <time>2026-05-05T16:40:33Z</time>
            </trkpt>
            <trkpt lat="42.856290" lon="-71.968430">
                <time>2026-05-05T16:40:34Z</time>
            </trkpt>
            <trkpt lat="42.856240" lon="-71.968570">
                <time>2026-05-05T16:40:35Z</time>
            </trkpt>
            <trkpt lat="42.856200" lon="-71.968710">
                <time>2026-05-05T16:40:36Z</time>
            </trkpt>
            <trkpt lat="42.856160" lon="-71.968860">
                <time>2026-05-05T16:40:37Z</time>
            </trkpt>
            <trkpt lat="42.856130" lon="-71.969010">
                <time>2026-05-05T16:40:38Z</time>
            </trkpt>
            <trkpt lat="42.856090" lon="-71.969150">
                <time>2026-05-05T16:40:39Z</time>
            </trkpt>
            <trkpt lat="42.856060" lon="-71.969290">
                <time>2026-05-05T16:40:40Z</time>
            </trkpt>
            <trkpt lat="42.856040" lon="-71.969420">
                <time>2026-05-05T16:40:41Z</time>
            </trkpt>
            <trkpt lat="42.856000" lon="-71.969550">
                <time>2026-05-05T16:40:42Z</time>
            </trkpt>
            <trkpt lat="42.855950" lon="-71.969680">
                <time>2026-05-05T16:40:43Z</time>
            </trkpt>
            <trkpt lat="42.855890" lon="-71.969800">
                <time>2026-05-05T16:40:44Z</time>
            </trkpt>
            <trkpt lat="42.855830" lon="-71.969920">
                <time>2026-05-05T16:40:45Z</time>
            </trkpt>
            <trkpt lat="42.855760" lon="-71.970030">
                <time>2026-05-05T16:40:46Z</time>
            </trkpt>
            <trkpt lat="42.855680" lon="-71.970140">
                <time>2026-05-05T16:40:47Z</time>
            </trkpt>
            <trkpt lat="42.855600" lon="-71.970260">
                <time>2026-05-05T16:40:48Z</time>
            </trkpt>
            <trkpt lat="42.855510" lon="-71.970370">
                <time>2026-05-05T16:40:49Z</time>
            </trkpt>
            <trkpt lat="42.855400" lon="-71.970470">
                <time>2026-05-05T16:40:50Z</time>
            </trkpt>
            <trkpt lat="42.855280" lon="-71.970580">
                <time>2026-05-05T16:40:51Z</time>
            </trkpt>
            <trkpt lat="42.855150" lon="-71.970680">
                <time>2026-05-05T16:40:52Z</time>
            </trkpt>
            <trkpt lat="42.855020" lon="-71.970780">
                <time>2026-05-05T16:40:53Z</time>
            </trkpt>
            <trkpt lat="42.854880" lon="-71.970890">
                <time>2026-05-05T16:40:54Z</time>
            </trkpt>
            <trkpt lat="42.854750" lon="-71.970990">
                <time>2026-05-05T16:40:55Z</time>
            </trkpt>
            <trkpt lat="42.854620" lon="-71.971090">
                <time>2026-05-05T16:40:56Z</time>
            </trkpt>
            <trkpt lat="42.854470" lon="-71.971190">
                <time>2026-05-05T16:40:57Z</time>
            </trkpt>
            <trkpt lat="42.854330" lon="-71.971300">
                <time>2026-05-05T16:40:58Z</time>
            </trkpt>
            <trkpt lat="42.854190" lon="-71.971400">
                <time>2026-05-05T16:40:59Z</time>
            </trkpt>
            <trkpt lat="42.854050" lon="-71.971500">
                <time>2026-05-05T16:41:00Z</time>
            </trkpt>
            <trkpt lat="42.853900" lon="-71.971590">
                <time>2026-05-05T16:41:01Z</time>
            </trkpt>
            <trkpt lat="42.853750" lon="-71.971670">
                <time>2026-05-05T16:41:02Z</time>
            </trkpt>
            <trkpt lat="42.853590" lon="-71.971750">
                <time>2026-05-05T16:41:03Z</time>
            </trkpt>
            <trkpt lat="42.853440" lon="-71.971820">
                <time>2026-05-05T16:41:04Z</time>
            </trkpt>
            <trkpt lat="42.853270" lon="-71.971880">
                <time>2026-05-05T16:41:05Z</time>
            </trkpt>
            <trkpt lat="42.853100" lon="-71.971920">
                <time>2026-05-05T16:41:06Z</time>
            </trkpt>
            <trkpt lat="42.852930" lon="-71.971970">
                <time>2026-05-05T16:41:07Z</time>
            </trkpt>
            <trkpt lat="42.852770" lon="-71.972010">
                <time>2026-05-05T16:41:08Z</time>
            </trkpt>
            <trkpt lat="42.852600" lon="-71.972050">
                <time>2026-05-05T16:41:09Z</time>
            </trkpt>
            <trkpt lat="42.852430" lon="-71.972090">
                <time>2026-05-05T16:41:10Z</time>
            </trkpt>
            <trkpt lat="42.852260" lon="-71.972130">
                <time>2026-05-05T16:41:11Z</time>
            </trkpt>
            <trkpt lat="42.852100" lon="-71.972170">
                <time>2026-05-05T16:41:12Z</time>
            </trkpt>
            <trkpt lat="42.851930" lon="-71.972210">
                <time>2026-05-05T16:41:13Z</time>
            </trkpt>
            <trkpt lat="42.851780" lon="-71.972240">
                <time>2026-05-05T16:41:14Z</time>
            </trkpt>
            <trkpt lat="42.851620" lon="-71.972260">
                <time>2026-05-05T16:41:15Z</time>
            </trkpt>
            <trkpt lat="42.851450" lon="-71.972300">
                <time>2026-05-05T16:41:16Z</time>
            </trkpt>
            <trkpt lat="42.851300" lon="-71.972320">
                <time>2026-05-05T16:41:17Z</time>
            </trkpt>
            <trkpt lat="42.851140" lon="-71.972360">
                <time>2026-05-05T16:41:18Z</time>
            </trkpt>
            <trkpt lat="42.851000" lon="-71.972400">
                <time>2026-05-05T16:41:19Z</time>
            </trkpt>
            <trkpt lat="42.850850" lon="-71.972430">
                <time>2026-05-05T16:41:20Z</time>
            </trkpt>
            <trkpt lat="42.850700" lon="-71.972480">
                <time>2026-05-05T16:41:21Z</time>
            </trkpt>
            <trkpt lat="42.850560" lon="-71.972520">
                <time>2026-05-05T16:41:22Z</time>
            </trkpt>
            <trkpt lat="42.850410" lon="-71.972550">
                <time>2026-05-05T16:41:23Z</time>
            </trkpt>
            <trkpt lat="42.850250" lon="-71.972560">
                <time>2026-05-05T16:41:24Z</time>
            </trkpt>
            <trkpt lat="42.850100" lon="-71.972550">
                <time>2026-05-05T16:41:25Z</time>
            </trkpt>
            <trkpt lat="42.849930" lon="-71.972520">
                <time>2026-05-05T16:41:26Z</time>
            </trkpt>
            <trkpt lat="42.849770" lon="-71.972500">
                <time>2026-05-05T16:41:27Z</time>
            </trkpt>
            <trkpt lat="42.849610" lon="-71.972480">
                <time>2026-05-05T16:41:28Z</time>
            </trkpt>
            <trkpt lat="42.849460" lon="-71.972450">
                <time>2026-05-05T16:41:29Z</time>
            </trkpt>
            <trkpt lat="42.849290" lon="-71.972440">
                <time>2026-05-05T16:41:30Z</time>
            </trkpt>
            <trkpt lat="42.849130" lon="-71.972420">
                <time>2026-05-05T16:41:31Z</time>
            </trkpt>
            <trkpt lat="42.848970" lon="-71.972420">
                <time>2026-05-05T16:41:32Z</time>
            </trkpt>
            <trkpt lat="42.848810" lon="-71.972410">
                <time>2026-05-05T16:41:33Z</time>
            </trkpt>
            <trkpt lat="42.848660" lon="-71.972400">
                <time>2026-05-05T16:41:34Z</time>
            </trkpt>
            <trkpt lat="42.848520" lon="-71.972390">
                <time>2026-05-05T16:41:35Z</time>
            </trkpt>
            <trkpt lat="42.848400" lon="-71.972390">
                <time>2026-05-05T16:41:36Z</time>
            </trkpt>
            <trkpt lat="42.848290" lon="-71.972390">
                <time>2026-05-05T16:41:37Z</time>
            </trkpt>
            <trkpt lat="42.848210" lon="-71.972410">
                <time>2026-05-05T16:41:38Z</time>
            </trkpt>
            <trkpt lat="42.848140" lon="-71.972460">
                <time>2026-05-05T16:41:39Z</time>
            </trkpt>
            <trkpt lat="42.848100" lon="-71.972560">
                <time>2026-05-05T16:41:40Z</time>
            </trkpt>
            <trkpt lat="42.848070" lon="-71.972690">
                <time>2026-05-05T16:41:41Z</time>
            </trkpt>
            <trkpt lat="42.848040" lon="-71.972830">
                <time>2026-05-05T16:41:42Z</time>
            </trkpt>
            <trkpt lat="42.848010" lon="-71.973030">
                <time>2026-05-05T16:41:43Z</time>
            </trkpt>
            <trkpt lat="42.847980" lon="-71.973230">
                <time>2026-05-05T16:41:44Z</time>
            </trkpt>
            <trkpt lat="42.847950" lon="-71.973450">
                <time>2026-05-05T16:41:45Z</time>
            </trkpt>
            <trkpt lat="42.847920" lon="-71.973670">
                <time>2026-05-05T16:41:46Z</time>
            </trkpt>
            <trkpt lat="42.847890" lon="-71.973870">
                <time>2026-05-05T16:41:47Z</time>
            </trkpt>
            <trkpt lat="42.847860" lon="-71.974080">
                <time>2026-05-05T16:41:48Z</time>
            </trkpt>
            <trkpt lat="42.847830" lon="-71.974280">
                <time>2026-05-05T16:41:49Z</time>
            </trkpt>
            <trkpt lat="42.847790" lon="-71.974500">
                <time>2026-05-05T16:41:50Z</time>
            </trkpt>
            <trkpt lat="42.847770" lon="-71.974710">
                <time>2026-05-05T16:41:51Z</time>
            </trkpt>
            <trkpt lat="42.847740" lon="-71.974940">
                <time>2026-05-05T16:41:52Z</time>
            </trkpt>
            <trkpt lat="42.847710" lon="-71.975160">
                <time>2026-05-05T16:41:53Z</time>
            </trkpt>
            <trkpt lat="42.847680" lon="-71.975380">
                <time>2026-05-05T16:41:54Z</time>
            </trkpt>
            <trkpt lat="42.847640" lon="-71.975610">
                <time>2026-05-05T16:41:55Z</time>
            </trkpt>
            <trkpt lat="42.847620" lon="-71.975830">
                <time>2026-05-05T16:41:56Z</time>
            </trkpt>
            <trkpt lat="42.847590" lon="-71.976050">
                <time>2026-05-05T16:41:57Z</time>
            </trkpt>
            <trkpt lat="42.847560" lon="-71.976260">
                <time>2026-05-05T16:41:58Z</time>
            </trkpt>
            <trkpt lat="42.847540" lon="-71.976470">
                <time>2026-05-05T16:41:59Z</time>
            </trkpt>
            <trkpt lat="42.847510" lon="-71.976690">
                <time>2026-05-05T16:42:00Z</time>
            </trkpt>
            <trkpt lat="42.847480" lon="-71.976900">
                <time>2026-05-05T16:42:01Z</time>
            </trkpt>
            <trkpt lat="42.847450" lon="-71.977110">
                <time>2026-05-05T16:42:02Z</time>
            </trkpt>
            <trkpt lat="42.847430" lon="-71.977320">
                <time>2026-05-05T16:42:03Z</time>
            </trkpt>
            <trkpt lat="42.847400" lon="-71.977520">
                <time>2026-05-05T16:42:04Z</time>
            </trkpt>
            <trkpt lat="42.847380" lon="-71.977720">
                <time>2026-05-05T16:42:05Z</time>
            </trkpt>
            <trkpt lat="42.847350" lon="-71.977940">
                <time>2026-05-05T16:42:06Z</time>
            </trkpt>
            <trkpt lat="42.847330" lon="-71.978150">
                <time>2026-05-05T16:42:07Z</time>
            </trkpt>
            <trkpt lat="42.847290" lon="-71.978360">
                <time>2026-05-05T16:42:08Z</time>
            </trkpt>
            <trkpt lat="42.847270" lon="-71.978570">
                <time>2026-05-05T16:42:09Z</time>
            </trkpt>
            <trkpt lat="42.847230" lon="-71.978790">
                <time>2026-05-05T16:42:10Z</time>
            </trkpt>
            <trkpt lat="42.847210" lon="-71.979000">
                <time>2026-05-05T16:42:11Z</time>
            </trkpt>
            <trkpt lat="42.847180" lon="-71.979220">
                <time>2026-05-05T16:42:12Z</time>
            </trkpt>
            <trkpt lat="42.847140" lon="-71.979450">
                <time>2026-05-05T16:42:13Z</time>
            </trkpt>
            <trkpt lat="42.847130" lon="-71.979680">
                <time>2026-05-05T16:42:14Z</time>
            </trkpt>
            <trkpt lat="42.847100" lon="-71.979920">
                <time>2026-05-05T16:42:15Z</time>
            </trkpt>
            <trkpt lat="42.847080" lon="-71.980140">
                <time>2026-05-05T16:42:16Z</time>
            </trkpt>
            <trkpt lat="42.847040" lon="-71.980360">
                <time>2026-05-05T16:42:17Z</time>
            </trkpt>
            <trkpt lat="42.847000" lon="-71.980560">
                <time>2026-05-05T16:42:18Z</time>
            </trkpt>
            <trkpt lat="42.846950" lon="-71.980770">
                <time>2026-05-05T16:42:19Z</time>
            </trkpt>
            <trkpt lat="42.846890" lon="-71.980950">
                <time>2026-05-05T16:42:20Z</time>
            </trkpt>
            <trkpt lat="42.846820" lon="-71.981150">
                <time>2026-05-05T16:42:21Z</time>
            </trkpt>
            <trkpt lat="42.846740" lon="-71.981310">
                <time>2026-05-05T16:42:22Z</time>
            </trkpt>
            <trkpt lat="42.846650" lon="-71.981490">
                <time>2026-05-05T16:42:23Z</time>
            </trkpt>
            <trkpt lat="42.846570" lon="-71.981670">
                <time>2026-05-05T16:42:24Z</time>
            </trkpt>
            <trkpt lat="42.846490" lon="-71.981840">
                <time>2026-05-05T16:42:25Z</time>
            </trkpt>
            <trkpt lat="42.846390" lon="-71.982000">
                <time>2026-05-05T16:42:26Z</time>
            </trkpt>
            <trkpt lat="42.846310" lon="-71.982190">
                <time>2026-05-05T16:42:27Z</time>
            </trkpt>
            <trkpt lat="42.846230" lon="-71.982380">
                <time>2026-05-05T16:42:28Z</time>
            </trkpt>
            <trkpt lat="42.846170" lon="-71.982580">
                <time>2026-05-05T16:42:29Z</time>
            </trkpt>
            <trkpt lat="42.846120" lon="-71.982780">
                <time>2026-05-05T16:42:30Z</time>
            </trkpt>
            <trkpt lat="42.846070" lon="-71.982990">
                <time>2026-05-05T16:42:31Z</time>
            </trkpt>
            <trkpt lat="42.846030" lon="-71.983190">
                <time>2026-05-05T16:42:32Z</time>
            </trkpt>
            <trkpt lat="42.845990" lon="-71.983400">
                <time>2026-05-05T16:42:33Z</time>
            </trkpt>
            <trkpt lat="42.845950" lon="-71.983620">
                <time>2026-05-05T16:42:34Z</time>
            </trkpt>
            <trkpt lat="42.845930" lon="-71.983850">
                <time>2026-05-05T16:42:35Z</time>
            </trkpt>
            <trkpt lat="42.845890" lon="-71.984060">
                <time>2026-05-05T16:42:36Z</time>
            </trkpt>
            <trkpt lat="42.845870" lon="-71.984280">
                <time>2026-05-05T16:42:37Z</time>
            </trkpt>
            <trkpt lat="42.845840" lon="-71.984490">
                <time>2026-05-05T16:42:38Z</time>
            </trkpt>
            <trkpt lat="42.845830" lon="-71.984700">
                <time>2026-05-05T16:42:39Z</time>
            </trkpt>
            <trkpt lat="42.845800" lon="-71.984930">
                <time>2026-05-05T16:42:40Z</time>
            </trkpt>
            <trkpt lat="42.845790" lon="-71.985150">
                <time>2026-05-05T16:42:41Z</time>
            </trkpt>
            <trkpt lat="42.845770" lon="-71.985350">
                <time>2026-05-05T16:42:42Z</time>
            </trkpt>
            <trkpt lat="42.845740" lon="-71.985550">
                <time>2026-05-05T16:42:43Z</time>
            </trkpt>
            <trkpt lat="42.845720" lon="-71.985750">
                <time>2026-05-05T16:42:44Z</time>
            </trkpt>
            <trkpt lat="42.845680" lon="-71.985950">
                <time>2026-05-05T16:42:45Z</time>
            </trkpt>
            <trkpt lat="42.845650" lon="-71.986150">
                <time>2026-05-05T16:42:46Z</time>
            </trkpt>
            <trkpt lat="42.845650" lon="-71.986330">
                <time>2026-05-05T16:42:47Z</time>
            </trkpt>
            <trkpt lat="42.845660" lon="-71.986510">
                <time>2026-05-05T16:42:48Z</time>
            </trkpt>
            <trkpt lat="42.845690" lon="-71.986680">
                <time>2026-05-05T16:42:49Z</time>
            </trkpt>
            <trkpt lat="42.845710" lon="-71.986850">
                <time>2026-05-05T16:42:50Z</time>
            </trkpt>
            <trkpt lat="42.845770" lon="-71.987010">
                <time>2026-05-05T16:42:51Z</time>
            </trkpt>
            <trkpt lat="42.845840" lon="-71.987160">
                <time>2026-05-05T16:42:52Z</time>
            </trkpt>
            <trkpt lat="42.845900" lon="-71.987300">
                <time>2026-05-05T16:42:53Z</time>
            </trkpt>
            <trkpt lat="42.845970" lon="-71.987460">
                <time>2026-05-05T16:42:54Z</time>
            </trkpt>
            <trkpt lat="42.846050" lon="-71.987630">
                <time>2026-05-05T16:42:55Z</time>
            </trkpt>
            <trkpt lat="42.846140" lon="-71.987790">
                <time>2026-05-05T16:42:56Z</time>
            </trkpt>
            <trkpt lat="42.846220" lon="-71.987950">
                <time>2026-05-05T16:42:57Z</time>
            </trkpt>
            <trkpt lat="42.846300" lon="-71.988110">
                <time>2026-05-05T16:42:58Z</time>
            </trkpt>
            <trkpt lat="42.846360" lon="-71.988280">
                <time>2026-05-05T16:42:59Z</time>
            </trkpt>
            <trkpt lat="42.846430" lon="-71.988460">
                <time>2026-05-05T16:43:00Z</time>
            </trkpt>
            <trkpt lat="42.846480" lon="-71.988640">
                <time>2026-05-05T16:43:01Z</time>
            </trkpt>
            <trkpt lat="42.846520" lon="-71.988840">
                <time>2026-05-05T16:43:02Z</time>
            </trkpt>
            <trkpt lat="42.846550" lon="-71.989040">
                <time>2026-05-05T16:43:03Z</time>
            </trkpt>
            <trkpt lat="42.846570" lon="-71.989250">
                <time>2026-05-05T16:43:04Z</time>
            </trkpt>
            <trkpt lat="42.846590" lon="-71.989440">
                <time>2026-05-05T16:43:05Z</time>
            </trkpt>
            <trkpt lat="42.846610" lon="-71.989640">
                <time>2026-05-05T16:43:06Z</time>
            </trkpt>
            <trkpt lat="42.846650" lon="-71.989830">
                <time>2026-05-05T16:43:07Z</time>
            </trkpt>
            <trkpt lat="42.846700" lon="-71.990010">
                <time>2026-05-05T16:43:08Z</time>
            </trkpt>
            <trkpt lat="42.846760" lon="-71.990190">
                <time>2026-05-05T16:43:09Z</time>
            </trkpt>
            <trkpt lat="42.846830" lon="-71.990380">
                <time>2026-05-05T16:43:10Z</time>
            </trkpt>
            <trkpt lat="42.846910" lon="-71.990550">
                <time>2026-05-05T16:43:11Z</time>
            </trkpt>
            <trkpt lat="42.846990" lon="-71.990720">
                <time>2026-05-05T16:43:12Z</time>
            </trkpt>
            <trkpt lat="42.847060" lon="-71.990890">
                <time>2026-05-05T16:43:13Z</time>
            </trkpt>
            <trkpt lat="42.847140" lon="-71.991070">
                <time>2026-05-05T16:43:14Z</time>
            </trkpt>
            <trkpt lat="42.847220" lon="-71.991240">
                <time>2026-05-05T16:43:15Z</time>
            </trkpt>
            <trkpt lat="42.847290" lon="-71.991410">
                <time>2026-05-05T16:43:16Z</time>
            </trkpt>
            <trkpt lat="42.847360" lon="-71.991580">
                <time>2026-05-05T16:43:17Z</time>
            </trkpt>
            <trkpt lat="42.847430" lon="-71.991730">
                <time>2026-05-05T16:43:18Z</time>
            </trkpt>
            <trkpt lat="42.847490" lon="-71.991880">
                <time>2026-05-05T16:43:19Z</time>
            </trkpt>
            <trkpt lat="42.847540" lon="-71.992030">
                <time>2026-05-05T16:43:20Z</time>
            </trkpt>
            <trkpt lat="42.847580" lon="-71.992180">
                <time>2026-05-05T16:43:21Z</time>
            </trkpt>
            <trkpt lat="42.847610" lon="-71.992320">
                <time>2026-05-05T16:43:22Z</time>
            </trkpt>
            <trkpt lat="42.847630" lon="-71.992460">
                <time>2026-05-05T16:43:23Z</time>
            </trkpt>
            <trkpt lat="42.847640" lon="-71.992600">
                <time>2026-05-05T16:43:24Z</time>
            </trkpt>
            <trkpt lat="42.847640" lon="-71.992740">
                <time>2026-05-05T16:43:25Z</time>
            </trkpt>
            <trkpt lat="42.847630" lon="-71.992900">
                <time>2026-05-05T16:43:26Z</time>
            </trkpt>
            <trkpt lat="42.847610" lon="-71.993020">
                <time>2026-05-05T16:43:27Z</time>
            </trkpt>
            <trkpt lat="42.847600" lon="-71.993130">
                <time>2026-05-05T16:43:28Z</time>
            </trkpt>
            <trkpt lat="42.847570" lon="-71.993240">
                <time>2026-05-05T16:43:29Z</time>
            </trkpt>
            <trkpt lat="42.847550" lon="-71.993360">
                <time>2026-05-05T16:43:30Z</time>
            </trkpt>
            <trkpt lat="42.847540" lon="-71.993470">
                <time>2026-05-05T16:43:31Z</time>
            </trkpt>
            <trkpt lat="42.847510" lon="-71.993590">
                <time>2026-05-05T16:43:32Z</time>
            </trkpt>
            <trkpt lat="42.847480" lon="-71.993720">
                <time>2026-05-05T16:43:33Z</time>
            </trkpt>
            <trkpt lat="42.847450" lon="-71.993850">
                <time>2026-05-05T16:43:34Z</time>
            </trkpt>
            <trkpt lat="42.847430" lon="-71.993990">
                <time>2026-05-05T16:43:35Z</time>
            </trkpt>
            <trkpt lat="42.847390" lon="-71.994120">
                <time>2026-05-05T16:43:36Z</time>
            </trkpt>
            <trkpt lat="42.847330" lon="-71.994280">
                <time>2026-05-05T16:43:37Z</time>
            </trkpt>
            <trkpt lat="42.847290" lon="-71.994440">
                <time>2026-05-05T16:43:38Z</time>
            </trkpt>
            <trkpt lat="42.847240" lon="-71.994610">
                <time>2026-05-05T16:43:39Z</time>
            </trkpt>
            <trkpt lat="42.847180" lon="-71.994770">
                <time>2026-05-05T16:43:40Z</time>
            </trkpt>
            <trkpt lat="42.847130" lon="-71.994930">
                <time>2026-05-05T16:43:41Z</time>
            </trkpt>
            <trkpt lat="42.847070" lon="-71.995080">
                <time>2026-05-05T16:43:42Z</time>
            </trkpt>
            <trkpt lat="42.847010" lon="-71.995220">
                <time>2026-05-05T16:43:43Z</time>
            </trkpt>
            <trkpt lat="42.846960" lon="-71.995390">
                <time>2026-05-05T16:43:44Z</time>
            </trkpt>
            <trkpt lat="42.846900" lon="-71.995550">
                <time>2026-05-05T16:43:45Z</time>
            </trkpt>
            <trkpt lat="42.846840" lon="-71.995720">
                <time>2026-05-05T16:43:46Z</time>
            </trkpt>
            <trkpt lat="42.846770" lon="-71.995900">
                <time>2026-05-05T16:43:47Z</time>
            </trkpt>
            <trkpt lat="42.846700" lon="-71.996060">
                <time>2026-05-05T16:43:48Z</time>
            </trkpt>
            <trkpt lat="42.846640" lon="-71.996240">
                <time>2026-05-05T16:43:49Z</time>
            </trkpt>
            <trkpt lat="42.846560" lon="-71.996430">
                <time>2026-05-05T16:43:50Z</time>
            </trkpt>
            <trkpt lat="42.846490" lon="-71.996610">
                <time>2026-05-05T16:43:51Z</time>
            </trkpt>
            <trkpt lat="42.846410" lon="-71.996780">
                <time>2026-05-05T16:43:52Z</time>
            </trkpt>
            <trkpt lat="42.846340" lon="-71.996950">
                <time>2026-05-05T16:43:53Z</time>
            </trkpt>
            <trkpt lat="42.846260" lon="-71.997120">
                <time>2026-05-05T16:43:54Z</time>
            </trkpt>
            <trkpt lat="42.846190" lon="-71.997270">
                <time>2026-05-05T16:43:55Z</time>
            </trkpt>
            <trkpt lat="42.846120" lon="-71.997420">
                <time>2026-05-05T16:43:56Z</time>
            </trkpt>
            <trkpt lat="42.846060" lon="-71.997570">
                <time>2026-05-05T16:43:57Z</time>
            </trkpt>
            <trkpt lat="42.845990" lon="-71.997720">
                <time>2026-05-05T16:43:58Z</time>
            </trkpt>
            <trkpt lat="42.845930" lon="-71.997870">
                <time>2026-05-05T16:43:59Z</time>
            </trkpt>
            <trkpt lat="42.845870" lon="-71.998010">
                <time>2026-05-05T16:44:00Z</time>
            </trkpt>
            <trkpt lat="42.845800" lon="-71.998150">
                <time>2026-05-05T16:44:01Z</time>
            </trkpt>
            <trkpt lat="42.845740" lon="-71.998290">
                <time>2026-05-05T16:44:02Z</time>
            </trkpt>
            <trkpt lat="42.845680" lon="-71.998410">
                <time>2026-05-05T16:44:03Z</time>
            </trkpt>
            <trkpt lat="42.845630" lon="-71.998540">
                <time>2026-05-05T16:44:04Z</time>
            </trkpt>
            <trkpt lat="42.845560" lon="-71.998680">
                <time>2026-05-05T16:44:05Z</time>
            </trkpt>
            <trkpt lat="42.845480" lon="-71.998830">
                <time>2026-05-05T16:44:06Z</time>
            </trkpt>
            <trkpt lat="42.845380" lon="-71.998990">
                <time>2026-05-05T16:44:07Z</time>
            </trkpt>
            <trkpt lat="42.845290" lon="-71.999140">
                <time>2026-05-05T16:44:08Z</time>
            </trkpt>
            <trkpt lat="42.845180" lon="-71.999290">
                <time>2026-05-05T16:44:09Z</time>
            </trkpt>
            <trkpt lat="42.845080" lon="-71.999440">
                <time>2026-05-05T16:44:10Z</time>
            </trkpt>
            <trkpt lat="42.844970" lon="-71.999600">
                <time>2026-05-05T16:44:11Z</time>
            </trkpt>
            <trkpt lat="42.844860" lon="-71.999760">
                <time>2026-05-05T16:44:12Z</time>
            </trkpt>
            <trkpt lat="42.844760" lon="-71.999930">
                <time>2026-05-05T16:44:13Z</time>
            </trkpt>
            <trkpt lat="42.844660" lon="-72.000080">
                <time>2026-05-05T16:44:14Z</time>
            </trkpt>
            <trkpt lat="42.844550" lon="-72.000250">
                <time>2026-05-05T16:44:15Z</time>
            </trkpt>
            <trkpt lat="42.844460" lon="-72.000420">
                <time>2026-05-05T16:44:16Z</time>
            </trkpt>
            <trkpt lat="42.844380" lon="-72.000600">
                <time>2026-05-05T16:44:17Z</time>
            </trkpt>
            <trkpt lat="42.844310" lon="-72.000800">
                <time>2026-05-05T16:44:18Z</time>
            </trkpt>
            <trkpt lat="42.844230" lon="-72.001010">
                <time>2026-05-05T16:44:19Z</time>
            </trkpt>
            <trkpt lat="42.844220" lon="-72.001240">
                <time>2026-05-05T16:44:20Z</time>
            </trkpt>
            <trkpt lat="42.844190" lon="-72.001470">
                <time>2026-05-05T16:44:21Z</time>
            </trkpt>
            <trkpt lat="42.844160" lon="-72.001700">
                <time>2026-05-05T16:44:22Z</time>
            </trkpt>
            <trkpt lat="42.844130" lon="-72.001930">
                <time>2026-05-05T16:44:23Z</time>
            </trkpt>
            <trkpt lat="42.844090" lon="-72.002180">
                <time>2026-05-05T16:44:24Z</time>
            </trkpt>
            <trkpt lat="42.844060" lon="-72.002420">
                <time>2026-05-05T16:44:25Z</time>
            </trkpt>
            <trkpt lat="42.844030" lon="-72.002650">
                <time>2026-05-05T16:44:26Z</time>
            </trkpt>
            <trkpt lat="42.844020" lon="-72.002870">
                <time>2026-05-05T16:44:27Z</time>
            </trkpt>
            <trkpt lat="42.844020" lon="-72.003100">
                <time>2026-05-05T16:44:28Z</time>
            </trkpt>
            <trkpt lat="42.844020" lon="-72.003330">
                <time>2026-05-05T16:44:29Z</time>
            </trkpt>
            <trkpt lat="42.844020" lon="-72.003550">
                <time>2026-05-05T16:44:30Z</time>
            </trkpt>
            <trkpt lat="42.844030" lon="-72.003780">
                <time>2026-05-05T16:44:31Z</time>
            </trkpt>
            <trkpt lat="42.844040" lon="-72.004000">
                <time>2026-05-05T16:44:32Z</time>
            </trkpt>
            <trkpt lat="42.844030" lon="-72.004220">
                <time>2026-05-05T16:44:33Z</time>
            </trkpt>
            <trkpt lat="42.844030" lon="-72.004450">
                <time>2026-05-05T16:44:34Z</time>
            </trkpt>
            <trkpt lat="42.844020" lon="-72.004670">
                <time>2026-05-05T16:44:35Z</time>
            </trkpt>
            <trkpt lat="42.844010" lon="-72.004890">
                <time>2026-05-05T16:44:36Z</time>
            </trkpt>
            <trkpt lat="42.844000" lon="-72.005110">
                <time>2026-05-05T16:44:37Z</time>
            </trkpt>
            <trkpt lat="42.843990" lon="-72.005320">
                <time>2026-05-05T16:44:38Z</time>
            </trkpt>
            <trkpt lat="42.843980" lon="-72.005550">
                <time>2026-05-05T16:44:39Z</time>
            </trkpt>
            <trkpt lat="42.843970" lon="-72.005760">
                <time>2026-05-05T16:44:40Z</time>
            </trkpt>
            <trkpt lat="42.843970" lon="-72.005990">
                <time>2026-05-05T16:44:41Z</time>
            </trkpt>
            <trkpt lat="42.843980" lon="-72.006220">
                <time>2026-05-05T16:44:42Z</time>
            </trkpt>
            <trkpt lat="42.843990" lon="-72.006450">
                <time>2026-05-05T16:44:43Z</time>
            </trkpt>
            <trkpt lat="42.844020" lon="-72.006680">
                <time>2026-05-05T16:44:44Z</time>
            </trkpt>
            <trkpt lat="42.844040" lon="-72.006910">
                <time>2026-05-05T16:44:45Z</time>
            </trkpt>
            <trkpt lat="42.844060" lon="-72.007130">
                <time>2026-05-05T16:44:46Z</time>
            </trkpt>
            <trkpt lat="42.844070" lon="-72.007350">
                <time>2026-05-05T16:44:47Z</time>
            </trkpt>
            <trkpt lat="42.844070" lon="-72.007560">
                <time>2026-05-05T16:44:48Z</time>
            </trkpt>
            <trkpt lat="42.844080" lon="-72.007780">
                <time>2026-05-05T16:44:49Z</time>
            </trkpt>
            <trkpt lat="42.844070" lon="-72.007990">
                <time>2026-05-05T16:44:50Z</time>
            </trkpt>
            <trkpt lat="42.844070" lon="-72.008190">
                <time>2026-05-05T16:44:51Z</time>
            </trkpt>
            <trkpt lat="42.844070" lon="-72.008380">
                <time>2026-05-05T16:44:52Z</time>
            </trkpt>
            <trkpt lat="42.844070" lon="-72.008560">
                <time>2026-05-05T16:44:53Z</time>
            </trkpt>
            <trkpt lat="42.844080" lon="-72.008730">
                <time>2026-05-05T16:44:54Z</time>
            </trkpt>
            <trkpt lat="42.844080" lon="-72.008870">
                <time>2026-05-05T16:44:55Z</time>
            </trkpt>
            <trkpt lat="42.844080" lon="-72.009000">
                <time>2026-05-05T16:44:56Z</time>
            </trkpt>
            <trkpt lat="42.844060" lon="-72.009110">
                <time>2026-05-05T16:44:57Z</time>
            </trkpt>
            <trkpt lat="42.844020" lon="-72.009190">
                <time>2026-05-05T16:44:58Z</time>
            </trkpt>
            <trkpt lat="42.843960" lon="-72.009230">
                <time>2026-05-05T16:44:59Z</time>
            </trkpt>
            <trkpt lat="42.843890" lon="-72.009230">
                <time>2026-05-05T16:45:00Z</time>
            </trkpt>
            <trkpt lat="42.843820" lon="-72.009230">
                <time>2026-05-05T16:45:01Z</time>
            </trkpt>
            <trkpt lat="42.843740" lon="-72.009230">
                <time>2026-05-05T16:45:02Z</time>
            </trkpt>
            <trkpt lat="42.843650" lon="-72.009230">
                <time>2026-05-05T16:45:03Z</time>
            </trkpt>
            <trkpt lat="42.843570" lon="-72.009220">
                <time>2026-05-05T16:45:04Z</time>
            </trkpt>
            <trkpt lat="42.843480" lon="-72.009210">
                <time>2026-05-05T16:45:05Z</time>
            </trkpt>
            <trkpt lat="42.843350" lon="-72.009200">
                <time>2026-05-05T16:45:06Z</time>
            </trkpt>
            <trkpt lat="42.843210" lon="-72.009190">
                <time>2026-05-05T16:45:07Z</time>
            </trkpt>
            <trkpt lat="42.843080" lon="-72.009180">
                <time>2026-05-05T16:45:08Z</time>
            </trkpt>
            <trkpt lat="42.842950" lon="-72.009180">
                <time>2026-05-05T16:45:09Z</time>
            </trkpt>
            <trkpt lat="42.842820" lon="-72.009160">
                <time>2026-05-05T16:45:10Z</time>
            </trkpt>
            <trkpt lat="42.842690" lon="-72.009140">
                <time>2026-05-05T16:45:11Z</time>
            </trkpt>
            <trkpt lat="42.842560" lon="-72.009130">
                <time>2026-05-05T16:45:12Z</time>
            </trkpt>
            <trkpt lat="42.842430" lon="-72.009110">
                <time>2026-05-05T16:45:13Z</time>
            </trkpt>
            <trkpt lat="42.842280" lon="-72.009100">
                <time>2026-05-05T16:45:14Z</time>
            </trkpt>
            <trkpt lat="42.842140" lon="-72.009080">
                <time>2026-05-05T16:45:15Z</time>
            </trkpt>
            <trkpt lat="42.841990" lon="-72.009090">
                <time>2026-05-05T16:45:16Z</time>
            </trkpt>
            <trkpt lat="42.841840" lon="-72.009100">
                <time>2026-05-05T16:45:17Z</time>
            </trkpt>
            <trkpt lat="42.841690" lon="-72.009130">
                <time>2026-05-05T16:45:18Z</time>
            </trkpt>
            <trkpt lat="42.841550" lon="-72.009190">
                <time>2026-05-05T16:45:19Z</time>
            </trkpt>
            <trkpt lat="42.841390" lon="-72.009270">
                <time>2026-05-05T16:45:20Z</time>
            </trkpt>
            <trkpt lat="42.841250" lon="-72.009350">
                <time>2026-05-05T16:45:21Z</time>
            </trkpt>
            <trkpt lat="42.841120" lon="-72.009430">
                <time>2026-05-05T16:45:22Z</time>
            </trkpt>
            <trkpt lat="42.840970" lon="-72.009520">
                <time>2026-05-05T16:45:23Z</time>
            </trkpt>
            <trkpt lat="42.840830" lon="-72.009610">
                <time>2026-05-05T16:45:24Z</time>
            </trkpt>
            <trkpt lat="42.840690" lon="-72.009710">
                <time>2026-05-05T16:45:25Z</time>
            </trkpt>
            <trkpt lat="42.840550" lon="-72.009800">
                <time>2026-05-05T16:45:26Z</time>
            </trkpt>
            <trkpt lat="42.840400" lon="-72.009890">
                <time>2026-05-05T16:45:27Z</time>
            </trkpt>
            <trkpt lat="42.840240" lon="-72.009980">
                <time>2026-05-05T16:45:28Z</time>
            </trkpt>
            <trkpt lat="42.840090" lon="-72.010070">
                <time>2026-05-05T16:45:29Z</time>
            </trkpt>
            <trkpt lat="42.839940" lon="-72.010160">
                <time>2026-05-05T16:45:30Z</time>
            </trkpt>
            <trkpt lat="42.839820" lon="-72.010260">
                <time>2026-05-05T16:45:31Z</time>
            </trkpt>
            <trkpt lat="42.839720" lon="-72.010390">
                <time>2026-05-05T16:45:32Z</time>
            </trkpt>
            <trkpt lat="42.839640" lon="-72.010540">
                <time>2026-05-05T16:45:33Z</time>
            </trkpt>
            <trkpt lat="42.839590" lon="-72.010710">
                <time>2026-05-05T16:45:34Z</time>
            </trkpt>
            <trkpt lat="42.839540" lon="-72.010880">
                <time>2026-05-05T16:45:35Z</time>
            </trkpt>
            <trkpt lat="42.839500" lon="-72.011050">
                <time>2026-05-05T16:45:36Z</time>
            </trkpt>
            <trkpt lat="42.839470" lon="-72.011220">
                <time>2026-05-05T16:45:37Z</time>
            </trkpt>
            <trkpt lat="42.839400" lon="-72.011380">
                <time>2026-05-05T16:45:38Z</time>
            </trkpt>
            <trkpt lat="42.839340" lon="-72.011530">
                <time>2026-05-05T16:45:39Z</time>
            </trkpt>
            <trkpt lat="42.839270" lon="-72.011670">
                <time>2026-05-05T16:45:40Z</time>
            </trkpt>
            <trkpt lat="42.839160" lon="-72.011790">
                <time>2026-05-05T16:45:41Z</time>
            </trkpt>
            <trkpt lat="42.839070" lon="-72.011900">
                <time>2026-05-05T16:45:42Z</time>
            </trkpt>
            <trkpt lat="42.838930" lon="-72.011990">
                <time>2026-05-05T16:45:43Z</time>
            </trkpt>
            <trkpt lat="42.838810" lon="-72.012090">
                <time>2026-05-05T16:45:44Z</time>
            </trkpt>
            <trkpt lat="42.838690" lon="-72.012180">
                <time>2026-05-05T16:45:45Z</time>
            </trkpt>
            <trkpt lat="42.838570" lon="-72.012270">
                <time>2026-05-05T16:45:46Z</time>
            </trkpt>
            <trkpt lat="42.838450" lon="-72.012370">
                <time>2026-05-05T16:45:47Z</time>
            </trkpt>
            <trkpt lat="42.838320" lon="-72.012460">
                <time>2026-05-05T16:45:48Z</time>
            </trkpt>
            <trkpt lat="42.838200" lon="-72.012540">
                <time>2026-05-05T16:45:49Z</time>
            </trkpt>
            <trkpt lat="42.838080" lon="-72.012600">
                <time>2026-05-05T16:45:50Z</time>
            </trkpt>
            <trkpt lat="42.837940" lon="-72.012670">
                <time>2026-05-05T16:45:51Z</time>
            </trkpt>
            <trkpt lat="42.837810" lon="-72.012720">
                <time>2026-05-05T16:45:52Z</time>
            </trkpt>
            <trkpt lat="42.837680" lon="-72.012760">
                <time>2026-05-05T16:45:53Z</time>
            </trkpt>
            <trkpt lat="42.837550" lon="-72.012780">
                <time>2026-05-05T16:45:54Z</time>
            </trkpt>
            <trkpt lat="42.837420" lon="-72.012800">
                <time>2026-05-05T16:45:55Z</time>
            </trkpt>
            <trkpt lat="42.837280" lon="-72.012810">
                <time>2026-05-05T16:45:56Z</time>
            </trkpt>
            <trkpt lat="42.837150" lon="-72.012790">
                <time>2026-05-05T16:45:57Z</time>
            </trkpt>
            <trkpt lat="42.837000" lon="-72.012780">
                <time>2026-05-05T16:45:58Z</time>
            </trkpt>
            <trkpt lat="42.836840" lon="-72.012780">
                <time>2026-05-05T16:45:59Z</time>
            </trkpt>
            <trkpt lat="42.836690" lon="-72.012780">
                <time>2026-05-05T16:46:00Z</time>
            </trkpt>
            <trkpt lat="42.836530" lon="-72.012770">
                <time>2026-05-05T16:46:01Z</time>
            </trkpt>
            <trkpt lat="42.836380" lon="-72.012780">
                <time>2026-05-05T16:46:02Z</time>
            </trkpt>
            <trkpt lat="42.836230" lon="-72.012760">
                <time>2026-05-05T16:46:03Z</time>
            </trkpt>
            <trkpt lat="42.836080" lon="-72.012730">
                <time>2026-05-05T16:46:04Z</time>
            </trkpt>
            <trkpt lat="42.835930" lon="-72.012670">
                <time>2026-05-05T16:46:05Z</time>
            </trkpt>
            <trkpt lat="42.835790" lon="-72.012600">
                <time>2026-05-05T16:46:06Z</time>
            </trkpt>
            <trkpt lat="42.835650" lon="-72.012520">
                <time>2026-05-05T16:46:07Z</time>
            </trkpt>
            <trkpt lat="42.835520" lon="-72.012440">
                <time>2026-05-05T16:46:08Z</time>
            </trkpt>
            <trkpt lat="42.835370" lon="-72.012350">
                <time>2026-05-05T16:46:09Z</time>
            </trkpt>
            <trkpt lat="42.835240" lon="-72.012260">
                <time>2026-05-05T16:46:10Z</time>
            </trkpt>
            <trkpt lat="42.835100" lon="-72.012180">
                <time>2026-05-05T16:46:11Z</time>
            </trkpt>
            <trkpt lat="42.834960" lon="-72.012120">
                <time>2026-05-05T16:46:12Z</time>
            </trkpt>
            <trkpt lat="42.834810" lon="-72.012100">
                <time>2026-05-05T16:46:13Z</time>
            </trkpt>
            <trkpt lat="42.834660" lon="-72.012110">
                <time>2026-05-05T16:46:14Z</time>
            </trkpt>
            <trkpt lat="42.834510" lon="-72.012140">
                <time>2026-05-05T16:46:15Z</time>
            </trkpt>
            <trkpt lat="42.834350" lon="-72.012180">
                <time>2026-05-05T16:46:16Z</time>
            </trkpt>
            <trkpt lat="42.834190" lon="-72.012230">
                <time>2026-05-05T16:46:17Z</time>
            </trkpt>
            <trkpt lat="42.834030" lon="-72.012270">
                <time>2026-05-05T16:46:18Z</time>
            </trkpt>
            <trkpt lat="42.833870" lon="-72.012300">
                <time>2026-05-05T16:46:19Z</time>
            </trkpt>
            <trkpt lat="42.833710" lon="-72.012330">
                <time>2026-05-05T16:46:20Z</time>
            </trkpt>
            <trkpt lat="42.833540" lon="-72.012340">
                <time>2026-05-05T16:46:21Z</time>
            </trkpt>
            <trkpt lat="42.833380" lon="-72.012340">
                <time>2026-05-05T16:46:22Z</time>
            </trkpt>
            <trkpt lat="42.833220" lon="-72.012350">
                <time>2026-05-05T16:46:23Z</time>
            </trkpt>
            <trkpt lat="42.833070" lon="-72.012370">
                <time>2026-05-05T16:46:24Z</time>
            </trkpt>
            <trkpt lat="42.832910" lon="-72.012400">
                <time>2026-05-05T16:46:25Z</time>
            </trkpt>
            <trkpt lat="42.832740" lon="-72.012430">
                <time>2026-05-05T16:46:26Z</time>
            </trkpt>
            <trkpt lat="42.832580" lon="-72.012470">
                <time>2026-05-05T16:46:27Z</time>
            </trkpt>
            <trkpt lat="42.832420" lon="-72.012510">
                <time>2026-05-05T16:46:28Z</time>
            </trkpt>
            <trkpt lat="42.832260" lon="-72.012550">
                <time>2026-05-05T16:46:29Z</time>
            </trkpt>
            <trkpt lat="42.832100" lon="-72.012610">
                <time>2026-05-05T16:46:30Z</time>
            </trkpt>
            <trkpt lat="42.831950" lon="-72.012650">
                <time>2026-05-05T16:46:31Z</time>
            </trkpt>
            <trkpt lat="42.831790" lon="-72.012700">
                <time>2026-05-05T16:46:32Z</time>
            </trkpt>
            <trkpt lat="42.831630" lon="-72.012750">
                <time>2026-05-05T16:46:33Z</time>
            </trkpt>
            <trkpt lat="42.831470" lon="-72.012800">
                <time>2026-05-05T16:46:34Z</time>
            </trkpt>
            <trkpt lat="42.831310" lon="-72.012840">
                <time>2026-05-05T16:46:35Z</time>
            </trkpt>
            <trkpt lat="42.831160" lon="-72.012880">
                <time>2026-05-05T16:46:36Z</time>
            </trkpt>
            <trkpt lat="42.831000" lon="-72.012920">
                <time>2026-05-05T16:46:37Z</time>
            </trkpt>
            <trkpt lat="42.830860" lon="-72.012960">
                <time>2026-05-05T16:46:38Z</time>
            </trkpt>
            <trkpt lat="42.830710" lon="-72.013010">
                <time>2026-05-05T16:46:39Z</time>
            </trkpt>
            <trkpt lat="42.830580" lon="-72.013060">
                <time>2026-05-05T16:46:40Z</time>
            </trkpt>
            <trkpt lat="42.830450" lon="-72.013150">
                <time>2026-05-05T16:46:41Z</time>
            </trkpt>
            <trkpt lat="42.830330" lon="-72.013250">
                <time>2026-05-05T16:46:42Z</time>
            </trkpt>
            <trkpt lat="42.830220" lon="-72.013360">
                <time>2026-05-05T16:46:43Z</time>
            </trkpt>
            <trkpt lat="42.830100" lon="-72.013480">
                <time>2026-05-05T16:46:44Z</time>
            </trkpt>
            <trkpt lat="42.829990" lon="-72.013580">
                <time>2026-05-05T16:46:45Z</time>
            </trkpt>
            <trkpt lat="42.829890" lon="-72.013670">
                <time>2026-05-05T16:46:46Z</time>
            </trkpt>
            <trkpt lat="42.829780" lon="-72.013780">
                <time>2026-05-05T16:46:47Z</time>
            </trkpt>
            <trkpt lat="42.829690" lon="-72.013860">
                <time>2026-05-05T16:46:48Z</time>
            </trkpt>
            <trkpt lat="42.829590" lon="-72.013930">
                <time>2026-05-05T16:46:49Z</time>
            </trkpt>
            <trkpt lat="42.829490" lon="-72.014000">
                <time>2026-05-05T16:46:50Z</time>
            </trkpt>
            <trkpt lat="42.829420" lon="-72.014040">
                <time>2026-05-05T16:46:51Z</time>
            </trkpt>
            <trkpt lat="42.829380" lon="-72.014060">
                <time>2026-05-05T16:46:52Z</time>
            </trkpt>
            <trkpt lat="42.829360" lon="-72.014060">
                <time>2026-05-05T16:46:53Z</time>
            </trkpt>
            <trkpt lat="42.829370" lon="-72.014060">
                <time>2026-05-05T16:46:54Z</time>
            </trkpt>
            <trkpt lat="42.829380" lon="-72.014060">
                <time>2026-05-05T16:46:55Z</time>
            </trkpt>
            <trkpt lat="42.829380" lon="-72.014070">
                <time>2026-05-05T16:46:56Z</time>
            </trkpt>
            <trkpt lat="42.829380" lon="-72.014070">
                <time>2026-05-05T16:46:57Z</time>
            </trkpt>
            <trkpt lat="42.829380" lon="-72.014070">
                <time>2026-05-05T16:46:58Z</time>
            </trkpt>
            <trkpt lat="42.829350" lon="-72.014060">
                <time>2026-05-05T16:46:59Z</time>
            </trkpt>
            <trkpt lat="42.829310" lon="-72.014000">
                <time>2026-05-05T16:47:00Z</time>
            </trkpt>
            <trkpt lat="42.829310" lon="-72.013890">
                <time>2026-05-05T16:47:01Z</time>
            </trkpt>
            <trkpt lat="42.829310" lon="-72.013770">
                <time>2026-05-05T16:47:02Z</time>
            </trkpt>
            <trkpt lat="42.829320" lon="-72.013650">
                <time>2026-05-05T16:47:03Z</time>
            </trkpt>
            <trkpt lat="42.829330" lon="-72.013520">
                <time>2026-05-05T16:47:04Z</time>
            </trkpt>
            <trkpt lat="42.829340" lon="-72.013380">
                <time>2026-05-05T16:47:05Z</time>
            </trkpt>
            <trkpt lat="42.829350" lon="-72.013230">
                <time>2026-05-05T16:47:06Z</time>
            </trkpt>
            <trkpt lat="42.829360" lon="-72.013090">
                <time>2026-05-05T16:47:07Z</time>
            </trkpt>
            <trkpt lat="42.829400" lon="-72.012940">
                <time>2026-05-05T16:47:08Z</time>
            </trkpt>
            <trkpt lat="42.829440" lon="-72.012790">
                <time>2026-05-05T16:47:09Z</time>
            </trkpt>
            <trkpt lat="42.829510" lon="-72.012640">
                <time>2026-05-05T16:47:10Z</time>
            </trkpt>
            <trkpt lat="42.829590" lon="-72.012510">
                <time>2026-05-05T16:47:11Z</time>
            </trkpt>
            <trkpt lat="42.829660" lon="-72.012390">
                <time>2026-05-05T16:47:12Z</time>
            </trkpt>
            <trkpt lat="42.829730" lon="-72.012280">
                <time>2026-05-05T16:47:13Z</time>
            </trkpt>
            <trkpt lat="42.829810" lon="-72.012170">
                <time>2026-05-05T16:47:14Z</time>
            </trkpt>
            <trkpt lat="42.829860" lon="-72.012050">
                <time>2026-05-05T16:47:15Z</time>
            </trkpt>
            <trkpt lat="42.829910" lon="-72.011920">
                <time>2026-05-05T16:47:16Z</time>
            </trkpt>
            <trkpt lat="42.829910" lon="-72.011770">
                <time>2026-05-05T16:47:17Z</time>
            </trkpt>
            <trkpt lat="42.829880" lon="-72.011620">
                <time>2026-05-05T16:47:18Z</time>
            </trkpt>
            <trkpt lat="42.829840" lon="-72.011450">
                <time>2026-05-05T16:47:19Z</time>
            </trkpt>
            <trkpt lat="42.829800" lon="-72.011260">
                <time>2026-05-05T16:47:20Z</time>
            </trkpt>
            <trkpt lat="42.829760" lon="-72.011070">
                <time>2026-05-05T16:47:21Z</time>
            </trkpt>
            <trkpt lat="42.829720" lon="-72.010880">
                <time>2026-05-05T16:47:22Z</time>
            </trkpt>
            <trkpt lat="42.829680" lon="-72.010700">
                <time>2026-05-05T16:47:23Z</time>
            </trkpt>
            <trkpt lat="42.829640" lon="-72.010520">
                <time>2026-05-05T16:47:24Z</time>
            </trkpt>
            <trkpt lat="42.829610" lon="-72.010340">
                <time>2026-05-05T16:47:25Z</time>
            </trkpt>
            <trkpt lat="42.829560" lon="-72.010160">
                <time>2026-05-05T16:47:26Z</time>
            </trkpt>
            <trkpt lat="42.829510" lon="-72.010000">
                <time>2026-05-05T16:47:27Z</time>
            </trkpt>
            <trkpt lat="42.829450" lon="-72.009850">
                <time>2026-05-05T16:47:28Z</time>
            </trkpt>
            <trkpt lat="42.829350" lon="-72.009720">
                <time>2026-05-05T16:47:29Z</time>
            </trkpt>
            <trkpt lat="42.829250" lon="-72.009600">
                <time>2026-05-05T16:47:30Z</time>
            </trkpt>
            <trkpt lat="42.829150" lon="-72.009480">
                <time>2026-05-05T16:47:31Z</time>
            </trkpt>
            <trkpt lat="42.829040" lon="-72.009370">
                <time>2026-05-05T16:47:32Z</time>
            </trkpt>
            <trkpt lat="42.828930" lon="-72.009270">
                <time>2026-05-05T16:47:33Z</time>
            </trkpt>
            <trkpt lat="42.828810" lon="-72.009160">
                <time>2026-05-05T16:47:34Z</time>
            </trkpt>
            <trkpt lat="42.828700" lon="-72.009060">
                <time>2026-05-05T16:47:35Z</time>
            </trkpt>
            <trkpt lat="42.828570" lon="-72.008970">
                <time>2026-05-05T16:47:36Z</time>
            </trkpt>
            <trkpt lat="42.828440" lon="-72.008880">
                <time>2026-05-05T16:47:37Z</time>
            </trkpt>
            <trkpt lat="42.828320" lon="-72.008790">
                <time>2026-05-05T16:47:38Z</time>
            </trkpt>
            <trkpt lat="42.828190" lon="-72.008690">
                <time>2026-05-05T16:47:39Z</time>
            </trkpt>
            <trkpt lat="42.828090" lon="-72.008570">
                <time>2026-05-05T16:47:40Z</time>
            </trkpt>
            <trkpt lat="42.828000" lon="-72.008420">
                <time>2026-05-05T16:47:41Z</time>
            </trkpt>
            <trkpt lat="42.827970" lon="-72.008170">
                <time>2026-05-05T16:47:42Z</time>
            </trkpt>
            <trkpt lat="42.827950" lon="-72.007950">
                <time>2026-05-05T16:47:43Z</time>
            </trkpt>
            <trkpt lat="42.827920" lon="-72.007740">
                <time>2026-05-05T16:47:44Z</time>
            </trkpt>
            <trkpt lat="42.827900" lon="-72.007520">
                <time>2026-05-05T16:47:45Z</time>
            </trkpt>
            <trkpt lat="42.827900" lon="-72.007300">
                <time>2026-05-05T16:47:46Z</time>
            </trkpt>
            <trkpt lat="42.827900" lon="-72.007090">
                <time>2026-05-05T16:47:47Z</time>
            </trkpt>
            <trkpt lat="42.827920" lon="-72.006880">
                <time>2026-05-05T16:47:48Z</time>
            </trkpt>
            <trkpt lat="42.827920" lon="-72.006680">
                <time>2026-05-05T16:47:49Z</time>
            </trkpt>
            <trkpt lat="42.827930" lon="-72.006480">
                <time>2026-05-05T16:47:50Z</time>
            </trkpt>
            <trkpt lat="42.827920" lon="-72.006270">
                <time>2026-05-05T16:47:51Z</time>
            </trkpt>
            <trkpt lat="42.827910" lon="-72.006070">
                <time>2026-05-05T16:47:52Z</time>
            </trkpt>
            <trkpt lat="42.827890" lon="-72.005880">
                <time>2026-05-05T16:47:53Z</time>
            </trkpt>
            <trkpt lat="42.827870" lon="-72.005670">
                <time>2026-05-05T16:47:54Z</time>
            </trkpt>
            <trkpt lat="42.827850" lon="-72.005470">
                <time>2026-05-05T16:47:55Z</time>
            </trkpt>
            <trkpt lat="42.827820" lon="-72.005270">
                <time>2026-05-05T16:47:56Z</time>
            </trkpt>
            <trkpt lat="42.827810" lon="-72.005070">
                <time>2026-05-05T16:47:57Z</time>
            </trkpt>
            <trkpt lat="42.827810" lon="-72.004870">
                <time>2026-05-05T16:47:58Z</time>
            </trkpt>
            <trkpt lat="42.827840" lon="-72.004670">
                <time>2026-05-05T16:47:59Z</time>
            </trkpt>
            <trkpt lat="42.827870" lon="-72.004470">
                <time>2026-05-05T16:48:00Z</time>
            </trkpt>
            <trkpt lat="42.827910" lon="-72.004270">
                <time>2026-05-05T16:48:01Z</time>
            </trkpt>
            <trkpt lat="42.827950" lon="-72.004070">
                <time>2026-05-05T16:48:02Z</time>
            </trkpt>
            <trkpt lat="42.827990" lon="-72.003880">
                <time>2026-05-05T16:48:03Z</time>
            </trkpt>
            <trkpt lat="42.828040" lon="-72.003700">
                <time>2026-05-05T16:48:04Z</time>
            </trkpt>
            <trkpt lat="42.828090" lon="-72.003510">
                <time>2026-05-05T16:48:05Z</time>
            </trkpt>
            <trkpt lat="42.828130" lon="-72.003340">
                <time>2026-05-05T16:48:06Z</time>
            </trkpt>
            <trkpt lat="42.828170" lon="-72.003190">
                <time>2026-05-05T16:48:07Z</time>
            </trkpt>
            <trkpt lat="42.828200" lon="-72.003040">
                <time>2026-05-05T16:48:08Z</time>
            </trkpt>
            <trkpt lat="42.828240" lon="-72.002900">
                <time>2026-05-05T16:48:09Z</time>
            </trkpt>
            <trkpt lat="42.828270" lon="-72.002760">
                <time>2026-05-05T16:48:10Z</time>
            </trkpt>
            <trkpt lat="42.828280" lon="-72.002620">
                <time>2026-05-05T16:48:11Z</time>
            </trkpt>
            <trkpt lat="42.828280" lon="-72.002470">
                <time>2026-05-05T16:48:12Z</time>
            </trkpt>
            <trkpt lat="42.828250" lon="-72.002330">
                <time>2026-05-05T16:48:13Z</time>
            </trkpt>
            <trkpt lat="42.828220" lon="-72.002190">
                <time>2026-05-05T16:48:14Z</time>
            </trkpt>
            <trkpt lat="42.828170" lon="-72.002050">
                <time>2026-05-05T16:48:15Z</time>
            </trkpt>
            <trkpt lat="42.828110" lon="-72.001900">
                <time>2026-05-05T16:48:16Z</time>
            </trkpt>
            <trkpt lat="42.828040" lon="-72.001750">
                <time>2026-05-05T16:48:17Z</time>
            </trkpt>
            <trkpt lat="42.827970" lon="-72.001600">
                <time>2026-05-05T16:48:18Z</time>
            </trkpt>
            <trkpt lat="42.827900" lon="-72.001450">
                <time>2026-05-05T16:48:19Z</time>
            </trkpt>
            <trkpt lat="42.827820" lon="-72.001300">
                <time>2026-05-05T16:48:20Z</time>
            </trkpt>
            <trkpt lat="42.827750" lon="-72.001160">
                <time>2026-05-05T16:48:21Z</time>
            </trkpt>
            <trkpt lat="42.827660" lon="-72.001020">
                <time>2026-05-05T16:48:22Z</time>
            </trkpt>
            <trkpt lat="42.827530" lon="-72.000900">
                <time>2026-05-05T16:48:23Z</time>
            </trkpt>
            <trkpt lat="42.827410" lon="-72.000790">
                <time>2026-05-05T16:48:24Z</time>
            </trkpt>
            <trkpt lat="42.827250" lon="-72.000670">
                <time>2026-05-05T16:48:25Z</time>
            </trkpt>
            <trkpt lat="42.827120" lon="-72.000550">
                <time>2026-05-05T16:48:26Z</time>
            </trkpt>
            <trkpt lat="42.826980" lon="-72.000440">
                <time>2026-05-05T16:48:27Z</time>
            </trkpt>
            <trkpt lat="42.826850" lon="-72.000330">
                <time>2026-05-05T16:48:28Z</time>
            </trkpt>
            <trkpt lat="42.826720" lon="-72.000240">
                <time>2026-05-05T16:48:29Z</time>
            </trkpt>
            <trkpt lat="42.826580" lon="-72.000140">
                <time>2026-05-05T16:48:30Z</time>
            </trkpt>
            <trkpt lat="42.826440" lon="-72.000050">
                <time>2026-05-05T16:48:31Z</time>
            </trkpt>
            <trkpt lat="42.826300" lon="-71.999940">
                <time>2026-05-05T16:48:32Z</time>
            </trkpt>
            <trkpt lat="42.826170" lon="-71.999840">
                <time>2026-05-05T16:48:33Z</time>
            </trkpt>
            <trkpt lat="42.826050" lon="-71.999710">
                <time>2026-05-05T16:48:34Z</time>
            </trkpt>
            <trkpt lat="42.825930" lon="-71.999570">
                <time>2026-05-05T16:48:35Z</time>
            </trkpt>
            <trkpt lat="42.825830" lon="-71.999430">
                <time>2026-05-05T16:48:36Z</time>
            </trkpt>
            <trkpt lat="42.825730" lon="-71.999270">
                <time>2026-05-05T16:48:37Z</time>
            </trkpt>
            <trkpt lat="42.825640" lon="-71.999100">
                <time>2026-05-05T16:48:38Z</time>
            </trkpt>
            <trkpt lat="42.825550" lon="-71.998920">
                <time>2026-05-05T16:48:39Z</time>
            </trkpt>
            <trkpt lat="42.825480" lon="-71.998770">
                <time>2026-05-05T16:48:40Z</time>
            </trkpt>
            <trkpt lat="42.825410" lon="-71.998630">
                <time>2026-05-05T16:48:41Z</time>
            </trkpt>
            <trkpt lat="42.825350" lon="-71.998470">
                <time>2026-05-05T16:48:42Z</time>
            </trkpt>
            <trkpt lat="42.825300" lon="-71.998330">
                <time>2026-05-05T16:48:43Z</time>
            </trkpt>
            <trkpt lat="42.825270" lon="-71.998200">
                <time>2026-05-05T16:48:44Z</time>
            </trkpt>
            <trkpt lat="42.825230" lon="-71.998090">
                <time>2026-05-05T16:48:45Z</time>
            </trkpt>
            <trkpt lat="42.825200" lon="-71.997980">
                <time>2026-05-05T16:48:46Z</time>
            </trkpt>
            <trkpt lat="42.825150" lon="-71.997870">
                <time>2026-05-05T16:48:47Z</time>
            </trkpt>
            <trkpt lat="42.825110" lon="-71.997740">
                <time>2026-05-05T16:48:48Z</time>
            </trkpt>
            <trkpt lat="42.825070" lon="-71.997610">
                <time>2026-05-05T16:48:49Z</time>
            </trkpt>
            <trkpt lat="42.825020" lon="-71.997470">
                <time>2026-05-05T16:48:50Z</time>
            </trkpt>
            <trkpt lat="42.824960" lon="-71.997340">
                <time>2026-05-05T16:48:51Z</time>
            </trkpt>
            <trkpt lat="42.824900" lon="-71.997210">
                <time>2026-05-05T16:48:52Z</time>
            </trkpt>
            <trkpt lat="42.824830" lon="-71.997090">
                <time>2026-05-05T16:48:53Z</time>
            </trkpt>
            <trkpt lat="42.824760" lon="-71.996970">
                <time>2026-05-05T16:48:54Z</time>
            </trkpt>
            <trkpt lat="42.824690" lon="-71.996860">
                <time>2026-05-05T16:48:55Z</time>
            </trkpt>
            <trkpt lat="42.824610" lon="-71.996750">
                <time>2026-05-05T16:48:56Z</time>
            </trkpt>
            <trkpt lat="42.824540" lon="-71.996650">
                <time>2026-05-05T16:48:57Z</time>
            </trkpt>
            <trkpt lat="42.824480" lon="-71.996570">
                <time>2026-05-05T16:48:58Z</time>
            </trkpt>
            <trkpt lat="42.824430" lon="-71.996500">
                <time>2026-05-05T16:48:59Z</time>
            </trkpt>
            <trkpt lat="42.824400" lon="-71.996470">
                <time>2026-05-05T16:49:00Z</time>
            </trkpt>
            <trkpt lat="42.824380" lon="-71.996460">
                <time>2026-05-05T16:49:01Z</time>
            </trkpt>
            <trkpt lat="42.824340" lon="-71.996430">
                <time>2026-05-05T16:49:02Z</time>
            </trkpt>
            <trkpt lat="42.824280" lon="-71.996430">
                <time>2026-05-05T16:49:03Z</time>
            </trkpt>
            <trkpt lat="42.824200" lon="-71.996470">
                <time>2026-05-05T16:49:04Z</time>
            </trkpt>
            <trkpt lat="42.824090" lon="-71.996540">
                <time>2026-05-05T16:49:05Z</time>
            </trkpt>
            <trkpt lat="42.823980" lon="-71.996630">
                <time>2026-05-05T16:49:06Z</time>
            </trkpt>
            <trkpt lat="42.823840" lon="-71.996740">
                <time>2026-05-05T16:49:07Z</time>
            </trkpt>
            <trkpt lat="42.823680" lon="-71.996870">
                <time>2026-05-05T16:49:08Z</time>
            </trkpt>
            <trkpt lat="42.823520" lon="-71.997010">
                <time>2026-05-05T16:49:09Z</time>
            </trkpt>
            <trkpt lat="42.823370" lon="-71.997160">
                <time>2026-05-05T16:49:10Z</time>
            </trkpt>
            <trkpt lat="42.823210" lon="-71.997320">
                <time>2026-05-05T16:49:11Z</time>
            </trkpt>
            <trkpt lat="42.823050" lon="-71.997500">
                <time>2026-05-05T16:49:12Z</time>
            </trkpt>
            <trkpt lat="42.822890" lon="-71.997700">
                <time>2026-05-05T16:49:13Z</time>
            </trkpt>
            <trkpt lat="42.822730" lon="-71.997910">
                <time>2026-05-05T16:49:14Z</time>
            </trkpt>
            <trkpt lat="42.822590" lon="-71.998110">
                <time>2026-05-05T16:49:15Z</time>
            </trkpt>
            <trkpt lat="42.822440" lon="-71.998330">
                <time>2026-05-05T16:49:16Z</time>
            </trkpt>
            <trkpt lat="42.822300" lon="-71.998550">
                <time>2026-05-05T16:49:17Z</time>
            </trkpt>
            <trkpt lat="42.822160" lon="-71.998780">
                <time>2026-05-05T16:49:18Z</time>
            </trkpt>
            <trkpt lat="42.822020" lon="-71.999020">
                <time>2026-05-05T16:49:19Z</time>
            </trkpt>
            <trkpt lat="42.821890" lon="-71.999250">
                <time>2026-05-05T16:49:20Z</time>
            </trkpt>
            <trkpt lat="42.821760" lon="-71.999490">
                <time>2026-05-05T16:49:21Z</time>
            </trkpt>
            <trkpt lat="42.821620" lon="-71.999710">
                <time>2026-05-05T16:49:22Z</time>
            </trkpt>
            <trkpt lat="42.821490" lon="-71.999930">
                <time>2026-05-05T16:49:23Z</time>
            </trkpt>
            <trkpt lat="42.821370" lon="-72.000160">
                <time>2026-05-05T16:49:24Z</time>
            </trkpt>
            <trkpt lat="42.821240" lon="-72.000370">
                <time>2026-05-05T16:49:25Z</time>
            </trkpt>
            <trkpt lat="42.821110" lon="-72.000590">
                <time>2026-05-05T16:49:26Z</time>
            </trkpt>
            <trkpt lat="42.820980" lon="-72.000800">
                <time>2026-05-05T16:49:27Z</time>
            </trkpt>
            <trkpt lat="42.820860" lon="-72.001000">
                <time>2026-05-05T16:49:28Z</time>
            </trkpt>
            <trkpt lat="42.820740" lon="-72.001200">
                <time>2026-05-05T16:49:29Z</time>
            </trkpt>
            <trkpt lat="42.820620" lon="-72.001390">
                <time>2026-05-05T16:49:30Z</time>
            </trkpt>
            <trkpt lat="42.820480" lon="-72.001580">
                <time>2026-05-05T16:49:31Z</time>
            </trkpt>
            <trkpt lat="42.820330" lon="-72.001770">
                <time>2026-05-05T16:49:32Z</time>
            </trkpt>
            <trkpt lat="42.820170" lon="-72.001950">
                <time>2026-05-05T16:49:33Z</time>
            </trkpt>
            <trkpt lat="42.820010" lon="-72.002110">
                <time>2026-05-05T16:49:34Z</time>
            </trkpt>
            <trkpt lat="42.819840" lon="-72.002270">
                <time>2026-05-05T16:49:35Z</time>
            </trkpt>
            <trkpt lat="42.819660" lon="-72.002410">
                <time>2026-05-05T16:49:36Z</time>
            </trkpt>
            <trkpt lat="42.819480" lon="-72.002540">
                <time>2026-05-05T16:49:37Z</time>
            </trkpt>
            <trkpt lat="42.819300" lon="-72.002650">
                <time>2026-05-05T16:49:38Z</time>
            </trkpt>
            <trkpt lat="42.819120" lon="-72.002770">
                <time>2026-05-05T16:49:39Z</time>
            </trkpt>
            <trkpt lat="42.818930" lon="-72.002890">
                <time>2026-05-05T16:49:40Z</time>
            </trkpt>
            <trkpt lat="42.818760" lon="-72.003000">
                <time>2026-05-05T16:49:41Z</time>
            </trkpt>
            <trkpt lat="42.818580" lon="-72.003110">
                <time>2026-05-05T16:49:42Z</time>
            </trkpt>
            <trkpt lat="42.818410" lon="-72.003230">
                <time>2026-05-05T16:49:43Z</time>
            </trkpt>
            <trkpt lat="42.818230" lon="-72.003340">
                <time>2026-05-05T16:49:44Z</time>
            </trkpt>
            <trkpt lat="42.818050" lon="-72.003460">
                <time>2026-05-05T16:49:45Z</time>
            </trkpt>
            <trkpt lat="42.817870" lon="-72.003580">
                <time>2026-05-05T16:49:46Z</time>
            </trkpt>
            <trkpt lat="42.817700" lon="-72.003700">
                <time>2026-05-05T16:49:47Z</time>
            </trkpt>
            <trkpt lat="42.817540" lon="-72.003840">
                <time>2026-05-05T16:49:48Z</time>
            </trkpt>
            <trkpt lat="42.817390" lon="-72.003990">
                <time>2026-05-05T16:49:49Z</time>
            </trkpt>
            <trkpt lat="42.817250" lon="-72.004150">
                <time>2026-05-05T16:49:50Z</time>
            </trkpt>
            <trkpt lat="42.817130" lon="-72.004330">
                <time>2026-05-05T16:49:51Z</time>
            </trkpt>
            <trkpt lat="42.817030" lon="-72.004510">
                <time>2026-05-05T16:49:52Z</time>
            </trkpt>
            <trkpt lat="42.816940" lon="-72.004710">
                <time>2026-05-05T16:49:53Z</time>
            </trkpt>
            <trkpt lat="42.816860" lon="-72.004920">
                <time>2026-05-05T16:49:54Z</time>
            </trkpt>
            <trkpt lat="42.816790" lon="-72.005120">
                <time>2026-05-05T16:49:55Z</time>
            </trkpt>
            <trkpt lat="42.816730" lon="-72.005350">
                <time>2026-05-05T16:49:56Z</time>
            </trkpt>
            <trkpt lat="42.816680" lon="-72.005570">
                <time>2026-05-05T16:49:57Z</time>
            </trkpt>
            <trkpt lat="42.816640" lon="-72.005800">
                <time>2026-05-05T16:49:58Z</time>
            </trkpt>
            <trkpt lat="42.816600" lon="-72.006020">
                <time>2026-05-05T16:49:59Z</time>
            </trkpt>
            <trkpt lat="42.816570" lon="-72.006240">
                <time>2026-05-05T16:50:00Z</time>
            </trkpt>
            <trkpt lat="42.816550" lon="-72.006470">
                <time>2026-05-05T16:50:01Z</time>
            </trkpt>
            <trkpt lat="42.816570" lon="-72.006700">
                <time>2026-05-05T16:50:02Z</time>
            </trkpt>
            <trkpt lat="42.816580" lon="-72.006930">
                <time>2026-05-05T16:50:03Z</time>
            </trkpt>
            <trkpt lat="42.816600" lon="-72.007160">
                <time>2026-05-05T16:50:04Z</time>
            </trkpt>
            <trkpt lat="42.816620" lon="-72.007370">
                <time>2026-05-05T16:50:05Z</time>
            </trkpt>
            <trkpt lat="42.816630" lon="-72.007580">
                <time>2026-05-05T16:50:06Z</time>
            </trkpt>
            <trkpt lat="42.816650" lon="-72.007780">
                <time>2026-05-05T16:50:07Z</time>
            </trkpt>
            <trkpt lat="42.816660" lon="-72.007980">
                <time>2026-05-05T16:50:08Z</time>
            </trkpt>
            <trkpt lat="42.816670" lon="-72.008170">
                <time>2026-05-05T16:50:09Z</time>
            </trkpt>
            <trkpt lat="42.816690" lon="-72.008360">
                <time>2026-05-05T16:50:10Z</time>
            </trkpt>
            <trkpt lat="42.816700" lon="-72.008540">
                <time>2026-05-05T16:50:11Z</time>
            </trkpt>
            <trkpt lat="42.816710" lon="-72.008710">
                <time>2026-05-05T16:50:12Z</time>
            </trkpt>
            <trkpt lat="42.816720" lon="-72.008840">
                <time>2026-05-05T16:50:13Z</time>
            </trkpt>
            <trkpt lat="42.816720" lon="-72.008920">
                <time>2026-05-05T16:50:14Z</time>
            </trkpt>
            <trkpt lat="42.816730" lon="-72.008960">
                <time>2026-05-05T16:50:15Z</time>
            </trkpt>
            <trkpt lat="42.816730" lon="-72.009000">
                <time>2026-05-05T16:50:16Z</time>
            </trkpt>
            <trkpt lat="42.816720" lon="-72.009040">
                <time>2026-05-05T16:50:17Z</time>
            </trkpt>
            <trkpt lat="42.816680" lon="-72.009070">
                <time>2026-05-05T16:50:18Z</time>
            </trkpt>
            <trkpt lat="42.816610" lon="-72.009090">
                <time>2026-05-05T16:50:19Z</time>
            </trkpt>
            <trkpt lat="42.816550" lon="-72.009140">
                <time>2026-05-05T16:50:20Z</time>
            </trkpt>
            <trkpt lat="42.816500" lon="-72.009220">
                <time>2026-05-05T16:50:21Z</time>
            </trkpt>
            <trkpt lat="42.816480" lon="-72.009280">
                <time>2026-05-05T16:50:22Z</time>
            </trkpt>
            <trkpt lat="42.816450" lon="-72.009310">
                <time>2026-05-05T16:50:23Z</time>
            </trkpt>
            <trkpt lat="42.816430" lon="-72.009320">
                <time>2026-05-05T16:50:24Z</time>
            </trkpt>
            <trkpt lat="42.816410" lon="-72.009340">
                <time>2026-05-05T16:50:25Z</time>
            </trkpt>
            <trkpt lat="42.816380" lon="-72.009370">
                <time>2026-05-05T16:50:26Z</time>
            </trkpt>
            <trkpt lat="42.816330" lon="-72.009410">
                <time>2026-05-05T16:50:27Z</time>
            </trkpt>
            <trkpt lat="42.816250" lon="-72.009460">
                <time>2026-05-05T16:50:28Z</time>
            </trkpt>
            <trkpt lat="42.816170" lon="-72.009500">
                <time>2026-05-05T16:50:29Z</time>
            </trkpt>
            <trkpt lat="42.816100" lon="-72.009540">
                <time>2026-05-05T16:50:30Z</time>
            </trkpt>
            <trkpt lat="42.816000" lon="-72.009580">
                <time>2026-05-05T16:50:31Z</time>
            </trkpt>
            <trkpt lat="42.815900" lon="-72.009620">
                <time>2026-05-05T16:50:32Z</time>
            </trkpt>
            <trkpt lat="42.815790" lon="-72.009670">
                <time>2026-05-05T16:50:33Z</time>
            </trkpt>
            <trkpt lat="42.815670" lon="-72.009730">
                <time>2026-05-05T16:50:34Z</time>
            </trkpt>
            <trkpt lat="42.815550" lon="-72.009780">
                <time>2026-05-05T16:50:35Z</time>
            </trkpt>
            <trkpt lat="42.815430" lon="-72.009830">
                <time>2026-05-05T16:50:36Z</time>
            </trkpt>
            <trkpt lat="42.815310" lon="-72.009870">
                <time>2026-05-05T16:50:37Z</time>
            </trkpt>
            <trkpt lat="42.815180" lon="-72.009910">
                <time>2026-05-05T16:50:38Z</time>
            </trkpt>
            <trkpt lat="42.815050" lon="-72.009930">
                <time>2026-05-05T16:50:39Z</time>
            </trkpt>
            <trkpt lat="42.814930" lon="-72.009950">
                <time>2026-05-05T16:50:40Z</time>
            </trkpt>
            <trkpt lat="42.814800" lon="-72.009960">
                <time>2026-05-05T16:50:41Z</time>
            </trkpt>
            <trkpt lat="42.814660" lon="-72.009950">
                <time>2026-05-05T16:50:42Z</time>
            </trkpt>
            <trkpt lat="42.814530" lon="-72.009940">
                <time>2026-05-05T16:50:43Z</time>
            </trkpt>
            <trkpt lat="42.814390" lon="-72.009920">
                <time>2026-05-05T16:50:44Z</time>
            </trkpt>
            <trkpt lat="42.814260" lon="-72.009900">
                <time>2026-05-05T16:50:45Z</time>
            </trkpt>
            <trkpt lat="42.814130" lon="-72.009890">
                <time>2026-05-05T16:50:46Z</time>
            </trkpt>
            <trkpt lat="42.814000" lon="-72.009890">
                <time>2026-05-05T16:50:47Z</time>
            </trkpt>
            <trkpt lat="42.813870" lon="-72.009910">
                <time>2026-05-05T16:50:48Z</time>
            </trkpt>
            <trkpt lat="42.813740" lon="-72.009950">
                <time>2026-05-05T16:50:49Z</time>
            </trkpt>
            <trkpt lat="42.813610" lon="-72.009990">
                <time>2026-05-05T16:50:50Z</time>
            </trkpt>
            <trkpt lat="42.813500" lon="-72.010050">
                <time>2026-05-05T16:50:51Z</time>
            </trkpt>
            <trkpt lat="42.813390" lon="-72.010140">
                <time>2026-05-05T16:50:52Z</time>
            </trkpt>
            <trkpt lat="42.813300" lon="-72.010260">
                <time>2026-05-05T16:50:53Z</time>
            </trkpt>
            <trkpt lat="42.813220" lon="-72.010400">
                <time>2026-05-05T16:50:54Z</time>
            </trkpt>
            <trkpt lat="42.813150" lon="-72.010540">
                <time>2026-05-05T16:50:55Z</time>
            </trkpt>
            <trkpt lat="42.813090" lon="-72.010680">
                <time>2026-05-05T16:50:56Z</time>
            </trkpt>
            <trkpt lat="42.813020" lon="-72.010820">
                <time>2026-05-05T16:50:57Z</time>
            </trkpt>
            <trkpt lat="42.812960" lon="-72.010970">
                <time>2026-05-05T16:50:58Z</time>
            </trkpt>
            <trkpt lat="42.812890" lon="-72.011110">
                <time>2026-05-05T16:50:59Z</time>
            </trkpt>
            <trkpt lat="42.812820" lon="-72.011250">
                <time>2026-05-05T16:51:00Z</time>
            </trkpt>
            <trkpt lat="42.812730" lon="-72.011390">
                <time>2026-05-05T16:51:01Z</time>
            </trkpt>
            <trkpt lat="42.812640" lon="-72.011530">
                <time>2026-05-05T16:51:02Z</time>
            </trkpt>
            <trkpt lat="42.812550" lon="-72.011660">
                <time>2026-05-05T16:51:03Z</time>
            </trkpt>
            <trkpt lat="42.812460" lon="-72.011800">
                <time>2026-05-05T16:51:04Z</time>
            </trkpt>
            <trkpt lat="42.812360" lon="-72.011930">
                <time>2026-05-05T16:51:05Z</time>
            </trkpt>
            <trkpt lat="42.812260" lon="-72.012060">
                <time>2026-05-05T16:51:06Z</time>
            </trkpt>
            <trkpt lat="42.812170" lon="-72.012180">
                <time>2026-05-05T16:51:07Z</time>
            </trkpt>
            <trkpt lat="42.812080" lon="-72.012300">
                <time>2026-05-05T16:51:08Z</time>
            </trkpt>
            <trkpt lat="42.811990" lon="-72.012410">
                <time>2026-05-05T16:51:09Z</time>
            </trkpt>
            <trkpt lat="42.811910" lon="-72.012530">
                <time>2026-05-05T16:51:10Z</time>
            </trkpt>
            <trkpt lat="42.811830" lon="-72.012640">
                <time>2026-05-05T16:51:11Z</time>
            </trkpt>
            <trkpt lat="42.811760" lon="-72.012740">
                <time>2026-05-05T16:51:12Z</time>
            </trkpt>
            <trkpt lat="42.811680" lon="-72.012830">
                <time>2026-05-05T16:51:13Z</time>
            </trkpt>
            <trkpt lat="42.811620" lon="-72.012910">
                <time>2026-05-05T16:51:14Z</time>
            </trkpt>
            <trkpt lat="42.811560" lon="-72.012980">
                <time>2026-05-05T16:51:15Z</time>
            </trkpt>
            <trkpt lat="42.811520" lon="-72.013030">
                <time>2026-05-05T16:51:16Z</time>
            </trkpt>
            <trkpt lat="42.811480" lon="-72.013060">
                <time>2026-05-05T16:51:17Z</time>
            </trkpt>
            <trkpt lat="42.811460" lon="-72.013080">
                <time>2026-05-05T16:51:18Z</time>
            </trkpt>
            <trkpt lat="42.811450" lon="-72.013100">
                <time>2026-05-05T16:51:19Z</time>
            </trkpt>
            <trkpt lat="42.811430" lon="-72.013100">
                <time>2026-05-05T16:51:20Z</time>
            </trkpt>
            <trkpt lat="42.811390" lon="-72.013090">
                <time>2026-05-05T16:51:21Z</time>
            </trkpt>
            <trkpt lat="42.811350" lon="-72.013040">
                <time>2026-05-05T16:51:22Z</time>
            </trkpt>
            <trkpt lat="42.811320" lon="-72.012940">
                <time>2026-05-05T16:51:23Z</time>
            </trkpt>
            <trkpt lat="42.811290" lon="-72.012820">
                <time>2026-05-05T16:51:24Z</time>
            </trkpt>
            <trkpt lat="42.811270" lon="-72.012700">
                <time>2026-05-05T16:51:25Z</time>
            </trkpt>
            <trkpt lat="42.811230" lon="-72.012560">
                <time>2026-05-05T16:51:26Z</time>
            </trkpt>
            <trkpt lat="42.811190" lon="-72.012380">
                <time>2026-05-05T16:51:27Z</time>
            </trkpt>
            <trkpt lat="42.811140" lon="-72.012180">
                <time>2026-05-05T16:51:28Z</time>
            </trkpt>
            <trkpt lat="42.811100" lon="-72.011990">
                <time>2026-05-05T16:51:29Z</time>
            </trkpt>
            <trkpt lat="42.811060" lon="-72.011790">
                <time>2026-05-05T16:51:30Z</time>
            </trkpt>
            <trkpt lat="42.811010" lon="-72.011580">
                <time>2026-05-05T16:51:31Z</time>
            </trkpt>
            <trkpt lat="42.810960" lon="-72.011360">
                <time>2026-05-05T16:51:32Z</time>
            </trkpt>
            <trkpt lat="42.810900" lon="-72.011150">
                <time>2026-05-05T16:51:33Z</time>
            </trkpt>
            <trkpt lat="42.810850" lon="-72.010930">
                <time>2026-05-05T16:51:34Z</time>
            </trkpt>
            <trkpt lat="42.810800" lon="-72.010710">
                <time>2026-05-05T16:51:35Z</time>
            </trkpt>
            <trkpt lat="42.810740" lon="-72.010490">
                <time>2026-05-05T16:51:36Z</time>
            </trkpt>
            <trkpt lat="42.810690" lon="-72.010260">
                <time>2026-05-05T16:51:37Z</time>
            </trkpt>
            <trkpt lat="42.810630" lon="-72.010020">
                <time>2026-05-05T16:51:38Z</time>
            </trkpt>
            <trkpt lat="42.810570" lon="-72.009780">
                <time>2026-05-05T16:51:39Z</time>
            </trkpt>
            <trkpt lat="42.810520" lon="-72.009550">
                <time>2026-05-05T16:51:40Z</time>
            </trkpt>
            <trkpt lat="42.810470" lon="-72.009320">
                <time>2026-05-05T16:51:41Z</time>
            </trkpt>
            <trkpt lat="42.810420" lon="-72.009100">
                <time>2026-05-05T16:51:42Z</time>
            </trkpt>
            <trkpt lat="42.810380" lon="-72.008880">
                <time>2026-05-05T16:51:43Z</time>
            </trkpt>
            <trkpt lat="42.810330" lon="-72.008670">
                <time>2026-05-05T16:51:44Z</time>
            </trkpt>
            <trkpt lat="42.810290" lon="-72.008480">
                <time>2026-05-05T16:51:45Z</time>
            </trkpt>
            <trkpt lat="42.810260" lon="-72.008290">
                <time>2026-05-05T16:51:46Z</time>
            </trkpt>
            <trkpt lat="42.810230" lon="-72.008140">
                <time>2026-05-05T16:51:47Z</time>
            </trkpt>
            <trkpt lat="42.810200" lon="-72.008020">
                <time>2026-05-05T16:51:48Z</time>
            </trkpt>
            <trkpt lat="42.810170" lon="-72.007940">
                <time>2026-05-05T16:51:49Z</time>
            </trkpt>
            <trkpt lat="42.810150" lon="-72.007880">
                <time>2026-05-05T16:51:50Z</time>
            </trkpt>
            <trkpt lat="42.810110" lon="-72.007880">
                <time>2026-05-05T16:51:51Z</time>
            </trkpt>
            <trkpt lat="42.810080" lon="-72.007890">
                <time>2026-05-05T16:51:52Z</time>
            </trkpt>
            <trkpt lat="42.810050" lon="-72.007940">
                <time>2026-05-05T16:51:53Z</time>
            </trkpt>
            <trkpt lat="42.810020" lon="-72.008000">
                <time>2026-05-05T16:51:54Z</time>
            </trkpt>
            <trkpt lat="42.809990" lon="-72.008040">
                <time>2026-05-05T16:51:55Z</time>
            </trkpt>
            <trkpt lat="42.809940" lon="-72.008060">
                <time>2026-05-05T16:51:56Z</time>
            </trkpt>
            <trkpt lat="42.809900" lon="-72.008040">
                <time>2026-05-05T16:51:57Z</time>
            </trkpt>
            <trkpt lat="42.809860" lon="-72.008010">
                <time>2026-05-05T16:51:58Z</time>
            </trkpt>
            <trkpt lat="42.809850" lon="-72.007950">
                <time>2026-05-05T16:51:59Z</time>
            </trkpt>
            <trkpt lat="42.809830" lon="-72.007880">
                <time>2026-05-05T16:52:00Z</time>
            </trkpt>
            <trkpt lat="42.809820" lon="-72.007800">
                <time>2026-05-05T16:52:01Z</time>
            </trkpt>
            <trkpt lat="42.809800" lon="-72.007730">
                <time>2026-05-05T16:52:02Z</time>
            </trkpt>
            <trkpt lat="42.809790" lon="-72.007670">
                <time>2026-05-05T16:52:03Z</time>
            </trkpt>
            <trkpt lat="42.809780" lon="-72.007600">
                <time>2026-05-05T16:52:04Z</time>
            </trkpt>
            <trkpt lat="42.809770" lon="-72.007540">
                <time>2026-05-05T16:52:05Z</time>
            </trkpt>
            <trkpt lat="42.809750" lon="-72.007480">
                <time>2026-05-05T16:52:06Z</time>
            </trkpt>
            <trkpt lat="42.809740" lon="-72.007420">
                <time>2026-05-05T16:52:07Z</time>
            </trkpt>
            <trkpt lat="42.809730" lon="-72.007360">
                <time>2026-05-05T16:52:08Z</time>
            </trkpt>
            <trkpt lat="42.809760" lon="-72.007310">
                <time>2026-05-05T16:52:09Z</time>
            </trkpt>
            <trkpt lat="42.809780" lon="-72.007280">
                <time>2026-05-05T16:52:10Z</time>
            </trkpt>
            <trkpt lat="42.809810" lon="-72.007260">
                <time>2026-05-05T16:52:11Z</time>
            </trkpt>
            <trkpt lat="42.809820" lon="-72.007250">
                <time>2026-05-05T16:52:12Z</time>
            </trkpt>
            <trkpt lat="42.809820" lon="-72.007250">
                <time>2026-05-05T16:52:13Z</time>
            </trkpt>
            <trkpt lat="42.809820" lon="-72.007250">
                <time>2026-05-05T16:52:14Z</time>
            </trkpt>
            <trkpt lat="42.809820" lon="-72.007250">
                <time>2026-05-05T16:52:15Z</time>
            </trkpt>
            <trkpt lat="42.809820" lon="-72.007250">
                <time>2026-05-05T16:52:16Z</time>
            </trkpt>
            <trkpt lat="42.809830" lon="-72.007250">
                <time>2026-05-05T16:52:17Z</time>
            </trkpt>
            <trkpt lat="42.809830" lon="-72.007250">
                <time>2026-05-05T16:52:18Z</time>
            </trkpt>
            <trkpt lat="42.809830" lon="-72.007250">
                <time>2026-05-05T16:52:19Z</time>
            </trkpt>
            <trkpt lat="42.809830" lon="-72.007260">
                <time>2026-05-05T16:52:20Z</time>
            </trkpt>
        </trkseg>
    </trk>
</gpx>
